<?xml version="1.0" encoding="UTF-8" standalone="no" ?>
<gpx xmlns="http://www.topografix.com/GPX/1/1" xmlns:xsi="http://www.w3.org/2001/XMLSchema-instance" xsi:schemaLocation="http://www.topografix.com/GPX/1/1 http://www.topografix.com/GPX/1/1/gpx.xsd" version="1.1" creator="VisuGPX - https://www.visugpx.com">
  <metadata>
    <name>2011-03-11 Aurec - La Chapelle d\'Aurec</name>
    <desc><![CDATA[Petit circuit d\'entrainement]]></desc>
  </metadata>
  <trk>
    <name><![CDATA[La chapelle dAurec]]></name>
    <trkseg>
      <trkpt lat="45.36113" lon="4.20599">
        <ele>488</ele>
        <time>2011-03-11T14:15:07.990Z</time>
      </trkpt>
      <trkpt lat="45.36113" lon="4.20598">
        <ele>533.333312988</ele>
        <time>2011-03-11T14:15:09.991Z</time>
      </trkpt>
      <trkpt lat="45.36113" lon="4.20597">
        <ele>533.333312988</ele>
        <time>2011-03-11T14:15:13.010Z</time>
      </trkpt>
      <trkpt lat="45.36113" lon="4.20597">
        <ele>533.333312988</ele>
        <time>2011-03-11T14:15:16.973Z</time>
      </trkpt>
      <trkpt lat="45.36113" lon="4.20597">
        <ele>533.333312988</ele>
        <time>2011-03-11T14:15:19.970Z</time>
      </trkpt>
      <trkpt lat="45.36113" lon="4.20596">
        <ele>533.333312988</ele>
        <time>2011-03-11T14:15:21.105Z</time>
      </trkpt>
      <trkpt lat="45.36111" lon="4.20595">
        <ele>535.277770996</ele>
        <time>2011-03-11T14:15:24.970Z</time>
      </trkpt>
      <trkpt lat="45.36112" lon="4.20596">
        <ele>535.276184082</ele>
        <time>2011-03-11T14:15:27.985Z</time>
      </trkpt>
      <trkpt lat="45.36112" lon="4.20596">
        <ele>535.295996094</ele>
        <time>2011-03-11T14:15:31.977Z</time>
      </trkpt>
      <trkpt lat="45.36112" lon="4.20596">
        <ele>535.307141985</ele>
        <time>2011-03-11T14:15:35.001Z</time>
      </trkpt>
      <trkpt lat="45.36111" lon="4.20596">
        <ele>535.310344828</ele>
        <time>2011-03-11T14:15:36.252Z</time>
      </trkpt>
      <trkpt lat="45.36106" lon="4.20594">
        <ele>535.459999593</ele>
        <time>2011-03-11T14:15:38.091Z</time>
      </trkpt>
      <trkpt lat="45.36101" lon="4.20594">
        <ele>535.386667887</ele>
        <time>2011-03-11T14:15:40.975Z</time>
      </trkpt>
      <trkpt lat="45.36099" lon="4.20593">
        <ele>535.322582614</ele>
        <time>2011-03-11T14:15:41.971Z</time>
      </trkpt>
      <trkpt lat="45.36096" lon="4.20591">
        <ele>535.219356414</ele>
        <time>2011-03-11T14:15:42.976Z</time>
      </trkpt>
      <trkpt lat="45.36094" lon="4.2059">
        <ele>535.010001628</ele>
        <time>2011-03-11T14:15:43.982Z</time>
      </trkpt>
      <trkpt lat="45.36088" lon="4.20585">
        <ele>534.686669922</ele>
        <time>2011-03-11T14:15:45.978Z</time>
      </trkpt>
      <trkpt lat="45.36085" lon="4.20585">
        <ele>534.360003662</ele>
        <time>2011-03-11T14:15:47.992Z</time>
      </trkpt>
      <trkpt lat="45.36082" lon="4.20582">
        <ele>534.296778525</ele>
        <time>2011-03-11T14:15:48.981Z</time>
      </trkpt>
      <trkpt lat="45.36031" lon="4.20516">
        <ele>534.296778525</ele>
        <time>2011-03-11T14:16:18.980Z</time>
      </trkpt>
      <trkpt lat="45.36027" lon="4.20512">
        <ele>534.296778525</ele>
        <time>2011-03-11T14:16:19.980Z</time>
      </trkpt>
      <trkpt lat="45.36028" lon="4.20509">
        <ele>534.296778525</ele>
        <time>2011-03-11T14:16:20.994Z</time>
      </trkpt>
      <trkpt lat="45.36028" lon="4.2051">
        <ele>534.296778525</ele>
        <time>2011-03-11T14:16:21.980Z</time>
      </trkpt>
      <trkpt lat="45.36021" lon="4.20491">
        <ele>534.296778525</ele>
        <time>2011-03-11T14:16:28.013Z</time>
      </trkpt>
      <trkpt lat="45.36022" lon="4.20486">
        <ele>534.296778525</ele>
        <time>2011-03-11T14:16:29.982Z</time>
      </trkpt>
      <trkpt lat="45.3602" lon="4.20483">
        <ele>534.296778525</ele>
        <time>2011-03-11T14:16:30.982Z</time>
      </trkpt>
      <trkpt lat="45.36019" lon="4.2048">
        <ele>534.296778525</ele>
        <time>2011-03-11T14:16:31.993Z</time>
      </trkpt>
      <trkpt lat="45.36019" lon="4.20473">
        <ele>542.816665649</ele>
        <time>2011-03-11T14:16:33.988Z</time>
      </trkpt>
      <trkpt lat="45.36019" lon="4.20469">
        <ele>542.892305814</ele>
        <time>2011-03-11T14:16:34.984Z</time>
      </trkpt>
      <trkpt lat="45.3602" lon="4.20467">
        <ele>542.985713414</ele>
        <time>2011-03-11T14:16:35.984Z</time>
      </trkpt>
      <trkpt lat="45.36022" lon="4.20464">
        <ele>543.166666667</ele>
        <time>2011-03-11T14:16:36.984Z</time>
      </trkpt>
      <trkpt lat="45.36022" lon="4.2046">
        <ele>543.268749237</ele>
        <time>2011-03-11T14:16:37.984Z</time>
      </trkpt>
      <trkpt lat="45.36023" lon="4.20459">
        <ele>543.376468434</ele>
        <time>2011-03-11T14:16:39.004Z</time>
      </trkpt>
      <trkpt lat="45.36025" lon="4.20457">
        <ele>543.483330621</ele>
        <time>2011-03-11T14:16:40.023Z</time>
      </trkpt>
      <trkpt lat="45.36022" lon="4.20451">
        <ele>543.605259946</ele>
        <time>2011-03-11T14:16:40.987Z</time>
      </trkpt>
      <trkpt lat="45.36023" lon="4.20447">
        <ele>543.699996948</ele>
        <time>2011-03-11T14:16:41.985Z</time>
      </trkpt>
      <trkpt lat="45.36025" lon="4.20445">
        <ele>543.79523577</ele>
        <time>2011-03-11T14:16:42.984Z</time>
      </trkpt>
      <trkpt lat="45.36024" lon="4.20442">
        <ele>543.90454379</ele>
        <time>2011-03-11T14:16:44.024Z</time>
      </trkpt>
      <trkpt lat="45.36023" lon="4.20441">
        <ele>544.078260339</ele>
        <time>2011-03-11T14:16:44.989Z</time>
      </trkpt>
      <trkpt lat="45.36022" lon="4.20436">
        <ele>544.615384615</ele>
        <time>2011-03-11T14:16:47.990Z</time>
      </trkpt>
      <trkpt lat="45.36022" lon="4.20432">
        <ele>544.946155255</ele>
        <time>2011-03-11T14:16:49.005Z</time>
      </trkpt>
      <trkpt lat="45.36023" lon="4.20428">
        <ele>545.250002348</ele>
        <time>2011-03-11T14:16:49.985Z</time>
      </trkpt>
      <trkpt lat="45.36021" lon="4.20425">
        <ele>545.355556912</ele>
        <time>2011-03-11T14:16:50.985Z</time>
      </trkpt>
      <trkpt lat="45.3602" lon="4.20419">
        <ele>545.869232178</ele>
        <time>2011-03-11T14:16:51.990Z</time>
      </trkpt>
      <trkpt lat="45.36022" lon="4.20416">
        <ele>545.959260163</ele>
        <time>2011-03-11T14:16:52.989Z</time>
      </trkpt>
      <trkpt lat="45.36022" lon="4.20412">
        <ele>546.211111563</ele>
        <time>2011-03-11T14:16:53.990Z</time>
      </trkpt>
      <trkpt lat="45.36022" lon="4.2041">
        <ele>546.289287022</ele>
        <time>2011-03-11T14:16:54.999Z</time>
      </trkpt>
      <trkpt lat="45.36024" lon="4.20408">
        <ele>546.33448318</ele>
        <time>2011-03-11T14:16:55.986Z</time>
      </trkpt>
      <trkpt lat="45.36023" lon="4.20405">
        <ele>546.403334554</ele>
        <time>2011-03-11T14:16:56.986Z</time>
      </trkpt>
      <trkpt lat="45.36022" lon="4.20399">
        <ele>546.696669515</ele>
        <time>2011-03-11T14:16:59.273Z</time>
      </trkpt>
      <trkpt lat="45.36023" lon="4.20398">
        <ele>546.890002441</ele>
        <time>2011-03-11T14:16:59.987Z</time>
      </trkpt>
      <trkpt lat="45.36024" lon="4.20394">
        <ele>547.123335775</ele>
        <time>2011-03-11T14:17:01.007Z</time>
      </trkpt>
      <trkpt lat="45.36025" lon="4.20392">
        <ele>547.261293473</ele>
        <time>2011-03-11T14:17:01.986Z</time>
      </trkpt>
      <trkpt lat="45.36025" lon="4.20389">
        <ele>547.51613297</ele>
        <time>2011-03-11T14:17:02.986Z</time>
      </trkpt>
      <trkpt lat="45.36028" lon="4.20381">
        <ele>548.433337402</ele>
        <time>2011-03-11T14:17:06.430Z</time>
      </trkpt>
      <trkpt lat="45.3603" lon="4.20379">
        <ele>548.656671143</ele>
        <time>2011-03-11T14:17:06.990Z</time>
      </trkpt>
      <trkpt lat="45.36032" lon="4.2037">
        <ele>549.393341064</ele>
        <time>2011-03-11T14:17:10.342Z</time>
      </trkpt>
      <trkpt lat="45.36033" lon="4.20367">
        <ele>549.670007324</ele>
        <time>2011-03-11T14:17:11.020Z</time>
      </trkpt>
      <trkpt lat="45.36034" lon="4.20361">
        <ele>550.186671956</ele>
        <time>2011-03-11T14:17:12.985Z</time>
      </trkpt>
      <trkpt lat="45.36037" lon="4.20352">
        <ele>550.780004883</ele>
        <time>2011-03-11T14:17:15.993Z</time>
      </trkpt>
      <trkpt lat="45.36041" lon="4.20343">
        <ele>551.132261215</ele>
        <time>2011-03-11T14:17:18.988Z</time>
      </trkpt>
      <trkpt lat="45.36043" lon="4.20336">
        <ele>551.606669108</ele>
        <time>2011-03-11T14:17:21.993Z</time>
      </trkpt>
      <trkpt lat="45.36044" lon="4.2033">
        <ele>551.800001575</ele>
        <time>2011-03-11T14:17:23.989Z</time>
      </trkpt>
      <trkpt lat="45.36045" lon="4.20329">
        <ele>551.945162865</ele>
        <time>2011-03-11T14:17:24.988Z</time>
      </trkpt>
      <trkpt lat="45.36046" lon="4.20323">
        <ele>552.483335368</ele>
        <time>2011-03-11T14:17:27.001Z</time>
      </trkpt>
      <trkpt lat="45.36049" lon="4.20315">
        <ele>553.066668701</ele>
        <time>2011-03-11T14:17:30.371Z</time>
      </trkpt>
      <trkpt lat="45.3605" lon="4.2031">
        <ele>553.37333374</ele>
        <time>2011-03-11T14:17:31.989Z</time>
      </trkpt>
      <trkpt lat="45.36051" lon="4.20307">
        <ele>553.493332926</ele>
        <time>2011-03-11T14:17:32.989Z</time>
      </trkpt>
      <trkpt lat="45.36052" lon="4.20301">
        <ele>553.75</ele>
        <time>2011-03-11T14:17:34.995Z</time>
      </trkpt>
      <trkpt lat="45.36052" lon="4.20299">
        <ele>553.832257671</ele>
        <time>2011-03-11T14:17:36.010Z</time>
      </trkpt>
      <trkpt lat="45.36053" lon="4.20294">
        <ele>554.158063335</ele>
        <time>2011-03-11T14:17:37.996Z</time>
      </trkpt>
      <trkpt lat="45.36054" lon="4.20289">
        <ele>554.561287172</ele>
        <time>2011-03-11T14:17:39.990Z</time>
      </trkpt>
      <trkpt lat="45.36055" lon="4.20287">
        <ele>554.754835559</ele>
        <time>2011-03-11T14:17:40.995Z</time>
      </trkpt>
      <trkpt lat="45.36058" lon="4.20275">
        <ele>555.656665039</ele>
        <time>2011-03-11T14:17:45.014Z</time>
      </trkpt>
      <trkpt lat="45.3606" lon="4.20272">
        <ele>555.845159715</ele>
        <time>2011-03-11T14:17:45.991Z</time>
      </trkpt>
      <trkpt lat="45.36062" lon="4.20264">
        <ele>556.843332926</ele>
        <time>2011-03-11T14:17:49.004Z</time>
      </trkpt>
      <trkpt lat="45.36062" lon="4.20261">
        <ele>557.019354051</ele>
        <time>2011-03-11T14:17:49.991Z</time>
      </trkpt>
      <trkpt lat="45.36063" lon="4.20257">
        <ele>557.338707709</ele>
        <time>2011-03-11T14:17:50.991Z</time>
      </trkpt>
      <trkpt lat="45.36062" lon="4.20253">
        <ele>557.806665039</ele>
        <time>2011-03-11T14:17:52.001Z</time>
      </trkpt>
      <trkpt lat="45.36062" lon="4.20251">
        <ele>558.129998779</ele>
        <time>2011-03-11T14:17:52.997Z</time>
      </trkpt>
      <trkpt lat="45.36062" lon="4.20249">
        <ele>558.506667074</ele>
        <time>2011-03-11T14:17:53.991Z</time>
      </trkpt>
      <trkpt lat="45.36064" lon="4.20246">
        <ele>558.866666667</ele>
        <time>2011-03-11T14:17:54.992Z</time>
      </trkpt>
      <trkpt lat="45.36066" lon="4.20243">
        <ele>559.146665446</ele>
        <time>2011-03-11T14:17:56.021Z</time>
      </trkpt>
      <trkpt lat="45.36068" lon="4.2024">
        <ele>559.261289535</ele>
        <time>2011-03-11T14:17:56.993Z</time>
      </trkpt>
      <trkpt lat="45.36069" lon="4.20237">
        <ele>559.683331299</ele>
        <time>2011-03-11T14:17:58.026Z</time>
      </trkpt>
      <trkpt lat="45.3607" lon="4.20234">
        <ele>559.949997965</ele>
        <time>2011-03-11T14:17:59.002Z</time>
      </trkpt>
      <trkpt lat="45.36074" lon="4.20224">
        <ele>561.019997152</ele>
        <time>2011-03-11T14:18:02.993Z</time>
      </trkpt>
      <trkpt lat="45.36075" lon="4.20221">
        <ele>561.286663818</ele>
        <time>2011-03-11T14:18:03.998Z</time>
      </trkpt>
      <trkpt lat="45.36075" lon="4.20216">
        <ele>561.261287566</ele>
        <time>2011-03-11T14:18:04.994Z</time>
      </trkpt>
      <trkpt lat="45.36075" lon="4.20213">
        <ele>561.383869786</ele>
        <time>2011-03-11T14:18:05.993Z</time>
      </trkpt>
      <trkpt lat="45.36076" lon="4.20211">
        <ele>561.551612116</ele>
        <time>2011-03-11T14:18:06.993Z</time>
      </trkpt>
      <trkpt lat="45.36077" lon="4.20205">
        <ele>561.936663818</ele>
        <time>2011-03-11T14:18:08.994Z</time>
      </trkpt>
      <trkpt lat="45.36078" lon="4.20199">
        <ele>562.041933121</ele>
        <time>2011-03-11T14:18:10.995Z</time>
      </trkpt>
      <trkpt lat="45.36077" lon="4.20197">
        <ele>562.239998372</ele>
        <time>2011-03-11T14:18:12.022Z</time>
      </trkpt>
      <trkpt lat="45.36077" lon="4.20195">
        <ele>562.248385522</ele>
        <time>2011-03-11T14:18:12.994Z</time>
      </trkpt>
      <trkpt lat="45.36074" lon="4.20187">
        <ele>562.593330892</ele>
        <time>2011-03-11T14:18:15.998Z</time>
      </trkpt>
      <trkpt lat="45.36073" lon="4.20186">
        <ele>562.735481508</ele>
        <time>2011-03-11T14:18:16.997Z</time>
      </trkpt>
      <trkpt lat="45.36071" lon="4.20185">
        <ele>562.948383947</ele>
        <time>2011-03-11T14:18:17.994Z</time>
      </trkpt>
      <trkpt lat="45.36071" lon="4.20182">
        <ele>563.17096341</ele>
        <time>2011-03-11T14:18:18.995Z</time>
      </trkpt>
      <trkpt lat="45.36071" lon="4.20179">
        <ele>563.439996338</ele>
        <time>2011-03-11T14:18:20.005Z</time>
      </trkpt>
      <trkpt lat="45.3607" lon="4.20177">
        <ele>563.693330892</ele>
        <time>2011-03-11T14:18:21.000Z</time>
      </trkpt>
      <trkpt lat="45.36069" lon="4.20175">
        <ele>563.983331299</ele>
        <time>2011-03-11T14:18:22.013Z</time>
      </trkpt>
      <trkpt lat="45.36069" lon="4.20173">
        <ele>564.276664225</ele>
        <time>2011-03-11T14:18:23.000Z</time>
      </trkpt>
      <trkpt lat="45.36067" lon="4.20169">
        <ele>564.733329264</ele>
        <time>2011-03-11T14:18:25.000Z</time>
      </trkpt>
      <trkpt lat="45.36065" lon="4.20167">
        <ele>565.346663411</ele>
        <time>2011-03-11T14:18:27.001Z</time>
      </trkpt>
      <trkpt lat="45.36062" lon="4.20162">
        <ele>566.254837528</ele>
        <time>2011-03-11T14:18:30.000Z</time>
      </trkpt>
      <trkpt lat="45.36061" lon="4.20161">
        <ele>566.62580527</ele>
        <time>2011-03-11T14:18:31.015Z</time>
      </trkpt>
      <trkpt lat="45.36058" lon="4.20157">
        <ele>567.638709284</ele>
        <time>2011-03-11T14:18:33.996Z</time>
      </trkpt>
      <trkpt lat="45.36058" lon="4.20153">
        <ele>568.259999593</ele>
        <time>2011-03-11T14:18:34.997Z</time>
      </trkpt>
      <trkpt lat="45.36054" lon="4.20152">
        <ele>568.819999186</ele>
        <time>2011-03-11T14:18:36.001Z</time>
      </trkpt>
      <trkpt lat="45.36054" lon="4.20149">
        <ele>569.296665446</ele>
        <time>2011-03-11T14:18:37.017Z</time>
      </trkpt>
      <trkpt lat="45.36052" lon="4.20148">
        <ele>569.506450038</ele>
        <time>2011-03-11T14:18:37.997Z</time>
      </trkpt>
      <trkpt lat="45.36051" lon="4.20146">
        <ele>570.230000814</ele>
        <time>2011-03-11T14:18:38.998Z</time>
      </trkpt>
      <trkpt lat="45.36051" lon="4.20147">
        <ele>570.690002441</ele>
        <time>2011-03-11T14:18:40.001Z</time>
      </trkpt>
      <trkpt lat="45.3605" lon="4.20145">
        <ele>571.130002848</ele>
        <time>2011-03-11T14:18:40.996Z</time>
      </trkpt>
      <trkpt lat="45.36052" lon="4.20143">
        <ele>571.270970498</ele>
        <time>2011-03-11T14:18:42.001Z</time>
      </trkpt>
      <trkpt lat="45.36051" lon="4.20145">
        <ele>572.030002848</ele>
        <time>2011-03-11T14:18:43.009Z</time>
      </trkpt>
      <trkpt lat="45.36047" lon="4.2014">
        <ele>572.940002441</ele>
        <time>2011-03-11T14:18:45.330Z</time>
      </trkpt>
      <trkpt lat="45.36045" lon="4.20139">
        <ele>573.064518098</ele>
        <time>2011-03-11T14:18:45.996Z</time>
      </trkpt>
      <trkpt lat="45.36044" lon="4.20139">
        <ele>573.680002848</ele>
        <time>2011-03-11T14:18:47.042Z</time>
      </trkpt>
      <trkpt lat="45.36041" lon="4.20136">
        <ele>573.996669515</ele>
        <time>2011-03-11T14:18:47.997Z</time>
      </trkpt>
      <trkpt lat="45.36038" lon="4.20136">
        <ele>574.316670736</ele>
        <time>2011-03-11T14:18:48.997Z</time>
      </trkpt>
      <trkpt lat="45.36037" lon="4.20135">
        <ele>574.470970892</ele>
        <time>2011-03-11T14:18:49.997Z</time>
      </trkpt>
      <trkpt lat="45.36036" lon="4.20134">
        <ele>574.787099531</ele>
        <time>2011-03-11T14:18:50.997Z</time>
      </trkpt>
      <trkpt lat="45.36033" lon="4.20133">
        <ele>575.496669515</ele>
        <time>2011-03-11T14:18:53.004Z</time>
      </trkpt>
      <trkpt lat="45.36031" lon="4.20135">
        <ele>575.658067273</ele>
        <time>2011-03-11T14:18:54.003Z</time>
      </trkpt>
      <trkpt lat="45.36029" lon="4.20137">
        <ele>576.453338623</ele>
        <time>2011-03-11T14:18:56.011Z</time>
      </trkpt>
      <trkpt lat="45.36027" lon="4.20136">
        <ele>576.746671549</ele>
        <time>2011-03-11T14:18:57.006Z</time>
      </trkpt>
      <trkpt lat="45.36024" lon="4.20136">
        <ele>576.877423686</ele>
        <time>2011-03-11T14:18:58.000Z</time>
      </trkpt>
      <trkpt lat="45.36024" lon="4.20132">
        <ele>577.316670736</ele>
        <time>2011-03-11T14:18:59.004Z</time>
      </trkpt>
      <trkpt lat="45.36021" lon="4.20132">
        <ele>577.770970498</ele>
        <time>2011-03-11T14:19:00.999Z</time>
      </trkpt>
      <trkpt lat="45.36019" lon="4.20132">
        <ele>577.945162865</ele>
        <time>2011-03-11T14:19:02.000Z</time>
      </trkpt>
      <trkpt lat="45.36017" lon="4.2013">
        <ele>578.270003255</ele>
        <time>2011-03-11T14:19:03.017Z</time>
      </trkpt>
      <trkpt lat="45.36015" lon="4.20128">
        <ele>578.476668294</ele>
        <time>2011-03-11T14:19:04.010Z</time>
      </trkpt>
      <trkpt lat="45.36013" lon="4.20127">
        <ele>578.67333374</ele>
        <time>2011-03-11T14:19:05.011Z</time>
      </trkpt>
      <trkpt lat="45.36012" lon="4.20126">
        <ele>578.84666748</ele>
        <time>2011-03-11T14:19:06.042Z</time>
      </trkpt>
      <trkpt lat="45.3601" lon="4.20123">
        <ele>578.880646736</ele>
        <time>2011-03-11T14:19:07.000Z</time>
      </trkpt>
      <trkpt lat="45.36008" lon="4.20123">
        <ele>579.100002035</ele>
        <time>2011-03-11T14:19:08.000Z</time>
      </trkpt>
      <trkpt lat="45.36007" lon="4.20123">
        <ele>579.230000814</ele>
        <time>2011-03-11T14:19:09.005Z</time>
      </trkpt>
      <trkpt lat="45.36005" lon="4.20123">
        <ele>579.333333333</ele>
        <time>2011-03-11T14:19:10.010Z</time>
      </trkpt>
      <trkpt lat="45.36003" lon="4.20121">
        <ele>579.419999186</ele>
        <time>2011-03-11T14:19:11.034Z</time>
      </trkpt>
      <trkpt lat="45.36" lon="4.20119">
        <ele>579.432258852</ele>
        <time>2011-03-11T14:19:13.005Z</time>
      </trkpt>
      <trkpt lat="45.35994" lon="4.20113">
        <ele>579.60333252</ele>
        <time>2011-03-11T14:19:16.002Z</time>
      </trkpt>
      <trkpt lat="45.35992" lon="4.20115">
        <ele>579.489998372</ele>
        <time>2011-03-11T14:19:18.002Z</time>
      </trkpt>
      <trkpt lat="45.35991" lon="4.20112">
        <ele>579.379996745</ele>
        <time>2011-03-11T14:19:19.031Z</time>
      </trkpt>
      <trkpt lat="45.3599" lon="4.20113">
        <ele>579.093547206</ele>
        <time>2011-03-11T14:19:20.982Z</time>
      </trkpt>
      <trkpt lat="45.35992" lon="4.2011">
        <ele>578.890000407</ele>
        <time>2011-03-11T14:19:22.084Z</time>
      </trkpt>
      <trkpt lat="45.35987" lon="4.20111">
        <ele>578.467741935</ele>
        <time>2011-03-11T14:19:24.003Z</time>
      </trkpt>
      <trkpt lat="45.35985" lon="4.20111">
        <ele>578.203225413</ele>
        <time>2011-03-11T14:19:25.002Z</time>
      </trkpt>
      <trkpt lat="45.35982" lon="4.2011">
        <ele>577.12333374</ele>
        <time>2011-03-11T14:19:28.010Z</time>
      </trkpt>
      <trkpt lat="45.3598" lon="4.20109">
        <ele>576.366668701</ele>
        <time>2011-03-11T14:19:30.001Z</time>
      </trkpt>
      <trkpt lat="45.35977" lon="4.20107">
        <ele>575.966668701</ele>
        <time>2011-03-11T14:19:31.002Z</time>
      </trkpt>
      <trkpt lat="45.35974" lon="4.20103">
        <ele>575.676668294</ele>
        <time>2011-03-11T14:19:32.001Z</time>
      </trkpt>
      <trkpt lat="45.35973" lon="4.20101">
        <ele>575.503226988</ele>
        <time>2011-03-11T14:19:33.004Z</time>
      </trkpt>
      <trkpt lat="45.35971" lon="4.20097">
        <ele>574.963334147</ele>
        <time>2011-03-11T14:19:34.398Z</time>
      </trkpt>
      <trkpt lat="45.3597" lon="4.20099">
        <ele>574.59666748</ele>
        <time>2011-03-11T14:19:35.034Z</time>
      </trkpt>
      <trkpt lat="45.35968" lon="4.20099">
        <ele>574.467741935</ele>
        <time>2011-03-11T14:19:36.004Z</time>
      </trkpt>
      <trkpt lat="45.35967" lon="4.201">
        <ele>573.926664225</ele>
        <time>2011-03-11T14:19:37.004Z</time>
      </trkpt>
      <trkpt lat="45.35964" lon="4.201">
        <ele>573.653330485</ele>
        <time>2011-03-11T14:19:38.011Z</time>
      </trkpt>
      <trkpt lat="45.35963" lon="4.20098">
        <ele>573.379996745</ele>
        <time>2011-03-11T14:19:39.034Z</time>
      </trkpt>
      <trkpt lat="45.35962" lon="4.201">
        <ele>573.136663818</ele>
        <time>2011-03-11T14:19:40.012Z</time>
      </trkpt>
      <trkpt lat="45.35961" lon="4.20093">
        <ele>573.099997244</ele>
        <time>2011-03-11T14:19:41.005Z</time>
      </trkpt>
      <trkpt lat="45.35961" lon="4.20089">
        <ele>572.874190792</ele>
        <time>2011-03-11T14:19:42.009Z</time>
      </trkpt>
      <trkpt lat="45.35959" lon="4.20086">
        <ele>572.416662598</ele>
        <time>2011-03-11T14:19:44.010Z</time>
      </trkpt>
      <trkpt lat="45.35956" lon="4.20083">
        <ele>572.538706133</ele>
        <time>2011-03-11T14:19:45.005Z</time>
      </trkpt>
      <trkpt lat="45.35959" lon="4.20083">
        <ele>572.413330078</ele>
        <time>2011-03-11T14:19:46.005Z</time>
      </trkpt>
      <trkpt lat="45.35961" lon="4.20087">
        <ele>572.429996745</ele>
        <time>2011-03-11T14:19:47.005Z</time>
      </trkpt>
      <trkpt lat="45.35966" lon="4.20089">
        <ele>572.413330078</ele>
        <time>2011-03-11T14:19:48.007Z</time>
      </trkpt>
      <trkpt lat="45.3597" lon="4.20092">
        <ele>572.376664225</ele>
        <time>2011-03-11T14:19:49.051Z</time>
      </trkpt>
      <trkpt lat="45.35974" lon="4.20097">
        <ele>572.387094805</ele>
        <time>2011-03-11T14:19:50.022Z</time>
      </trkpt>
      <trkpt lat="45.3598" lon="4.20105">
        <ele>572.425804877</ele>
        <time>2011-03-11T14:19:52.005Z</time>
      </trkpt>
      <trkpt lat="45.35983" lon="4.20108">
        <ele>572.558062153</ele>
        <time>2011-03-11T14:19:53.004Z</time>
      </trkpt>
      <trkpt lat="45.35983" lon="4.20108">
        <ele>572.719997152</ele>
        <time>2011-03-11T14:19:54.005Z</time>
      </trkpt>
      <trkpt lat="45.35986" lon="4.20109">
        <ele>573.253328451</ele>
        <time>2011-03-11T14:19:56.010Z</time>
      </trkpt>
      <trkpt lat="45.35988" lon="4.2011">
        <ele>574.049993896</ele>
        <time>2011-03-11T14:19:58.190Z</time>
      </trkpt>
      <trkpt lat="45.35988" lon="4.2011">
        <ele>574.312897713</ele>
        <time>2011-03-11T14:19:59.005Z</time>
      </trkpt>
      <trkpt lat="45.35988" lon="4.2011">
        <ele>575.57999471</ele>
        <time>2011-03-11T14:20:02.011Z</time>
      </trkpt>
      <trkpt lat="45.35988" lon="4.20113">
        <ele>575.963328044</ele>
        <time>2011-03-11T14:20:03.005Z</time>
      </trkpt>
      <trkpt lat="45.35988" lon="4.20114">
        <ele>577.076662191</ele>
        <time>2011-03-11T14:20:06.031Z</time>
      </trkpt>
      <trkpt lat="45.35988" lon="4.20115">
        <ele>577.999996062</ele>
        <time>2011-03-11T14:20:09.001Z</time>
      </trkpt>
      <trkpt lat="45.35989" lon="4.20116">
        <ele>578.999995931</ele>
        <time>2011-03-11T14:20:11.022Z</time>
      </trkpt>
      <trkpt lat="45.3599" lon="4.20118">
        <ele>579.803328451</ele>
        <time>2011-03-11T14:20:13.025Z</time>
      </trkpt>
      <trkpt lat="45.3599" lon="4.20119">
        <ele>580.439994303</ele>
        <time>2011-03-11T14:20:15.006Z</time>
      </trkpt>
      <trkpt lat="45.3599" lon="4.20118">
        <ele>581.293328857</ele>
        <time>2011-03-11T14:20:18.194Z</time>
      </trkpt>
      <trkpt lat="45.35991" lon="4.20117">
        <ele>582.716658529</ele>
        <time>2011-03-11T14:20:22.006Z</time>
      </trkpt>
      <trkpt lat="45.35991" lon="4.20117">
        <ele>583.45999349</ele>
        <time>2011-03-11T14:20:25.008Z</time>
      </trkpt>
      <trkpt lat="45.3599" lon="4.20116">
        <ele>583.899994881</ele>
        <time>2011-03-11T14:20:28.023Z</time>
      </trkpt>
      <trkpt lat="45.35989" lon="4.20117">
        <ele>584.596659342</ele>
        <time>2011-03-11T14:20:32.029Z</time>
      </trkpt>
      <trkpt lat="45.35993" lon="4.2012">
        <ele>585.022573163</ele>
        <time>2011-03-11T14:20:34.015Z</time>
      </trkpt>
      <trkpt lat="45.35995" lon="4.20122">
        <ele>585.687090474</ele>
        <time>2011-03-11T14:20:36.010Z</time>
      </trkpt>
      <trkpt lat="45.35995" lon="4.20124">
        <ele>586.045156171</ele>
        <time>2011-03-11T14:20:37.009Z</time>
      </trkpt>
      <trkpt lat="45.35995" lon="4.20123">
        <ele>586.383865849</ele>
        <time>2011-03-11T14:20:38.010Z</time>
      </trkpt>
      <trkpt lat="45.35995" lon="4.20125">
        <ele>586.783329264</ele>
        <time>2011-03-11T14:20:39.344Z</time>
      </trkpt>
      <trkpt lat="45.35997" lon="4.20127">
        <ele>587.076664225</ele>
        <time>2011-03-11T14:20:40.050Z</time>
      </trkpt>
      <trkpt lat="45.35998" lon="4.20129">
        <ele>587.238706527</ele>
        <time>2011-03-11T14:20:41.010Z</time>
      </trkpt>
      <trkpt lat="45.36" lon="4.20131">
        <ele>587.851609753</ele>
        <time>2011-03-11T14:20:43.011Z</time>
      </trkpt>
      <trkpt lat="45.36002" lon="4.20134">
        <ele>588.496663411</ele>
        <time>2011-03-11T14:20:45.018Z</time>
      </trkpt>
      <trkpt lat="45.36002" lon="4.20137">
        <ele>589.049997965</ele>
        <time>2011-03-11T14:20:47.108Z</time>
      </trkpt>
      <trkpt lat="45.36004" lon="4.20139">
        <ele>589.743330892</ele>
        <time>2011-03-11T14:20:49.021Z</time>
      </trkpt>
      <trkpt lat="45.36004" lon="4.2014">
        <ele>589.938706921</ele>
        <time>2011-03-11T14:20:50.011Z</time>
      </trkpt>
      <trkpt lat="45.36005" lon="4.20142">
        <ele>590.896665446</ele>
        <time>2011-03-11T14:20:52.011Z</time>
      </trkpt>
      <trkpt lat="45.36006" lon="4.20142">
        <ele>591.119353264</ele>
        <time>2011-03-11T14:20:53.011Z</time>
      </trkpt>
      <trkpt lat="45.36008" lon="4.20146">
        <ele>592.509997559</ele>
        <time>2011-03-11T14:20:56.012Z</time>
      </trkpt>
      <trkpt lat="45.36009" lon="4.20148">
        <ele>592.899997965</ele>
        <time>2011-03-11T14:20:57.012Z</time>
      </trkpt>
      <trkpt lat="45.36012" lon="4.2015">
        <ele>594.173331706</ele>
        <time>2011-03-11T14:21:00.180Z</time>
      </trkpt>
      <trkpt lat="45.36012" lon="4.20152">
        <ele>594.62666626</ele>
        <time>2011-03-11T14:21:01.042Z</time>
      </trkpt>
      <trkpt lat="45.36013" lon="4.20156">
        <ele>595.180646343</ele>
        <time>2011-03-11T14:21:03.012Z</time>
      </trkpt>
      <trkpt lat="45.36014" lon="4.20157">
        <ele>595.766668701</ele>
        <time>2011-03-11T14:21:04.024Z</time>
      </trkpt>
      <trkpt lat="45.36015" lon="4.20157">
        <ele>596.236667887</ele>
        <time>2011-03-11T14:21:05.023Z</time>
      </trkpt>
      <trkpt lat="45.36015" lon="4.20159">
        <ele>596.683333333</ele>
        <time>2011-03-11T14:21:06.018Z</time>
      </trkpt>
      <trkpt lat="45.36016" lon="4.2016">
        <ele>597.089998372</ele>
        <time>2011-03-11T14:21:07.017Z</time>
      </trkpt>
      <trkpt lat="45.36016" lon="4.20161">
        <ele>597.539998372</ele>
        <time>2011-03-11T14:21:08.013Z</time>
      </trkpt>
      <trkpt lat="45.36017" lon="4.20163">
        <ele>597.829030683</ele>
        <time>2011-03-11T14:21:09.012Z</time>
      </trkpt>
      <trkpt lat="45.36017" lon="4.20164">
        <ele>598.416127851</ele>
        <time>2011-03-11T14:21:10.014Z</time>
      </trkpt>
      <trkpt lat="45.36018" lon="4.20166">
        <ele>599.25333252</ele>
        <time>2011-03-11T14:21:11.029Z</time>
      </trkpt>
      <trkpt lat="45.36019" lon="4.20167">
        <ele>599.90333252</ele>
        <time>2011-03-11T14:21:12.013Z</time>
      </trkpt>
      <trkpt lat="45.3602" lon="4.2017">
        <ele>600.974191973</ele>
        <time>2011-03-11T14:21:14.016Z</time>
      </trkpt>
      <trkpt lat="45.36021" lon="4.20171">
        <ele>602.729998779</ele>
        <time>2011-03-11T14:21:16.019Z</time>
      </trkpt>
      <trkpt lat="45.36022" lon="4.20175">
        <ele>604.729031471</ele>
        <time>2011-03-11T14:21:19.015Z</time>
      </trkpt>
      <trkpt lat="45.36024" lon="4.2018">
        <ele>608.203334554</ele>
        <time>2011-03-11T14:21:23.015Z</time>
      </trkpt>
      <trkpt lat="45.36024" lon="4.20182">
        <ele>609.040002441</ele>
        <time>2011-03-11T14:21:24.015Z</time>
      </trkpt>
      <trkpt lat="45.36025" lon="4.20184">
        <ele>610.786669922</ele>
        <time>2011-03-11T14:21:26.015Z</time>
      </trkpt>
      <trkpt lat="45.36025" lon="4.20187">
        <ele>611.610001628</ele>
        <time>2011-03-11T14:21:27.035Z</time>
      </trkpt>
      <trkpt lat="45.36026" lon="4.20192">
        <ele>613.313334147</ele>
        <time>2011-03-11T14:21:29.032Z</time>
      </trkpt>
      <trkpt lat="45.36028" lon="4.20197">
        <ele>615.746665446</ele>
        <time>2011-03-11T14:21:32.021Z</time>
      </trkpt>
      <trkpt lat="45.36029" lon="4.20198">
        <ele>616.606665039</ele>
        <time>2011-03-11T14:21:33.021Z</time>
      </trkpt>
      <trkpt lat="45.36029" lon="4.202">
        <ele>616.893546812</ele>
        <time>2011-03-11T14:21:34.016Z</time>
      </trkpt>
      <trkpt lat="45.36032" lon="4.20207">
        <ele>619.380000814</ele>
        <time>2011-03-11T14:21:37.044Z</time>
      </trkpt>
      <trkpt lat="45.36036" lon="4.20213">
        <ele>621.006669108</ele>
        <time>2011-03-11T14:21:40.022Z</time>
      </trkpt>
      <trkpt lat="45.36035" lon="4.20214">
        <ele>621.400002035</ele>
        <time>2011-03-11T14:21:41.054Z</time>
      </trkpt>
      <trkpt lat="45.36037" lon="4.20219">
        <ele>622.433337402</ele>
        <time>2011-03-11T14:21:44.021Z</time>
      </trkpt>
      <trkpt lat="45.36039" lon="4.20223">
        <ele>623.067745086</ele>
        <time>2011-03-11T14:21:47.019Z</time>
      </trkpt>
      <trkpt lat="45.36038" lon="4.20225">
        <ele>623.410003662</ele>
        <time>2011-03-11T14:21:48.022Z</time>
      </trkpt>
      <trkpt lat="45.36036" lon="4.20228">
        <ele>623.536669922</ele>
        <time>2011-03-11T14:21:49.018Z</time>
      </trkpt>
      <trkpt lat="45.36035" lon="4.20229">
        <ele>623.670003255</ele>
        <time>2011-03-11T14:21:51.025Z</time>
      </trkpt>
      <trkpt lat="45.36033" lon="4.20229">
        <ele>623.690002441</ele>
        <time>2011-03-11T14:21:52.041Z</time>
      </trkpt>
      <trkpt lat="45.36032" lon="4.20231">
        <ele>623.676668294</ele>
        <time>2011-03-11T14:21:53.028Z</time>
      </trkpt>
      <trkpt lat="45.3603" lon="4.20233">
        <ele>623.566666667</ele>
        <time>2011-03-11T14:21:54.019Z</time>
      </trkpt>
      <trkpt lat="45.36027" lon="4.20236">
        <ele>623.363334147</ele>
        <time>2011-03-11T14:21:55.019Z</time>
      </trkpt>
      <trkpt lat="45.36026" lon="4.20239">
        <ele>623.143332926</ele>
        <time>2011-03-11T14:21:56.024Z</time>
      </trkpt>
      <trkpt lat="45.36026" lon="4.2024">
        <ele>622.916127851</ele>
        <time>2011-03-11T14:21:57.025Z</time>
      </trkpt>
      <trkpt lat="45.36027" lon="4.20242">
        <ele>622.693548387</ele>
        <time>2011-03-11T14:21:58.025Z</time>
      </trkpt>
      <trkpt lat="45.36026" lon="4.20244">
        <ele>621.966666667</ele>
        <time>2011-03-11T14:22:00.154Z</time>
      </trkpt>
      <trkpt lat="45.36028" lon="4.20246">
        <ele>621.75</ele>
        <time>2011-03-11T14:22:01.025Z</time>
      </trkpt>
      <trkpt lat="45.36029" lon="4.20247">
        <ele>621.579998779</ele>
        <time>2011-03-11T14:22:02.025Z</time>
      </trkpt>
      <trkpt lat="45.36029" lon="4.20249">
        <ele>621.532256096</ele>
        <time>2011-03-11T14:22:03.020Z</time>
      </trkpt>
      <trkpt lat="45.3603" lon="4.20252">
        <ele>621.079996745</ele>
        <time>2011-03-11T14:22:05.020Z</time>
      </trkpt>
      <trkpt lat="45.36028" lon="4.20253">
        <ele>621.04515814</ele>
        <time>2011-03-11T14:22:06.020Z</time>
      </trkpt>
      <trkpt lat="45.36027" lon="4.20255">
        <ele>620.549995931</ele>
        <time>2011-03-11T14:22:08.031Z</time>
      </trkpt>
      <trkpt lat="45.36029" lon="4.20254">
        <ele>620.126662191</ele>
        <time>2011-03-11T14:22:10.030Z</time>
      </trkpt>
      <trkpt lat="45.36023" lon="4.20256">
        <ele>619.65666097</ele>
        <time>2011-03-11T14:22:12.024Z</time>
      </trkpt>
      <trkpt lat="45.36021" lon="4.20257">
        <ele>619.483865061</ele>
        <time>2011-03-11T14:22:13.020Z</time>
      </trkpt>
      <trkpt lat="45.3602" lon="4.20259">
        <ele>619.196767499</ele>
        <time>2011-03-11T14:22:14.021Z</time>
      </trkpt>
      <trkpt lat="45.36019" lon="4.20259">
        <ele>618.874186854</ele>
        <time>2011-03-11T14:22:15.036Z</time>
      </trkpt>
      <trkpt lat="45.36018" lon="4.20258">
        <ele>618.373327637</ele>
        <time>2011-03-11T14:22:16.021Z</time>
      </trkpt>
      <trkpt lat="45.36014" lon="4.2026">
        <ele>617.890315886</ele>
        <time>2011-03-11T14:22:18.022Z</time>
      </trkpt>
      <trkpt lat="45.36013" lon="4.20261">
        <ele>617.413326009</ele>
        <time>2011-03-11T14:22:19.021Z</time>
      </trkpt>
      <trkpt lat="45.36012" lon="4.20261">
        <ele>617.274185673</ele>
        <time>2011-03-11T14:22:20.026Z</time>
      </trkpt>
      <trkpt lat="45.3601" lon="4.20263">
        <ele>616.983863092</ele>
        <time>2011-03-11T14:22:21.021Z</time>
      </trkpt>
      <trkpt lat="45.36011" lon="4.20265">
        <ele>616.69676553</ele>
        <time>2011-03-11T14:22:22.021Z</time>
      </trkpt>
      <trkpt lat="45.36011" lon="4.20266">
        <ele>616.393540905</ele>
        <time>2011-03-11T14:22:23.024Z</time>
      </trkpt>
      <trkpt lat="45.36008" lon="4.20268">
        <ele>615.756658936</ele>
        <time>2011-03-11T14:22:25.044Z</time>
      </trkpt>
      <trkpt lat="45.36005" lon="4.20269">
        <ele>615.613326009</ele>
        <time>2011-03-11T14:22:26.026Z</time>
      </trkpt>
      <trkpt lat="45.36002" lon="4.20269">
        <ele>615.551606209</ele>
        <time>2011-03-11T14:22:27.023Z</time>
      </trkpt>
      <trkpt lat="45.36" lon="4.20269">
        <ele>615.5064461</ele>
        <time>2011-03-11T14:22:30.023Z</time>
      </trkpt>
      <trkpt lat="45.35994" lon="4.20273">
        <ele>615.535479146</ele>
        <time>2011-03-11T14:22:32.024Z</time>
      </trkpt>
      <trkpt lat="45.35993" lon="4.20276">
        <ele>615.316662598</ele>
        <time>2011-03-11T14:22:33.024Z</time>
      </trkpt>
      <trkpt lat="45.35993" lon="4.20277">
        <ele>615.383867818</ele>
        <time>2011-03-11T14:22:34.023Z</time>
      </trkpt>
      <trkpt lat="45.35991" lon="4.20279">
        <ele>614.993330892</ele>
        <time>2011-03-11T14:22:36.024Z</time>
      </trkpt>
      <trkpt lat="45.35988" lon="4.20279">
        <ele>614.883331299</ele>
        <time>2011-03-11T14:22:37.028Z</time>
      </trkpt>
      <trkpt lat="45.35988" lon="4.20281">
        <ele>614.906448856</ele>
        <time>2011-03-11T14:22:38.027Z</time>
      </trkpt>
      <trkpt lat="45.35987" lon="4.20282">
        <ele>614.793545631</ele>
        <time>2011-03-11T14:22:39.028Z</time>
      </trkpt>
      <trkpt lat="45.35988" lon="4.20283">
        <ele>614.646663411</ele>
        <time>2011-03-11T14:22:40.393Z</time>
      </trkpt>
      <trkpt lat="45.35985" lon="4.20284">
        <ele>614.626664225</ele>
        <time>2011-03-11T14:22:41.084Z</time>
      </trkpt>
      <trkpt lat="45.35984" lon="4.20285">
        <ele>614.683331299</ele>
        <time>2011-03-11T14:22:44.025Z</time>
      </trkpt>
      <trkpt lat="45.35981" lon="4.20287">
        <ele>614.716666667</ele>
        <time>2011-03-11T14:22:47.045Z</time>
      </trkpt>
      <trkpt lat="45.3598" lon="4.20288">
        <ele>614.69666748</ele>
        <time>2011-03-11T14:22:48.026Z</time>
      </trkpt>
      <trkpt lat="45.35978" lon="4.20289">
        <ele>614.663334147</ele>
        <time>2011-03-11T14:22:49.025Z</time>
      </trkpt>
      <trkpt lat="45.35977" lon="4.20289">
        <ele>614.683335368</ele>
        <time>2011-03-11T14:22:51.030Z</time>
      </trkpt>
      <trkpt lat="45.35975" lon="4.20291">
        <ele>614.759999593</ele>
        <time>2011-03-11T14:22:53.032Z</time>
      </trkpt>
      <trkpt lat="45.35976" lon="4.20294">
        <ele>614.764516523</ele>
        <time>2011-03-11T14:22:54.030Z</time>
      </trkpt>
      <trkpt lat="45.35975" lon="4.20295">
        <ele>614.845161684</ele>
        <time>2011-03-11T14:22:55.027Z</time>
      </trkpt>
      <trkpt lat="45.35974" lon="4.20297">
        <ele>615.053334554</ele>
        <time>2011-03-11T14:22:57.054Z</time>
      </trkpt>
      <trkpt lat="45.35973" lon="4.20298">
        <ele>615.043334961</ele>
        <time>2011-03-11T14:22:58.026Z</time>
      </trkpt>
      <trkpt lat="45.3597" lon="4.203">
        <ele>615.009678994</ele>
        <time>2011-03-11T14:22:59.026Z</time>
      </trkpt>
      <trkpt lat="45.35969" lon="4.203">
        <ele>614.926668294</ele>
        <time>2011-03-11T14:23:00.185Z</time>
      </trkpt>
      <trkpt lat="45.35969" lon="4.20304">
        <ele>614.703334554</ele>
        <time>2011-03-11T14:23:02.031Z</time>
      </trkpt>
      <trkpt lat="45.35968" lon="4.20305">
        <ele>614.493332926</ele>
        <time>2011-03-11T14:23:04.031Z</time>
      </trkpt>
      <trkpt lat="45.35967" lon="4.20307">
        <ele>614.269999186</ele>
        <time>2011-03-11T14:23:07.037Z</time>
      </trkpt>
      <trkpt lat="45.35965" lon="4.20308">
        <ele>614.240000407</ele>
        <time>2011-03-11T14:23:08.071Z</time>
      </trkpt>
      <trkpt lat="45.35959" lon="4.2031">
        <ele>614.203227382</ele>
        <time>2011-03-11T14:23:10.075Z</time>
      </trkpt>
      <trkpt lat="45.35958" lon="4.20312">
        <ele>614.161290323</ele>
        <time>2011-03-11T14:23:11.046Z</time>
      </trkpt>
      <trkpt lat="45.35957" lon="4.20314">
        <ele>614.033331299</ele>
        <time>2011-03-11T14:23:13.031Z</time>
      </trkpt>
      <trkpt lat="45.35952" lon="4.20314">
        <ele>613.929029895</ele>
        <time>2011-03-11T14:23:17.032Z</time>
      </trkpt>
      <trkpt lat="45.35952" lon="4.20315">
        <ele>614.016662598</ele>
        <time>2011-03-11T14:23:18.028Z</time>
      </trkpt>
      <trkpt lat="45.35949" lon="4.20318">
        <ele>614.209997559</ele>
        <time>2011-03-11T14:23:21.036Z</time>
      </trkpt>
      <trkpt lat="45.35947" lon="4.20319">
        <ele>614.289998372</ele>
        <time>2011-03-11T14:23:22.064Z</time>
      </trkpt>
      <trkpt lat="45.35945" lon="4.20322">
        <ele>614.506665039</ele>
        <time>2011-03-11T14:23:25.029Z</time>
      </trkpt>
      <trkpt lat="45.35943" lon="4.20322">
        <ele>614.693548387</ele>
        <time>2011-03-11T14:23:27.029Z</time>
      </trkpt>
      <trkpt lat="45.35942" lon="4.20324">
        <ele>614.840000407</ele>
        <time>2011-03-11T14:23:28.038Z</time>
      </trkpt>
      <trkpt lat="45.35938" lon="4.20325">
        <ele>615.02333374</ele>
        <time>2011-03-11T14:23:29.034Z</time>
      </trkpt>
      <trkpt lat="45.35934" lon="4.20329">
        <ele>615.57666626</ele>
        <time>2011-03-11T14:23:32.035Z</time>
      </trkpt>
      <trkpt lat="45.35931" lon="4.20331">
        <ele>615.893334961</ele>
        <time>2011-03-11T14:23:34.048Z</time>
      </trkpt>
      <trkpt lat="45.3593" lon="4.20332">
        <ele>616.083335368</ele>
        <time>2011-03-11T14:23:35.050Z</time>
      </trkpt>
      <trkpt lat="45.35927" lon="4.20333">
        <ele>616.187098349</ele>
        <time>2011-03-11T14:23:36.031Z</time>
      </trkpt>
      <trkpt lat="45.35924" lon="4.20333">
        <ele>616.529033046</ele>
        <time>2011-03-11T14:23:38.061Z</time>
      </trkpt>
      <trkpt lat="45.35923" lon="4.20335">
        <ele>616.903225806</ele>
        <time>2011-03-11T14:23:40.041Z</time>
      </trkpt>
      <trkpt lat="45.35923" lon="4.20333">
        <ele>617.129032258</ele>
        <time>2011-03-11T14:23:41.041Z</time>
      </trkpt>
      <trkpt lat="45.35922" lon="4.20334">
        <ele>617.425806845</ele>
        <time>2011-03-11T14:23:42.035Z</time>
      </trkpt>
      <trkpt lat="45.35919" lon="4.20336">
        <ele>618.520001221</ele>
        <time>2011-03-11T14:23:45.042Z</time>
      </trkpt>
      <trkpt lat="45.35918" lon="4.20338">
        <ele>618.82333374</ele>
        <time>2011-03-11T14:23:46.036Z</time>
      </trkpt>
      <trkpt lat="45.35919" lon="4.20341">
        <ele>619.333333333</ele>
        <time>2011-03-11T14:23:48.036Z</time>
      </trkpt>
      <trkpt lat="45.35918" lon="4.20342">
        <ele>620.029998779</ele>
        <time>2011-03-11T14:23:51.050Z</time>
      </trkpt>
      <trkpt lat="45.35917" lon="4.20342">
        <ele>620.161288354</ele>
        <time>2011-03-11T14:23:52.031Z</time>
      </trkpt>
      <trkpt lat="45.35911" lon="4.20344">
        <ele>621.019997152</ele>
        <time>2011-03-11T14:23:55.031Z</time>
      </trkpt>
      <trkpt lat="45.35909" lon="4.20344">
        <ele>621.367736816</ele>
        <time>2011-03-11T14:23:58.032Z</time>
      </trkpt>
      <trkpt lat="45.35909" lon="4.20346">
        <ele>621.813328044</ele>
        <time>2011-03-11T14:24:01.037Z</time>
      </trkpt>
      <trkpt lat="45.35904" lon="4.20347">
        <ele>622.203221475</ele>
        <time>2011-03-11T14:24:04.032Z</time>
      </trkpt>
      <trkpt lat="45.35902" lon="4.2035">
        <ele>622.816660563</ele>
        <time>2011-03-11T14:24:07.048Z</time>
      </trkpt>
      <trkpt lat="45.35901" lon="4.20351">
        <ele>622.883865849</ele>
        <time>2011-03-11T14:24:08.034Z</time>
      </trkpt>
      <trkpt lat="45.35899" lon="4.20355">
        <ele>623.476662191</ele>
        <time>2011-03-11T14:24:12.039Z</time>
      </trkpt>
      <trkpt lat="45.35898" lon="4.20356">
        <ele>623.69031943</ele>
        <time>2011-03-11T14:24:14.034Z</time>
      </trkpt>
      <trkpt lat="45.35895" lon="4.20359">
        <ele>623.919997152</ele>
        <time>2011-03-11T14:24:16.048Z</time>
      </trkpt>
      <trkpt lat="45.35896" lon="4.20359">
        <ele>624.049997965</ele>
        <time>2011-03-11T14:24:17.049Z</time>
      </trkpt>
      <trkpt lat="45.35894" lon="4.2036">
        <ele>624.203330485</ele>
        <time>2011-03-11T14:24:18.042Z</time>
      </trkpt>
      <trkpt lat="45.35893" lon="4.20359">
        <ele>624.264512585</ele>
        <time>2011-03-11T14:24:19.035Z</time>
      </trkpt>
      <trkpt lat="45.35892" lon="4.20361">
        <ele>624.354834772</ele>
        <time>2011-03-11T14:24:20.034Z</time>
      </trkpt>
      <trkpt lat="45.35889" lon="4.20362">
        <ele>624.429027927</ele>
        <time>2011-03-11T14:24:21.034Z</time>
      </trkpt>
      <trkpt lat="45.35887" lon="4.20362">
        <ele>624.456663005</ele>
        <time>2011-03-11T14:24:22.054Z</time>
      </trkpt>
      <trkpt lat="45.35886" lon="4.20364">
        <ele>624.44193194</ele>
        <time>2011-03-11T14:24:23.045Z</time>
      </trkpt>
      <trkpt lat="45.35885" lon="4.20365">
        <ele>624.458060972</ele>
        <time>2011-03-11T14:24:24.035Z</time>
      </trkpt>
      <trkpt lat="45.35885" lon="4.20366">
        <ele>624.486663818</ele>
        <time>2011-03-11T14:24:25.035Z</time>
      </trkpt>
      <trkpt lat="45.35884" lon="4.20367">
        <ele>624.496771043</ele>
        <time>2011-03-11T14:24:26.035Z</time>
      </trkpt>
      <trkpt lat="45.35883" lon="4.20368">
        <ele>624.669999186</ele>
        <time>2011-03-11T14:24:27.040Z</time>
      </trkpt>
      <trkpt lat="45.35882" lon="4.2037">
        <ele>624.779998779</ele>
        <time>2011-03-11T14:24:28.040Z</time>
      </trkpt>
      <trkpt lat="45.35881" lon="4.20372">
        <ele>624.863332113</ele>
        <time>2011-03-11T14:24:29.036Z</time>
      </trkpt>
      <trkpt lat="45.3588" lon="4.20373">
        <ele>624.822578676</ele>
        <time>2011-03-11T14:24:30.042Z</time>
      </trkpt>
      <trkpt lat="45.35881" lon="4.20377">
        <ele>624.949995931</ele>
        <time>2011-03-11T14:24:32.041Z</time>
      </trkpt>
      <trkpt lat="45.35878" lon="4.20379">
        <ele>625.146663411</ele>
        <time>2011-03-11T14:24:34.056Z</time>
      </trkpt>
      <trkpt lat="45.35876" lon="4.20382">
        <ele>625.416664632</ele>
        <time>2011-03-11T14:24:36.036Z</time>
      </trkpt>
      <trkpt lat="45.35876" lon="4.20383">
        <ele>625.554837135</ele>
        <time>2011-03-11T14:24:37.037Z</time>
      </trkpt>
      <trkpt lat="45.35879" lon="4.20384">
        <ele>625.836663818</ele>
        <time>2011-03-11T14:24:38.047Z</time>
      </trkpt>
      <trkpt lat="45.35878" lon="4.20387">
        <ele>626.166664632</ele>
        <time>2011-03-11T14:24:39.057Z</time>
      </trkpt>
      <trkpt lat="45.35877" lon="4.20387">
        <ele>626.467739967</ele>
        <time>2011-03-11T14:24:40.037Z</time>
      </trkpt>
      <trkpt lat="45.35875" lon="4.20389">
        <ele>627.219354445</ele>
        <time>2011-03-11T14:24:42.038Z</time>
      </trkpt>
      <trkpt lat="45.35874" lon="4.2039">
        <ele>627.666664632</ele>
        <time>2011-03-11T14:24:43.042Z</time>
      </trkpt>
      <trkpt lat="45.35874" lon="4.20392">
        <ele>628.083331299</ele>
        <time>2011-03-11T14:24:44.044Z</time>
      </trkpt>
      <trkpt lat="45.35874" lon="4.20394">
        <ele>629.003330485</ele>
        <time>2011-03-11T14:24:46.065Z</time>
      </trkpt>
      <trkpt lat="45.35874" lon="4.20396">
        <ele>629.390319824</ele>
        <time>2011-03-11T14:24:47.039Z</time>
      </trkpt>
      <trkpt lat="45.35874" lon="4.20398">
        <ele>630.049997965</ele>
        <time>2011-03-11T14:24:48.049Z</time>
      </trkpt>
      <trkpt lat="45.35874" lon="4.20399">
        <ele>630.613332113</ele>
        <time>2011-03-11T14:24:49.049Z</time>
      </trkpt>
      <trkpt lat="45.35874" lon="4.20403">
        <ele>631.92666626</ele>
        <time>2011-03-11T14:24:51.042Z</time>
      </trkpt>
      <trkpt lat="45.35874" lon="4.20405">
        <ele>632.964514948</ele>
        <time>2011-03-11T14:24:53.040Z</time>
      </trkpt>
      <trkpt lat="45.35874" lon="4.20407">
        <ele>633.906665039</ele>
        <time>2011-03-11T14:24:54.054Z</time>
      </trkpt>
      <trkpt lat="45.35873" lon="4.20409">
        <ele>634.563332113</ele>
        <time>2011-03-11T14:24:55.054Z</time>
      </trkpt>
      <trkpt lat="45.35873" lon="4.20414">
        <ele>636.533331299</ele>
        <time>2011-03-11T14:24:58.043Z</time>
      </trkpt>
      <trkpt lat="45.35872" lon="4.20416">
        <ele>637.203330485</ele>
        <time>2011-03-11T14:24:59.046Z</time>
      </trkpt>
      <trkpt lat="45.35871" lon="4.20416">
        <ele>637.909997559</ele>
        <time>2011-03-11T14:25:00.214Z</time>
      </trkpt>
      <trkpt lat="45.35868" lon="4.20419">
        <ele>638.633331299</ele>
        <time>2011-03-11T14:25:01.044Z</time>
      </trkpt>
      <trkpt lat="45.35867" lon="4.20419">
        <ele>639.263332113</ele>
        <time>2011-03-11T14:25:02.060Z</time>
      </trkpt>
      <trkpt lat="45.35866" lon="4.20421">
        <ele>639.464514948</ele>
        <time>2011-03-11T14:25:03.040Z</time>
      </trkpt>
      <trkpt lat="45.35865" lon="4.20423">
        <ele>640.090322187</ele>
        <time>2011-03-11T14:25:04.051Z</time>
      </trkpt>
      <trkpt lat="45.35864" lon="4.20425">
        <ele>641.1</ele>
        <time>2011-03-11T14:25:05.045Z</time>
      </trkpt>
      <trkpt lat="45.35864" lon="4.20427">
        <ele>641.64666748</ele>
        <time>2011-03-11T14:25:06.056Z</time>
      </trkpt>
      <trkpt lat="45.35866" lon="4.20429">
        <ele>642.233333333</ele>
        <time>2011-03-11T14:25:07.045Z</time>
      </trkpt>
      <trkpt lat="45.35865" lon="4.2043">
        <ele>642.393548781</ele>
        <time>2011-03-11T14:25:08.040Z</time>
      </trkpt>
      <trkpt lat="45.35863" lon="4.20433">
        <ele>643.55333252</ele>
        <time>2011-03-11T14:25:10.045Z</time>
      </trkpt>
      <trkpt lat="45.35861" lon="4.20435">
        <ele>644.306665039</ele>
        <time>2011-03-11T14:25:12.045Z</time>
      </trkpt>
      <trkpt lat="45.35861" lon="4.20437">
        <ele>644.596665446</ele>
        <time>2011-03-11T14:25:13.045Z</time>
      </trkpt>
      <trkpt lat="45.35858" lon="4.20441">
        <ele>645.540000407</ele>
        <time>2011-03-11T14:25:17.042Z</time>
      </trkpt>
      <trkpt lat="45.35857" lon="4.20445">
        <ele>645.970001221</ele>
        <time>2011-03-11T14:25:20.062Z</time>
      </trkpt>
      <trkpt lat="45.35857" lon="4.20447">
        <ele>646.156669108</ele>
        <time>2011-03-11T14:25:21.062Z</time>
      </trkpt>
      <trkpt lat="45.35855" lon="4.20448">
        <ele>646.277422505</ele>
        <time>2011-03-11T14:25:22.052Z</time>
      </trkpt>
      <trkpt lat="45.35855" lon="4.20451">
        <ele>646.700004332</ele>
        <time>2011-03-11T14:25:24.046Z</time>
      </trkpt>
      <trkpt lat="45.35856" lon="4.20451">
        <ele>646.912908739</ele>
        <time>2011-03-11T14:25:25.046Z</time>
      </trkpt>
      <trkpt lat="45.35855" lon="4.20454">
        <ele>647.200006104</ele>
        <time>2011-03-11T14:25:26.074Z</time>
      </trkpt>
      <trkpt lat="45.35855" lon="4.20456">
        <ele>647.363340251</ele>
        <time>2011-03-11T14:25:27.054Z</time>
      </trkpt>
      <trkpt lat="45.35854" lon="4.20459">
        <ele>647.543341064</ele>
        <time>2011-03-11T14:25:28.047Z</time>
      </trkpt>
      <trkpt lat="45.35855" lon="4.20462">
        <ele>647.600007088</ele>
        <time>2011-03-11T14:25:29.044Z</time>
      </trkpt>
      <trkpt lat="45.35854" lon="4.20466">
        <ele>647.716135333</ele>
        <time>2011-03-11T14:25:30.075Z</time>
      </trkpt>
      <trkpt lat="45.35852" lon="4.20467">
        <ele>648.103232107</ele>
        <time>2011-03-11T14:25:32.053Z</time>
      </trkpt>
      <trkpt lat="45.3585" lon="4.20468">
        <ele>648.446673584</ele>
        <time>2011-03-11T14:25:33.047Z</time>
      </trkpt>
      <trkpt lat="45.3585" lon="4.2047">
        <ele>648.587103075</ele>
        <time>2011-03-11T14:25:34.045Z</time>
      </trkpt>
      <trkpt lat="45.3585" lon="4.20471">
        <ele>648.900006104</ele>
        <time>2011-03-11T14:25:35.047Z</time>
      </trkpt>
      <trkpt lat="45.35851" lon="4.20472">
        <ele>649.03548899</ele>
        <time>2011-03-11T14:25:36.049Z</time>
      </trkpt>
      <trkpt lat="45.3585" lon="4.20472">
        <ele>649.296671549</ele>
        <time>2011-03-11T14:25:38.044Z</time>
      </trkpt>
      <trkpt lat="45.3585" lon="4.20473">
        <ele>649.256671143</ele>
        <time>2011-03-11T14:25:39.044Z</time>
      </trkpt>
      <trkpt lat="45.35848" lon="4.20475">
        <ele>649.153338623</ele>
        <time>2011-03-11T14:25:40.054Z</time>
      </trkpt>
      <trkpt lat="45.35846" lon="4.20476">
        <ele>648.929037771</ele>
        <time>2011-03-11T14:25:41.048Z</time>
      </trkpt>
      <trkpt lat="45.35845" lon="4.20478">
        <ele>648.803338623</ele>
        <time>2011-03-11T14:25:42.075Z</time>
      </trkpt>
      <trkpt lat="45.35844" lon="4.2048">
        <ele>648.364521642</ele>
        <time>2011-03-11T14:25:44.045Z</time>
      </trkpt>
      <trkpt lat="45.35843" lon="4.2048">
        <ele>648.15807121</ele>
        <time>2011-03-11T14:25:45.044Z</time>
      </trkpt>
      <trkpt lat="45.35841" lon="4.20484">
        <ele>647.646673584</ele>
        <time>2011-03-11T14:25:47.044Z</time>
      </trkpt>
      <trkpt lat="45.35841" lon="4.20486">
        <ele>647.356673177</ele>
        <time>2011-03-11T14:25:48.056Z</time>
      </trkpt>
      <trkpt lat="45.3584" lon="4.20491">
        <ele>646.551618022</ele>
        <time>2011-03-11T14:25:51.045Z</time>
      </trkpt>
      <trkpt lat="45.35838" lon="4.20496">
        <ele>645.170001221</ele>
        <time>2011-03-11T14:25:54.065Z</time>
      </trkpt>
      <trkpt lat="45.35834" lon="4.20497">
        <ele>644.730000814</ele>
        <time>2011-03-11T14:25:55.050Z</time>
      </trkpt>
      <trkpt lat="45.35833" lon="4.20499">
        <ele>644.490322974</ele>
        <time>2011-03-11T14:25:56.052Z</time>
      </trkpt>
      <trkpt lat="45.35831" lon="4.20501">
        <ele>643.716127457</ele>
        <time>2011-03-11T14:25:58.046Z</time>
      </trkpt>
      <trkpt lat="45.3583" lon="4.20503">
        <ele>643.123331706</ele>
        <time>2011-03-11T14:25:59.061Z</time>
      </trkpt>
      <trkpt lat="45.35829" lon="4.20506">
        <ele>642.612903226</ele>
        <time>2011-03-11T14:26:01.027Z</time>
      </trkpt>
      <trkpt lat="45.35828" lon="4.20509">
        <ele>641.393332926</ele>
        <time>2011-03-11T14:26:03.051Z</time>
      </trkpt>
      <trkpt lat="45.35829" lon="4.20511">
        <ele>640.893332926</ele>
        <time>2011-03-11T14:26:04.056Z</time>
      </trkpt>
      <trkpt lat="45.35829" lon="4.20512">
        <ele>640.390000407</ele>
        <time>2011-03-11T14:26:05.051Z</time>
      </trkpt>
      <trkpt lat="45.35829" lon="4.20514">
        <ele>639.809678601</ele>
        <time>2011-03-11T14:26:07.047Z</time>
      </trkpt>
      <trkpt lat="45.3583" lon="4.20516">
        <ele>639.103334554</ele>
        <time>2011-03-11T14:26:08.076Z</time>
      </trkpt>
      <trkpt lat="45.3583" lon="4.20522">
        <ele>638.453334554</ele>
        <time>2011-03-11T14:26:11.072Z</time>
      </trkpt>
      <trkpt lat="45.35829" lon="4.20525">
        <ele>638.43548584</ele>
        <time>2011-03-11T14:26:12.068Z</time>
      </trkpt>
      <trkpt lat="45.35827" lon="4.20526">
        <ele>638.29032455</ele>
        <time>2011-03-11T14:26:13.047Z</time>
      </trkpt>
      <trkpt lat="45.35826" lon="4.20529">
        <ele>638</ele>
        <time>2011-03-11T14:26:15.056Z</time>
      </trkpt>
      <trkpt lat="45.35826" lon="4.20531">
        <ele>637.993547993</ele>
        <time>2011-03-11T14:26:16.048Z</time>
      </trkpt>
      <trkpt lat="45.35827" lon="4.20533">
        <ele>637.987095987</ele>
        <time>2011-03-11T14:26:19.049Z</time>
      </trkpt>
      <trkpt lat="45.35825" lon="4.20535">
        <ele>637.926664225</ele>
        <time>2011-03-11T14:26:20.058Z</time>
      </trkpt>
      <trkpt lat="45.35825" lon="4.20538">
        <ele>637.977416992</ele>
        <time>2011-03-11T14:26:22.050Z</time>
      </trkpt>
      <trkpt lat="45.35825" lon="4.20542">
        <ele>637.996773012</ele>
        <time>2011-03-11T14:26:23.049Z</time>
      </trkpt>
      <trkpt lat="45.35824" lon="4.20544">
        <ele>638.048385128</ele>
        <time>2011-03-11T14:26:24.059Z</time>
      </trkpt>
      <trkpt lat="45.35823" lon="4.20546">
        <ele>638.163332113</ele>
        <time>2011-03-11T14:26:25.055Z</time>
      </trkpt>
      <trkpt lat="45.35821" lon="4.20546">
        <ele>638.25</ele>
        <time>2011-03-11T14:26:26.056Z</time>
      </trkpt>
      <trkpt lat="45.35819" lon="4.20547">
        <ele>638.313334147</ele>
        <time>2011-03-11T14:26:27.056Z</time>
      </trkpt>
      <trkpt lat="45.35819" lon="4.2055">
        <ele>638.370001221</ele>
        <time>2011-03-11T14:26:28.054Z</time>
      </trkpt>
      <trkpt lat="45.35819" lon="4.20552">
        <ele>638.445162865</ele>
        <time>2011-03-11T14:26:29.054Z</time>
      </trkpt>
      <trkpt lat="45.35819" lon="4.20553">
        <ele>638.51935602</ele>
        <time>2011-03-11T14:26:30.054Z</time>
      </trkpt>
      <trkpt lat="45.35819" lon="4.20555">
        <ele>638.613334147</ele>
        <time>2011-03-11T14:26:31.069Z</time>
      </trkpt>
      <trkpt lat="45.35818" lon="4.20557">
        <ele>638.800002035</ele>
        <time>2011-03-11T14:26:33.054Z</time>
      </trkpt>
      <trkpt lat="45.35817" lon="4.20558">
        <ele>638.873335775</ele>
        <time>2011-03-11T14:26:34.065Z</time>
      </trkpt>
      <trkpt lat="45.35816" lon="4.20559">
        <ele>638.933335368</ele>
        <time>2011-03-11T14:26:35.055Z</time>
      </trkpt>
      <trkpt lat="45.35814" lon="4.20559">
        <ele>638.970968923</ele>
        <time>2011-03-11T14:26:36.061Z</time>
      </trkpt>
      <trkpt lat="45.35813" lon="4.2056">
        <ele>639.086667887</ele>
        <time>2011-03-11T14:26:37.055Z</time>
      </trkpt>
      <trkpt lat="45.35811" lon="4.2056">
        <ele>639.177421324</ele>
        <time>2011-03-11T14:26:38.050Z</time>
      </trkpt>
      <trkpt lat="45.35809" lon="4.20563">
        <ele>639.338711646</ele>
        <time>2011-03-11T14:26:39.052Z</time>
      </trkpt>
      <trkpt lat="45.35807" lon="4.20563">
        <ele>639.696777344</ele>
        <time>2011-03-11T14:26:41.058Z</time>
      </trkpt>
      <trkpt lat="45.35804" lon="4.20566">
        <ele>640.213336182</ele>
        <time>2011-03-11T14:26:44.050Z</time>
      </trkpt>
      <trkpt lat="45.35803" lon="4.20566">
        <ele>640.620003255</ele>
        <time>2011-03-11T14:26:47.065Z</time>
      </trkpt>
      <trkpt lat="45.35802" lon="4.20566">
        <ele>640.983876874</ele>
        <time>2011-03-11T14:26:51.052Z</time>
      </trkpt>
      <trkpt lat="45.35801" lon="4.20567">
        <ele>641.353338623</ele>
        <time>2011-03-11T14:26:54.080Z</time>
      </trkpt>
      <trkpt lat="45.35801" lon="4.20567">
        <ele>641.660001628</ele>
        <time>2011-03-11T14:26:58.061Z</time>
      </trkpt>
      <trkpt lat="45.35796" lon="4.20568">
        <ele>641.783872543</ele>
        <time>2011-03-11T14:27:01.052Z</time>
      </trkpt>
      <trkpt lat="45.3579" lon="4.2057">
        <ele>641.845161684</ele>
        <time>2011-03-11T14:27:02.053Z</time>
      </trkpt>
      <trkpt lat="45.35788" lon="4.20574">
        <ele>642.019999186</ele>
        <time>2011-03-11T14:27:03.069Z</time>
      </trkpt>
      <trkpt lat="45.35786" lon="4.20575">
        <ele>642.169999186</ele>
        <time>2011-03-11T14:27:04.450Z</time>
      </trkpt>
      <trkpt lat="45.35782" lon="4.20577">
        <ele>642.296772618</ele>
        <time>2011-03-11T14:27:05.053Z</time>
      </trkpt>
      <trkpt lat="45.35776" lon="4.20582">
        <ele>642.969999186</ele>
        <time>2011-03-11T14:27:08.063Z</time>
      </trkpt>
      <trkpt lat="45.35776" lon="4.20584">
        <ele>643.106665039</ele>
        <time>2011-03-11T14:27:09.057Z</time>
      </trkpt>
      <trkpt lat="45.35774" lon="4.20585">
        <ele>643.223331706</ele>
        <time>2011-03-11T14:27:10.079Z</time>
      </trkpt>
      <trkpt lat="45.35772" lon="4.20586">
        <ele>643.736663818</ele>
        <time>2011-03-11T14:27:13.060Z</time>
      </trkpt>
      <trkpt lat="45.3577" lon="4.20587">
        <ele>644.119997152</ele>
        <time>2011-03-11T14:27:15.055Z</time>
      </trkpt>
      <trkpt lat="45.35768" lon="4.20588">
        <ele>644.27419158</ele>
        <time>2011-03-11T14:27:16.059Z</time>
      </trkpt>
      <trkpt lat="45.35768" lon="4.2059">
        <ele>645.026664225</ele>
        <time>2011-03-11T14:27:19.068Z</time>
      </trkpt>
      <trkpt lat="45.35765" lon="4.20592">
        <ele>645.709997559</ele>
        <time>2011-03-11T14:27:22.074Z</time>
      </trkpt>
      <trkpt lat="45.3576" lon="4.20594">
        <ele>646.080643192</ele>
        <time>2011-03-11T14:27:24.060Z</time>
      </trkpt>
      <trkpt lat="45.35758" lon="4.20595">
        <ele>646.473331706</ele>
        <time>2011-03-11T14:27:25.055Z</time>
      </trkpt>
      <trkpt lat="45.35756" lon="4.20598">
        <ele>646.739998372</ele>
        <time>2011-03-11T14:27:26.066Z</time>
      </trkpt>
      <trkpt lat="45.35756" lon="4.20599">
        <ele>647.039998372</ele>
        <time>2011-03-11T14:27:27.060Z</time>
      </trkpt>
      <trkpt lat="45.35756" lon="4.206">
        <ele>647.222579464</ele>
        <time>2011-03-11T14:27:28.060Z</time>
      </trkpt>
      <trkpt lat="45.35757" lon="4.20602">
        <ele>647.766666667</ele>
        <time>2011-03-11T14:27:29.060Z</time>
      </trkpt>
      <trkpt lat="45.35755" lon="4.20606">
        <ele>648.473331706</ele>
        <time>2011-03-11T14:27:31.056Z</time>
      </trkpt>
      <trkpt lat="45.35754" lon="4.20607">
        <ele>648.80333252</ele>
        <time>2011-03-11T14:27:32.061Z</time>
      </trkpt>
      <trkpt lat="45.35753" lon="4.20609">
        <ele>648.906450825</ele>
        <time>2011-03-11T14:27:33.056Z</time>
      </trkpt>
      <trkpt lat="45.35752" lon="4.2061">
        <ele>649.559999593</ele>
        <time>2011-03-11T14:27:35.071Z</time>
      </trkpt>
      <trkpt lat="45.3575" lon="4.20612">
        <ele>649.661290323</ele>
        <time>2011-03-11T14:27:36.061Z</time>
      </trkpt>
      <trkpt lat="45.35749" lon="4.20614">
        <ele>649.996774981</ele>
        <time>2011-03-11T14:27:38.058Z</time>
      </trkpt>
      <trkpt lat="45.35748" lon="4.20616">
        <ele>650.148388278</ele>
        <time>2011-03-11T14:27:39.057Z</time>
      </trkpt>
      <trkpt lat="45.35748" lon="4.20617">
        <ele>650.329034621</ele>
        <time>2011-03-11T14:27:40.067Z</time>
      </trkpt>
      <trkpt lat="45.35746" lon="4.20619">
        <ele>650.603334554</ele>
        <time>2011-03-11T14:27:41.062Z</time>
      </trkpt>
      <trkpt lat="45.35744" lon="4.20622">
        <ele>650.841936665</ele>
        <time>2011-03-11T14:27:43.057Z</time>
      </trkpt>
      <trkpt lat="45.35742" lon="4.20624">
        <ele>651.093334961</ele>
        <time>2011-03-11T14:27:44.068Z</time>
      </trkpt>
      <trkpt lat="45.3574" lon="4.20628">
        <ele>651.556667074</ele>
        <time>2011-03-11T14:27:47.058Z</time>
      </trkpt>
      <trkpt lat="45.3574" lon="4.20629">
        <ele>651.81290362</ele>
        <time>2011-03-11T14:27:49.063Z</time>
      </trkpt>
      <trkpt lat="45.35737" lon="4.20634">
        <ele>652.233335368</ele>
        <time>2011-03-11T14:27:51.072Z</time>
      </trkpt>
      <trkpt lat="45.35736" lon="4.20635">
        <ele>652.280647524</ele>
        <time>2011-03-11T14:27:52.060Z</time>
      </trkpt>
      <trkpt lat="45.35735" lon="4.20641">
        <ele>652.743334961</ele>
        <time>2011-03-11T14:27:55.059Z</time>
      </trkpt>
      <trkpt lat="45.35734" lon="4.20642">
        <ele>652.745162472</ele>
        <time>2011-03-11T14:27:56.064Z</time>
      </trkpt>
      <trkpt lat="45.35734" lon="4.20646">
        <ele>652.861292685</ele>
        <time>2011-03-11T14:27:59.060Z</time>
      </trkpt>
      <trkpt lat="45.35733" lon="4.20647">
        <ele>652.826670329</ele>
        <time>2011-03-11T14:28:00.231Z</time>
      </trkpt>
      <trkpt lat="45.35733" lon="4.20649">
        <ele>652.796669515</ele>
        <time>2011-03-11T14:28:01.088Z</time>
      </trkpt>
      <trkpt lat="45.35732" lon="4.2065">
        <ele>652.760001628</ele>
        <time>2011-03-11T14:28:03.064Z</time>
      </trkpt>
      <trkpt lat="45.35731" lon="4.20656">
        <ele>652.57333374</ele>
        <time>2011-03-11T14:28:07.076Z</time>
      </trkpt>
      <trkpt lat="45.35731" lon="4.20657">
        <ele>652.60333252</ele>
        <time>2011-03-11T14:28:08.060Z</time>
      </trkpt>
      <trkpt lat="45.35731" lon="4.20659">
        <ele>652.659997559</ele>
        <time>2011-03-11T14:28:09.060Z</time>
      </trkpt>
      <trkpt lat="45.3573" lon="4.20661">
        <ele>652.703221475</ele>
        <time>2011-03-11T14:28:11.061Z</time>
      </trkpt>
      <trkpt lat="45.35728" lon="4.20664">
        <ele>652.745158534</ele>
        <time>2011-03-11T14:28:14.061Z</time>
      </trkpt>
      <trkpt lat="45.35727" lon="4.20665">
        <ele>652.773329671</ele>
        <time>2011-03-11T14:28:15.065Z</time>
      </trkpt>
      <trkpt lat="45.35727" lon="4.20667">
        <ele>652.803330485</ele>
        <time>2011-03-11T14:28:16.072Z</time>
      </trkpt>
      <trkpt lat="45.35726" lon="4.20669">
        <ele>652.813330078</ele>
        <time>2011-03-11T14:28:17.094Z</time>
      </trkpt>
      <trkpt lat="45.35726" lon="4.2067">
        <ele>652.819997152</ele>
        <time>2011-03-11T14:28:18.095Z</time>
      </trkpt>
      <trkpt lat="45.35726" lon="4.20672">
        <ele>652.816662598</ele>
        <time>2011-03-11T14:28:19.066Z</time>
      </trkpt>
      <trkpt lat="45.35725" lon="4.20674">
        <ele>652.877415811</ele>
        <time>2011-03-11T14:28:20.062Z</time>
      </trkpt>
      <trkpt lat="45.35724" lon="4.20675">
        <ele>652.883865849</ele>
        <time>2011-03-11T14:28:21.062Z</time>
      </trkpt>
      <trkpt lat="45.35723" lon="4.20676">
        <ele>652.896661377</ele>
        <time>2011-03-11T14:28:22.062Z</time>
      </trkpt>
      <trkpt lat="45.35722" lon="4.20678">
        <ele>653.009995524</ele>
        <time>2011-03-11T14:28:24.063Z</time>
      </trkpt>
      <trkpt lat="45.35721" lon="4.2068">
        <ele>653.086663818</ele>
        <time>2011-03-11T14:28:25.062Z</time>
      </trkpt>
      <trkpt lat="45.3572" lon="4.20684">
        <ele>653.283331299</ele>
        <time>2011-03-11T14:28:27.064Z</time>
      </trkpt>
      <trkpt lat="45.3572" lon="4.20686">
        <ele>653.409997559</ele>
        <time>2011-03-11T14:28:28.067Z</time>
      </trkpt>
      <trkpt lat="45.3572" lon="4.20688">
        <ele>653.519999186</ele>
        <time>2011-03-11T14:28:29.064Z</time>
      </trkpt>
      <trkpt lat="45.3572" lon="4.2069">
        <ele>653.603224231</ele>
        <time>2011-03-11T14:28:30.062Z</time>
      </trkpt>
      <trkpt lat="45.35722" lon="4.20694">
        <ele>653.959999593</ele>
        <time>2011-03-11T14:28:32.075Z</time>
      </trkpt>
      <trkpt lat="45.35723" lon="4.20695">
        <ele>654.169999186</ele>
        <time>2011-03-11T14:28:33.071Z</time>
      </trkpt>
      <trkpt lat="45.35722" lon="4.20699">
        <ele>654.643332926</ele>
        <time>2011-03-11T14:28:35.135Z</time>
      </trkpt>
      <trkpt lat="45.35722" lon="4.207">
        <ele>654.9</ele>
        <time>2011-03-11T14:28:36.064Z</time>
      </trkpt>
      <trkpt lat="45.35721" lon="4.20702">
        <ele>655.019354051</ele>
        <time>2011-03-11T14:28:37.064Z</time>
      </trkpt>
      <trkpt lat="45.35719" lon="4.20703">
        <ele>655.356667074</ele>
        <time>2011-03-11T14:28:38.064Z</time>
      </trkpt>
      <trkpt lat="45.35718" lon="4.20705">
        <ele>655.516668701</ele>
        <time>2011-03-11T14:28:39.080Z</time>
      </trkpt>
      <trkpt lat="45.35718" lon="4.20708">
        <ele>655.766670736</ele>
        <time>2011-03-11T14:28:41.063Z</time>
      </trkpt>
      <trkpt lat="45.35718" lon="4.2071">
        <ele>655.806455551</ele>
        <time>2011-03-11T14:28:42.064Z</time>
      </trkpt>
      <trkpt lat="45.35718" lon="4.20713">
        <ele>655.909681751</ele>
        <time>2011-03-11T14:28:43.065Z</time>
      </trkpt>
      <trkpt lat="45.35716" lon="4.20715">
        <ele>656.076670329</ele>
        <time>2011-03-11T14:28:44.068Z</time>
      </trkpt>
      <trkpt lat="45.35711" lon="4.20717">
        <ele>656.123337809</ele>
        <time>2011-03-11T14:28:45.072Z</time>
      </trkpt>
      <trkpt lat="45.35707" lon="4.20718">
        <ele>656.054843041</ele>
        <time>2011-03-11T14:28:46.068Z</time>
      </trkpt>
      <trkpt lat="45.35706" lon="4.20721">
        <ele>656.035487021</ele>
        <time>2011-03-11T14:28:47.067Z</time>
      </trkpt>
      <trkpt lat="45.35704" lon="4.20725">
        <ele>656.133337402</ele>
        <time>2011-03-11T14:28:49.075Z</time>
      </trkpt>
      <trkpt lat="45.35703" lon="4.20728">
        <ele>656.140004476</ele>
        <time>2011-03-11T14:28:50.069Z</time>
      </trkpt>
      <trkpt lat="45.35705" lon="4.20731">
        <ele>656.180004883</ele>
        <time>2011-03-11T14:28:51.069Z</time>
      </trkpt>
      <trkpt lat="45.35707" lon="4.20734">
        <ele>656.256671143</ele>
        <time>2011-03-11T14:28:52.070Z</time>
      </trkpt>
      <trkpt lat="45.35706" lon="4.20738">
        <ele>656.254843435</ele>
        <time>2011-03-11T14:28:53.064Z</time>
      </trkpt>
      <trkpt lat="45.35705" lon="4.20741">
        <ele>656.330004883</ele>
        <time>2011-03-11T14:28:54.065Z</time>
      </trkpt>
      <trkpt lat="45.35705" lon="4.20744">
        <ele>656.356671143</ele>
        <time>2011-03-11T14:28:55.085Z</time>
      </trkpt>
      <trkpt lat="45.35705" lon="4.20746">
        <ele>656.376670329</ele>
        <time>2011-03-11T14:28:56.065Z</time>
      </trkpt>
      <trkpt lat="45.35706" lon="4.20748">
        <ele>656.366668701</ele>
        <time>2011-03-11T14:28:57.094Z</time>
      </trkpt>
      <trkpt lat="45.35706" lon="4.20754">
        <ele>656.326668294</ele>
        <time>2011-03-11T14:29:00.225Z</time>
      </trkpt>
      <trkpt lat="45.35707" lon="4.20758">
        <ele>656.296776556</ele>
        <time>2011-03-11T14:29:02.071Z</time>
      </trkpt>
      <trkpt lat="45.35698" lon="4.20769">
        <ele>655.990004476</ele>
        <time>2011-03-11T14:29:06.061Z</time>
      </trkpt>
      <trkpt lat="45.35697" lon="4.20771">
        <ele>655.72414214</ele>
        <time>2011-03-11T14:29:07.085Z</time>
      </trkpt>
      <trkpt lat="45.35694" lon="4.20776">
        <ele>655.453336589</ele>
        <time>2011-03-11T14:29:09.074Z</time>
      </trkpt>
      <trkpt lat="45.3569" lon="4.20778">
        <ele>655.182760304</ele>
        <time>2011-03-11T14:29:10.080Z</time>
      </trkpt>
      <trkpt lat="45.35687" lon="4.20781">
        <ele>655.003449539</ele>
        <time>2011-03-11T14:29:11.077Z</time>
      </trkpt>
      <trkpt lat="45.35681" lon="4.20784">
        <ele>654.793105553</ele>
        <time>2011-03-11T14:29:12.066Z</time>
      </trkpt>
      <trkpt lat="45.35678" lon="4.20785">
        <ele>654.600000842</ele>
        <time>2011-03-11T14:29:13.421Z</time>
      </trkpt>
      <trkpt lat="45.35678" lon="4.20788">
        <ele>654.43793356</ele>
        <time>2011-03-11T14:29:14.072Z</time>
      </trkpt>
      <trkpt lat="45.35678" lon="4.2079">
        <ele>654.326668294</ele>
        <time>2011-03-11T14:29:15.071Z</time>
      </trkpt>
      <trkpt lat="45.35676" lon="4.20795">
        <ele>654.096553408</ele>
        <time>2011-03-11T14:29:17.068Z</time>
      </trkpt>
      <trkpt lat="45.35675" lon="4.208">
        <ele>653.843332926</ele>
        <time>2011-03-11T14:29:19.068Z</time>
      </trkpt>
      <trkpt lat="45.35675" lon="4.20802">
        <ele>653.651722875</ele>
        <time>2011-03-11T14:29:20.093Z</time>
      </trkpt>
      <trkpt lat="45.35675" lon="4.20805">
        <ele>653.472412109</ele>
        <time>2011-03-11T14:29:21.103Z</time>
      </trkpt>
      <trkpt lat="45.35673" lon="4.20809">
        <ele>653.037928088</ele>
        <time>2011-03-11T14:29:23.068Z</time>
      </trkpt>
      <trkpt lat="45.35673" lon="4.20812">
        <ele>652.844823377</ele>
        <time>2011-03-11T14:29:24.095Z</time>
      </trkpt>
      <trkpt lat="45.35672" lon="4.20816">
        <ele>652.576662191</ele>
        <time>2011-03-11T14:29:26.043Z</time>
      </trkpt>
      <trkpt lat="45.35673" lon="4.20821">
        <ele>652.127582419</ele>
        <time>2011-03-11T14:29:28.074Z</time>
      </trkpt>
      <trkpt lat="45.35674" lon="4.20823">
        <ele>651.982756516</ele>
        <time>2011-03-11T14:29:29.072Z</time>
      </trkpt>
      <trkpt lat="45.35674" lon="4.20825">
        <ele>651.973331706</ele>
        <time>2011-03-11T14:29:30.107Z</time>
      </trkpt>
      <trkpt lat="45.35675" lon="4.20831">
        <ele>651.558616901</ele>
        <time>2011-03-11T14:29:32.075Z</time>
      </trkpt>
      <trkpt lat="45.35676" lon="4.20837">
        <ele>651.326662191</ele>
        <time>2011-03-11T14:29:35.065Z</time>
      </trkpt>
      <trkpt lat="45.35676" lon="4.20839">
        <ele>651.303328451</ele>
        <time>2011-03-11T14:29:36.080Z</time>
      </trkpt>
      <trkpt lat="45.35676" lon="4.20841">
        <ele>651.36128481</ele>
        <time>2011-03-11T14:29:37.075Z</time>
      </trkpt>
      <trkpt lat="45.35676" lon="4.20843">
        <ele>651.348382765</ele>
        <time>2011-03-11T14:29:38.070Z</time>
      </trkpt>
      <trkpt lat="45.35676" lon="4.20847">
        <ele>651.38064083</ele>
        <time>2011-03-11T14:29:40.070Z</time>
      </trkpt>
      <trkpt lat="45.35677" lon="4.20852">
        <ele>651.546661377</ele>
        <time>2011-03-11T14:29:42.104Z</time>
      </trkpt>
      <trkpt lat="45.35678" lon="4.20853">
        <ele>651.641930365</ele>
        <time>2011-03-11T14:29:43.086Z</time>
      </trkpt>
      <trkpt lat="45.3568" lon="4.20856">
        <ele>651.909671907</ele>
        <time>2011-03-11T14:29:45.071Z</time>
      </trkpt>
      <trkpt lat="45.35681" lon="4.2086">
        <ele>652.076662191</ele>
        <time>2011-03-11T14:29:46.078Z</time>
      </trkpt>
      <trkpt lat="45.35682" lon="4.20865">
        <ele>652.396663411</ele>
        <time>2011-03-11T14:29:48.071Z</time>
      </trkpt>
      <trkpt lat="45.35681" lon="4.20867">
        <ele>652.579996745</ele>
        <time>2011-03-11T14:29:49.071Z</time>
      </trkpt>
      <trkpt lat="45.35682" lon="4.20869">
        <ele>652.683867424</ele>
        <time>2011-03-11T14:29:50.071Z</time>
      </trkpt>
      <trkpt lat="45.35683" lon="4.20873">
        <ele>653.139996338</ele>
        <time>2011-03-11T14:29:52.104Z</time>
      </trkpt>
      <trkpt lat="45.35684" lon="4.20873">
        <ele>653.389996338</ele>
        <time>2011-03-11T14:29:53.092Z</time>
      </trkpt>
      <trkpt lat="45.35686" lon="4.20874">
        <ele>653.633331299</ele>
        <time>2011-03-11T14:29:54.100Z</time>
      </trkpt>
      <trkpt lat="45.35686" lon="4.20877">
        <ele>653.896665446</ele>
        <time>2011-03-11T14:29:55.076Z</time>
      </trkpt>
      <trkpt lat="45.35688" lon="4.20879">
        <ele>654.169997152</ele>
        <time>2011-03-11T14:29:56.076Z</time>
      </trkpt>
      <trkpt lat="45.35686" lon="4.20883">
        <ele>654.476664225</ele>
        <time>2011-03-11T14:29:57.076Z</time>
      </trkpt>
      <trkpt lat="45.35687" lon="4.2089">
        <ele>655.033329264</ele>
        <time>2011-03-11T14:29:59.090Z</time>
      </trkpt>
      <trkpt lat="45.35688" lon="4.20892">
        <ele>655.299995931</ele>
        <time>2011-03-11T14:30:00.229Z</time>
      </trkpt>
      <trkpt lat="45.35688" lon="4.20895">
        <ele>655.454833984</ele>
        <time>2011-03-11T14:30:01.069Z</time>
      </trkpt>
      <trkpt lat="45.3569" lon="4.20899">
        <ele>656.143330892</ele>
        <time>2011-03-11T14:30:03.073Z</time>
      </trkpt>
      <trkpt lat="45.3569" lon="4.20902">
        <ele>656.433331299</ele>
        <time>2011-03-11T14:30:04.073Z</time>
      </trkpt>
      <trkpt lat="45.3569" lon="4.20905">
        <ele>656.673331706</ele>
        <time>2011-03-11T14:30:05.073Z</time>
      </trkpt>
      <trkpt lat="45.35691" lon="4.20907">
        <ele>656.77419158</ele>
        <time>2011-03-11T14:30:06.074Z</time>
      </trkpt>
      <trkpt lat="45.35691" lon="4.2091">
        <ele>656.990321006</ele>
        <time>2011-03-11T14:30:07.073Z</time>
      </trkpt>
      <trkpt lat="45.35691" lon="4.20912">
        <ele>657.35333252</ele>
        <time>2011-03-11T14:30:08.083Z</time>
      </trkpt>
      <trkpt lat="45.35691" lon="4.20914">
        <ele>657.579998779</ele>
        <time>2011-03-11T14:30:09.078Z</time>
      </trkpt>
      <trkpt lat="45.3569" lon="4.20916">
        <ele>657.786665853</ele>
        <time>2011-03-11T14:30:10.073Z</time>
      </trkpt>
      <trkpt lat="45.3569" lon="4.20918">
        <ele>657.996665446</ele>
        <time>2011-03-11T14:30:11.076Z</time>
      </trkpt>
      <trkpt lat="45.35691" lon="4.2092">
        <ele>658.06451416</ele>
        <time>2011-03-11T14:30:12.078Z</time>
      </trkpt>
      <trkpt lat="45.3569" lon="4.20922">
        <ele>658.248385522</ele>
        <time>2011-03-11T14:30:13.074Z</time>
      </trkpt>
      <trkpt lat="45.35691" lon="4.20924">
        <ele>658.546665446</ele>
        <time>2011-03-11T14:30:14.107Z</time>
      </trkpt>
      <trkpt lat="45.35691" lon="4.20928">
        <ele>658.716127457</ele>
        <time>2011-03-11T14:30:16.075Z</time>
      </trkpt>
      <trkpt lat="45.35691" lon="4.20931">
        <ele>659.096663411</ele>
        <time>2011-03-11T14:30:18.074Z</time>
      </trkpt>
      <trkpt lat="45.35691" lon="4.20933">
        <ele>659.209997559</ele>
        <time>2011-03-11T14:30:19.074Z</time>
      </trkpt>
      <trkpt lat="45.35692" lon="4.20937">
        <ele>659.299997637</ele>
        <time>2011-03-11T14:30:21.075Z</time>
      </trkpt>
      <trkpt lat="45.35692" lon="4.20938">
        <ele>659.403223838</ele>
        <time>2011-03-11T14:30:22.075Z</time>
      </trkpt>
      <trkpt lat="45.35691" lon="4.20939">
        <ele>659.487095987</ele>
        <time>2011-03-11T14:30:23.080Z</time>
      </trkpt>
      <trkpt lat="45.35689" lon="4.20942">
        <ele>659.706665039</ele>
        <time>2011-03-11T14:30:26.082Z</time>
      </trkpt>
      <trkpt lat="45.3569" lon="4.20945">
        <ele>659.716127457</ele>
        <time>2011-03-11T14:30:27.075Z</time>
      </trkpt>
      <trkpt lat="45.35691" lon="4.20948">
        <ele>659.735483477</ele>
        <time>2011-03-11T14:30:29.076Z</time>
      </trkpt>
      <trkpt lat="45.35692" lon="4.20949">
        <ele>659.767741542</ele>
        <time>2011-03-11T14:30:30.106Z</time>
      </trkpt>
      <trkpt lat="45.35691" lon="4.20952">
        <ele>659.822580645</ele>
        <time>2011-03-11T14:30:32.076Z</time>
      </trkpt>
      <trkpt lat="45.35691" lon="4.20952">
        <ele>659.859999593</ele>
        <time>2011-03-11T14:30:33.076Z</time>
      </trkpt>
      <trkpt lat="45.35692" lon="4.20956">
        <ele>660.069999186</ele>
        <time>2011-03-11T14:30:36.082Z</time>
      </trkpt>
      <trkpt lat="45.35694" lon="4.20962">
        <ele>660.346663411</ele>
        <time>2011-03-11T14:30:40.088Z</time>
      </trkpt>
      <trkpt lat="45.35693" lon="4.20964">
        <ele>660.446663411</ele>
        <time>2011-03-11T14:30:42.113Z</time>
      </trkpt>
      <trkpt lat="45.35695" lon="4.20971">
        <ele>660.739998372</ele>
        <time>2011-03-11T14:30:46.077Z</time>
      </trkpt>
      <trkpt lat="45.35697" lon="4.20972">
        <ele>660.89666748</ele>
        <time>2011-03-11T14:30:48.078Z</time>
      </trkpt>
      <trkpt lat="45.35697" lon="4.20974">
        <ele>660.97333374</ele>
        <time>2011-03-11T14:30:49.079Z</time>
      </trkpt>
      <trkpt lat="45.35698" lon="4.20976">
        <ele>661.07333374</ele>
        <time>2011-03-11T14:30:50.078Z</time>
      </trkpt>
      <trkpt lat="45.35698" lon="4.20979">
        <ele>661.383333333</ele>
        <time>2011-03-11T14:30:53.084Z</time>
      </trkpt>
      <trkpt lat="45.35698" lon="4.20982">
        <ele>661.480645949</ele>
        <time>2011-03-11T14:30:55.086Z</time>
      </trkpt>
      <trkpt lat="45.35698" lon="4.20986">
        <ele>661.673335775</ele>
        <time>2011-03-11T14:30:57.084Z</time>
      </trkpt>
      <trkpt lat="45.35697" lon="4.20985">
        <ele>661.753336589</ele>
        <time>2011-03-11T14:30:58.089Z</time>
      </trkpt>
      <trkpt lat="45.35701" lon="4.20988">
        <ele>661.94666748</ele>
        <time>2011-03-11T14:31:00.222Z</time>
      </trkpt>
      <trkpt lat="45.35697" lon="4.20992">
        <ele>662.363334147</ele>
        <time>2011-03-11T14:31:03.094Z</time>
      </trkpt>
      <trkpt lat="45.35697" lon="4.20994">
        <ele>662.476668294</ele>
        <time>2011-03-11T14:31:04.079Z</time>
      </trkpt>
      <trkpt lat="45.35697" lon="4.20995">
        <ele>662.593334961</ele>
        <time>2011-03-11T14:31:05.080Z</time>
      </trkpt>
      <trkpt lat="45.35697" lon="4.20996">
        <ele>662.703334554</ele>
        <time>2011-03-11T14:31:06.104Z</time>
      </trkpt>
      <trkpt lat="45.35697" lon="4.20999">
        <ele>662.930002848</ele>
        <time>2011-03-11T14:31:08.089Z</time>
      </trkpt>
      <trkpt lat="45.35698" lon="4.21001">
        <ele>663.070003255</ele>
        <time>2011-03-11T14:31:09.082Z</time>
      </trkpt>
      <trkpt lat="45.35699" lon="4.21003">
        <ele>663.309682538</ele>
        <time>2011-03-11T14:31:11.081Z</time>
      </trkpt>
      <trkpt lat="45.35697" lon="4.21006">
        <ele>663.464520854</ele>
        <time>2011-03-11T14:31:12.095Z</time>
      </trkpt>
      <trkpt lat="45.35697" lon="4.21006">
        <ele>663.696671549</ele>
        <time>2011-03-11T14:31:13.096Z</time>
      </trkpt>
      <trkpt lat="45.35696" lon="4.21008">
        <ele>663.873337809</ele>
        <time>2011-03-11T14:31:14.086Z</time>
      </trkpt>
      <trkpt lat="45.35695" lon="4.2101">
        <ele>664.223335775</ele>
        <time>2011-03-11T14:31:16.081Z</time>
      </trkpt>
      <trkpt lat="45.35695" lon="4.21013">
        <ele>664.6</ele>
        <time>2011-03-11T14:31:18.081Z</time>
      </trkpt>
      <trkpt lat="45.35694" lon="4.21015">
        <ele>664.790000407</ele>
        <time>2011-03-11T14:31:19.444Z</time>
      </trkpt>
      <trkpt lat="45.35695" lon="4.21021">
        <ele>665.533335368</ele>
        <time>2011-03-11T14:31:23.102Z</time>
      </trkpt>
      <trkpt lat="45.35691" lon="4.21023">
        <ele>665.564518098</ele>
        <time>2011-03-11T14:31:24.086Z</time>
      </trkpt>
      <trkpt lat="45.35691" lon="4.21025">
        <ele>665.816668701</ele>
        <time>2011-03-11T14:31:25.098Z</time>
      </trkpt>
      <trkpt lat="45.3569" lon="4.21026">
        <ele>665.803228563</ele>
        <time>2011-03-11T14:31:26.087Z</time>
      </trkpt>
      <trkpt lat="45.35688" lon="4.21027">
        <ele>665.900002756</ele>
        <time>2011-03-11T14:31:27.084Z</time>
      </trkpt>
      <trkpt lat="45.35687" lon="4.21028">
        <ele>665.983872937</ele>
        <time>2011-03-11T14:31:28.082Z</time>
      </trkpt>
      <trkpt lat="45.35686" lon="4.21028">
        <ele>666.176668294</ele>
        <time>2011-03-11T14:31:29.114Z</time>
      </trkpt>
      <trkpt lat="45.35684" lon="4.2103">
        <ele>666.180002848</ele>
        <time>2011-03-11T14:31:31.083Z</time>
      </trkpt>
      <trkpt lat="45.35684" lon="4.21033">
        <ele>666.186669922</ele>
        <time>2011-03-11T14:31:32.083Z</time>
      </trkpt>
      <trkpt lat="45.35684" lon="4.21036">
        <ele>666.253334554</ele>
        <time>2011-03-11T14:31:35.087Z</time>
      </trkpt>
      <trkpt lat="45.35684" lon="4.21038">
        <ele>666.254839497</ele>
        <time>2011-03-11T14:31:36.088Z</time>
      </trkpt>
      <trkpt lat="45.35684" lon="4.2104">
        <ele>666.29032455</ele>
        <time>2011-03-11T14:31:37.088Z</time>
      </trkpt>
      <trkpt lat="45.35684" lon="4.21043">
        <ele>666.47666626</ele>
        <time>2011-03-11T14:31:39.096Z</time>
      </trkpt>
      <trkpt lat="45.35681" lon="4.21047">
        <ele>666.919354839</ele>
        <time>2011-03-11T14:31:42.084Z</time>
      </trkpt>
      <trkpt lat="45.35681" lon="4.21049">
        <ele>667.093549175</ele>
        <time>2011-03-11T14:31:43.084Z</time>
      </trkpt>
      <trkpt lat="45.3568" lon="4.21051">
        <ele>667.29032455</ele>
        <time>2011-03-11T14:31:44.084Z</time>
      </trkpt>
      <trkpt lat="45.3568" lon="4.21054">
        <ele>667.753336589</ele>
        <time>2011-03-11T14:31:46.084Z</time>
      </trkpt>
      <trkpt lat="45.35677" lon="4.21058">
        <ele>668.551618022</ele>
        <time>2011-03-11T14:31:49.091Z</time>
      </trkpt>
      <trkpt lat="45.35675" lon="4.21061">
        <ele>669.193552325</ele>
        <time>2011-03-11T14:31:51.084Z</time>
      </trkpt>
      <trkpt lat="45.35675" lon="4.21062">
        <ele>669.519357989</ele>
        <time>2011-03-11T14:31:52.089Z</time>
      </trkpt>
      <trkpt lat="45.35675" lon="4.21064">
        <ele>669.861292685</ele>
        <time>2011-03-11T14:31:53.085Z</time>
      </trkpt>
      <trkpt lat="45.35674" lon="4.21065">
        <ele>670.310003662</ele>
        <time>2011-03-11T14:31:54.103Z</time>
      </trkpt>
      <trkpt lat="45.35675" lon="4.21068">
        <ele>671.266668701</ele>
        <time>2011-03-11T14:31:56.090Z</time>
      </trkpt>
      <trkpt lat="45.35675" lon="4.21069">
        <ele>671.803334554</ele>
        <time>2011-03-11T14:31:57.090Z</time>
      </trkpt>
      <trkpt lat="45.35676" lon="4.21073">
        <ele>672.674196305</ele>
        <time>2011-03-11T14:31:59.101Z</time>
      </trkpt>
      <trkpt lat="45.35675" lon="4.21074">
        <ele>673.553336589</ele>
        <time>2011-03-11T14:32:00.265Z</time>
      </trkpt>
      <trkpt lat="45.35673" lon="4.21077">
        <ele>674.733337402</ele>
        <time>2011-03-11T14:32:02.091Z</time>
      </trkpt>
      <trkpt lat="45.3567" lon="4.2108">
        <ele>675.467747842</ele>
        <time>2011-03-11T14:32:04.086Z</time>
      </trkpt>
      <trkpt lat="45.35669" lon="4.21082">
        <ele>676.003230926</ele>
        <time>2011-03-11T14:32:05.086Z</time>
      </trkpt>
      <trkpt lat="45.35668" lon="4.21084">
        <ele>676.84333903</ele>
        <time>2011-03-11T14:32:06.203Z</time>
      </trkpt>
      <trkpt lat="45.35665" lon="4.21086">
        <ele>676.996778919</ele>
        <time>2011-03-11T14:32:07.086Z</time>
      </trkpt>
      <trkpt lat="45.35664" lon="4.21089">
        <ele>677.783337402</ele>
        <time>2011-03-11T14:32:08.108Z</time>
      </trkpt>
      <trkpt lat="45.35662" lon="4.21091">
        <ele>678.190004476</ele>
        <time>2011-03-11T14:32:09.119Z</time>
      </trkpt>
      <trkpt lat="45.35661" lon="4.21094">
        <ele>678.556671143</ele>
        <time>2011-03-11T14:32:10.270Z</time>
      </trkpt>
      <trkpt lat="45.35661" lon="4.21097">
        <ele>678.674198274</ele>
        <time>2011-03-11T14:32:11.106Z</time>
      </trkpt>
      <trkpt lat="45.35661" lon="4.21099">
        <ele>679.286669922</ele>
        <time>2011-03-11T14:32:12.122Z</time>
      </trkpt>
      <trkpt lat="45.35661" lon="4.21101">
        <ele>679.586669922</ele>
        <time>2011-03-11T14:32:13.086Z</time>
      </trkpt>
      <trkpt lat="45.35662" lon="4.21103">
        <ele>679.826668294</ele>
        <time>2011-03-11T14:32:14.086Z</time>
      </trkpt>
      <trkpt lat="45.35662" lon="4.21108">
        <ele>680.203334554</ele>
        <time>2011-03-11T14:32:16.091Z</time>
      </trkpt>
      <trkpt lat="45.35658" lon="4.21113">
        <ele>680.493334961</ele>
        <time>2011-03-11T14:32:18.090Z</time>
      </trkpt>
      <trkpt lat="45.35659" lon="4.21117">
        <ele>680.616666667</ele>
        <time>2011-03-11T14:32:19.092Z</time>
      </trkpt>
      <trkpt lat="45.35659" lon="4.2112">
        <ele>680.570968136</ele>
        <time>2011-03-11T14:32:20.092Z</time>
      </trkpt>
      <trkpt lat="45.35671" lon="4.21126">
        <ele>680.906669108</ele>
        <time>2011-03-11T14:32:22.098Z</time>
      </trkpt>
      <trkpt lat="45.35677" lon="4.21131">
        <ele>681.230002848</ele>
        <time>2011-03-11T14:32:24.112Z</time>
      </trkpt>
      <trkpt lat="45.35681" lon="4.21133">
        <ele>681.338711646</ele>
        <time>2011-03-11T14:32:25.089Z</time>
      </trkpt>
      <trkpt lat="45.35677" lon="4.21135">
        <ele>681.503336589</ele>
        <time>2011-03-11T14:32:26.104Z</time>
      </trkpt>
      <trkpt lat="45.3567" lon="4.2114">
        <ele>681.553336589</ele>
        <time>2011-03-11T14:32:27.105Z</time>
      </trkpt>
      <trkpt lat="45.35666" lon="4.21147">
        <ele>681.567745086</ele>
        <time>2011-03-11T14:32:29.094Z</time>
      </trkpt>
      <trkpt lat="45.35663" lon="4.2115">
        <ele>681.509678994</ele>
        <time>2011-03-11T14:32:30.094Z</time>
      </trkpt>
      <trkpt lat="45.35661" lon="4.21154">
        <ele>681.43548584</ele>
        <time>2011-03-11T14:32:31.094Z</time>
      </trkpt>
      <trkpt lat="45.35661" lon="4.21158">
        <ele>681.300002035</ele>
        <time>2011-03-11T14:32:32.093Z</time>
      </trkpt>
      <trkpt lat="45.35661" lon="4.2116">
        <ele>681.240000407</ele>
        <time>2011-03-11T14:32:33.108Z</time>
      </trkpt>
      <trkpt lat="45.35661" lon="4.21165">
        <ele>681.169999186</ele>
        <time>2011-03-11T14:32:34.090Z</time>
      </trkpt>
      <trkpt lat="45.35658" lon="4.2117">
        <ele>681.009999593</ele>
        <time>2011-03-11T14:32:35.090Z</time>
      </trkpt>
      <trkpt lat="45.35657" lon="4.21175">
        <ele>680.85483871</ele>
        <time>2011-03-11T14:32:36.090Z</time>
      </trkpt>
      <trkpt lat="45.35655" lon="4.21179">
        <ele>680.62666626</ele>
        <time>2011-03-11T14:32:37.090Z</time>
      </trkpt>
      <trkpt lat="45.35654" lon="4.21181">
        <ele>680.45806491</ele>
        <time>2011-03-11T14:32:38.096Z</time>
      </trkpt>
      <trkpt lat="45.35653" lon="4.21184">
        <ele>680.245162472</ele>
        <time>2011-03-11T14:32:39.090Z</time>
      </trkpt>
      <trkpt lat="45.35652" lon="4.21186">
        <ele>680.012904013</ele>
        <time>2011-03-11T14:32:40.091Z</time>
      </trkpt>
      <trkpt lat="45.35652" lon="4.21187">
        <ele>679.780645555</ele>
        <time>2011-03-11T14:32:41.090Z</time>
      </trkpt>
      <trkpt lat="45.35653" lon="4.21189">
        <ele>679.516129032</ele>
        <time>2011-03-11T14:32:42.105Z</time>
      </trkpt>
      <trkpt lat="45.35656" lon="4.2119">
        <ele>679.24666748</ele>
        <time>2011-03-11T14:32:43.105Z</time>
      </trkpt>
      <trkpt lat="45.35658" lon="4.21192">
        <ele>679.066668701</ele>
        <time>2011-03-11T14:32:44.103Z</time>
      </trkpt>
      <trkpt lat="45.3566" lon="4.21194">
        <ele>678.912904801</ele>
        <time>2011-03-11T14:32:45.091Z</time>
      </trkpt>
      <trkpt lat="45.35661" lon="4.21196">
        <ele>678.713336182</ele>
        <time>2011-03-11T14:32:46.095Z</time>
      </trkpt>
      <trkpt lat="45.35664" lon="4.212">
        <ele>678.370001221</ele>
        <time>2011-03-11T14:32:48.091Z</time>
      </trkpt>
      <trkpt lat="45.35668" lon="4.21205">
        <ele>678.132261215</ele>
        <time>2011-03-11T14:32:50.092Z</time>
      </trkpt>
      <trkpt lat="45.35669" lon="4.21209">
        <ele>677.983335368</ele>
        <time>2011-03-11T14:32:51.116Z</time>
      </trkpt>
      <trkpt lat="45.3567" lon="4.21212">
        <ele>677.780000814</ele>
        <time>2011-03-11T14:32:52.112Z</time>
      </trkpt>
      <trkpt lat="45.35673" lon="4.21219">
        <ele>677.541937059</ele>
        <time>2011-03-11T14:32:54.104Z</time>
      </trkpt>
      <trkpt lat="45.35674" lon="4.21222">
        <ele>677.076668294</ele>
        <time>2011-03-11T14:32:55.096Z</time>
      </trkpt>
      <trkpt lat="45.35678" lon="4.21231">
        <ele>676.466666667</ele>
        <time>2011-03-11T14:32:58.117Z</time>
      </trkpt>
      <trkpt lat="45.35683" lon="4.21244">
        <ele>676.109678207</ele>
        <time>2011-03-11T14:33:02.093Z</time>
      </trkpt>
      <trkpt lat="45.35686" lon="4.21251">
        <ele>675.716668701</ele>
        <time>2011-03-11T14:33:05.107Z</time>
      </trkpt>
      <trkpt lat="45.35687" lon="4.21254">
        <ele>675.723335775</ele>
        <time>2011-03-11T14:33:06.093Z</time>
      </trkpt>
      <trkpt lat="45.3569" lon="4.21262">
        <ele>675.893336995</ele>
        <time>2011-03-11T14:33:09.097Z</time>
      </trkpt>
      <trkpt lat="45.35691" lon="4.21268">
        <ele>676.066670736</ele>
        <time>2011-03-11T14:33:11.110Z</time>
      </trkpt>
      <trkpt lat="45.35696" lon="4.2128">
        <ele>676.320003255</ele>
        <time>2011-03-11T14:33:15.094Z</time>
      </trkpt>
      <trkpt lat="45.357" lon="4.21288">
        <ele>676.510003662</ele>
        <time>2011-03-11T14:33:18.094Z</time>
      </trkpt>
      <trkpt lat="45.35701" lon="4.21291">
        <ele>676.512905982</ele>
        <time>2011-03-11T14:33:19.095Z</time>
      </trkpt>
      <trkpt lat="45.35703" lon="4.21297">
        <ele>676.616130214</ele>
        <time>2011-03-11T14:33:21.100Z</time>
      </trkpt>
      <trkpt lat="45.35708" lon="4.21308">
        <ele>676.748387491</ele>
        <time>2011-03-11T14:33:25.095Z</time>
      </trkpt>
      <trkpt lat="45.35711" lon="4.2132">
        <ele>676.879998779</ele>
        <time>2011-03-11T14:33:29.096Z</time>
      </trkpt>
      <trkpt lat="45.35713" lon="4.21328">
        <ele>676.95</ele>
        <time>2011-03-11T14:33:32.116Z</time>
      </trkpt>
      <trkpt lat="45.35713" lon="4.21334">
        <ele>676.98064398</ele>
        <time>2011-03-11T14:33:34.101Z</time>
      </trkpt>
      <trkpt lat="45.35716" lon="4.21337">
        <ele>677.083333333</ele>
        <time>2011-03-11T14:33:36.101Z</time>
      </trkpt>
      <trkpt lat="45.35717" lon="4.21338">
        <ele>677.15333252</ele>
        <time>2011-03-11T14:33:37.101Z</time>
      </trkpt>
      <trkpt lat="45.35719" lon="4.2134">
        <ele>677.235483477</ele>
        <time>2011-03-11T14:33:38.098Z</time>
      </trkpt>
      <trkpt lat="45.35718" lon="4.21344">
        <ele>677.33548269</ele>
        <time>2011-03-11T14:33:39.095Z</time>
      </trkpt>
      <trkpt lat="45.35718" lon="4.21346">
        <ele>677.429029895</ele>
        <time>2011-03-11T14:33:40.097Z</time>
      </trkpt>
      <trkpt lat="45.35719" lon="4.21348">
        <ele>677.532256096</ele>
        <time>2011-03-11T14:33:41.097Z</time>
      </trkpt>
      <trkpt lat="45.3572" lon="4.2135">
        <ele>677.696663411</ele>
        <time>2011-03-11T14:33:42.097Z</time>
      </trkpt>
      <trkpt lat="45.35721" lon="4.21353">
        <ele>677.829996745</ele>
        <time>2011-03-11T14:33:43.097Z</time>
      </trkpt>
      <trkpt lat="45.35721" lon="4.21356">
        <ele>677.949997965</ele>
        <time>2011-03-11T14:33:44.097Z</time>
      </trkpt>
      <trkpt lat="45.35722" lon="4.2136">
        <ele>678.156665039</ele>
        <time>2011-03-11T14:33:46.124Z</time>
      </trkpt>
      <trkpt lat="45.35725" lon="4.21364">
        <ele>678.403330485</ele>
        <time>2011-03-11T14:33:48.102Z</time>
      </trkpt>
      <trkpt lat="45.35727" lon="4.21366">
        <ele>678.716127457</ele>
        <time>2011-03-11T14:33:50.103Z</time>
      </trkpt>
      <trkpt lat="45.35729" lon="4.21368">
        <ele>679.029998779</ele>
        <time>2011-03-11T14:33:51.112Z</time>
      </trkpt>
      <trkpt lat="45.35731" lon="4.2137">
        <ele>679.229031471</ele>
        <time>2011-03-11T14:33:52.101Z</time>
      </trkpt>
      <trkpt lat="45.35733" lon="4.21372">
        <ele>679.90333252</ele>
        <time>2011-03-11T14:33:54.114Z</time>
      </trkpt>
      <trkpt lat="45.35735" lon="4.21374">
        <ele>680.619999186</ele>
        <time>2011-03-11T14:33:56.115Z</time>
      </trkpt>
      <trkpt lat="45.35736" lon="4.21375">
        <ele>681.006665039</ele>
        <time>2011-03-11T14:33:57.222Z</time>
      </trkpt>
      <trkpt lat="45.35741" lon="4.21377">
        <ele>682.064516129</ele>
        <time>2011-03-11T14:34:00.089Z</time>
      </trkpt>
      <trkpt lat="45.35741" lon="4.21379">
        <ele>682.8967738</ele>
        <time>2011-03-11T14:34:02.098Z</time>
      </trkpt>
      <trkpt lat="45.35742" lon="4.2138">
        <ele>683.496665446</ele>
        <time>2011-03-11T14:34:03.163Z</time>
      </trkpt>
      <trkpt lat="45.35744" lon="4.2138">
        <ele>684.399997965</ele>
        <time>2011-03-11T14:34:05.149Z</time>
      </trkpt>
      <trkpt lat="45.35746" lon="4.21382">
        <ele>684.629030289</ele>
        <time>2011-03-11T14:34:06.101Z</time>
      </trkpt>
      <trkpt lat="45.35748" lon="4.21385">
        <ele>685.253330485</ele>
        <time>2011-03-11T14:34:07.104Z</time>
      </trkpt>
      <trkpt lat="45.3575" lon="4.21388">
        <ele>685.646663411</ele>
        <time>2011-03-11T14:34:08.099Z</time>
      </trkpt>
      <trkpt lat="45.35753" lon="4.21392">
        <ele>686.456665039</ele>
        <time>2011-03-11T14:34:10.100Z</time>
      </trkpt>
      <trkpt lat="45.35754" lon="4.21394">
        <ele>686.886663818</ele>
        <time>2011-03-11T14:34:11.280Z</time>
      </trkpt>
      <trkpt lat="45.35761" lon="4.21401">
        <ele>688.706665039</ele>
        <time>2011-03-11T14:34:15.101Z</time>
      </trkpt>
      <trkpt lat="45.35764" lon="4.21406">
        <ele>689.370965773</ele>
        <time>2011-03-11T14:34:17.101Z</time>
      </trkpt>
      <trkpt lat="45.35767" lon="4.2141">
        <ele>690.616664632</ele>
        <time>2011-03-11T14:34:19.105Z</time>
      </trkpt>
      <trkpt lat="45.35769" lon="4.21411">
        <ele>690.989998372</ele>
        <time>2011-03-11T14:34:20.106Z</time>
      </trkpt>
      <trkpt lat="45.3577" lon="4.21413">
        <ele>691.112901257</ele>
        <time>2011-03-11T14:34:21.107Z</time>
      </trkpt>
      <trkpt lat="45.35771" lon="4.21415">
        <ele>691.669997152</ele>
        <time>2011-03-11T14:34:22.102Z</time>
      </trkpt>
      <trkpt lat="45.35773" lon="4.21418">
        <ele>692.119353264</ele>
        <time>2011-03-11T14:34:24.102Z</time>
      </trkpt>
      <trkpt lat="45.35774" lon="4.21422">
        <ele>692.412902832</ele>
        <time>2011-03-11T14:34:25.102Z</time>
      </trkpt>
      <trkpt lat="45.35775" lon="4.21423">
        <ele>692.690321399</ele>
        <time>2011-03-11T14:34:26.102Z</time>
      </trkpt>
      <trkpt lat="45.35779" lon="4.21429">
        <ele>693.39355075</ele>
        <time>2011-03-11T14:34:29.107Z</time>
      </trkpt>
      <trkpt lat="45.35781" lon="4.21432">
        <ele>693.910001628</ele>
        <time>2011-03-11T14:34:31.103Z</time>
      </trkpt>
      <trkpt lat="45.35782" lon="4.21434">
        <ele>694.120001221</ele>
        <time>2011-03-11T14:34:32.107Z</time>
      </trkpt>
      <trkpt lat="45.35786" lon="4.21439">
        <ele>694.606453188</ele>
        <time>2011-03-11T14:34:35.106Z</time>
      </trkpt>
      <trkpt lat="45.35787" lon="4.2144">
        <ele>694.913336182</ele>
        <time>2011-03-11T14:34:36.102Z</time>
      </trkpt>
      <trkpt lat="45.35786" lon="4.21442">
        <ele>695.036669922</ele>
        <time>2011-03-11T14:34:37.107Z</time>
      </trkpt>
      <trkpt lat="45.35789" lon="4.21444">
        <ele>695.273335775</ele>
        <time>2011-03-11T14:34:39.108Z</time>
      </trkpt>
      <trkpt lat="45.35791" lon="4.21446">
        <ele>695.370003255</ele>
        <time>2011-03-11T14:34:40.135Z</time>
      </trkpt>
      <trkpt lat="45.35792" lon="4.21446">
        <ele>695.387100712</ele>
        <time>2011-03-11T14:34:41.102Z</time>
      </trkpt>
      <trkpt lat="45.35793" lon="4.21447">
        <ele>695.556671143</ele>
        <time>2011-03-11T14:34:42.103Z</time>
      </trkpt>
      <trkpt lat="45.35797" lon="4.21449">
        <ele>695.706671143</ele>
        <time>2011-03-11T14:34:45.104Z</time>
      </trkpt>
      <trkpt lat="45.35801" lon="4.21451">
        <ele>695.746671549</ele>
        <time>2011-03-11T14:34:47.110Z</time>
      </trkpt>
      <trkpt lat="45.35804" lon="4.21452">
        <ele>695.773337809</ele>
        <time>2011-03-11T14:34:49.119Z</time>
      </trkpt>
      <trkpt lat="45.3581" lon="4.21453">
        <ele>695.846671549</ele>
        <time>2011-03-11T14:34:52.124Z</time>
      </trkpt>
      <trkpt lat="45.35814" lon="4.21454">
        <ele>695.860003662</ele>
        <time>2011-03-11T14:34:54.104Z</time>
      </trkpt>
      <trkpt lat="45.35818" lon="4.21454">
        <ele>695.860003662</ele>
        <time>2011-03-11T14:34:56.115Z</time>
      </trkpt>
      <trkpt lat="45.35827" lon="4.21456">
        <ele>695.806667074</ele>
        <time>2011-03-11T14:35:00.227Z</time>
      </trkpt>
      <trkpt lat="45.35831" lon="4.21458">
        <ele>695.767743511</ele>
        <time>2011-03-11T14:35:02.107Z</time>
      </trkpt>
      <trkpt lat="45.3584" lon="4.21462">
        <ele>695.633333333</ele>
        <time>2011-03-11T14:35:06.396Z</time>
      </trkpt>
      <trkpt lat="45.35841" lon="4.21462">
        <ele>695.683871362</ele>
        <time>2011-03-11T14:35:07.106Z</time>
      </trkpt>
      <trkpt lat="45.35845" lon="4.21465">
        <ele>695.816666667</ele>
        <time>2011-03-11T14:35:09.140Z</time>
      </trkpt>
      <trkpt lat="45.35852" lon="4.2147">
        <ele>696.169999186</ele>
        <time>2011-03-11T14:35:13.108Z</time>
      </trkpt>
      <trkpt lat="45.35856" lon="4.21472">
        <ele>696.413330078</ele>
        <time>2011-03-11T14:35:15.112Z</time>
      </trkpt>
      <trkpt lat="45.35861" lon="4.21475">
        <ele>696.659997559</ele>
        <time>2011-03-11T14:35:17.112Z</time>
      </trkpt>
      <trkpt lat="45.35863" lon="4.21474">
        <ele>696.848384734</ele>
        <time>2011-03-11T14:35:19.108Z</time>
      </trkpt>
      <trkpt lat="45.35865" lon="4.21475">
        <ele>697.049997965</ele>
        <time>2011-03-11T14:35:20.108Z</time>
      </trkpt>
      <trkpt lat="45.35868" lon="4.21475">
        <ele>697.33548269</ele>
        <time>2011-03-11T14:35:22.108Z</time>
      </trkpt>
      <trkpt lat="45.3587" lon="4.21477">
        <ele>697.546665446</ele>
        <time>2011-03-11T14:35:23.109Z</time>
      </trkpt>
      <trkpt lat="45.35872" lon="4.21478">
        <ele>697.716664632</ele>
        <time>2011-03-11T14:35:24.108Z</time>
      </trkpt>
      <trkpt lat="45.35877" lon="4.2148">
        <ele>698.041933121</ele>
        <time>2011-03-11T14:35:26.108Z</time>
      </trkpt>
      <trkpt lat="45.35879" lon="4.21482">
        <ele>698.283331299</ele>
        <time>2011-03-11T14:35:27.109Z</time>
      </trkpt>
      <trkpt lat="45.35883" lon="4.21485">
        <ele>698.686665853</ele>
        <time>2011-03-11T14:35:29.134Z</time>
      </trkpt>
      <trkpt lat="45.35885" lon="4.21487">
        <ele>698.812901651</ele>
        <time>2011-03-11T14:35:30.114Z</time>
      </trkpt>
      <trkpt lat="45.35887" lon="4.21489">
        <ele>699.153330485</ele>
        <time>2011-03-11T14:35:31.114Z</time>
      </trkpt>
      <trkpt lat="45.35894" lon="4.21498">
        <ele>700.006663005</ele>
        <time>2011-03-11T14:35:35.114Z</time>
      </trkpt>
      <trkpt lat="45.35901" lon="4.21508">
        <ele>700.60644925</ele>
        <time>2011-03-11T14:35:39.110Z</time>
      </trkpt>
      <trkpt lat="45.35907" lon="4.21514">
        <ele>701.070964198</ele>
        <time>2011-03-11T14:35:42.115Z</time>
      </trkpt>
      <trkpt lat="45.35913" lon="4.21521">
        <ele>701.449997965</ele>
        <time>2011-03-11T14:35:45.141Z</time>
      </trkpt>
      <trkpt lat="45.35919" lon="4.21527">
        <ele>701.719999186</ele>
        <time>2011-03-11T14:35:48.111Z</time>
      </trkpt>
      <trkpt lat="45.35924" lon="4.21534">
        <ele>701.880644768</ele>
        <time>2011-03-11T14:35:51.112Z</time>
      </trkpt>
      <trkpt lat="45.35926" lon="4.21536">
        <ele>701.956665039</ele>
        <time>2011-03-11T14:35:52.111Z</time>
      </trkpt>
      <trkpt lat="45.3593" lon="4.21542">
        <ele>702.083868211</ele>
        <time>2011-03-11T14:35:55.113Z</time>
      </trkpt>
      <trkpt lat="45.35936" lon="4.21549">
        <ele>702.212900469</ele>
        <time>2011-03-11T14:35:59.117Z</time>
      </trkpt>
      <trkpt lat="45.3594" lon="4.21556">
        <ele>702.270964592</ele>
        <time>2011-03-11T14:36:02.112Z</time>
      </trkpt>
      <trkpt lat="45.35944" lon="4.21563">
        <ele>702.374190792</ele>
        <time>2011-03-11T14:36:05.114Z</time>
      </trkpt>
      <trkpt lat="45.35944" lon="4.21565">
        <ele>702.423329671</ele>
        <time>2011-03-11T14:36:06.112Z</time>
      </trkpt>
      <trkpt lat="45.35946" lon="4.21568">
        <ele>702.463330078</ele>
        <time>2011-03-11T14:36:07.114Z</time>
      </trkpt>
      <trkpt lat="45.35949" lon="4.21575">
        <ele>702.559997559</ele>
        <time>2011-03-11T14:36:10.114Z</time>
      </trkpt>
      <trkpt lat="45.35953" lon="4.21583">
        <ele>702.696663411</ele>
        <time>2011-03-11T14:36:13.118Z</time>
      </trkpt>
      <trkpt lat="45.35959" lon="4.21594">
        <ele>702.946661377</ele>
        <time>2011-03-11T14:36:17.114Z</time>
      </trkpt>
      <trkpt lat="45.35963" lon="4.21599">
        <ele>703.05999349</ele>
        <time>2011-03-11T14:36:19.113Z</time>
      </trkpt>
      <trkpt lat="45.35966" lon="4.21604">
        <ele>703.173325602</ele>
        <time>2011-03-11T14:36:21.114Z</time>
      </trkpt>
      <trkpt lat="45.3597" lon="4.21607">
        <ele>703.293326823</ele>
        <time>2011-03-11T14:36:23.114Z</time>
      </trkpt>
      <trkpt lat="45.35974" lon="4.2161">
        <ele>703.419995117</ele>
        <time>2011-03-11T14:36:25.120Z</time>
      </trkpt>
      <trkpt lat="45.3598" lon="4.21613">
        <ele>703.65666097</ele>
        <time>2011-03-11T14:36:28.131Z</time>
      </trkpt>
      <trkpt lat="45.35986" lon="4.21617">
        <ele>703.877413842</ele>
        <time>2011-03-11T14:36:31.115Z</time>
      </trkpt>
      <trkpt lat="45.35992" lon="4.21619">
        <ele>704.146661377</ele>
        <time>2011-03-11T14:36:34.122Z</time>
      </trkpt>
      <trkpt lat="45.35999" lon="4.21622">
        <ele>704.358057822</ele>
        <time>2011-03-11T14:36:38.116Z</time>
      </trkpt>
      <trkpt lat="45.36005" lon="4.21624">
        <ele>704.536659749</ele>
        <time>2011-03-11T14:36:41.137Z</time>
      </trkpt>
      <trkpt lat="45.36008" lon="4.21626">
        <ele>704.54838119</ele>
        <time>2011-03-11T14:36:42.120Z</time>
      </trkpt>
      <trkpt lat="45.36012" lon="4.21626">
        <ele>704.706658936</ele>
        <time>2011-03-11T14:36:44.117Z</time>
      </trkpt>
      <trkpt lat="45.36017" lon="4.2163">
        <ele>704.916660563</ele>
        <time>2011-03-11T14:36:47.117Z</time>
      </trkpt>
      <trkpt lat="45.3602" lon="4.2163">
        <ele>704.973327637</ele>
        <time>2011-03-11T14:36:48.133Z</time>
      </trkpt>
      <trkpt lat="45.36029" lon="4.21634">
        <ele>705.223329671</ele>
        <time>2011-03-11T14:36:52.122Z</time>
      </trkpt>
      <trkpt lat="45.36033" lon="4.21635">
        <ele>705.326662191</ele>
        <time>2011-03-11T14:36:54.123Z</time>
      </trkpt>
      <trkpt lat="45.36037" lon="4.21638">
        <ele>705.443328857</ele>
        <time>2011-03-11T14:36:56.123Z</time>
      </trkpt>
      <trkpt lat="45.36046" lon="4.21643">
        <ele>705.599997965</ele>
        <time>2011-03-11T14:37:00.226Z</time>
      </trkpt>
      <trkpt lat="45.36054" lon="4.21648">
        <ele>705.738708496</ele>
        <time>2011-03-11T14:37:04.119Z</time>
      </trkpt>
      <trkpt lat="45.36061" lon="4.21652">
        <ele>705.93548584</ele>
        <time>2011-03-11T14:37:07.120Z</time>
      </trkpt>
      <trkpt lat="45.36067" lon="4.21656">
        <ele>706.260003662</ele>
        <time>2011-03-11T14:37:10.124Z</time>
      </trkpt>
      <trkpt lat="45.36069" lon="4.21657">
        <ele>706.322584583</ele>
        <time>2011-03-11T14:37:11.124Z</time>
      </trkpt>
      <trkpt lat="45.36075" lon="4.2166">
        <ele>706.676672363</ele>
        <time>2011-03-11T14:37:14.120Z</time>
      </trkpt>
      <trkpt lat="45.36079" lon="4.21664">
        <ele>706.996671549</ele>
        <time>2011-03-11T14:37:17.121Z</time>
      </trkpt>
      <trkpt lat="45.36081" lon="4.21667">
        <ele>707.083876087</ele>
        <time>2011-03-11T14:37:18.121Z</time>
      </trkpt>
      <trkpt lat="45.36083" lon="4.2167">
        <ele>707.22258537</ele>
        <time>2011-03-11T14:37:19.126Z</time>
      </trkpt>
      <trkpt lat="45.36085" lon="4.21671">
        <ele>707.386671956</ele>
        <time>2011-03-11T14:37:20.126Z</time>
      </trkpt>
      <trkpt lat="45.36088" lon="4.21672">
        <ele>707.556671143</ele>
        <time>2011-03-11T14:37:22.333Z</time>
      </trkpt>
      <trkpt lat="45.3609" lon="4.21674">
        <ele>707.69333903</ele>
        <time>2011-03-11T14:37:24.131Z</time>
      </trkpt>
      <trkpt lat="45.36092" lon="4.21677">
        <ele>707.693554294</ele>
        <time>2011-03-11T14:37:25.118Z</time>
      </trkpt>
      <trkpt lat="45.36098" lon="4.21681">
        <ele>707.926674398</ele>
        <time>2011-03-11T14:37:28.127Z</time>
      </trkpt>
      <trkpt lat="45.36105" lon="4.21686">
        <ele>708.238716372</ele>
        <time>2011-03-11T14:37:32.122Z</time>
      </trkpt>
      <trkpt lat="45.36106" lon="4.21687">
        <ele>708.413340251</ele>
        <time>2011-03-11T14:37:33.122Z</time>
      </trkpt>
      <trkpt lat="45.36109" lon="4.21691">
        <ele>708.593555081</ele>
        <time>2011-03-11T14:37:35.122Z</time>
      </trkpt>
      <trkpt lat="45.36111" lon="4.21693">
        <ele>708.730006917</ele>
        <time>2011-03-11T14:37:36.197Z</time>
      </trkpt>
      <trkpt lat="45.36116" lon="4.21697">
        <ele>708.974199849</ele>
        <time>2011-03-11T14:37:39.119Z</time>
      </trkpt>
      <trkpt lat="45.36119" lon="4.217">
        <ele>709.18065028</ele>
        <time>2011-03-11T14:37:41.123Z</time>
      </trkpt>
      <trkpt lat="45.36122" lon="4.21701">
        <ele>709.426670329</ele>
        <time>2011-03-11T14:37:43.124Z</time>
      </trkpt>
      <trkpt lat="45.36126" lon="4.21705">
        <ele>709.81667277</ele>
        <time>2011-03-11T14:37:46.124Z</time>
      </trkpt>
      <trkpt lat="45.36129" lon="4.21708">
        <ele>710.103338623</ele>
        <time>2011-03-11T14:37:48.129Z</time>
      </trkpt>
      <trkpt lat="45.36134" lon="4.21714">
        <ele>710.861296623</ele>
        <time>2011-03-11T14:37:52.126Z</time>
      </trkpt>
      <trkpt lat="45.36135" lon="4.21715">
        <ele>711.112909132</ele>
        <time>2011-03-11T14:37:53.128Z</time>
      </trkpt>
      <trkpt lat="45.36137" lon="4.21719">
        <ele>711.776672363</ele>
        <time>2011-03-11T14:37:55.125Z</time>
      </trkpt>
      <trkpt lat="45.36138" lon="4.21721">
        <ele>712.033339437</ele>
        <time>2011-03-11T14:37:56.140Z</time>
      </trkpt>
      <trkpt lat="45.3614" lon="4.21725">
        <ele>712.458068848</ele>
        <time>2011-03-11T14:37:58.125Z</time>
      </trkpt>
      <trkpt lat="45.36143" lon="4.21731">
        <ele>713.350004069</ele>
        <time>2011-03-11T14:38:01.126Z</time>
      </trkpt>
      <trkpt lat="45.36147" lon="4.21737">
        <ele>714.023335775</ele>
        <time>2011-03-11T14:38:04.126Z</time>
      </trkpt>
      <trkpt lat="45.36151" lon="4.21743">
        <ele>714.67333374</ele>
        <time>2011-03-11T14:38:07.127Z</time>
      </trkpt>
      <trkpt lat="45.36155" lon="4.21748">
        <ele>715.259999593</ele>
        <time>2011-03-11T14:38:10.163Z</time>
      </trkpt>
      <trkpt lat="45.36156" lon="4.2175">
        <ele>715.459999593</ele>
        <time>2011-03-11T14:38:11.194Z</time>
      </trkpt>
      <trkpt lat="45.3616" lon="4.21753">
        <ele>715.859999593</ele>
        <time>2011-03-11T14:38:13.184Z</time>
      </trkpt>
      <trkpt lat="45.36162" lon="4.21755">
        <ele>716.039998372</ele>
        <time>2011-03-11T14:38:14.184Z</time>
      </trkpt>
      <trkpt lat="45.36169" lon="4.21761">
        <ele>716.616126276</ele>
        <time>2011-03-11T14:38:18.128Z</time>
      </trkpt>
      <trkpt lat="45.36174" lon="4.21763">
        <ele>716.939998372</ele>
        <time>2011-03-11T14:38:20.131Z</time>
      </trkpt>
      <trkpt lat="45.36183" lon="4.21769">
        <ele>717.303224625</ele>
        <time>2011-03-11T14:38:24.129Z</time>
      </trkpt>
      <trkpt lat="45.36185" lon="4.21771">
        <ele>717.454835953</ele>
        <time>2011-03-11T14:38:26.128Z</time>
      </trkpt>
      <trkpt lat="45.36187" lon="4.21771">
        <ele>717.583331299</ele>
        <time>2011-03-11T14:38:27.128Z</time>
      </trkpt>
      <trkpt lat="45.36189" lon="4.21775">
        <ele>717.659999593</ele>
        <time>2011-03-11T14:38:28.133Z</time>
      </trkpt>
      <trkpt lat="45.36196" lon="4.2178">
        <ele>717.936667887</ele>
        <time>2011-03-11T14:38:31.134Z</time>
      </trkpt>
      <trkpt lat="45.36202" lon="4.21785">
        <ele>718.226668294</ele>
        <time>2011-03-11T14:38:34.185Z</time>
      </trkpt>
      <trkpt lat="45.3621" lon="4.21793">
        <ele>718.603230138</ele>
        <time>2011-03-11T14:38:38.129Z</time>
      </trkpt>
      <trkpt lat="45.36212" lon="4.21796">
        <ele>718.729035408</ele>
        <time>2011-03-11T14:38:39.147Z</time>
      </trkpt>
      <trkpt lat="45.36213" lon="4.21799">
        <ele>718.854842647</ele>
        <time>2011-03-11T14:38:40.128Z</time>
      </trkpt>
      <trkpt lat="45.36214" lon="4.21801">
        <ele>718.970972861</ele>
        <time>2011-03-11T14:38:41.135Z</time>
      </trkpt>
      <trkpt lat="45.36215" lon="4.21804">
        <ele>719.14333903</ele>
        <time>2011-03-11T14:38:42.135Z</time>
      </trkpt>
      <trkpt lat="45.36216" lon="4.21807">
        <ele>719.2000063</ele>
        <time>2011-03-11T14:38:43.130Z</time>
      </trkpt>
      <trkpt lat="45.36215" lon="4.2181">
        <ele>719.303232501</ele>
        <time>2011-03-11T14:38:44.156Z</time>
      </trkpt>
      <trkpt lat="45.36215" lon="4.21813">
        <ele>719.453340658</ele>
        <time>2011-03-11T14:38:45.133Z</time>
      </trkpt>
      <trkpt lat="45.36215" lon="4.21816">
        <ele>719.546673584</ele>
        <time>2011-03-11T14:38:46.131Z</time>
      </trkpt>
      <trkpt lat="45.36215" lon="4.21818">
        <ele>719.633341471</ele>
        <time>2011-03-11T14:38:47.136Z</time>
      </trkpt>
      <trkpt lat="45.36216" lon="4.2182">
        <ele>719.696673584</ele>
        <time>2011-03-11T14:38:48.138Z</time>
      </trkpt>
      <trkpt lat="45.36215" lon="4.21823">
        <ele>719.712910314</ele>
        <time>2011-03-11T14:38:49.170Z</time>
      </trkpt>
      <trkpt lat="45.36214" lon="4.2183">
        <ele>719.854842647</ele>
        <time>2011-03-11T14:38:51.130Z</time>
      </trkpt>
      <trkpt lat="45.36213" lon="4.21834">
        <ele>720.033335368</ele>
        <time>2011-03-11T14:38:53.131Z</time>
      </trkpt>
      <trkpt lat="45.36212" lon="4.21836">
        <ele>720.236669922</ele>
        <time>2011-03-11T14:38:55.151Z</time>
      </trkpt>
      <trkpt lat="45.36214" lon="4.21839">
        <ele>720.446669515</ele>
        <time>2011-03-11T14:38:56.131Z</time>
      </trkpt>
      <trkpt lat="45.36216" lon="4.21843">
        <ele>720.650002035</ele>
        <time>2011-03-11T14:38:57.136Z</time>
      </trkpt>
      <trkpt lat="45.36216" lon="4.21846">
        <ele>720.803228563</ele>
        <time>2011-03-11T14:38:58.132Z</time>
      </trkpt>
      <trkpt lat="45.36217" lon="4.21848">
        <ele>721.035485052</ele>
        <time>2011-03-11T14:38:59.132Z</time>
      </trkpt>
      <trkpt lat="45.36213" lon="4.21854">
        <ele>721.566666667</ele>
        <time>2011-03-11T14:39:01.158Z</time>
      </trkpt>
      <trkpt lat="45.36213" lon="4.21857">
        <ele>721.816666667</ele>
        <time>2011-03-11T14:39:02.140Z</time>
      </trkpt>
      <trkpt lat="45.36212" lon="4.21859">
        <ele>721.990322974</ele>
        <time>2011-03-11T14:39:03.138Z</time>
      </trkpt>
      <trkpt lat="45.36211" lon="4.2186">
        <ele>722.229033439</ele>
        <time>2011-03-11T14:39:04.133Z</time>
      </trkpt>
      <trkpt lat="45.36208" lon="4.21865">
        <ele>722.810001628</ele>
        <time>2011-03-11T14:39:06.140Z</time>
      </trkpt>
      <trkpt lat="45.36206" lon="4.21867">
        <ele>723.013334147</ele>
        <time>2011-03-11T14:39:07.139Z</time>
      </trkpt>
      <trkpt lat="45.36206" lon="4.21869">
        <ele>723.236665853</ele>
        <time>2011-03-11T14:39:08.138Z</time>
      </trkpt>
      <trkpt lat="45.36204" lon="4.21874">
        <ele>723.736665853</ele>
        <time>2011-03-11T14:39:10.138Z</time>
      </trkpt>
      <trkpt lat="45.36202" lon="4.21876">
        <ele>724.019999186</ele>
        <time>2011-03-11T14:39:11.138Z</time>
      </trkpt>
      <trkpt lat="45.36199" lon="4.21887">
        <ele>725.116664632</ele>
        <time>2011-03-11T14:39:15.469Z</time>
      </trkpt>
      <trkpt lat="45.36197" lon="4.21889">
        <ele>725.406665039</ele>
        <time>2011-03-11T14:39:16.138Z</time>
      </trkpt>
      <trkpt lat="45.36195" lon="4.21893">
        <ele>726.006665039</ele>
        <time>2011-03-11T14:39:18.141Z</time>
      </trkpt>
      <trkpt lat="45.36193" lon="4.21894">
        <ele>726.132257277</ele>
        <time>2011-03-11T14:39:19.141Z</time>
      </trkpt>
      <trkpt lat="45.36192" lon="4.21897">
        <ele>726.458062941</ele>
        <time>2011-03-11T14:39:20.139Z</time>
      </trkpt>
      <trkpt lat="45.36192" lon="4.21901">
        <ele>727.313332113</ele>
        <time>2011-03-11T14:39:22.135Z</time>
      </trkpt>
      <trkpt lat="45.36196" lon="4.21903">
        <ele>727.733333333</ele>
        <time>2011-03-11T14:39:23.134Z</time>
      </trkpt>
      <trkpt lat="45.36196" lon="4.21906">
        <ele>728.12333374</ele>
        <time>2011-03-11T14:39:24.135Z</time>
      </trkpt>
      <trkpt lat="45.36195" lon="4.21911">
        <ele>728.810001628</ele>
        <time>2011-03-11T14:39:26.154Z</time>
      </trkpt>
      <trkpt lat="45.36194" lon="4.21915">
        <ele>729.386667887</ele>
        <time>2011-03-11T14:39:28.135Z</time>
      </trkpt>
      <trkpt lat="45.36193" lon="4.21917">
        <ele>729.643334961</ele>
        <time>2011-03-11T14:39:29.135Z</time>
      </trkpt>
      <trkpt lat="45.3619" lon="4.21923">
        <ele>730.303226594</ele>
        <time>2011-03-11T14:39:32.140Z</time>
      </trkpt>
      <trkpt lat="45.36187" lon="4.21933">
        <ele>731.156667074</ele>
        <time>2011-03-11T14:39:35.141Z</time>
      </trkpt>
      <trkpt lat="45.36188" lon="4.21936">
        <ele>731.283870574</ele>
        <time>2011-03-11T14:39:36.137Z</time>
      </trkpt>
      <trkpt lat="45.36186" lon="4.21938">
        <ele>731.893548781</ele>
        <time>2011-03-11T14:39:38.134Z</time>
      </trkpt>
      <trkpt lat="45.36183" lon="4.21942">
        <ele>732.330000814</ele>
        <time>2011-03-11T14:39:39.155Z</time>
      </trkpt>
      <trkpt lat="45.36182" lon="4.21943">
        <ele>732.464516917</ele>
        <time>2011-03-11T14:39:40.136Z</time>
      </trkpt>
      <trkpt lat="45.36181" lon="4.21945">
        <ele>732.840000407</ele>
        <time>2011-03-11T14:39:41.163Z</time>
      </trkpt>
      <trkpt lat="45.36181" lon="4.21948">
        <ele>732.967741935</ele>
        <time>2011-03-11T14:39:42.133Z</time>
      </trkpt>
      <trkpt lat="45.36181" lon="4.2195">
        <ele>733.369999186</ele>
        <time>2011-03-11T14:39:43.139Z</time>
      </trkpt>
      <trkpt lat="45.36181" lon="4.21953">
        <ele>733.758062547</ele>
        <time>2011-03-11T14:39:45.142Z</time>
      </trkpt>
      <trkpt lat="45.36181" lon="4.21956">
        <ele>734.156665039</ele>
        <time>2011-03-11T14:39:46.141Z</time>
      </trkpt>
      <trkpt lat="45.36181" lon="4.21958">
        <ele>734.261289535</ele>
        <time>2011-03-11T14:39:47.140Z</time>
      </trkpt>
      <trkpt lat="45.36178" lon="4.21961">
        <ele>734.503225019</ele>
        <time>2011-03-11T14:39:48.136Z</time>
      </trkpt>
      <trkpt lat="45.36177" lon="4.21963">
        <ele>734.732256489</ele>
        <time>2011-03-11T14:39:49.137Z</time>
      </trkpt>
      <trkpt lat="45.36176" lon="4.21968">
        <ele>735.296665446</ele>
        <time>2011-03-11T14:39:51.262Z</time>
      </trkpt>
      <trkpt lat="45.36175" lon="4.21971">
        <ele>735.459999593</ele>
        <time>2011-03-11T14:39:52.137Z</time>
      </trkpt>
      <trkpt lat="45.36173" lon="4.21973">
        <ele>735.496665446</ele>
        <time>2011-03-11T14:39:53.177Z</time>
      </trkpt>
      <trkpt lat="45.36174" lon="4.21974">
        <ele>735.516666667</ele>
        <time>2011-03-11T14:39:54.138Z</time>
      </trkpt>
      <trkpt lat="45.36175" lon="4.21976">
        <ele>735.513332113</ele>
        <time>2011-03-11T14:39:55.154Z</time>
      </trkpt>
      <trkpt lat="45.36178" lon="4.21977">
        <ele>735.464514948</ele>
        <time>2011-03-11T14:39:56.133Z</time>
      </trkpt>
      <trkpt lat="45.36179" lon="4.21978">
        <ele>735.474191973</ele>
        <time>2011-03-11T14:39:57.138Z</time>
      </trkpt>
      <trkpt lat="45.36182" lon="4.21979">
        <ele>735.549997965</ele>
        <time>2011-03-11T14:39:59.140Z</time>
      </trkpt>
      <trkpt lat="45.36186" lon="4.2198">
        <ele>735.563332113</ele>
        <time>2011-03-11T14:40:01.150Z</time>
      </trkpt>
      <trkpt lat="45.36188" lon="4.2198">
        <ele>735.573331706</ele>
        <time>2011-03-11T14:40:02.146Z</time>
      </trkpt>
      <trkpt lat="45.3619" lon="4.21979">
        <ele>735.643332926</ele>
        <time>2011-03-11T14:40:03.139Z</time>
      </trkpt>
      <trkpt lat="45.36192" lon="4.2198">
        <ele>735.699997965</ele>
        <time>2011-03-11T14:40:04.140Z</time>
      </trkpt>
      <trkpt lat="45.36198" lon="4.21982">
        <ele>735.858063729</ele>
        <time>2011-03-11T14:40:07.140Z</time>
      </trkpt>
      <trkpt lat="45.36201" lon="4.21983">
        <ele>735.876664225</ele>
        <time>2011-03-11T14:40:08.150Z</time>
      </trkpt>
      <trkpt lat="45.36203" lon="4.21984">
        <ele>735.91935287</ele>
        <time>2011-03-11T14:40:09.150Z</time>
      </trkpt>
      <trkpt lat="45.36211" lon="4.21986">
        <ele>735.996665446</ele>
        <time>2011-03-11T14:40:12.140Z</time>
      </trkpt>
      <trkpt lat="45.36218" lon="4.21987">
        <ele>736.013334147</ele>
        <time>2011-03-11T14:40:15.144Z</time>
      </trkpt>
      <trkpt lat="45.36221" lon="4.21989">
        <ele>736.013334147</ele>
        <time>2011-03-11T14:40:16.491Z</time>
      </trkpt>
      <trkpt lat="45.36226" lon="4.21991">
        <ele>736.050002035</ele>
        <time>2011-03-11T14:40:18.145Z</time>
      </trkpt>
      <trkpt lat="45.36233" lon="4.21994">
        <ele>736.200002363</ele>
        <time>2011-03-11T14:40:21.141Z</time>
      </trkpt>
      <trkpt lat="45.3624" lon="4.21997">
        <ele>736.533335368</ele>
        <time>2011-03-11T14:40:24.151Z</time>
      </trkpt>
      <trkpt lat="45.36245" lon="4.21998">
        <ele>736.793334961</ele>
        <time>2011-03-11T14:40:26.147Z</time>
      </trkpt>
      <trkpt lat="45.36247" lon="4.21998">
        <ele>736.940000407</ele>
        <time>2011-03-11T14:40:27.146Z</time>
      </trkpt>
      <trkpt lat="45.36252" lon="4.22">
        <ele>737.223335775</ele>
        <time>2011-03-11T14:40:29.146Z</time>
      </trkpt>
      <trkpt lat="45.36257" lon="4.22002">
        <ele>737.364517704</ele>
        <time>2011-03-11T14:40:31.142Z</time>
      </trkpt>
      <trkpt lat="45.36266" lon="4.22005">
        <ele>737.610001628</ele>
        <time>2011-03-11T14:40:34.143Z</time>
      </trkpt>
      <trkpt lat="45.36271" lon="4.22008">
        <ele>737.640002441</ele>
        <time>2011-03-11T14:40:36.142Z</time>
      </trkpt>
      <trkpt lat="45.3628" lon="4.22012">
        <ele>737.553336589</ele>
        <time>2011-03-11T14:40:39.153Z</time>
      </trkpt>
      <trkpt lat="45.36293" lon="4.22018">
        <ele>737.360003662</ele>
        <time>2011-03-11T14:40:43.148Z</time>
      </trkpt>
      <trkpt lat="45.363" lon="4.2202">
        <ele>737.22258537</ele>
        <time>2011-03-11T14:40:45.144Z</time>
      </trkpt>
      <trkpt lat="45.36311" lon="4.22024">
        <ele>736.956669108</ele>
        <time>2011-03-11T14:40:48.149Z</time>
      </trkpt>
      <trkpt lat="45.36322" lon="4.22027">
        <ele>736.710001628</ele>
        <time>2011-03-11T14:40:51.154Z</time>
      </trkpt>
      <trkpt lat="45.36338" lon="4.22033">
        <ele>736.399998819</ele>
        <time>2011-03-11T14:40:55.144Z</time>
      </trkpt>
      <trkpt lat="45.3635" lon="4.22037">
        <ele>736.096774194</ele>
        <time>2011-03-11T14:40:58.146Z</time>
      </trkpt>
      <trkpt lat="45.36367" lon="4.22043">
        <ele>735.548387097</ele>
        <time>2011-03-11T14:41:02.146Z</time>
      </trkpt>
      <trkpt lat="45.36384" lon="4.2205">
        <ele>735.020001221</ele>
        <time>2011-03-11T14:41:06.358Z</time>
      </trkpt>
      <trkpt lat="45.36398" lon="4.22056">
        <ele>734.806669108</ele>
        <time>2011-03-11T14:41:09.161Z</time>
      </trkpt>
      <trkpt lat="45.36406" lon="4.22062">
        <ele>734.743334961</ele>
        <time>2011-03-11T14:41:11.162Z</time>
      </trkpt>
      <trkpt lat="45.36411" lon="4.22064">
        <ele>734.683335368</ele>
        <time>2011-03-11T14:41:12.170Z</time>
      </trkpt>
      <trkpt lat="45.36415" lon="4.22066">
        <ele>734.66451731</ele>
        <time>2011-03-11T14:41:13.141Z</time>
      </trkpt>
      <trkpt lat="45.36428" lon="4.22074">
        <ele>734.522581039</ele>
        <time>2011-03-11T14:41:16.144Z</time>
      </trkpt>
      <trkpt lat="45.36435" lon="4.22077">
        <ele>734.480000814</ele>
        <time>2011-03-11T14:41:18.184Z</time>
      </trkpt>
      <trkpt lat="45.36442" lon="4.22082">
        <ele>734.45</ele>
        <time>2011-03-11T14:41:20.154Z</time>
      </trkpt>
      <trkpt lat="45.36446" lon="4.22083">
        <ele>734.464516917</ele>
        <time>2011-03-11T14:41:21.148Z</time>
      </trkpt>
      <trkpt lat="45.3645" lon="4.22084">
        <ele>734.426668294</ele>
        <time>2011-03-11T14:41:22.184Z</time>
      </trkpt>
      <trkpt lat="45.36465" lon="4.22089">
        <ele>734.530002848</ele>
        <time>2011-03-11T14:41:26.175Z</time>
      </trkpt>
      <trkpt lat="45.36473" lon="4.22091">
        <ele>734.620003255</ele>
        <time>2011-03-11T14:41:28.215Z</time>
      </trkpt>
      <trkpt lat="45.3648" lon="4.22094">
        <ele>734.830002848</ele>
        <time>2011-03-11T14:41:30.230Z</time>
      </trkpt>
      <trkpt lat="45.36488" lon="4.22098">
        <ele>735.130002848</ele>
        <time>2011-03-11T14:41:32.163Z</time>
      </trkpt>
      <trkpt lat="45.36499" lon="4.22104">
        <ele>735.54666748</ele>
        <time>2011-03-11T14:41:35.177Z</time>
      </trkpt>
      <trkpt lat="45.3651" lon="4.22109">
        <ele>735.770968529</ele>
        <time>2011-03-11T14:41:38.141Z</time>
      </trkpt>
      <trkpt lat="45.36523" lon="4.22114">
        <ele>736.033335368</ele>
        <time>2011-03-11T14:41:41.176Z</time>
      </trkpt>
      <trkpt lat="45.36533" lon="4.22119">
        <ele>736.420003255</ele>
        <time>2011-03-11T14:41:44.210Z</time>
      </trkpt>
      <trkpt lat="45.36541" lon="4.22122">
        <ele>736.710003662</ele>
        <time>2011-03-11T14:41:46.186Z</time>
      </trkpt>
      <trkpt lat="45.36552" lon="4.22127">
        <ele>737.080002848</ele>
        <time>2011-03-11T14:41:49.189Z</time>
      </trkpt>
      <trkpt lat="45.36555" lon="4.22129">
        <ele>737.193336995</ele>
        <time>2011-03-11T14:41:50.224Z</time>
      </trkpt>
      <trkpt lat="45.36571" lon="4.22135">
        <ele>737.673337809</ele>
        <time>2011-03-11T14:41:54.190Z</time>
      </trkpt>
      <trkpt lat="45.36579" lon="4.22137">
        <ele>737.866670736</ele>
        <time>2011-03-11T14:41:56.187Z</time>
      </trkpt>
      <trkpt lat="45.36587" lon="4.2214">
        <ele>737.9935539</ele>
        <time>2011-03-11T14:41:58.195Z</time>
      </trkpt>
      <trkpt lat="45.36598" lon="4.22143">
        <ele>738.245166409</ele>
        <time>2011-03-11T14:42:01.181Z</time>
      </trkpt>
      <trkpt lat="45.36605" lon="4.22146">
        <ele>738.303338623</ele>
        <time>2011-03-11T14:42:03.195Z</time>
      </trkpt>
      <trkpt lat="45.36608" lon="4.22148">
        <ele>738.338715584</ele>
        <time>2011-03-11T14:42:04.194Z</time>
      </trkpt>
      <trkpt lat="45.36612" lon="4.22149">
        <ele>738.396673584</ele>
        <time>2011-03-11T14:42:05.230Z</time>
      </trkpt>
      <trkpt lat="45.36615" lon="4.2215">
        <ele>738.473339844</ele>
        <time>2011-03-11T14:42:06.221Z</time>
      </trkpt>
      <trkpt lat="45.36627" lon="4.22155">
        <ele>738.556673177</ele>
        <time>2011-03-11T14:42:09.185Z</time>
      </trkpt>
      <trkpt lat="45.36636" lon="4.22156">
        <ele>738.563338216</ele>
        <time>2011-03-11T14:42:11.185Z</time>
      </trkpt>
      <trkpt lat="45.36645" lon="4.2216">
        <ele>738.470972861</ele>
        <time>2011-03-11T14:42:13.182Z</time>
      </trkpt>
      <trkpt lat="45.36657" lon="4.22163">
        <ele>738.30645752</ele>
        <time>2011-03-11T14:42:16.152Z</time>
      </trkpt>
      <trkpt lat="45.36671" lon="4.22166">
        <ele>738.163338216</ele>
        <time>2011-03-11T14:42:19.190Z</time>
      </trkpt>
      <trkpt lat="45.3668" lon="4.22168">
        <ele>738.058070029</ele>
        <time>2011-03-11T14:42:21.154Z</time>
      </trkpt>
      <trkpt lat="45.36695" lon="4.22171">
        <ele>737.853336589</ele>
        <time>2011-03-11T14:42:24.205Z</time>
      </trkpt>
      <trkpt lat="45.367" lon="4.22173">
        <ele>737.796671549</ele>
        <time>2011-03-11T14:42:25.200Z</time>
      </trkpt>
      <trkpt lat="45.36711" lon="4.22175">
        <ele>737.683337402</ele>
        <time>2011-03-11T14:42:27.196Z</time>
      </trkpt>
      <trkpt lat="45.36716" lon="4.22176">
        <ele>737.658069241</ele>
        <time>2011-03-11T14:42:28.188Z</time>
      </trkpt>
      <trkpt lat="45.36723" lon="4.22178">
        <ele>737.500004069</ele>
        <time>2011-03-11T14:42:29.210Z</time>
      </trkpt>
      <trkpt lat="45.36735" lon="4.22182">
        <ele>737.290004476</ele>
        <time>2011-03-11T14:42:31.210Z</time>
      </trkpt>
      <trkpt lat="45.36742" lon="4.22185">
        <ele>737.163338216</ele>
        <time>2011-03-11T14:42:32.230Z</time>
      </trkpt>
      <trkpt lat="45.36759" lon="4.22189">
        <ele>736.926670329</ele>
        <time>2011-03-11T14:42:34.211Z</time>
      </trkpt>
      <trkpt lat="45.36768" lon="4.22191">
        <ele>736.909681751</ele>
        <time>2011-03-11T14:42:35.195Z</time>
      </trkpt>
      <trkpt lat="45.36778" lon="4.22196">
        <ele>736.822584583</ele>
        <time>2011-03-11T14:42:36.206Z</time>
      </trkpt>
      <trkpt lat="45.36786" lon="4.22193">
        <ele>736.646671549</ele>
        <time>2011-03-11T14:42:37.201Z</time>
      </trkpt>
      <trkpt lat="45.36795" lon="4.22194">
        <ele>736.57742408</ele>
        <time>2011-03-11T14:42:38.203Z</time>
      </trkpt>
      <trkpt lat="45.36802" lon="4.22196">
        <ele>736.430002848</ele>
        <time>2011-03-11T14:42:39.197Z</time>
      </trkpt>
      <trkpt lat="45.36814" lon="4.222">
        <ele>736.263336182</ele>
        <time>2011-03-11T14:42:41.203Z</time>
      </trkpt>
      <trkpt lat="45.3682" lon="4.22201">
        <ele>736.160001628</ele>
        <time>2011-03-11T14:42:42.205Z</time>
      </trkpt>
      <trkpt lat="45.36825" lon="4.22203">
        <ele>736.066668701</ele>
        <time>2011-03-11T14:42:43.205Z</time>
      </trkpt>
      <trkpt lat="45.36834" lon="4.22209">
        <ele>735.876668294</ele>
        <time>2011-03-11T14:42:45.201Z</time>
      </trkpt>
      <trkpt lat="45.36839" lon="4.22213">
        <ele>735.77333374</ele>
        <time>2011-03-11T14:42:46.204Z</time>
      </trkpt>
      <trkpt lat="45.36842" lon="4.22224">
        <ele>735.733333333</ele>
        <time>2011-03-11T14:42:47.207Z</time>
      </trkpt>
      <trkpt lat="45.36843" lon="4.22227">
        <ele>735.743332926</ele>
        <time>2011-03-11T14:42:48.216Z</time>
      </trkpt>
      <trkpt lat="45.36844" lon="4.22233">
        <ele>735.816666667</ele>
        <time>2011-03-11T14:42:49.219Z</time>
      </trkpt>
      <trkpt lat="45.36837" lon="4.2224">
        <ele>735.91612982</ele>
        <time>2011-03-11T14:42:50.183Z</time>
      </trkpt>
      <trkpt lat="45.36835" lon="4.22246">
        <ele>735.95806491</ele>
        <time>2011-03-11T14:42:51.154Z</time>
      </trkpt>
      <trkpt lat="45.36832" lon="4.22252">
        <ele>735.933333333</ele>
        <time>2011-03-11T14:42:52.157Z</time>
      </trkpt>
      <trkpt lat="45.3683" lon="4.22263">
        <ele>735.961289929</ele>
        <time>2011-03-11T14:42:54.174Z</time>
      </trkpt>
      <trkpt lat="45.36828" lon="4.22275">
        <ele>735.819999186</ele>
        <time>2011-03-11T14:42:56.203Z</time>
      </trkpt>
      <trkpt lat="45.36827" lon="4.22281">
        <ele>735.743332926</ele>
        <time>2011-03-11T14:42:57.215Z</time>
      </trkpt>
      <trkpt lat="45.36826" lon="4.22295">
        <ele>735.654836347</ele>
        <time>2011-03-11T14:42:59.155Z</time>
      </trkpt>
      <trkpt lat="45.36826" lon="4.2231">
        <ele>735.567739179</ele>
        <time>2011-03-11T14:43:01.153Z</time>
      </trkpt>
      <trkpt lat="45.36827" lon="4.22318">
        <ele>735.467737998</ele>
        <time>2011-03-11T14:43:02.159Z</time>
      </trkpt>
      <trkpt lat="45.36826" lon="4.22327">
        <ele>735.406446888</ele>
        <time>2011-03-11T14:43:03.163Z</time>
      </trkpt>
      <trkpt lat="45.36826" lon="4.22343">
        <ele>735.216123519</ele>
        <time>2011-03-11T14:43:05.158Z</time>
      </trkpt>
      <trkpt lat="45.36822" lon="4.22363">
        <ele>734.948381978</ele>
        <time>2011-03-11T14:43:07.163Z</time>
      </trkpt>
      <trkpt lat="45.36818" lon="4.22388">
        <ele>734.638705346</ele>
        <time>2011-03-11T14:43:10.165Z</time>
      </trkpt>
      <trkpt lat="45.36816" lon="4.22397">
        <ele>734.516125095</ele>
        <time>2011-03-11T14:43:11.162Z</time>
      </trkpt>
      <trkpt lat="45.36817" lon="4.22405">
        <ele>734.453328451</ele>
        <time>2011-03-11T14:43:12.216Z</time>
      </trkpt>
      <trkpt lat="45.3682" lon="4.22413">
        <ele>734.386661784</ele>
        <time>2011-03-11T14:43:13.207Z</time>
      </trkpt>
      <trkpt lat="45.36823" lon="4.2242">
        <ele>734.316662598</ele>
        <time>2011-03-11T14:43:14.237Z</time>
      </trkpt>
      <trkpt lat="45.36826" lon="4.22426">
        <ele>734.219350507</ele>
        <time>2011-03-11T14:43:15.173Z</time>
      </trkpt>
      <trkpt lat="45.3683" lon="4.22437">
        <ele>734.006448069</ele>
        <time>2011-03-11T14:43:17.190Z</time>
      </trkpt>
      <trkpt lat="45.36834" lon="4.22442">
        <ele>733.848384734</ele>
        <time>2011-03-11T14:43:18.215Z</time>
      </trkpt>
      <trkpt lat="45.36847" lon="4.22461">
        <ele>732.623329671</ele>
        <time>2011-03-11T14:43:22.164Z</time>
      </trkpt>
      <trkpt lat="45.36861" lon="4.22487">
        <ele>731.677417386</ele>
        <time>2011-03-11T14:43:26.163Z</time>
      </trkpt>
      <trkpt lat="45.36864" lon="4.22493">
        <ele>731.435481902</ele>
        <time>2011-03-11T14:43:27.164Z</time>
      </trkpt>
      <trkpt lat="45.36866" lon="4.225">
        <ele>731.212902438</ele>
        <time>2011-03-11T14:43:28.164Z</time>
      </trkpt>
      <trkpt lat="45.36869" lon="4.22505">
        <ele>730.863334147</ele>
        <time>2011-03-11T14:43:29.164Z</time>
      </trkpt>
      <trkpt lat="45.36875" lon="4.22517">
        <ele>730.386669922</ele>
        <time>2011-03-11T14:43:31.174Z</time>
      </trkpt>
      <trkpt lat="45.36879" lon="4.22523">
        <ele>730.173337809</ele>
        <time>2011-03-11T14:43:32.162Z</time>
      </trkpt>
      <trkpt lat="45.36881" lon="4.22529">
        <ele>730.061295048</ele>
        <time>2011-03-11T14:43:33.163Z</time>
      </trkpt>
      <trkpt lat="45.36891" lon="4.22551">
        <ele>729.196671549</ele>
        <time>2011-03-11T14:43:37.168Z</time>
      </trkpt>
      <trkpt lat="45.36896" lon="4.22563">
        <ele>728.987101893</ele>
        <time>2011-03-11T14:43:39.164Z</time>
      </trkpt>
      <trkpt lat="45.36901" lon="4.22582">
        <ele>728.561297017</ele>
        <time>2011-03-11T14:43:42.178Z</time>
      </trkpt>
      <trkpt lat="45.36904" lon="4.2259">
        <ele>728.396781675</ele>
        <time>2011-03-11T14:43:43.192Z</time>
      </trkpt>
      <trkpt lat="45.36908" lon="4.226">
        <ele>728.070974042</ele>
        <time>2011-03-11T14:43:45.164Z</time>
      </trkpt>
      <trkpt lat="45.36909" lon="4.22607">
        <ele>727.896673584</ele>
        <time>2011-03-11T14:43:46.169Z</time>
      </trkpt>
      <trkpt lat="45.36914" lon="4.22632">
        <ele>727.46667277</ele>
        <time>2011-03-11T14:43:50.165Z</time>
      </trkpt>
      <trkpt lat="45.36915" lon="4.22647">
        <ele>727.419358776</ele>
        <time>2011-03-11T14:43:52.160Z</time>
      </trkpt>
      <trkpt lat="45.36918" lon="4.22667">
        <ele>727.340004476</ele>
        <time>2011-03-11T14:43:55.162Z</time>
      </trkpt>
      <trkpt lat="45.36919" lon="4.22674">
        <ele>727.332261608</ele>
        <time>2011-03-11T14:43:56.161Z</time>
      </trkpt>
      <trkpt lat="45.36921" lon="4.22696">
        <ele>727.235485446</ele>
        <time>2011-03-11T14:43:59.162Z</time>
      </trkpt>
      <trkpt lat="45.36923" lon="4.22709">
        <ele>727.154838316</ele>
        <time>2011-03-11T14:44:01.167Z</time>
      </trkpt>
      <trkpt lat="45.36928" lon="4.22735">
        <ele>727.083329264</ele>
        <time>2011-03-11T14:44:05.204Z</time>
      </trkpt>
      <trkpt lat="45.36929" lon="4.22741">
        <ele>727.059995524</ele>
        <time>2011-03-11T14:44:06.430Z</time>
      </trkpt>
      <trkpt lat="45.36937" lon="4.22765">
        <ele>727.036659749</ele>
        <time>2011-03-11T14:44:10.553Z</time>
      </trkpt>
      <trkpt lat="45.36939" lon="4.22771">
        <ele>727.066658529</ele>
        <time>2011-03-11T14:44:11.170Z</time>
      </trkpt>
      <trkpt lat="45.36943" lon="4.22782">
        <ele>727.109670331</ele>
        <time>2011-03-11T14:44:13.163Z</time>
      </trkpt>
      <trkpt lat="45.36948" lon="4.22791">
        <ele>727.249991862</ele>
        <time>2011-03-11T14:44:15.166Z</time>
      </trkpt>
      <trkpt lat="45.36954" lon="4.22805">
        <ele>727.419991048</ele>
        <time>2011-03-11T14:44:18.214Z</time>
      </trkpt>
      <trkpt lat="45.36955" lon="4.2281">
        <ele>727.506658936</ele>
        <time>2011-03-11T14:44:19.215Z</time>
      </trkpt>
      <trkpt lat="45.36958" lon="4.22814">
        <ele>727.573325602</ele>
        <time>2011-03-11T14:44:20.208Z</time>
      </trkpt>
      <trkpt lat="45.36961" lon="4.22818">
        <ele>727.626660156</ele>
        <time>2011-03-11T14:44:21.210Z</time>
      </trkpt>
      <trkpt lat="45.36963" lon="4.22824">
        <ele>727.693326823</ele>
        <time>2011-03-11T14:44:22.210Z</time>
      </trkpt>
      <trkpt lat="45.36968" lon="4.22833">
        <ele>727.796661377</ele>
        <time>2011-03-11T14:44:24.174Z</time>
      </trkpt>
      <trkpt lat="45.3697" lon="4.22838">
        <ele>727.873327637</ele>
        <time>2011-03-11T14:44:25.179Z</time>
      </trkpt>
      <trkpt lat="45.36975" lon="4.22854">
        <ele>728.186659749</ele>
        <time>2011-03-11T14:44:28.172Z</time>
      </trkpt>
      <trkpt lat="45.36976" lon="4.2286">
        <ele>728.28332723</ele>
        <time>2011-03-11T14:44:29.168Z</time>
      </trkpt>
      <trkpt lat="45.36977" lon="4.22866">
        <ele>728.31934972</ele>
        <time>2011-03-11T14:44:30.202Z</time>
      </trkpt>
      <trkpt lat="45.36982" lon="4.22881">
        <ele>728.659997559</ele>
        <time>2011-03-11T14:44:33.243Z</time>
      </trkpt>
      <trkpt lat="45.36983" lon="4.22891">
        <ele>728.948385915</ele>
        <time>2011-03-11T14:44:36.168Z</time>
      </trkpt>
      <trkpt lat="45.36983" lon="4.22895">
        <ele>729.169999186</ele>
        <time>2011-03-11T14:44:37.170Z</time>
      </trkpt>
      <trkpt lat="45.36984" lon="4.22902">
        <ele>729.313332113</ele>
        <time>2011-03-11T14:44:38.170Z</time>
      </trkpt>
      <trkpt lat="45.36983" lon="4.22906">
        <ele>729.409675844</ele>
        <time>2011-03-11T14:44:39.179Z</time>
      </trkpt>
      <trkpt lat="45.36984" lon="4.22918">
        <ele>729.932258852</ele>
        <time>2011-03-11T14:44:42.174Z</time>
      </trkpt>
      <trkpt lat="45.36983" lon="4.22927">
        <ele>730.37333374</ele>
        <time>2011-03-11T14:44:44.174Z</time>
      </trkpt>
      <trkpt lat="45.36983" lon="4.2293">
        <ele>730.533333333</ele>
        <time>2011-03-11T14:44:45.169Z</time>
      </trkpt>
      <trkpt lat="45.36974" lon="4.22931">
        <ele>730.67666626</ele>
        <time>2011-03-11T14:44:46.169Z</time>
      </trkpt>
      <trkpt lat="45.36971" lon="4.22937">
        <ele>730.867742723</ele>
        <time>2011-03-11T14:44:48.171Z</time>
      </trkpt>
      <trkpt lat="45.36969" lon="4.22939">
        <ele>731.053334554</ele>
        <time>2011-03-11T14:44:49.350Z</time>
      </trkpt>
      <trkpt lat="45.36965" lon="4.2294">
        <ele>731.380646736</ele>
        <time>2011-03-11T14:44:51.171Z</time>
      </trkpt>
      <trkpt lat="45.36962" lon="4.22941">
        <ele>731.570968136</ele>
        <time>2011-03-11T14:44:52.165Z</time>
      </trkpt>
      <trkpt lat="45.36959" lon="4.22942">
        <ele>731.754839497</ele>
        <time>2011-03-11T14:44:53.170Z</time>
      </trkpt>
      <trkpt lat="45.36957" lon="4.22941">
        <ele>731.938710859</ele>
        <time>2011-03-11T14:44:54.170Z</time>
      </trkpt>
      <trkpt lat="45.36952" lon="4.22941">
        <ele>732.370001221</ele>
        <time>2011-03-11T14:44:56.172Z</time>
      </trkpt>
      <trkpt lat="45.36949" lon="4.22941">
        <ele>732.480645949</ele>
        <time>2011-03-11T14:44:57.176Z</time>
      </trkpt>
      <trkpt lat="45.36947" lon="4.2294">
        <ele>732.74666748</ele>
        <time>2011-03-11T14:44:58.177Z</time>
      </trkpt>
      <trkpt lat="45.36944" lon="4.2294">
        <ele>732.92666626</ele>
        <time>2011-03-11T14:44:59.176Z</time>
      </trkpt>
      <trkpt lat="45.3694" lon="4.22939">
        <ele>733.106665039</ele>
        <time>2011-03-11T14:45:00.245Z</time>
      </trkpt>
      <trkpt lat="45.36931" lon="4.22935">
        <ele>733.312901651</ele>
        <time>2011-03-11T14:45:02.172Z</time>
      </trkpt>
      <trkpt lat="45.36926" lon="4.22932">
        <ele>733.445158928</ele>
        <time>2011-03-11T14:45:03.176Z</time>
      </trkpt>
      <trkpt lat="45.36921" lon="4.22931">
        <ele>733.676664225</ele>
        <time>2011-03-11T14:45:04.209Z</time>
      </trkpt>
      <trkpt lat="45.36916" lon="4.22928">
        <ele>733.783331299</ele>
        <time>2011-03-11T14:45:05.330Z</time>
      </trkpt>
      <trkpt lat="45.36899" lon="4.2292">
        <ele>733.933331299</ele>
        <time>2011-03-11T14:45:08.180Z</time>
      </trkpt>
      <trkpt lat="45.3689" lon="4.2291">
        <ele>733.949997965</ele>
        <time>2011-03-11T14:45:10.180Z</time>
      </trkpt>
      <trkpt lat="45.3689" lon="4.229">
        <ele>733.899998819</ele>
        <time>2011-03-11T14:45:11.169Z</time>
      </trkpt>
      <trkpt lat="45.36885" lon="4.22894">
        <ele>733.949997965</ele>
        <time>2011-03-11T14:45:12.190Z</time>
      </trkpt>
      <trkpt lat="45.36883" lon="4.22891">
        <ele>733.943330892</ele>
        <time>2011-03-11T14:45:13.206Z</time>
      </trkpt>
      <trkpt lat="45.36873" lon="4.22877">
        <ele>733.90333252</ele>
        <time>2011-03-11T14:45:16.231Z</time>
      </trkpt>
      <trkpt lat="45.3687" lon="4.22873">
        <ele>733.936665853</ele>
        <time>2011-03-11T14:45:17.190Z</time>
      </trkpt>
      <trkpt lat="45.36864" lon="4.22867">
        <ele>733.919354839</ele>
        <time>2011-03-11T14:45:19.210Z</time>
      </trkpt>
      <trkpt lat="45.36856" lon="4.22866">
        <ele>733.746665446</ele>
        <time>2011-03-11T14:45:21.196Z</time>
      </trkpt>
      <trkpt lat="45.36853" lon="4.22864">
        <ele>733.663332113</ele>
        <time>2011-03-11T14:45:22.204Z</time>
      </trkpt>
      <trkpt lat="45.36848" lon="4.22864">
        <ele>733.60333252</ele>
        <time>2011-03-11T14:45:23.177Z</time>
      </trkpt>
      <trkpt lat="45.36843" lon="4.22863">
        <ele>733.549997965</ele>
        <time>2011-03-11T14:45:24.171Z</time>
      </trkpt>
      <trkpt lat="45.36835" lon="4.22861">
        <ele>733.396663411</ele>
        <time>2011-03-11T14:45:27.178Z</time>
      </trkpt>
      <trkpt lat="45.36831" lon="4.22861">
        <ele>733.436663818</ele>
        <time>2011-03-11T14:45:28.204Z</time>
      </trkpt>
      <trkpt lat="45.36829" lon="4.22862">
        <ele>733.526664225</ele>
        <time>2011-03-11T14:45:29.213Z</time>
      </trkpt>
      <trkpt lat="45.36824" lon="4.22863">
        <ele>733.769997152</ele>
        <time>2011-03-11T14:45:31.177Z</time>
      </trkpt>
      <trkpt lat="45.36821" lon="4.22862">
        <ele>733.916662598</ele>
        <time>2011-03-11T14:45:32.179Z</time>
      </trkpt>
      <trkpt lat="45.36815" lon="4.22863">
        <ele>734.209673482</ele>
        <time>2011-03-11T14:45:34.179Z</time>
      </trkpt>
      <trkpt lat="45.36812" lon="4.22864">
        <ele>734.361286779</ele>
        <time>2011-03-11T14:45:35.179Z</time>
      </trkpt>
      <trkpt lat="45.36807" lon="4.22865">
        <ele>734.726662191</ele>
        <time>2011-03-11T14:45:37.239Z</time>
      </trkpt>
      <trkpt lat="45.36804" lon="4.22865">
        <ele>734.909995524</ele>
        <time>2011-03-11T14:45:38.318Z</time>
      </trkpt>
      <trkpt lat="45.36798" lon="4.22867">
        <ele>735.276662191</ele>
        <time>2011-03-11T14:45:40.380Z</time>
      </trkpt>
      <trkpt lat="45.36795" lon="4.22869">
        <ele>735.503328451</ele>
        <time>2011-03-11T14:45:41.264Z</time>
      </trkpt>
      <trkpt lat="45.3679" lon="4.2287">
        <ele>735.841930759</ele>
        <time>2011-03-11T14:45:43.189Z</time>
      </trkpt>
      <trkpt lat="45.36788" lon="4.22871">
        <ele>736.058060185</ele>
        <time>2011-03-11T14:45:44.181Z</time>
      </trkpt>
      <trkpt lat="45.36783" lon="4.22872">
        <ele>736.458060972</ele>
        <time>2011-03-11T14:45:46.178Z</time>
      </trkpt>
      <trkpt lat="45.36774" lon="4.22875">
        <ele>737.096768287</ele>
        <time>2011-03-11T14:45:49.180Z</time>
      </trkpt>
      <trkpt lat="45.36763" lon="4.22878">
        <ele>738.256663005</ele>
        <time>2011-03-11T14:45:53.181Z</time>
      </trkpt>
      <trkpt lat="45.36755" lon="4.22883">
        <ele>738.832257671</ele>
        <time>2011-03-11T14:45:56.178Z</time>
      </trkpt>
      <trkpt lat="45.36749" lon="4.22885">
        <ele>739.300001575</ele>
        <time>2011-03-11T14:45:58.178Z</time>
      </trkpt>
      <trkpt lat="45.36741" lon="4.22888">
        <ele>739.683337402</ele>
        <time>2011-03-11T14:46:01.191Z</time>
      </trkpt>
      <trkpt lat="45.36733" lon="4.22891">
        <ele>740.006673177</ele>
        <time>2011-03-11T14:46:04.225Z</time>
      </trkpt>
      <trkpt lat="45.36729" lon="4.22893">
        <ele>740.290004476</ele>
        <time>2011-03-11T14:46:06.185Z</time>
      </trkpt>
      <trkpt lat="45.36726" lon="4.22895">
        <ele>740.345165622</ele>
        <time>2011-03-11T14:46:07.179Z</time>
      </trkpt>
      <trkpt lat="45.36721" lon="4.22895">
        <ele>740.687102287</ele>
        <time>2011-03-11T14:46:09.185Z</time>
      </trkpt>
      <trkpt lat="45.36715" lon="4.22898">
        <ele>741.177423293</ele>
        <time>2011-03-11T14:46:12.177Z</time>
      </trkpt>
      <trkpt lat="45.36712" lon="4.22897">
        <ele>741.312907557</ele>
        <time>2011-03-11T14:46:13.181Z</time>
      </trkpt>
      <trkpt lat="45.36706" lon="4.22896">
        <ele>741.683337402</ele>
        <time>2011-03-11T14:46:15.186Z</time>
      </trkpt>
      <trkpt lat="45.36704" lon="4.22897">
        <ele>741.823335775</ele>
        <time>2011-03-11T14:46:16.181Z</time>
      </trkpt>
      <trkpt lat="45.36702" lon="4.22896">
        <ele>742.130002848</ele>
        <time>2011-03-11T14:46:18.201Z</time>
      </trkpt>
      <trkpt lat="45.367" lon="4.22897">
        <ele>742.187100318</ele>
        <time>2011-03-11T14:46:19.175Z</time>
      </trkpt>
      <trkpt lat="45.36699" lon="4.22896">
        <ele>742.370003255</ele>
        <time>2011-03-11T14:46:20.180Z</time>
      </trkpt>
      <trkpt lat="45.36697" lon="4.22895">
        <ele>742.496671549</ele>
        <time>2011-03-11T14:46:21.518Z</time>
      </trkpt>
      <trkpt lat="45.36695" lon="4.22893">
        <ele>742.633337402</ele>
        <time>2011-03-11T14:46:22.180Z</time>
      </trkpt>
      <trkpt lat="45.36693" lon="4.22893">
        <ele>742.709681357</ele>
        <time>2011-03-11T14:46:23.181Z</time>
      </trkpt>
      <trkpt lat="45.36691" lon="4.22892">
        <ele>742.845165622</ele>
        <time>2011-03-11T14:46:24.178Z</time>
      </trkpt>
      <trkpt lat="45.36688" lon="4.22892">
        <ele>743.053336589</ele>
        <time>2011-03-11T14:46:25.179Z</time>
      </trkpt>
      <trkpt lat="45.36686" lon="4.22892">
        <ele>743.170971286</ele>
        <time>2011-03-11T14:46:26.177Z</time>
      </trkpt>
      <trkpt lat="45.36685" lon="4.2289">
        <ele>743.433337402</ele>
        <time>2011-03-11T14:46:27.181Z</time>
      </trkpt>
      <trkpt lat="45.36681" lon="4.22889">
        <ele>743.886669922</ele>
        <time>2011-03-11T14:46:29.187Z</time>
      </trkpt>
      <trkpt lat="45.36676" lon="4.22886">
        <ele>744.753336589</ele>
        <time>2011-03-11T14:46:32.180Z</time>
      </trkpt>
      <trkpt lat="45.36672" lon="4.22883">
        <ele>745.574197092</ele>
        <time>2011-03-11T14:46:35.181Z</time>
      </trkpt>
      <trkpt lat="45.36668" lon="4.22881">
        <ele>746.346673584</ele>
        <time>2011-03-11T14:46:37.223Z</time>
      </trkpt>
      <trkpt lat="45.36667" lon="4.22878">
        <ele>746.61667277</ele>
        <time>2011-03-11T14:46:38.218Z</time>
      </trkpt>
      <trkpt lat="45.36661" lon="4.22874">
        <ele>747.39000651</ele>
        <time>2011-03-11T14:46:41.223Z</time>
      </trkpt>
      <trkpt lat="45.36659" lon="4.22872">
        <ele>747.633339437</ele>
        <time>2011-03-11T14:46:42.200Z</time>
      </trkpt>
      <trkpt lat="45.36655" lon="4.2287">
        <ele>748.146673584</ele>
        <time>2011-03-11T14:46:44.198Z</time>
      </trkpt>
      <trkpt lat="45.3665" lon="4.22866">
        <ele>748.745170347</ele>
        <time>2011-03-11T14:46:47.185Z</time>
      </trkpt>
      <trkpt lat="45.36647" lon="4.22864">
        <ele>749.363342285</ele>
        <time>2011-03-11T14:46:49.180Z</time>
      </trkpt>
      <trkpt lat="45.36644" lon="4.22862">
        <ele>749.648394185</ele>
        <time>2011-03-11T14:46:51.231Z</time>
      </trkpt>
      <trkpt lat="45.36642" lon="4.22862">
        <ele>750.063340251</ele>
        <time>2011-03-11T14:46:52.200Z</time>
      </trkpt>
      <trkpt lat="45.36638" lon="4.22861">
        <ele>750.620007324</ele>
        <time>2011-03-11T14:46:54.216Z</time>
      </trkpt>
      <trkpt lat="45.36632" lon="4.22859">
        <ele>751.360007731</ele>
        <time>2011-03-11T14:46:57.217Z</time>
      </trkpt>
      <trkpt lat="45.36628" lon="4.2286">
        <ele>751.674200243</ele>
        <time>2011-03-11T14:46:59.186Z</time>
      </trkpt>
      <trkpt lat="45.36623" lon="4.2286">
        <ele>752.05484501</ele>
        <time>2011-03-11T14:47:01.180Z</time>
      </trkpt>
      <trkpt lat="45.36619" lon="4.22861">
        <ele>752.312907557</ele>
        <time>2011-03-11T14:47:03.208Z</time>
      </trkpt>
      <trkpt lat="45.36615" lon="4.22861">
        <ele>752.526670329</ele>
        <time>2011-03-11T14:47:05.364Z</time>
      </trkpt>
      <trkpt lat="45.36613" lon="4.22861">
        <ele>752.590002441</ele>
        <time>2011-03-11T14:47:06.614Z</time>
      </trkpt>
      <trkpt lat="45.3661" lon="4.22861">
        <ele>752.638711253</ele>
        <time>2011-03-11T14:47:07.215Z</time>
      </trkpt>
      <trkpt lat="45.36608" lon="4.2286">
        <ele>752.79666748</ele>
        <time>2011-03-11T14:47:08.316Z</time>
      </trkpt>
      <trkpt lat="45.36606" lon="4.22859">
        <ele>752.919999186</ele>
        <time>2011-03-11T14:47:09.261Z</time>
      </trkpt>
      <trkpt lat="45.36604" lon="4.22858">
        <ele>753.066666667</ele>
        <time>2011-03-11T14:47:10.642Z</time>
      </trkpt>
      <trkpt lat="45.36599" lon="4.22858">
        <ele>753.451612903</ele>
        <time>2011-03-11T14:47:13.189Z</time>
      </trkpt>
      <trkpt lat="45.36596" lon="4.22856">
        <ele>753.846665446</ele>
        <time>2011-03-11T14:47:15.191Z</time>
      </trkpt>
      <trkpt lat="45.36592" lon="4.22855">
        <ele>754.061289141</ele>
        <time>2011-03-11T14:47:17.185Z</time>
      </trkpt>
      <trkpt lat="45.36588" lon="4.22854">
        <ele>754.453330485</ele>
        <time>2011-03-11T14:47:19.224Z</time>
      </trkpt>
      <trkpt lat="45.36585" lon="4.22853">
        <ele>754.699996456</ele>
        <time>2011-03-11T14:47:21.204Z</time>
      </trkpt>
      <trkpt lat="45.36583" lon="4.22853">
        <ele>754.838707709</ele>
        <time>2011-03-11T14:47:22.187Z</time>
      </trkpt>
      <trkpt lat="45.36581" lon="4.22853">
        <ele>754.964512979</ele>
        <time>2011-03-11T14:47:23.223Z</time>
      </trkpt>
      <trkpt lat="45.36577" lon="4.22855">
        <ele>755.223327637</ele>
        <time>2011-03-11T14:47:25.237Z</time>
      </trkpt>
      <trkpt lat="45.36572" lon="4.22854">
        <ele>755.576660156</ele>
        <time>2011-03-11T14:47:28.254Z</time>
      </trkpt>
      <trkpt lat="45.36571" lon="4.22852">
        <ele>755.703326416</ele>
        <time>2011-03-11T14:47:29.199Z</time>
      </trkpt>
      <trkpt lat="45.36567" lon="4.22852">
        <ele>755.976660156</ele>
        <time>2011-03-11T14:47:31.188Z</time>
      </trkpt>
      <trkpt lat="45.36563" lon="4.22852">
        <ele>756.261283628</ele>
        <time>2011-03-11T14:47:33.188Z</time>
      </trkpt>
      <trkpt lat="45.3656" lon="4.22853">
        <ele>756.683865455</ele>
        <time>2011-03-11T14:47:35.190Z</time>
      </trkpt>
      <trkpt lat="45.36557" lon="4.22853">
        <ele>757.296663411</ele>
        <time>2011-03-11T14:47:37.252Z</time>
      </trkpt>
      <trkpt lat="45.36554" lon="4.22854">
        <ele>757.490319037</ele>
        <time>2011-03-11T14:47:38.196Z</time>
      </trkpt>
      <trkpt lat="45.36552" lon="4.22855">
        <ele>757.79677065</ele>
        <time>2011-03-11T14:47:39.185Z</time>
      </trkpt>
      <trkpt lat="45.36551" lon="4.22854">
        <ele>758.077416205</ele>
        <time>2011-03-11T14:47:40.186Z</time>
      </trkpt>
      <trkpt lat="45.36548" lon="4.22854">
        <ele>758.436663818</ele>
        <time>2011-03-11T14:47:41.186Z</time>
      </trkpt>
      <trkpt lat="45.36546" lon="4.22853">
        <ele>758.693330892</ele>
        <time>2011-03-11T14:47:42.226Z</time>
      </trkpt>
      <trkpt lat="45.36544" lon="4.2285">
        <ele>758.939996338</ele>
        <time>2011-03-11T14:47:43.207Z</time>
      </trkpt>
      <trkpt lat="45.36542" lon="4.22848">
        <ele>759.096770256</ele>
        <time>2011-03-11T14:47:44.189Z</time>
      </trkpt>
      <trkpt lat="45.36538" lon="4.22845">
        <ele>759.693328857</ele>
        <time>2011-03-11T14:47:46.201Z</time>
      </trkpt>
      <trkpt lat="45.36536" lon="4.22841">
        <ele>760.183329264</ele>
        <time>2011-03-11T14:47:48.194Z</time>
      </trkpt>
      <trkpt lat="45.36536" lon="4.22835">
        <ele>760.274189611</ele>
        <time>2011-03-11T14:47:49.192Z</time>
      </trkpt>
      <trkpt lat="45.36535" lon="4.22831">
        <ele>760.499996062</ele>
        <time>2011-03-11T14:47:50.192Z</time>
      </trkpt>
      <trkpt lat="45.36535" lon="4.22828">
        <ele>760.703223444</ele>
        <time>2011-03-11T14:47:51.190Z</time>
      </trkpt>
      <trkpt lat="45.36533" lon="4.22822">
        <ele>761.122578283</ele>
        <time>2011-03-11T14:47:53.190Z</time>
      </trkpt>
      <trkpt lat="45.36534" lon="4.22818">
        <ele>761.525806058</ele>
        <time>2011-03-11T14:47:55.222Z</time>
      </trkpt>
      <trkpt lat="45.36532" lon="4.22812">
        <ele>761.900000788</ele>
        <time>2011-03-11T14:47:57.201Z</time>
      </trkpt>
      <trkpt lat="45.36531" lon="4.2281">
        <ele>762.070968136</ele>
        <time>2011-03-11T14:47:58.186Z</time>
      </trkpt>
      <trkpt lat="45.3653" lon="4.22803">
        <ele>762.309676632</ele>
        <time>2011-03-11T14:47:59.190Z</time>
      </trkpt>
      <trkpt lat="45.36528" lon="4.22801">
        <ele>762.679998779</ele>
        <time>2011-03-11T14:48:00.254Z</time>
      </trkpt>
      <trkpt lat="45.36524" lon="4.22801">
        <ele>762.933333333</ele>
        <time>2011-03-11T14:48:01.189Z</time>
      </trkpt>
      <trkpt lat="45.36519" lon="4.22799">
        <ele>763.190000407</ele>
        <time>2011-03-11T14:48:02.201Z</time>
      </trkpt>
      <trkpt lat="45.36515" lon="4.22799">
        <ele>763.430000814</ele>
        <time>2011-03-11T14:48:03.190Z</time>
      </trkpt>
      <trkpt lat="45.36511" lon="4.22795">
        <ele>763.638711253</ele>
        <time>2011-03-11T14:48:04.186Z</time>
      </trkpt>
      <trkpt lat="45.36507" lon="4.22793">
        <ele>763.906452794</ele>
        <time>2011-03-11T14:48:05.188Z</time>
      </trkpt>
      <trkpt lat="45.36505" lon="4.22791">
        <ele>764.203225413</ele>
        <time>2011-03-11T14:48:06.188Z</time>
      </trkpt>
      <trkpt lat="45.36502" lon="4.22788">
        <ele>764.432256883</ele>
        <time>2011-03-11T14:48:07.191Z</time>
      </trkpt>
      <trkpt lat="45.365" lon="4.22783">
        <ele>764.645159321</ele>
        <time>2011-03-11T14:48:08.189Z</time>
      </trkpt>
      <trkpt lat="45.36498" lon="4.2278">
        <ele>764.859999593</ele>
        <time>2011-03-11T14:48:09.227Z</time>
      </trkpt>
      <trkpt lat="45.36495" lon="4.2277">
        <ele>765.290322581</ele>
        <time>2011-03-11T14:48:12.191Z</time>
      </trkpt>
      <trkpt lat="45.36493" lon="4.22768">
        <ele>765.41612982</ele>
        <time>2011-03-11T14:48:13.188Z</time>
      </trkpt>
      <trkpt lat="45.36491" lon="4.22766">
        <ele>765.590002441</ele>
        <time>2011-03-11T14:48:14.190Z</time>
      </trkpt>
      <trkpt lat="45.36489" lon="4.22765">
        <ele>765.703336589</ele>
        <time>2011-03-11T14:48:15.194Z</time>
      </trkpt>
      <trkpt lat="45.36487" lon="4.22764">
        <ele>765.820003255</ele>
        <time>2011-03-11T14:48:16.220Z</time>
      </trkpt>
      <trkpt lat="45.36485" lon="4.22763">
        <ele>765.946669515</ele>
        <time>2011-03-11T14:48:17.231Z</time>
      </trkpt>
      <trkpt lat="45.36483" lon="4.22762">
        <ele>766.070003255</ele>
        <time>2011-03-11T14:48:18.212Z</time>
      </trkpt>
      <trkpt lat="45.36478" lon="4.22758">
        <ele>766.420001221</ele>
        <time>2011-03-11T14:48:21.196Z</time>
      </trkpt>
      <trkpt lat="45.36476" lon="4.22756">
        <ele>766.516666667</ele>
        <time>2011-03-11T14:48:22.199Z</time>
      </trkpt>
      <trkpt lat="45.36472" lon="4.22754">
        <ele>766.716666667</ele>
        <time>2011-03-11T14:48:24.193Z</time>
      </trkpt>
      <trkpt lat="45.36469" lon="4.22753">
        <ele>766.677419355</ele>
        <time>2011-03-11T14:48:25.190Z</time>
      </trkpt>
      <trkpt lat="45.36462" lon="4.22751">
        <ele>767.056665039</ele>
        <time>2011-03-11T14:48:28.213Z</time>
      </trkpt>
      <trkpt lat="45.36454" lon="4.22747">
        <ele>766.949997965</ele>
        <time>2011-03-11T14:48:31.200Z</time>
      </trkpt>
      <trkpt lat="45.36444" lon="4.22743">
        <ele>766.55333252</ele>
        <time>2011-03-11T14:48:35.200Z</time>
      </trkpt>
      <trkpt lat="45.36439" lon="4.22742">
        <ele>766.306665039</ele>
        <time>2011-03-11T14:48:37.230Z</time>
      </trkpt>
      <trkpt lat="45.36436" lon="4.22741">
        <ele>766.229998779</ele>
        <time>2011-03-11T14:48:38.242Z</time>
      </trkpt>
      <trkpt lat="45.36434" lon="4.22739">
        <ele>766.139998372</ele>
        <time>2011-03-11T14:48:39.234Z</time>
      </trkpt>
      <trkpt lat="45.36431" lon="4.22737">
        <ele>766.036665853</ele>
        <time>2011-03-11T14:48:40.265Z</time>
      </trkpt>
      <trkpt lat="45.36423" lon="4.22734">
        <ele>765.836663818</ele>
        <time>2011-03-11T14:48:43.237Z</time>
      </trkpt>
      <trkpt lat="45.36412" lon="4.22731">
        <ele>765.703328451</ele>
        <time>2011-03-11T14:48:47.246Z</time>
      </trkpt>
      <trkpt lat="45.36407" lon="4.22728">
        <ele>765.593328857</ele>
        <time>2011-03-11T14:48:49.238Z</time>
      </trkpt>
      <trkpt lat="45.36403" lon="4.22726">
        <ele>765.541931152</ele>
        <time>2011-03-11T14:48:50.249Z</time>
      </trkpt>
      <trkpt lat="45.36401" lon="4.22724">
        <ele>765.429996745</ele>
        <time>2011-03-11T14:48:51.240Z</time>
      </trkpt>
      <trkpt lat="45.36398" lon="4.22721">
        <ele>765.366664632</ele>
        <time>2011-03-11T14:48:52.267Z</time>
      </trkpt>
      <trkpt lat="45.36396" lon="4.22718">
        <ele>765.329998779</ele>
        <time>2011-03-11T14:48:53.241Z</time>
      </trkpt>
      <trkpt lat="45.36392" lon="4.22709">
        <ele>765.296665446</ele>
        <time>2011-03-11T14:48:55.241Z</time>
      </trkpt>
      <trkpt lat="45.36389" lon="4.227">
        <ele>765.266666667</ele>
        <time>2011-03-11T14:48:57.243Z</time>
      </trkpt>
      <trkpt lat="45.36386" lon="4.22695">
        <ele>765.283333333</ele>
        <time>2011-03-11T14:48:58.234Z</time>
      </trkpt>
      <trkpt lat="45.36383" lon="4.22692">
        <ele>765.309999593</ele>
        <time>2011-03-11T14:48:59.255Z</time>
      </trkpt>
      <trkpt lat="45.36377" lon="4.22682">
        <ele>765.336665853</ele>
        <time>2011-03-11T14:49:01.231Z</time>
      </trkpt>
      <trkpt lat="45.36375" lon="4.22677">
        <ele>765.366664632</ele>
        <time>2011-03-11T14:49:02.244Z</time>
      </trkpt>
      <trkpt lat="45.36372" lon="4.22674">
        <ele>765.419997152</ele>
        <time>2011-03-11T14:49:03.248Z</time>
      </trkpt>
      <trkpt lat="45.3636" lon="4.22656">
        <ele>765.496663411</ele>
        <time>2011-03-11T14:49:07.247Z</time>
      </trkpt>
      <trkpt lat="45.36358" lon="4.22651">
        <ele>765.512900076</ele>
        <time>2011-03-11T14:49:08.242Z</time>
      </trkpt>
      <trkpt lat="45.36349" lon="4.22638">
        <ele>765.42257592</ele>
        <time>2011-03-11T14:49:11.256Z</time>
      </trkpt>
      <trkpt lat="45.36347" lon="4.22633">
        <ele>765.38064083</ele>
        <time>2011-03-11T14:49:12.246Z</time>
      </trkpt>
      <trkpt lat="45.36344" lon="4.22627">
        <ele>765.359995524</ele>
        <time>2011-03-11T14:49:13.270Z</time>
      </trkpt>
      <trkpt lat="45.36335" lon="4.22611">
        <ele>765.256663005</ele>
        <time>2011-03-11T14:49:16.282Z</time>
      </trkpt>
      <trkpt lat="45.36331" lon="4.22607">
        <ele>765.206448463</ele>
        <time>2011-03-11T14:49:17.243Z</time>
      </trkpt>
      <trkpt lat="45.36327" lon="4.22603">
        <ele>765.146663411</ele>
        <time>2011-03-11T14:49:18.246Z</time>
      </trkpt>
      <trkpt lat="45.36323" lon="4.22592">
        <ele>765.173329671</ele>
        <time>2011-03-11T14:49:20.267Z</time>
      </trkpt>
      <trkpt lat="45.36318" lon="4.22583">
        <ele>765.222577495</ele>
        <time>2011-03-11T14:49:22.259Z</time>
      </trkpt>
      <trkpt lat="45.36317" lon="4.2258">
        <ele>765.316662598</ele>
        <time>2011-03-11T14:49:23.251Z</time>
      </trkpt>
      <trkpt lat="45.36315" lon="4.22574">
        <ele>765.346663411</ele>
        <time>2011-03-11T14:49:24.249Z</time>
      </trkpt>
      <trkpt lat="45.36313" lon="4.22569">
        <ele>765.309997559</ele>
        <time>2011-03-11T14:49:25.371Z</time>
      </trkpt>
      <trkpt lat="45.36304" lon="4.22548">
        <ele>765.133331299</ele>
        <time>2011-03-11T14:49:28.246Z</time>
      </trkpt>
      <trkpt lat="45.36301" lon="4.22541">
        <ele>765.063332113</ele>
        <time>2011-03-11T14:49:29.720Z</time>
      </trkpt>
      <trkpt lat="45.36297" lon="4.22535">
        <ele>765.029031077</ele>
        <time>2011-03-11T14:49:30.247Z</time>
      </trkpt>
      <trkpt lat="45.3629" lon="4.2252">
        <ele>764.84666748</ele>
        <time>2011-03-11T14:49:32.246Z</time>
      </trkpt>
      <trkpt lat="45.36287" lon="4.22514">
        <ele>764.774193548</ele>
        <time>2011-03-11T14:49:33.248Z</time>
      </trkpt>
      <trkpt lat="45.36281" lon="4.22501">
        <ele>764.522581039</ele>
        <time>2011-03-11T14:49:35.245Z</time>
      </trkpt>
      <trkpt lat="45.36278" lon="4.22493">
        <ele>764.386667887</ele>
        <time>2011-03-11T14:49:36.277Z</time>
      </trkpt>
      <trkpt lat="45.36275" lon="4.22485">
        <ele>764.306667074</ele>
        <time>2011-03-11T14:49:37.255Z</time>
      </trkpt>
      <trkpt lat="45.36272" lon="4.22479">
        <ele>764.233333333</ele>
        <time>2011-03-11T14:49:38.249Z</time>
      </trkpt>
      <trkpt lat="45.36269" lon="4.22472">
        <ele>764.163334147</ele>
        <time>2011-03-11T14:49:39.245Z</time>
      </trkpt>
      <trkpt lat="45.36263" lon="4.22458">
        <ele>764.025808027</ele>
        <time>2011-03-11T14:49:41.244Z</time>
      </trkpt>
      <trkpt lat="45.36259" lon="4.22441">
        <ele>763.816128638</ele>
        <time>2011-03-11T14:49:43.246Z</time>
      </trkpt>
      <trkpt lat="45.36258" lon="4.22429">
        <ele>763.483333333</ele>
        <time>2011-03-11T14:49:45.276Z</time>
      </trkpt>
      <trkpt lat="45.36254" lon="4.22407">
        <ele>763.113334147</ele>
        <time>2011-03-11T14:49:49.247Z</time>
      </trkpt>
      <trkpt lat="45.36253" lon="4.224">
        <ele>763.051614085</ele>
        <time>2011-03-11T14:49:50.250Z</time>
      </trkpt>
      <trkpt lat="45.3625" lon="4.22384">
        <ele>762.680644374</ele>
        <time>2011-03-11T14:49:53.250Z</time>
      </trkpt>
      <trkpt lat="45.3625" lon="4.22377">
        <ele>762.459997559</ele>
        <time>2011-03-11T14:49:54.262Z</time>
      </trkpt>
      <trkpt lat="45.36248" lon="4.22374">
        <ele>762.425804877</ele>
        <time>2011-03-11T14:49:55.256Z</time>
      </trkpt>
      <trkpt lat="45.36246" lon="4.22368">
        <ele>762.263332113</ele>
        <time>2011-03-11T14:49:56.247Z</time>
      </trkpt>
      <trkpt lat="45.36244" lon="4.22361">
        <ele>762.216664632</ele>
        <time>2011-03-11T14:49:57.248Z</time>
      </trkpt>
      <trkpt lat="45.36241" lon="4.22344">
        <ele>762.090320218</ele>
        <time>2011-03-11T14:49:59.246Z</time>
      </trkpt>
      <trkpt lat="45.36239" lon="4.22337">
        <ele>761.899997965</ele>
        <time>2011-03-11T14:50:00.253Z</time>
      </trkpt>
      <trkpt lat="45.36237" lon="4.2233">
        <ele>761.803224625</ele>
        <time>2011-03-11T14:50:01.242Z</time>
      </trkpt>
      <trkpt lat="45.3623" lon="4.22306">
        <ele>761.370965773</ele>
        <time>2011-03-11T14:50:04.250Z</time>
      </trkpt>
      <trkpt lat="45.36224" lon="4.22291">
        <ele>761.043332926</ele>
        <time>2011-03-11T14:50:06.640Z</time>
      </trkpt>
      <trkpt lat="45.36218" lon="4.22277">
        <ele>760.706667074</ele>
        <time>2011-03-11T14:50:08.296Z</time>
      </trkpt>
      <trkpt lat="45.36213" lon="4.22259">
        <ele>760.42666626</ele>
        <time>2011-03-11T14:50:10.250Z</time>
      </trkpt>
      <trkpt lat="45.3621" lon="4.22241">
        <ele>760.186667887</ele>
        <time>2011-03-11T14:50:12.266Z</time>
      </trkpt>
      <trkpt lat="45.36208" lon="4.22232">
        <ele>760.073335775</ele>
        <time>2011-03-11T14:50:13.258Z</time>
      </trkpt>
      <trkpt lat="45.36208" lon="4.22221">
        <ele>759.951614872</ele>
        <time>2011-03-11T14:50:14.235Z</time>
      </trkpt>
      <trkpt lat="45.36204" lon="4.22199">
        <ele>759.567743117</ele>
        <time>2011-03-11T14:50:16.231Z</time>
      </trkpt>
      <trkpt lat="45.362" lon="4.22188">
        <ele>759.246669515</ele>
        <time>2011-03-11T14:50:17.270Z</time>
      </trkpt>
      <trkpt lat="45.36196" lon="4.22176">
        <ele>759.029035014</ele>
        <time>2011-03-11T14:50:18.248Z</time>
      </trkpt>
      <trkpt lat="45.36191" lon="4.22165">
        <ele>758.613334147</ele>
        <time>2011-03-11T14:50:19.248Z</time>
      </trkpt>
      <trkpt lat="45.36187" lon="4.22154">
        <ele>758.341936665</ele>
        <time>2011-03-11T14:50:20.249Z</time>
      </trkpt>
      <trkpt lat="45.36184" lon="4.22142">
        <ele>757.967741935</ele>
        <time>2011-03-11T14:50:21.251Z</time>
      </trkpt>
      <trkpt lat="45.36179" lon="4.22129">
        <ele>757.554839103</ele>
        <time>2011-03-11T14:50:22.243Z</time>
      </trkpt>
      <trkpt lat="45.36175" lon="4.22117">
        <ele>757</ele>
        <time>2011-03-11T14:50:23.273Z</time>
      </trkpt>
      <trkpt lat="45.36171" lon="4.22105">
        <ele>756.722581433</ele>
        <time>2011-03-11T14:50:24.246Z</time>
      </trkpt>
      <trkpt lat="45.36162" lon="4.22081">
        <ele>755.586667887</ele>
        <time>2011-03-11T14:50:26.267Z</time>
      </trkpt>
      <trkpt lat="45.36159" lon="4.2207">
        <ele>755.056669108</ele>
        <time>2011-03-11T14:50:27.254Z</time>
      </trkpt>
      <trkpt lat="45.36157" lon="4.22061">
        <ele>754.738712434</ele>
        <time>2011-03-11T14:50:28.243Z</time>
      </trkpt>
      <trkpt lat="45.36155" lon="4.22054">
        <ele>754.209681357</ele>
        <time>2011-03-11T14:50:29.236Z</time>
      </trkpt>
      <trkpt lat="45.36152" lon="4.22049">
        <ele>753.690325337</ele>
        <time>2011-03-11T14:50:30.241Z</time>
      </trkpt>
      <trkpt lat="45.36148" lon="4.22044">
        <ele>752.99666748</ele>
        <time>2011-03-11T14:50:31.665Z</time>
      </trkpt>
      <trkpt lat="45.36144" lon="4.22042">
        <ele>752.677419355</ele>
        <time>2011-03-11T14:50:32.193Z</time>
      </trkpt>
      <trkpt lat="45.36139" lon="4.2204">
        <ele>752.180646343</ele>
        <time>2011-03-11T14:50:33.241Z</time>
      </trkpt>
      <trkpt lat="45.36132" lon="4.22039">
        <ele>751.430000814</ele>
        <time>2011-03-11T14:50:34.257Z</time>
      </trkpt>
      <trkpt lat="45.36126" lon="4.22039">
        <ele>750.886667887</ele>
        <time>2011-03-11T14:50:35.272Z</time>
      </trkpt>
      <trkpt lat="45.36116" lon="4.22031">
        <ele>749.425808814</ele>
        <time>2011-03-11T14:50:38.263Z</time>
      </trkpt>
      <trkpt lat="45.36112" lon="4.22025">
        <ele>748.470001221</ele>
        <time>2011-03-11T14:50:39.288Z</time>
      </trkpt>
      <trkpt lat="45.3611" lon="4.22018">
        <ele>747.776668294</ele>
        <time>2011-03-11T14:50:40.285Z</time>
      </trkpt>
      <trkpt lat="45.36108" lon="4.2201">
        <ele>747.110001628</ele>
        <time>2011-03-11T14:50:41.251Z</time>
      </trkpt>
      <trkpt lat="45.36105" lon="4.21993">
        <ele>746.16451731</ele>
        <time>2011-03-11T14:50:43.237Z</time>
      </trkpt>
      <trkpt lat="45.36104" lon="4.21977">
        <ele>744.6</ele>
        <time>2011-03-11T14:50:45.253Z</time>
      </trkpt>
      <trkpt lat="45.36103" lon="4.21964">
        <ele>743.861290716</ele>
        <time>2011-03-11T14:50:47.234Z</time>
      </trkpt>
      <trkpt lat="45.36104" lon="4.21963">
        <ele>743.02666626</ele>
        <time>2011-03-11T14:50:48.253Z</time>
      </trkpt>
      <trkpt lat="45.36101" lon="4.21961">
        <ele>742.563334147</ele>
        <time>2011-03-11T14:50:49.271Z</time>
      </trkpt>
      <trkpt lat="45.36094" lon="4.21963">
        <ele>742.12333374</ele>
        <time>2011-03-11T14:50:50.268Z</time>
      </trkpt>
      <trkpt lat="45.36092" lon="4.2196">
        <ele>741.706667074</ele>
        <time>2011-03-11T14:50:51.275Z</time>
      </trkpt>
      <trkpt lat="45.36088" lon="4.21958">
        <ele>741.290000407</ele>
        <time>2011-03-11T14:50:52.256Z</time>
      </trkpt>
      <trkpt lat="45.36085" lon="4.21956">
        <ele>740.853334554</ele>
        <time>2011-03-11T14:50:53.543Z</time>
      </trkpt>
      <trkpt lat="45.36081" lon="4.21957">
        <ele>740.409999593</ele>
        <time>2011-03-11T14:50:54.374Z</time>
      </trkpt>
      <trkpt lat="45.36077" lon="4.21957">
        <ele>740.290322581</ele>
        <time>2011-03-11T14:50:55.213Z</time>
      </trkpt>
      <trkpt lat="45.36073" lon="4.2196">
        <ele>739.961289929</ele>
        <time>2011-03-11T14:50:56.244Z</time>
      </trkpt>
      <trkpt lat="45.36062" lon="4.21962">
        <ele>739.425804877</ele>
        <time>2011-03-11T14:50:58.240Z</time>
      </trkpt>
      <trkpt lat="45.36059" lon="4.21966">
        <ele>738.973329671</ele>
        <time>2011-03-11T14:50:59.249Z</time>
      </trkpt>
      <trkpt lat="45.36056" lon="4.21966">
        <ele>738.676664225</ele>
        <time>2011-03-11T14:51:00.362Z</time>
      </trkpt>
      <trkpt lat="45.36043" lon="4.21972">
        <ele>738.116666667</ele>
        <time>2011-03-11T14:51:02.269Z</time>
      </trkpt>
      <trkpt lat="45.36038" lon="4.21972">
        <ele>738.003225019</ele>
        <time>2011-03-11T14:51:03.235Z</time>
      </trkpt>
      <trkpt lat="45.36035" lon="4.21975">
        <ele>737.761289535</ele>
        <time>2011-03-11T14:51:04.243Z</time>
      </trkpt>
      <trkpt lat="45.3603" lon="4.21978">
        <ele>737.570968136</ele>
        <time>2011-03-11T14:51:05.270Z</time>
      </trkpt>
      <trkpt lat="45.36024" lon="4.2198">
        <ele>737.146665446</ele>
        <time>2011-03-11T14:51:07.257Z</time>
      </trkpt>
      <trkpt lat="45.36022" lon="4.21987">
        <ele>737.190321399</ele>
        <time>2011-03-11T14:51:08.245Z</time>
      </trkpt>
      <trkpt lat="45.36017" lon="4.21996">
        <ele>737.200000394</ele>
        <time>2011-03-11T14:51:10.235Z</time>
      </trkpt>
      <trkpt lat="45.36018" lon="4.22003">
        <ele>737.180000814</ele>
        <time>2011-03-11T14:51:11.269Z</time>
      </trkpt>
      <trkpt lat="45.36013" lon="4.2201">
        <ele>737.274195517</ele>
        <time>2011-03-11T14:51:13.230Z</time>
      </trkpt>
      <trkpt lat="45.36013" lon="4.22013">
        <ele>737.348388672</ele>
        <time>2011-03-11T14:51:14.235Z</time>
      </trkpt>
      <trkpt lat="45.36012" lon="4.22016">
        <ele>737.387098743</ele>
        <time>2011-03-11T14:51:15.248Z</time>
      </trkpt>
      <trkpt lat="45.36007" lon="4.22021">
        <ele>737.390002441</ele>
        <time>2011-03-11T14:51:16.245Z</time>
      </trkpt>
      <trkpt lat="45.36" lon="4.22035">
        <ele>737.551614085</ele>
        <time>2011-03-11T14:51:19.250Z</time>
      </trkpt>
      <trkpt lat="45.35996" lon="4.22039">
        <ele>737.606453188</ele>
        <time>2011-03-11T14:51:20.255Z</time>
      </trkpt>
      <trkpt lat="45.35994" lon="4.22045">
        <ele>737.645163259</ele>
        <time>2011-03-11T14:51:21.254Z</time>
      </trkpt>
      <trkpt lat="45.35991" lon="4.22049">
        <ele>737.677421324</ele>
        <time>2011-03-11T14:51:22.249Z</time>
      </trkpt>
      <trkpt lat="45.35989" lon="4.22054">
        <ele>737.738712434</ele>
        <time>2011-03-11T14:51:23.299Z</time>
      </trkpt>
      <trkpt lat="45.35988" lon="4.22058">
        <ele>737.806453582</ele>
        <time>2011-03-11T14:51:24.260Z</time>
      </trkpt>
      <trkpt lat="45.35984" lon="4.22067">
        <ele>737.860001628</ele>
        <time>2011-03-11T14:51:26.255Z</time>
      </trkpt>
      <trkpt lat="45.3598" lon="4.22079">
        <ele>737.816668701</ele>
        <time>2011-03-11T14:51:28.267Z</time>
      </trkpt>
      <trkpt lat="45.35977" lon="4.22084">
        <ele>737.833335368</ele>
        <time>2011-03-11T14:51:29.253Z</time>
      </trkpt>
      <trkpt lat="45.35976" lon="4.2209">
        <ele>737.829034621</ele>
        <time>2011-03-11T14:51:30.258Z</time>
      </trkpt>
      <trkpt lat="45.35969" lon="4.22104">
        <ele>738.19666748</ele>
        <time>2011-03-11T14:51:33.255Z</time>
      </trkpt>
      <trkpt lat="45.35968" lon="4.22109">
        <ele>738.3</ele>
        <time>2011-03-11T14:51:34.291Z</time>
      </trkpt>
      <trkpt lat="45.35966" lon="4.22114">
        <ele>738.319355626</ele>
        <time>2011-03-11T14:51:35.235Z</time>
      </trkpt>
      <trkpt lat="45.35965" lon="4.2212">
        <ele>738.469999186</ele>
        <time>2011-03-11T14:51:36.267Z</time>
      </trkpt>
      <trkpt lat="45.35964" lon="4.22126">
        <ele>738.536665853</ele>
        <time>2011-03-11T14:51:37.276Z</time>
      </trkpt>
      <trkpt lat="45.35961" lon="4.22131">
        <ele>738.546665446</ele>
        <time>2011-03-11T14:51:38.250Z</time>
      </trkpt>
      <trkpt lat="45.35958" lon="4.22141">
        <ele>738.493547993</ele>
        <time>2011-03-11T14:51:40.230Z</time>
      </trkpt>
      <trkpt lat="45.35956" lon="4.22147">
        <ele>738.445160897</ele>
        <time>2011-03-11T14:51:41.263Z</time>
      </trkpt>
      <trkpt lat="45.35951" lon="4.2215">
        <ele>738.406450825</ele>
        <time>2011-03-11T14:51:42.262Z</time>
      </trkpt>
      <trkpt lat="45.35944" lon="4.22154">
        <ele>738.349997965</ele>
        <time>2011-03-11T14:51:43.285Z</time>
      </trkpt>
      <trkpt lat="45.35935" lon="4.22151">
        <ele>738.233331299</ele>
        <time>2011-03-11T14:51:44.283Z</time>
      </trkpt>
      <trkpt lat="45.35928" lon="4.22151">
        <ele>738.146665446</ele>
        <time>2011-03-11T14:51:45.265Z</time>
      </trkpt>
      <trkpt lat="45.35922" lon="4.22153">
        <ele>738.073331706</ele>
        <time>2011-03-11T14:51:46.259Z</time>
      </trkpt>
      <trkpt lat="45.35911" lon="4.22155">
        <ele>738.030000814</ele>
        <time>2011-03-11T14:51:48.301Z</time>
      </trkpt>
      <trkpt lat="45.35906" lon="4.22155">
        <ele>737.97666626</ele>
        <time>2011-03-11T14:51:49.282Z</time>
      </trkpt>
      <trkpt lat="45.35897" lon="4.22155">
        <ele>737.969999186</ele>
        <time>2011-03-11T14:51:51.291Z</time>
      </trkpt>
      <trkpt lat="45.35893" lon="4.22157">
        <ele>738.02333374</ele>
        <time>2011-03-11T14:51:52.264Z</time>
      </trkpt>
      <trkpt lat="45.35884" lon="4.22157">
        <ele>738.203334554</ele>
        <time>2011-03-11T14:51:54.501Z</time>
      </trkpt>
      <trkpt lat="45.3588" lon="4.22158">
        <ele>738.31290362</ele>
        <time>2011-03-11T14:51:55.261Z</time>
      </trkpt>
      <trkpt lat="45.3587" lon="4.22159">
        <ele>738.7064524</ele>
        <time>2011-03-11T14:51:57.258Z</time>
      </trkpt>
      <trkpt lat="45.3586" lon="4.2216">
        <ele>739.173335775</ele>
        <time>2011-03-11T14:51:59.315Z</time>
      </trkpt>
      <trkpt lat="45.35846" lon="4.2216">
        <ele>739.800003544</ele>
        <time>2011-03-11T14:52:02.271Z</time>
      </trkpt>
      <trkpt lat="45.35836" lon="4.22158">
        <ele>740.200004332</ele>
        <time>2011-03-11T14:52:04.263Z</time>
      </trkpt>
      <trkpt lat="45.35832" lon="4.22157">
        <ele>740.400004069</ele>
        <time>2011-03-11T14:52:05.263Z</time>
      </trkpt>
      <trkpt lat="45.35827" lon="4.22157">
        <ele>740.546671549</ele>
        <time>2011-03-11T14:52:06.295Z</time>
      </trkpt>
      <trkpt lat="45.35822" lon="4.22157">
        <ele>740.674198274</ele>
        <time>2011-03-11T14:52:07.266Z</time>
      </trkpt>
      <trkpt lat="45.35817" lon="4.22159">
        <ele>740.896671549</ele>
        <time>2011-03-11T14:52:08.261Z</time>
      </trkpt>
      <trkpt lat="45.35813" lon="4.2216">
        <ele>741.110003662</ele>
        <time>2011-03-11T14:52:09.277Z</time>
      </trkpt>
      <trkpt lat="45.35807" lon="4.22161">
        <ele>741.296669515</ele>
        <time>2011-03-11T14:52:10.259Z</time>
      </trkpt>
      <trkpt lat="45.35799" lon="4.2216">
        <ele>741.693334961</ele>
        <time>2011-03-11T14:52:12.265Z</time>
      </trkpt>
      <trkpt lat="45.35794" lon="4.2216">
        <ele>741.903336589</ele>
        <time>2011-03-11T14:52:13.302Z</time>
      </trkpt>
      <trkpt lat="45.35788" lon="4.2216">
        <ele>741.964518885</ele>
        <time>2011-03-11T14:52:14.268Z</time>
      </trkpt>
      <trkpt lat="45.35783" lon="4.2216">
        <ele>742.370001221</ele>
        <time>2011-03-11T14:52:15.319Z</time>
      </trkpt>
      <trkpt lat="45.35778" lon="4.22158">
        <ele>742.546669515</ele>
        <time>2011-03-11T14:52:16.289Z</time>
      </trkpt>
      <trkpt lat="45.35755" lon="4.22152">
        <ele>742.677421324</ele>
        <time>2011-03-11T14:52:20.266Z</time>
      </trkpt>
      <trkpt lat="45.35733" lon="4.2215">
        <ele>742.516127063</ele>
        <time>2011-03-11T14:52:24.260Z</time>
      </trkpt>
      <trkpt lat="45.35726" lon="4.2215">
        <ele>742.413332113</ele>
        <time>2011-03-11T14:52:25.275Z</time>
      </trkpt>
      <trkpt lat="45.35712" lon="4.22153">
        <ele>742.073331706</ele>
        <time>2011-03-11T14:52:27.270Z</time>
      </trkpt>
      <trkpt lat="45.35692" lon="4.22159">
        <ele>741.412900863</ele>
        <time>2011-03-11T14:52:30.272Z</time>
      </trkpt>
      <trkpt lat="45.35669" lon="4.22171">
        <ele>740.519350113</ele>
        <time>2011-03-11T14:52:33.268Z</time>
      </trkpt>
      <trkpt lat="45.35664" lon="4.22176">
        <ele>740.08332723</ele>
        <time>2011-03-11T14:52:34.267Z</time>
      </trkpt>
      <trkpt lat="45.35654" lon="4.22178">
        <ele>739.77999471</ele>
        <time>2011-03-11T14:52:35.280Z</time>
      </trkpt>
      <trkpt lat="45.35632" lon="4.22185">
        <ele>738.639994303</ele>
        <time>2011-03-11T14:52:38.300Z</time>
      </trkpt>
      <trkpt lat="45.35611" lon="4.22192">
        <ele>737.296661377</ele>
        <time>2011-03-11T14:52:41.263Z</time>
      </trkpt>
      <trkpt lat="45.35605" lon="4.22195">
        <ele>736.809995524</ele>
        <time>2011-03-11T14:52:42.267Z</time>
      </trkpt>
      <trkpt lat="45.3559" lon="4.22204">
        <ele>736.029027139</ele>
        <time>2011-03-11T14:52:44.268Z</time>
      </trkpt>
      <trkpt lat="45.35583" lon="4.22211">
        <ele>735.493544056</ele>
        <time>2011-03-11T14:52:45.264Z</time>
      </trkpt>
      <trkpt lat="45.35562" lon="4.22234">
        <ele>733.563330078</ele>
        <time>2011-03-11T14:52:48.294Z</time>
      </trkpt>
      <trkpt lat="45.35559" lon="4.22242">
        <ele>733.023331706</ele>
        <time>2011-03-11T14:52:49.326Z</time>
      </trkpt>
      <trkpt lat="45.35554" lon="4.2225">
        <ele>732.509997559</ele>
        <time>2011-03-11T14:52:50.294Z</time>
      </trkpt>
      <trkpt lat="45.3554" lon="4.22274">
        <ele>731.096665446</ele>
        <time>2011-03-11T14:52:53.292Z</time>
      </trkpt>
      <trkpt lat="45.35535" lon="4.22283">
        <ele>730.629998779</ele>
        <time>2011-03-11T14:52:54.370Z</time>
      </trkpt>
      <trkpt lat="45.3553" lon="4.22288">
        <ele>730.37741778</ele>
        <time>2011-03-11T14:52:55.221Z</time>
      </trkpt>
      <trkpt lat="45.35521" lon="4.22298">
        <ele>729.483868999</ele>
        <time>2011-03-11T14:52:57.270Z</time>
      </trkpt>
      <trkpt lat="45.35515" lon="4.22301">
        <ele>729.058062153</ele>
        <time>2011-03-11T14:52:58.265Z</time>
      </trkpt>
      <trkpt lat="45.3551" lon="4.22303">
        <ele>728.670965379</ele>
        <time>2011-03-11T14:52:59.260Z</time>
      </trkpt>
      <trkpt lat="45.35499" lon="4.22306">
        <ele>727.870965773</ele>
        <time>2011-03-11T14:53:01.272Z</time>
      </trkpt>
      <trkpt lat="45.35493" lon="4.22304">
        <ele>727.470966954</ele>
        <time>2011-03-11T14:53:02.299Z</time>
      </trkpt>
      <trkpt lat="45.35484" lon="4.22306">
        <ele>726.39666748</ele>
        <time>2011-03-11T14:53:04.273Z</time>
      </trkpt>
      <trkpt lat="45.35474" lon="4.22309">
        <ele>725.683333333</ele>
        <time>2011-03-11T14:53:06.310Z</time>
      </trkpt>
      <trkpt lat="45.35468" lon="4.22304">
        <ele>725.451610934</ele>
        <time>2011-03-11T14:53:08.291Z</time>
      </trkpt>
      <trkpt lat="45.35462" lon="4.22305">
        <ele>725.05333252</ele>
        <time>2011-03-11T14:53:09.306Z</time>
      </trkpt>
      <trkpt lat="45.35455" lon="4.223">
        <ele>724.786665853</ele>
        <time>2011-03-11T14:53:11.294Z</time>
      </trkpt>
      <trkpt lat="45.35449" lon="4.22299">
        <ele>724.673331706</ele>
        <time>2011-03-11T14:53:12.358Z</time>
      </trkpt>
      <trkpt lat="45.35443" lon="4.22299">
        <ele>724.690321399</ele>
        <time>2011-03-11T14:53:13.250Z</time>
      </trkpt>
      <trkpt lat="45.35436" lon="4.22298">
        <ele>724.558062153</ele>
        <time>2011-03-11T14:53:14.253Z</time>
      </trkpt>
      <trkpt lat="45.35434" lon="4.22297">
        <ele>724.445158928</ele>
        <time>2011-03-11T14:53:15.251Z</time>
      </trkpt>
      <trkpt lat="45.35425" lon="4.22297">
        <ele>724.264514554</ele>
        <time>2011-03-11T14:53:17.280Z</time>
      </trkpt>
      <trkpt lat="45.35421" lon="4.22297">
        <ele>724.216127457</ele>
        <time>2011-03-11T14:53:18.273Z</time>
      </trkpt>
      <trkpt lat="45.35415" lon="4.22295">
        <ele>724.196771437</ele>
        <time>2011-03-11T14:53:19.253Z</time>
      </trkpt>
      <trkpt lat="45.35407" lon="4.22293">
        <ele>724.126664225</ele>
        <time>2011-03-11T14:53:21.286Z</time>
      </trkpt>
      <trkpt lat="45.35405" lon="4.22289">
        <ele>724.093545237</ele>
        <time>2011-03-11T14:53:22.280Z</time>
      </trkpt>
      <trkpt lat="45.35403" lon="4.22288">
        <ele>724.090320218</ele>
        <time>2011-03-11T14:53:23.271Z</time>
      </trkpt>
      <trkpt lat="45.35402" lon="4.22288">
        <ele>724.116128245</ele>
        <time>2011-03-11T14:53:24.296Z</time>
      </trkpt>
      <trkpt lat="45.354" lon="4.22288">
        <ele>724.213334147</ele>
        <time>2011-03-11T14:53:25.288Z</time>
      </trkpt>
      <trkpt lat="45.35396" lon="4.22287">
        <ele>724.303334554</ele>
        <time>2011-03-11T14:53:26.286Z</time>
      </trkpt>
      <trkpt lat="45.35391" lon="4.22288">
        <ele>724.423335775</ele>
        <time>2011-03-11T14:53:28.272Z</time>
      </trkpt>
      <trkpt lat="45.35387" lon="4.2229">
        <ele>724.480002848</ele>
        <time>2011-03-11T14:53:29.690Z</time>
      </trkpt>
      <trkpt lat="45.35381" lon="4.22292">
        <ele>724.687098349</ele>
        <time>2011-03-11T14:53:31.261Z</time>
      </trkpt>
      <trkpt lat="45.35378" lon="4.22291">
        <ele>724.780647524</ele>
        <time>2011-03-11T14:53:32.297Z</time>
      </trkpt>
      <trkpt lat="45.35371" lon="4.22291">
        <ele>725.053334554</ele>
        <time>2011-03-11T14:53:34.284Z</time>
      </trkpt>
      <trkpt lat="45.35366" lon="4.22289">
        <ele>725.177419355</ele>
        <time>2011-03-11T14:53:36.278Z</time>
      </trkpt>
      <trkpt lat="45.35363" lon="4.22291">
        <ele>725.290000407</ele>
        <time>2011-03-11T14:53:37.277Z</time>
      </trkpt>
      <trkpt lat="45.35359" lon="4.22294">
        <ele>725.341936665</ele>
        <time>2011-03-11T14:53:38.278Z</time>
      </trkpt>
      <trkpt lat="45.35358" lon="4.22294">
        <ele>725.416131789</ele>
        <time>2011-03-11T14:53:39.281Z</time>
      </trkpt>
      <trkpt lat="45.35354" lon="4.22294">
        <ele>725.632259246</ele>
        <time>2011-03-11T14:53:41.293Z</time>
      </trkpt>
      <trkpt lat="45.35352" lon="4.22295">
        <ele>725.767743511</ele>
        <time>2011-03-11T14:53:42.291Z</time>
      </trkpt>
      <trkpt lat="45.35347" lon="4.22297">
        <ele>726.183335368</ele>
        <time>2011-03-11T14:53:44.309Z</time>
      </trkpt>
      <trkpt lat="45.35339" lon="4.22299">
        <ele>727.000002035</ele>
        <time>2011-03-11T14:53:47.281Z</time>
      </trkpt>
      <trkpt lat="45.35333" lon="4.22301">
        <ele>727.566668701</ele>
        <time>2011-03-11T14:53:49.294Z</time>
      </trkpt>
      <trkpt lat="45.35327" lon="4.22301">
        <ele>727.983872937</ele>
        <time>2011-03-11T14:53:51.274Z</time>
      </trkpt>
      <trkpt lat="45.3532" lon="4.22301">
        <ele>728.870969711</ele>
        <time>2011-03-11T14:53:54.290Z</time>
      </trkpt>
      <trkpt lat="45.35318" lon="4.22302">
        <ele>729.109678207</ele>
        <time>2011-03-11T14:53:55.276Z</time>
      </trkpt>
      <trkpt lat="45.35315" lon="4.22301">
        <ele>729.47666626</ele>
        <time>2011-03-11T14:53:56.322Z</time>
      </trkpt>
      <trkpt lat="45.35309" lon="4.22302">
        <ele>729.936665853</ele>
        <time>2011-03-11T14:53:58.296Z</time>
      </trkpt>
      <trkpt lat="45.35308" lon="4.22301">
        <ele>730.070966167</ele>
        <time>2011-03-11T14:53:59.280Z</time>
      </trkpt>
      <trkpt lat="45.35305" lon="4.22302">
        <ele>730.393332926</ele>
        <time>2011-03-11T14:54:00.292Z</time>
      </trkpt>
      <trkpt lat="45.35303" lon="4.22302">
        <ele>730.636665853</ele>
        <time>2011-03-11T14:54:01.302Z</time>
      </trkpt>
      <trkpt lat="45.35295" lon="4.22302">
        <ele>731.406665039</ele>
        <time>2011-03-11T14:54:04.302Z</time>
      </trkpt>
      <trkpt lat="45.35292" lon="4.22304">
        <ele>731.679998779</ele>
        <time>2011-03-11T14:54:05.310Z</time>
      </trkpt>
      <trkpt lat="45.35289" lon="4.22303">
        <ele>732.08387018</ele>
        <time>2011-03-11T14:54:07.277Z</time>
      </trkpt>
      <trkpt lat="45.35286" lon="4.22301">
        <ele>732.383871755</ele>
        <time>2011-03-11T14:54:08.277Z</time>
      </trkpt>
      <trkpt lat="45.35284" lon="4.22302">
        <ele>732.677419355</ele>
        <time>2011-03-11T14:54:09.272Z</time>
      </trkpt>
      <trkpt lat="45.35281" lon="4.22302">
        <ele>732.958062941</ele>
        <time>2011-03-11T14:54:10.265Z</time>
      </trkpt>
      <trkpt lat="45.35279" lon="4.22301">
        <ele>733.222579464</ele>
        <time>2011-03-11T14:54:11.281Z</time>
      </trkpt>
      <trkpt lat="45.35277" lon="4.22301">
        <ele>733.516129032</ele>
        <time>2011-03-11T14:54:12.288Z</time>
      </trkpt>
      <trkpt lat="45.35272" lon="4.22301">
        <ele>734.08064713</ele>
        <time>2011-03-11T14:54:14.284Z</time>
      </trkpt>
      <trkpt lat="45.35266" lon="4.22301">
        <ele>734.89666748</ele>
        <time>2011-03-11T14:54:17.292Z</time>
      </trkpt>
      <trkpt lat="45.35262" lon="4.22301">
        <ele>735.048387097</ele>
        <time>2011-03-11T14:54:18.273Z</time>
      </trkpt>
      <trkpt lat="45.35255" lon="4.22302">
        <ele>736.003330485</ele>
        <time>2011-03-11T14:54:21.297Z</time>
      </trkpt>
      <trkpt lat="45.35251" lon="4.22302">
        <ele>736.289998372</ele>
        <time>2011-03-11T14:54:22.296Z</time>
      </trkpt>
      <trkpt lat="45.35249" lon="4.22301">
        <ele>736.559997559</ele>
        <time>2011-03-11T14:54:23.281Z</time>
      </trkpt>
      <trkpt lat="45.35245" lon="4.223">
        <ele>736.706448463</ele>
        <time>2011-03-11T14:54:24.279Z</time>
      </trkpt>
      <trkpt lat="45.35244" lon="4.22301">
        <ele>737.003221081</ele>
        <time>2011-03-11T14:54:25.270Z</time>
      </trkpt>
      <trkpt lat="45.35239" lon="4.22299">
        <ele>737.616126276</ele>
        <time>2011-03-11T14:54:27.278Z</time>
      </trkpt>
      <trkpt lat="45.35236" lon="4.22298">
        <ele>737.89999685</ele>
        <time>2011-03-11T14:54:28.266Z</time>
      </trkpt>
      <trkpt lat="45.35233" lon="4.22298">
        <ele>738.256665039</ele>
        <time>2011-03-11T14:54:29.285Z</time>
      </trkpt>
      <trkpt lat="45.3522" lon="4.22298">
        <ele>738.989998372</ele>
        <time>2011-03-11T14:54:33.289Z</time>
      </trkpt>
      <trkpt lat="45.35217" lon="4.22298">
        <ele>739.143330892</ele>
        <time>2011-03-11T14:54:34.672Z</time>
      </trkpt>
      <trkpt lat="45.35206" lon="4.22299">
        <ele>739.839996338</ele>
        <time>2011-03-11T14:54:38.281Z</time>
      </trkpt>
      <trkpt lat="45.35203" lon="4.223">
        <ele>740.039996338</ele>
        <time>2011-03-11T14:54:39.279Z</time>
      </trkpt>
      <trkpt lat="45.35197" lon="4.22299">
        <ele>740.296772618</ele>
        <time>2011-03-11T14:54:41.274Z</time>
      </trkpt>
      <trkpt lat="45.35188" lon="4.223">
        <ele>740.806449644</ele>
        <time>2011-03-11T14:54:44.281Z</time>
      </trkpt>
      <trkpt lat="45.35182" lon="4.22301">
        <ele>741.00322305</ele>
        <time>2011-03-11T14:54:46.223Z</time>
      </trkpt>
      <trkpt lat="45.35172" lon="4.22301">
        <ele>741.583331299</ele>
        <time>2011-03-11T14:54:49.292Z</time>
      </trkpt>
      <trkpt lat="45.35166" lon="4.22299">
        <ele>741.819353657</ele>
        <time>2011-03-11T14:54:51.277Z</time>
      </trkpt>
      <trkpt lat="45.35163" lon="4.22298">
        <ele>742.043332926</ele>
        <time>2011-03-11T14:54:52.312Z</time>
      </trkpt>
      <trkpt lat="45.35159" lon="4.22297">
        <ele>742.219999186</ele>
        <time>2011-03-11T14:54:53.316Z</time>
      </trkpt>
      <trkpt lat="45.35155" lon="4.22296">
        <ele>742.393332926</ele>
        <time>2011-03-11T14:54:54.285Z</time>
      </trkpt>
      <trkpt lat="45.35148" lon="4.22292">
        <ele>742.619999186</ele>
        <time>2011-03-11T14:54:56.286Z</time>
      </trkpt>
      <trkpt lat="45.35138" lon="4.22287">
        <ele>743.003225019</ele>
        <time>2011-03-11T14:54:59.283Z</time>
      </trkpt>
      <trkpt lat="45.35127" lon="4.22281">
        <ele>743.636665853</ele>
        <time>2011-03-11T14:55:02.285Z</time>
      </trkpt>
      <trkpt lat="45.35123" lon="4.22279">
        <ele>743.664515341</ele>
        <time>2011-03-11T14:55:03.277Z</time>
      </trkpt>
      <trkpt lat="45.35105" lon="4.22272">
        <ele>744.132259246</ele>
        <time>2011-03-11T14:55:07.280Z</time>
      </trkpt>
      <trkpt lat="45.35101" lon="4.22269">
        <ele>744.161292291</ele>
        <time>2011-03-11T14:55:08.281Z</time>
      </trkpt>
      <trkpt lat="45.35096" lon="4.22267">
        <ele>744.270001221</ele>
        <time>2011-03-11T14:55:09.325Z</time>
      </trkpt>
      <trkpt lat="45.35084" lon="4.22263">
        <ele>744.243332926</ele>
        <time>2011-03-11T14:55:11.283Z</time>
      </trkpt>
      <trkpt lat="45.35079" lon="4.22261">
        <ele>744.136665853</ele>
        <time>2011-03-11T14:55:12.284Z</time>
      </trkpt>
      <trkpt lat="45.35067" lon="4.22255">
        <ele>743.966666667</ele>
        <time>2011-03-11T14:55:14.286Z</time>
      </trkpt>
      <trkpt lat="45.35062" lon="4.22255">
        <ele>743.858063729</ele>
        <time>2011-03-11T14:55:15.288Z</time>
      </trkpt>
      <trkpt lat="45.35056" lon="4.22254">
        <ele>743.77666626</ele>
        <time>2011-03-11T14:55:16.289Z</time>
      </trkpt>
      <trkpt lat="45.3505" lon="4.22252">
        <ele>743.62333374</ele>
        <time>2011-03-11T14:55:17.297Z</time>
      </trkpt>
      <trkpt lat="45.35039" lon="4.22248">
        <ele>743.303226594</ele>
        <time>2011-03-11T14:55:19.287Z</time>
      </trkpt>
      <trkpt lat="45.35033" lon="4.22245">
        <ele>743.040000407</ele>
        <time>2011-03-11T14:55:20.286Z</time>
      </trkpt>
      <trkpt lat="45.35013" lon="4.22237">
        <ele>742.309678601</ele>
        <time>2011-03-11T14:55:23.276Z</time>
      </trkpt>
      <trkpt lat="45.35006" lon="4.22233">
        <ele>741.954839891</ele>
        <time>2011-03-11T14:55:24.279Z</time>
      </trkpt>
      <trkpt lat="45.34999" lon="4.22232">
        <ele>741.483335368</ele>
        <time>2011-03-11T14:55:25.305Z</time>
      </trkpt>
      <trkpt lat="45.34994" lon="4.22233">
        <ele>741.150002035</ele>
        <time>2011-03-11T14:55:26.295Z</time>
      </trkpt>
      <trkpt lat="45.34988" lon="4.22231">
        <ele>740.783335368</ele>
        <time>2011-03-11T14:55:27.288Z</time>
      </trkpt>
      <trkpt lat="45.34983" lon="4.22229">
        <ele>740.583872149</ele>
        <time>2011-03-11T14:55:28.277Z</time>
      </trkpt>
      <trkpt lat="45.34976" lon="4.22229">
        <ele>739.693334961</ele>
        <time>2011-03-11T14:55:30.287Z</time>
      </trkpt>
      <trkpt lat="45.34973" lon="4.22227">
        <ele>739.51935602</ele>
        <time>2011-03-11T14:55:31.287Z</time>
      </trkpt>
      <trkpt lat="45.3497" lon="4.22225">
        <ele>739.135484265</ele>
        <time>2011-03-11T14:55:32.283Z</time>
      </trkpt>
      <trkpt lat="45.34962" lon="4.22224">
        <ele>738.266664632</ele>
        <time>2011-03-11T14:55:34.710Z</time>
      </trkpt>
      <trkpt lat="45.34956" lon="4.2222">
        <ele>738.054837135</ele>
        <time>2011-03-11T14:55:35.274Z</time>
      </trkpt>
      <trkpt lat="45.34951" lon="4.22221">
        <ele>737.696771437</ele>
        <time>2011-03-11T14:55:36.276Z</time>
      </trkpt>
      <trkpt lat="45.34944" lon="4.22224">
        <ele>737.189998372</ele>
        <time>2011-03-11T14:55:37.295Z</time>
      </trkpt>
      <trkpt lat="45.3493" lon="4.2223">
        <ele>736.593547206</ele>
        <time>2011-03-11T14:55:39.288Z</time>
      </trkpt>
      <trkpt lat="45.34921" lon="4.22233">
        <ele>736.232256489</ele>
        <time>2011-03-11T14:55:40.275Z</time>
      </trkpt>
      <trkpt lat="45.34913" lon="4.22237">
        <ele>735.656665039</ele>
        <time>2011-03-11T14:55:41.304Z</time>
      </trkpt>
      <trkpt lat="45.34903" lon="4.22239">
        <ele>735.219999186</ele>
        <time>2011-03-11T14:55:42.290Z</time>
      </trkpt>
      <trkpt lat="45.34896" lon="4.22243">
        <ele>734.696665446</ele>
        <time>2011-03-11T14:55:43.288Z</time>
      </trkpt>
      <trkpt lat="45.34888" lon="4.22249">
        <ele>734.156665039</ele>
        <time>2011-03-11T14:55:44.303Z</time>
      </trkpt>
      <trkpt lat="45.34868" lon="4.2226">
        <ele>733.283870574</ele>
        <time>2011-03-11T14:55:46.273Z</time>
      </trkpt>
      <trkpt lat="45.34859" lon="4.22263">
        <ele>732.754837528</ele>
        <time>2011-03-11T14:55:47.287Z</time>
      </trkpt>
      <trkpt lat="45.34851" lon="4.22263">
        <ele>732.258062547</ele>
        <time>2011-03-11T14:55:48.287Z</time>
      </trkpt>
      <trkpt lat="45.34842" lon="4.22266">
        <ele>731.543330892</ele>
        <time>2011-03-11T14:55:49.310Z</time>
      </trkpt>
      <trkpt lat="45.34835" lon="4.22266">
        <ele>731.113330078</ele>
        <time>2011-03-11T14:55:50.297Z</time>
      </trkpt>
      <trkpt lat="45.34828" lon="4.22266">
        <ele>730.693328857</ele>
        <time>2011-03-11T14:55:51.296Z</time>
      </trkpt>
      <trkpt lat="45.34822" lon="4.22266">
        <ele>730.52580212</ele>
        <time>2011-03-11T14:55:52.288Z</time>
      </trkpt>
      <trkpt lat="45.34819" lon="4.22269">
        <ele>729.949995931</ele>
        <time>2011-03-11T14:55:53.294Z</time>
      </trkpt>
      <trkpt lat="45.34815" lon="4.22271">
        <ele>729.633329264</ele>
        <time>2011-03-11T14:55:54.285Z</time>
      </trkpt>
      <trkpt lat="45.34811" lon="4.22273">
        <ele>729.519350113</ele>
        <time>2011-03-11T14:55:55.300Z</time>
      </trkpt>
      <trkpt lat="45.34807" lon="4.22273">
        <ele>729.206446494</ele>
        <time>2011-03-11T14:55:56.290Z</time>
      </trkpt>
      <trkpt lat="45.34802" lon="4.22274">
        <ele>728.733329264</ele>
        <time>2011-03-11T14:55:57.330Z</time>
      </trkpt>
      <trkpt lat="45.34795" lon="4.22276">
        <ele>728.17999471</ele>
        <time>2011-03-11T14:55:59.303Z</time>
      </trkpt>
      <trkpt lat="45.34794" lon="4.22278">
        <ele>727.909995524</ele>
        <time>2011-03-11T14:56:00.289Z</time>
      </trkpt>
      <trkpt lat="45.34791" lon="4.22279">
        <ele>727.676662191</ele>
        <time>2011-03-11T14:56:01.311Z</time>
      </trkpt>
      <trkpt lat="45.3479" lon="4.22279">
        <ele>727.463330078</ele>
        <time>2011-03-11T14:56:02.286Z</time>
      </trkpt>
      <trkpt lat="45.34788" lon="4.22279">
        <ele>727.416125882</ele>
        <time>2011-03-11T14:56:03.288Z</time>
      </trkpt>
      <trkpt lat="45.34785" lon="4.22278">
        <ele>727.16774036</ele>
        <time>2011-03-11T14:56:04.293Z</time>
      </trkpt>
      <trkpt lat="45.34779" lon="4.22278">
        <ele>726.729998779</ele>
        <time>2011-03-11T14:56:05.318Z</time>
      </trkpt>
      <trkpt lat="45.34774" lon="4.22282">
        <ele>726.632257277</ele>
        <time>2011-03-11T14:56:06.275Z</time>
      </trkpt>
      <trkpt lat="45.34771" lon="4.22284">
        <ele>726.25</ele>
        <time>2011-03-11T14:56:07.307Z</time>
      </trkpt>
      <trkpt lat="45.34769" lon="4.22285">
        <ele>726.109999593</ele>
        <time>2011-03-11T14:56:08.346Z</time>
      </trkpt>
      <trkpt lat="45.34767" lon="4.22287">
        <ele>725.993332926</ele>
        <time>2011-03-11T14:56:09.289Z</time>
      </trkpt>
      <trkpt lat="45.34764" lon="4.22288">
        <ele>725.863334147</ele>
        <time>2011-03-11T14:56:10.569Z</time>
      </trkpt>
      <trkpt lat="45.34762" lon="4.22287">
        <ele>725.922581826</ele>
        <time>2011-03-11T14:56:11.289Z</time>
      </trkpt>
      <trkpt lat="45.34762" lon="4.22288">
        <ele>725.790000407</ele>
        <time>2011-03-11T14:56:12.331Z</time>
      </trkpt>
      <trkpt lat="45.3476" lon="4.22288">
        <ele>725.935483871</ele>
        <time>2011-03-11T14:56:13.275Z</time>
      </trkpt>
      <trkpt lat="45.34758" lon="4.22291">
        <ele>726.135484265</ele>
        <time>2011-03-11T14:56:14.284Z</time>
      </trkpt>
      <trkpt lat="45.34758" lon="4.22291">
        <ele>726.443332926</ele>
        <time>2011-03-11T14:56:15.287Z</time>
      </trkpt>
      <trkpt lat="45.34757" lon="4.22289">
        <ele>726.723331706</ele>
        <time>2011-03-11T14:56:16.286Z</time>
      </trkpt>
      <trkpt lat="45.34752" lon="4.2229">
        <ele>727.37666626</ele>
        <time>2011-03-11T14:56:18.314Z</time>
      </trkpt>
      <trkpt lat="45.34751" lon="4.22291">
        <ele>727.661290323</ele>
        <time>2011-03-11T14:56:19.302Z</time>
      </trkpt>
      <trkpt lat="45.34749" lon="4.22292">
        <ele>728.045162078</ele>
        <time>2011-03-11T14:56:20.291Z</time>
      </trkpt>
      <trkpt lat="45.34743" lon="4.22292">
        <ele>729.266668701</ele>
        <time>2011-03-11T14:56:23.364Z</time>
      </trkpt>
      <trkpt lat="45.34741" lon="4.22292">
        <ele>729.590002441</ele>
        <time>2011-03-11T14:56:24.293Z</time>
      </trkpt>
      <trkpt lat="45.3474" lon="4.22291">
        <ele>729.777422505</ele>
        <time>2011-03-11T14:56:25.292Z</time>
      </trkpt>
      <trkpt lat="45.34737" lon="4.22292">
        <ele>730.236671956</ele>
        <time>2011-03-11T14:56:26.293Z</time>
      </trkpt>
      <trkpt lat="45.34734" lon="4.22293">
        <ele>730.738714403</ele>
        <time>2011-03-11T14:56:28.284Z</time>
      </trkpt>
      <trkpt lat="45.34731" lon="4.22293">
        <ele>731.533337402</ele>
        <time>2011-03-11T14:56:30.311Z</time>
      </trkpt>
      <trkpt lat="45.34729" lon="4.22295">
        <ele>732.100004069</ele>
        <time>2011-03-11T14:56:32.307Z</time>
      </trkpt>
      <trkpt lat="45.34725" lon="4.22297">
        <ele>732.760003662</ele>
        <time>2011-03-11T14:56:34.312Z</time>
      </trkpt>
      <trkpt lat="45.34722" lon="4.22297">
        <ele>733.513334147</ele>
        <time>2011-03-11T14:56:36.292Z</time>
      </trkpt>
      <trkpt lat="45.34719" lon="4.22297">
        <ele>733.890000407</ele>
        <time>2011-03-11T14:56:37.310Z</time>
      </trkpt>
      <trkpt lat="45.34717" lon="4.22298">
        <ele>734.213334147</ele>
        <time>2011-03-11T14:56:38.724Z</time>
      </trkpt>
      <trkpt lat="45.34715" lon="4.22299">
        <ele>734.480000814</ele>
        <time>2011-03-11T14:56:39.389Z</time>
      </trkpt>
      <trkpt lat="45.34713" lon="4.22301">
        <ele>734.5</ele>
        <time>2011-03-11T14:56:40.305Z</time>
      </trkpt>
      <trkpt lat="45.34709" lon="4.22303">
        <ele>735.067741148</ele>
        <time>2011-03-11T14:56:42.290Z</time>
      </trkpt>
      <trkpt lat="45.34704" lon="4.22304">
        <ele>735.950002035</ele>
        <time>2011-03-11T14:56:45.320Z</time>
      </trkpt>
      <trkpt lat="45.34703" lon="4.22304">
        <ele>736.166668701</ele>
        <time>2011-03-11T14:56:46.312Z</time>
      </trkpt>
      <trkpt lat="45.34702" lon="4.22304">
        <ele>736.340002441</ele>
        <time>2011-03-11T14:56:47.312Z</time>
      </trkpt>
      <trkpt lat="45.347" lon="4.22305">
        <ele>736.406454763</ele>
        <time>2011-03-11T14:56:48.298Z</time>
      </trkpt>
      <trkpt lat="45.34696" lon="4.22305">
        <ele>736.645163259</ele>
        <time>2011-03-11T14:56:51.291Z</time>
      </trkpt>
      <trkpt lat="45.34692" lon="4.22306">
        <ele>736.732260427</ele>
        <time>2011-03-11T14:56:53.319Z</time>
      </trkpt>
      <trkpt lat="45.3469" lon="4.22308">
        <ele>736.863334147</ele>
        <time>2011-03-11T14:56:54.313Z</time>
      </trkpt>
      <trkpt lat="45.34687" lon="4.22308">
        <ele>737.119999186</ele>
        <time>2011-03-11T14:56:56.298Z</time>
      </trkpt>
      <trkpt lat="45.34686" lon="4.22309">
        <ele>737.236665853</ele>
        <time>2011-03-11T14:56:57.293Z</time>
      </trkpt>
      <trkpt lat="45.34684" lon="4.22309">
        <ele>737.359999593</ele>
        <time>2011-03-11T14:56:58.297Z</time>
      </trkpt>
      <trkpt lat="45.34683" lon="4.22309">
        <ele>737.464514948</ele>
        <time>2011-03-11T14:56:59.289Z</time>
      </trkpt>
      <trkpt lat="45.34682" lon="4.22308">
        <ele>737.599999212</ele>
        <time>2011-03-11T14:57:00.292Z</time>
      </trkpt>
      <trkpt lat="45.3468" lon="4.22309">
        <ele>737.843332926</ele>
        <time>2011-03-11T14:57:01.314Z</time>
      </trkpt>
      <trkpt lat="45.34679" lon="4.22309">
        <ele>737.983333333</ele>
        <time>2011-03-11T14:57:02.311Z</time>
      </trkpt>
      <trkpt lat="45.34678" lon="4.22309">
        <ele>738.09666748</ele>
        <time>2011-03-11T14:57:03.317Z</time>
      </trkpt>
      <trkpt lat="45.34676" lon="4.22309">
        <ele>738.16451731</ele>
        <time>2011-03-11T14:57:04.310Z</time>
      </trkpt>
      <trkpt lat="45.34675" lon="4.22309">
        <ele>738.386667887</ele>
        <time>2011-03-11T14:57:05.338Z</time>
      </trkpt>
      <trkpt lat="45.34673" lon="4.22309">
        <ele>738.47742093</ele>
        <time>2011-03-11T14:57:06.288Z</time>
      </trkpt>
      <trkpt lat="45.34671" lon="4.2231">
        <ele>738.670969317</ele>
        <time>2011-03-11T14:57:07.299Z</time>
      </trkpt>
      <trkpt lat="45.3467" lon="4.22311">
        <ele>738.854840679</ele>
        <time>2011-03-11T14:57:08.298Z</time>
      </trkpt>
      <trkpt lat="45.34668" lon="4.22311">
        <ele>739.500002035</ele>
        <time>2011-03-11T14:57:10.346Z</time>
      </trkpt>
      <trkpt lat="45.34666" lon="4.22312">
        <ele>739.654840285</ele>
        <time>2011-03-11T14:57:11.298Z</time>
      </trkpt>
      <trkpt lat="45.34665" lon="4.22312">
        <ele>740.053334554</ele>
        <time>2011-03-11T14:57:12.299Z</time>
      </trkpt>
      <trkpt lat="45.34663" lon="4.22312">
        <ele>740.310001628</ele>
        <time>2011-03-11T14:57:13.298Z</time>
      </trkpt>
      <trkpt lat="45.34662" lon="4.22311">
        <ele>740.553334554</ele>
        <time>2011-03-11T14:57:14.299Z</time>
      </trkpt>
      <trkpt lat="45.34661" lon="4.22311">
        <ele>740.687098349</ele>
        <time>2011-03-11T14:57:15.297Z</time>
      </trkpt>
      <trkpt lat="45.34656" lon="4.22312">
        <ele>741.47333374</ele>
        <time>2011-03-11T14:57:18.305Z</time>
      </trkpt>
      <trkpt lat="45.34654" lon="4.22312">
        <ele>741.713334147</ele>
        <time>2011-03-11T14:57:19.311Z</time>
      </trkpt>
      <trkpt lat="45.34649" lon="4.22312">
        <ele>742.446665446</ele>
        <time>2011-03-11T14:57:22.303Z</time>
      </trkpt>
      <trkpt lat="45.34645" lon="4.22314">
        <ele>743.009677026</ele>
        <time>2011-03-11T14:57:25.291Z</time>
      </trkpt>
      <trkpt lat="45.34644" lon="4.22314">
        <ele>743.340000407</ele>
        <time>2011-03-11T14:57:26.320Z</time>
      </trkpt>
      <trkpt lat="45.34641" lon="4.22316">
        <ele>743.709999593</ele>
        <time>2011-03-11T14:57:28.300Z</time>
      </trkpt>
      <trkpt lat="45.3464" lon="4.22315">
        <ele>743.856667074</ele>
        <time>2011-03-11T14:57:29.304Z</time>
      </trkpt>
      <trkpt lat="45.34635" lon="4.22316">
        <ele>744.167744298</ele>
        <time>2011-03-11T14:57:32.310Z</time>
      </trkpt>
      <trkpt lat="45.34632" lon="4.22318">
        <ele>744.709677419</ele>
        <time>2011-03-11T14:57:35.315Z</time>
      </trkpt>
      <trkpt lat="45.3463" lon="4.22319">
        <ele>744.996665446</ele>
        <time>2011-03-11T14:57:36.339Z</time>
      </trkpt>
      <trkpt lat="45.34628" lon="4.22318">
        <ele>745.12333374</ele>
        <time>2011-03-11T14:57:37.301Z</time>
      </trkpt>
      <trkpt lat="45.34627" lon="4.22318">
        <ele>745.119355232</ele>
        <time>2011-03-11T14:57:38.246Z</time>
      </trkpt>
      <trkpt lat="45.34625" lon="4.22318">
        <ele>745.209677419</ele>
        <time>2011-03-11T14:57:39.297Z</time>
      </trkpt>
      <trkpt lat="45.3462" lon="4.22319">
        <ele>745.383333333</ele>
        <time>2011-03-11T14:57:42.331Z</time>
      </trkpt>
      <trkpt lat="45.34619" lon="4.22319">
        <ele>745.40333252</ele>
        <time>2011-03-11T14:57:43.304Z</time>
      </trkpt>
      <trkpt lat="45.34617" lon="4.22319">
        <ele>745.416664632</ele>
        <time>2011-03-11T14:57:44.307Z</time>
      </trkpt>
      <trkpt lat="45.34611" lon="4.22321">
        <ele>745.483329264</ele>
        <time>2011-03-11T14:57:48.308Z</time>
      </trkpt>
      <trkpt lat="45.34609" lon="4.22322">
        <ele>745.52580212</ele>
        <time>2011-03-11T14:57:49.306Z</time>
      </trkpt>
      <trkpt lat="45.34608" lon="4.22322">
        <ele>745.564512191</ele>
        <time>2011-03-11T14:57:50.339Z</time>
      </trkpt>
      <trkpt lat="45.34605" lon="4.22323">
        <ele>745.633329264</ele>
        <time>2011-03-11T14:57:51.303Z</time>
      </trkpt>
      <trkpt lat="45.34599" lon="4.22325">
        <ele>745.938704952</ele>
        <time>2011-03-11T14:57:55.287Z</time>
      </trkpt>
      <trkpt lat="45.34594" lon="4.22327">
        <ele>746.216662598</ele>
        <time>2011-03-11T14:57:58.316Z</time>
      </trkpt>
      <trkpt lat="45.34594" lon="4.22327">
        <ele>746.569997152</ele>
        <time>2011-03-11T14:58:01.304Z</time>
      </trkpt>
      <trkpt lat="45.34586" lon="4.2233">
        <ele>746.98064398</ele>
        <time>2011-03-11T14:58:05.299Z</time>
      </trkpt>
      <trkpt lat="45.34582" lon="4.22331">
        <ele>747.32333374</ele>
        <time>2011-03-11T14:58:07.307Z</time>
      </trkpt>
      <trkpt lat="45.34576" lon="4.22334">
        <ele>747.796774587</ele>
        <time>2011-03-11T14:58:10.295Z</time>
      </trkpt>
      <trkpt lat="45.34574" lon="4.22334">
        <ele>747.961291898</ele>
        <time>2011-03-11T14:58:11.303Z</time>
      </trkpt>
      <trkpt lat="45.34569" lon="4.22336">
        <ele>748.426668294</ele>
        <time>2011-03-11T14:58:14.320Z</time>
      </trkpt>
      <trkpt lat="45.34563" lon="4.22338">
        <ele>748.738712434</ele>
        <time>2011-03-11T14:58:17.296Z</time>
      </trkpt>
      <trkpt lat="45.34562" lon="4.2234">
        <ele>748.896777738</ele>
        <time>2011-03-11T14:58:18.295Z</time>
      </trkpt>
      <trkpt lat="45.34557" lon="4.22342">
        <ele>749.293551537</ele>
        <time>2011-03-11T14:58:21.299Z</time>
      </trkpt>
      <trkpt lat="45.34551" lon="4.22344">
        <ele>749.660005697</ele>
        <time>2011-03-11T14:58:24.327Z</time>
      </trkpt>
      <trkpt lat="45.34549" lon="4.22343">
        <ele>749.750006104</ele>
        <time>2011-03-11T14:58:25.324Z</time>
      </trkpt>
      <trkpt lat="45.34547" lon="4.22344">
        <ele>749.836671956</ele>
        <time>2011-03-11T14:58:26.308Z</time>
      </trkpt>
      <trkpt lat="45.34543" lon="4.22345">
        <ele>750.003230926</ele>
        <time>2011-03-11T14:58:28.303Z</time>
      </trkpt>
      <trkpt lat="45.34542" lon="4.22346">
        <ele>750.166670736</ele>
        <time>2011-03-11T14:58:29.329Z</time>
      </trkpt>
      <trkpt lat="45.3454" lon="4.22347">
        <ele>750.250004069</ele>
        <time>2011-03-11T14:58:30.331Z</time>
      </trkpt>
      <trkpt lat="45.34536" lon="4.22348">
        <ele>750.393334961</ele>
        <time>2011-03-11T14:58:32.316Z</time>
      </trkpt>
      <trkpt lat="45.34534" lon="4.22348">
        <ele>750.396775769</ele>
        <time>2011-03-11T14:58:33.297Z</time>
      </trkpt>
      <trkpt lat="45.34529" lon="4.22349">
        <ele>750.487095987</ele>
        <time>2011-03-11T14:58:35.299Z</time>
      </trkpt>
      <trkpt lat="45.34526" lon="4.22351">
        <ele>750.623331706</ele>
        <time>2011-03-11T14:58:37.319Z</time>
      </trkpt>
      <trkpt lat="45.34524" lon="4.22352">
        <ele>750.649997965</ele>
        <time>2011-03-11T14:58:38.329Z</time>
      </trkpt>
      <trkpt lat="45.34519" lon="4.22354">
        <ele>750.763330078</ele>
        <time>2011-03-11T14:58:41.744Z</time>
      </trkpt>
      <trkpt lat="45.34518" lon="4.22355">
        <ele>750.813330078</ele>
        <time>2011-03-11T14:58:42.305Z</time>
      </trkpt>
      <trkpt lat="45.34516" lon="4.22356">
        <ele>750.825803695</ele>
        <time>2011-03-11T14:58:43.309Z</time>
      </trkpt>
      <trkpt lat="45.34511" lon="4.22359">
        <ele>751.013332113</ele>
        <time>2011-03-11T14:58:46.333Z</time>
      </trkpt>
      <trkpt lat="45.34506" lon="4.22361">
        <ele>751.093332926</ele>
        <time>2011-03-11T14:58:48.323Z</time>
      </trkpt>
      <trkpt lat="45.34504" lon="4.22361">
        <ele>751.133331299</ele>
        <time>2011-03-11T14:58:49.334Z</time>
      </trkpt>
      <trkpt lat="45.34499" lon="4.22362">
        <ele>751.254837528</ele>
        <time>2011-03-11T14:58:52.312Z</time>
      </trkpt>
      <trkpt lat="45.34497" lon="4.22363">
        <ele>751.312901651</ele>
        <time>2011-03-11T14:58:53.308Z</time>
      </trkpt>
      <trkpt lat="45.3449" lon="4.22364">
        <ele>751.52666626</ele>
        <time>2011-03-11T14:58:56.330Z</time>
      </trkpt>
      <trkpt lat="45.34479" lon="4.22368">
        <ele>751.754839497</ele>
        <time>2011-03-11T14:59:00.322Z</time>
      </trkpt>
      <trkpt lat="45.34471" lon="4.2237">
        <ele>752.040000407</ele>
        <time>2011-03-11T14:59:03.320Z</time>
      </trkpt>
      <trkpt lat="45.34468" lon="4.22371">
        <ele>752.150002035</ele>
        <time>2011-03-11T14:59:04.324Z</time>
      </trkpt>
      <trkpt lat="45.34458" lon="4.22375">
        <ele>752.450004069</ele>
        <time>2011-03-11T14:59:08.342Z</time>
      </trkpt>
      <trkpt lat="45.34447" lon="4.22379">
        <ele>752.726672363</ele>
        <time>2011-03-11T14:59:12.360Z</time>
      </trkpt>
      <trkpt lat="45.3444" lon="4.22384">
        <ele>752.877423686</ele>
        <time>2011-03-11T14:59:15.295Z</time>
      </trkpt>
      <trkpt lat="45.34433" lon="4.22387">
        <ele>753.096778131</ele>
        <time>2011-03-11T14:59:18.322Z</time>
      </trkpt>
      <trkpt lat="45.34423" lon="4.2239">
        <ele>753.364519673</ele>
        <time>2011-03-11T14:59:22.307Z</time>
      </trkpt>
      <trkpt lat="45.34421" lon="4.2239">
        <ele>753.470003255</ele>
        <time>2011-03-11T14:59:23.310Z</time>
      </trkpt>
      <trkpt lat="45.34417" lon="4.22391">
        <ele>753.566668701</ele>
        <time>2011-03-11T14:59:25.424Z</time>
      </trkpt>
      <trkpt lat="45.34415" lon="4.22393">
        <ele>753.600001181</ele>
        <time>2011-03-11T14:59:26.327Z</time>
      </trkpt>
      <trkpt lat="45.34413" lon="4.22395">
        <ele>753.666666667</ele>
        <time>2011-03-11T14:59:27.331Z</time>
      </trkpt>
      <trkpt lat="45.34411" lon="4.22396">
        <ele>753.72666626</ele>
        <time>2011-03-11T14:59:28.359Z</time>
      </trkpt>
      <trkpt lat="45.34409" lon="4.22395">
        <ele>753.80333252</ele>
        <time>2011-03-11T14:59:29.304Z</time>
      </trkpt>
      <trkpt lat="45.34406" lon="4.22396">
        <ele>753.864515735</ele>
        <time>2011-03-11T14:59:30.307Z</time>
      </trkpt>
      <trkpt lat="45.34403" lon="4.22396">
        <ele>753.929031864</ele>
        <time>2011-03-11T14:59:31.310Z</time>
      </trkpt>
      <trkpt lat="45.34396" lon="4.22398">
        <ele>754.15333252</ele>
        <time>2011-03-11T14:59:33.341Z</time>
      </trkpt>
      <trkpt lat="45.34386" lon="4.22401">
        <ele>754.686663818</ele>
        <time>2011-03-11T14:59:37.304Z</time>
      </trkpt>
      <trkpt lat="45.34376" lon="4.22405">
        <ele>755.232254521</ele>
        <time>2011-03-11T14:59:41.296Z</time>
      </trkpt>
      <trkpt lat="45.34366" lon="4.22409">
        <ele>755.825803695</ele>
        <time>2011-03-11T14:59:45.294Z</time>
      </trkpt>
      <trkpt lat="45.34363" lon="4.2241">
        <ele>755.98386703</ele>
        <time>2011-03-11T14:59:46.277Z</time>
      </trkpt>
      <trkpt lat="45.34361" lon="4.22411">
        <ele>756.154836347</ele>
        <time>2011-03-11T14:59:47.278Z</time>
      </trkpt>
      <trkpt lat="45.34356" lon="4.22413">
        <ele>756.499996062</ele>
        <time>2011-03-11T14:59:49.274Z</time>
      </trkpt>
      <trkpt lat="45.34349" lon="4.22415">
        <ele>756.970963017</ele>
        <time>2011-03-11T14:59:52.278Z</time>
      </trkpt>
      <trkpt lat="45.34344" lon="4.22418">
        <ele>757.319995117</ele>
        <time>2011-03-11T14:59:54.362Z</time>
      </trkpt>
      <trkpt lat="45.3434" lon="4.2242">
        <ele>757.503221081</ele>
        <time>2011-03-11T14:59:56.279Z</time>
      </trkpt>
      <trkpt lat="45.34336" lon="4.22423">
        <ele>757.799995668</ele>
        <time>2011-03-11T14:59:58.275Z</time>
      </trkpt>
      <trkpt lat="45.34331" lon="4.22424">
        <ele>758.074189217</ele>
        <time>2011-03-11T15:00:00.280Z</time>
      </trkpt>
      <trkpt lat="45.34325" lon="4.22424">
        <ele>758.306445706</ele>
        <time>2011-03-11T15:00:02.284Z</time>
      </trkpt>
      <trkpt lat="45.34316" lon="4.22425">
        <ele>758.612899288</ele>
        <time>2011-03-11T15:00:06.279Z</time>
      </trkpt>
      <trkpt lat="45.34314" lon="4.22425">
        <ele>758.674190398</ele>
        <time>2011-03-11T15:00:07.276Z</time>
      </trkpt>
      <trkpt lat="45.3431" lon="4.22426">
        <ele>758.833331299</ele>
        <time>2011-03-11T15:00:09.280Z</time>
      </trkpt>
      <trkpt lat="45.34302" lon="4.22427">
        <ele>759.212900469</ele>
        <time>2011-03-11T15:00:13.294Z</time>
      </trkpt>
      <trkpt lat="45.343" lon="4.22427">
        <ele>759.383331299</ele>
        <time>2011-03-11T15:00:14.275Z</time>
      </trkpt>
      <trkpt lat="45.34298" lon="4.22427">
        <ele>759.467739967</ele>
        <time>2011-03-11T15:00:15.280Z</time>
      </trkpt>
      <trkpt lat="45.34297" lon="4.22426">
        <ele>759.65</ele>
        <time>2011-03-11T15:00:16.280Z</time>
      </trkpt>
      <trkpt lat="45.34291" lon="4.22426">
        <ele>760.010001628</ele>
        <time>2011-03-11T15:00:19.281Z</time>
      </trkpt>
      <trkpt lat="45.34285" lon="4.22427">
        <ele>760.370969711</ele>
        <time>2011-03-11T15:00:22.276Z</time>
      </trkpt>
      <trkpt lat="45.34283" lon="4.22427">
        <ele>760.560003662</ele>
        <time>2011-03-11T15:00:23.280Z</time>
      </trkpt>
      <trkpt lat="45.34275" lon="4.22428">
        <ele>761.110003662</ele>
        <time>2011-03-11T15:00:27.278Z</time>
      </trkpt>
      <trkpt lat="45.34267" lon="4.22428">
        <ele>761.529035014</ele>
        <time>2011-03-11T15:00:31.280Z</time>
      </trkpt>
      <trkpt lat="45.34261" lon="4.22429">
        <ele>761.977422899</ele>
        <time>2011-03-11T15:00:34.283Z</time>
      </trkpt>
      <trkpt lat="45.34255" lon="4.22429">
        <ele>762.563336182</ele>
        <time>2011-03-11T15:00:37.292Z</time>
      </trkpt>
      <trkpt lat="45.34253" lon="4.22429">
        <ele>762.622584189</ele>
        <time>2011-03-11T15:00:38.279Z</time>
      </trkpt>
      <trkpt lat="45.34247" lon="4.2243">
        <ele>763.126670329</ele>
        <time>2011-03-11T15:00:41.288Z</time>
      </trkpt>
      <trkpt lat="45.34241" lon="4.2243">
        <ele>763.520003255</ele>
        <time>2011-03-11T15:00:44.671Z</time>
      </trkpt>
      <trkpt lat="45.34239" lon="4.2243">
        <ele>763.640002441</ele>
        <time>2011-03-11T15:00:45.334Z</time>
      </trkpt>
      <trkpt lat="45.34237" lon="4.2243">
        <ele>763.693550356</ele>
        <time>2011-03-11T15:00:46.275Z</time>
      </trkpt>
      <trkpt lat="45.34235" lon="4.2243">
        <ele>763.880000814</ele>
        <time>2011-03-11T15:00:47.284Z</time>
      </trkpt>
      <trkpt lat="45.34229" lon="4.2243">
        <ele>764.190000407</ele>
        <time>2011-03-11T15:00:50.287Z</time>
      </trkpt>
      <trkpt lat="45.34222" lon="4.2243">
        <ele>764.658063335</ele>
        <time>2011-03-11T15:00:54.281Z</time>
      </trkpt>
      <trkpt lat="45.34218" lon="4.22429">
        <ele>764.986665853</ele>
        <time>2011-03-11T15:00:56.290Z</time>
      </trkpt>
      <trkpt lat="45.34211" lon="4.22429">
        <ele>765.640000407</ele>
        <time>2011-03-11T15:01:00.285Z</time>
      </trkpt>
      <trkpt lat="45.34207" lon="4.2243">
        <ele>765.883871755</ele>
        <time>2011-03-11T15:01:02.286Z</time>
      </trkpt>
      <trkpt lat="45.34205" lon="4.22431">
        <ele>766.06129111</ele>
        <time>2011-03-11T15:01:03.285Z</time>
      </trkpt>
      <trkpt lat="45.34203" lon="4.22431">
        <ele>766.310001628</ele>
        <time>2011-03-11T15:01:04.297Z</time>
      </trkpt>
      <trkpt lat="45.34196" lon="4.22433">
        <ele>766.976668294</ele>
        <time>2011-03-11T15:01:08.281Z</time>
      </trkpt>
      <trkpt lat="45.34191" lon="4.22434">
        <ele>767.480645949</ele>
        <time>2011-03-11T15:01:11.282Z</time>
      </trkpt>
      <trkpt lat="45.34189" lon="4.22434">
        <ele>767.75333252</ele>
        <time>2011-03-11T15:01:12.297Z</time>
      </trkpt>
      <trkpt lat="45.34185" lon="4.22435">
        <ele>767.993546024</ele>
        <time>2011-03-11T15:01:14.287Z</time>
      </trkpt>
      <trkpt lat="45.3418" lon="4.22436">
        <ele>768.563334147</ele>
        <time>2011-03-11T15:01:17.287Z</time>
      </trkpt>
      <trkpt lat="45.34178" lon="4.22436">
        <ele>768.625807239</ele>
        <time>2011-03-11T15:01:18.286Z</time>
      </trkpt>
      <trkpt lat="45.34174" lon="4.22437">
        <ele>769.080000814</ele>
        <time>2011-03-11T15:01:20.292Z</time>
      </trkpt>
      <trkpt lat="45.34172" lon="4.22436">
        <ele>769.243332926</ele>
        <time>2011-03-11T15:01:21.307Z</time>
      </trkpt>
      <trkpt lat="45.34168" lon="4.22436">
        <ele>769.566668701</ele>
        <time>2011-03-11T15:01:23.282Z</time>
      </trkpt>
      <trkpt lat="45.34165" lon="4.22436">
        <ele>769.860003662</ele>
        <time>2011-03-11T15:01:25.283Z</time>
      </trkpt>
      <trkpt lat="45.34159" lon="4.22437">
        <ele>770.400004069</ele>
        <time>2011-03-11T15:01:28.289Z</time>
      </trkpt>
      <trkpt lat="45.34155" lon="4.22438">
        <ele>770.740004476</ele>
        <time>2011-03-11T15:01:30.294Z</time>
      </trkpt>
      <trkpt lat="45.34152" lon="4.22439">
        <ele>771.116670736</ele>
        <time>2011-03-11T15:01:32.293Z</time>
      </trkpt>
      <trkpt lat="45.34148" lon="4.2244">
        <ele>771.412904801</ele>
        <time>2011-03-11T15:01:34.286Z</time>
      </trkpt>
      <trkpt lat="45.34143" lon="4.22441">
        <ele>772.07333374</ele>
        <time>2011-03-11T15:01:37.290Z</time>
      </trkpt>
      <trkpt lat="45.34136" lon="4.22443">
        <ele>772.45333252</ele>
        <time>2011-03-11T15:01:40.290Z</time>
      </trkpt>
      <trkpt lat="45.34128" lon="4.22445">
        <ele>773.040002441</ele>
        <time>2011-03-11T15:01:44.302Z</time>
      </trkpt>
      <trkpt lat="45.34124" lon="4.22446">
        <ele>773.390000407</ele>
        <time>2011-03-11T15:01:46.287Z</time>
      </trkpt>
      <trkpt lat="45.34122" lon="4.22446">
        <ele>773.566666667</ele>
        <time>2011-03-11T15:01:47.291Z</time>
      </trkpt>
      <trkpt lat="45.34115" lon="4.22447">
        <ele>773.967739967</ele>
        <time>2011-03-11T15:01:50.291Z</time>
      </trkpt>
      <trkpt lat="45.34107" lon="4.22449">
        <ele>774.453330485</ele>
        <time>2011-03-11T15:01:53.292Z</time>
      </trkpt>
      <trkpt lat="45.34106" lon="4.2245">
        <ele>774.583329264</ele>
        <time>2011-03-11T15:01:54.491Z</time>
      </trkpt>
      <trkpt lat="45.34097" lon="4.22453">
        <ele>774.925802908</ele>
        <time>2011-03-11T15:01:58.289Z</time>
      </trkpt>
      <trkpt lat="45.34092" lon="4.22455">
        <ele>775.229996745</ele>
        <time>2011-03-11T15:02:00.337Z</time>
      </trkpt>
      <trkpt lat="45.34087" lon="4.22457">
        <ele>775.406663005</ele>
        <time>2011-03-11T15:02:02.325Z</time>
      </trkpt>
      <trkpt lat="45.34081" lon="4.2246">
        <ele>775.616664632</ele>
        <time>2011-03-11T15:02:05.371Z</time>
      </trkpt>
      <trkpt lat="45.34074" lon="4.22463">
        <ele>775.809999593</ele>
        <time>2011-03-11T15:02:08.370Z</time>
      </trkpt>
      <trkpt lat="45.34072" lon="4.22464">
        <ele>775.913334147</ele>
        <time>2011-03-11T15:02:09.397Z</time>
      </trkpt>
      <trkpt lat="45.3407" lon="4.22465">
        <ele>775.993334961</ele>
        <time>2011-03-11T15:02:10.762Z</time>
      </trkpt>
      <trkpt lat="45.3406" lon="4.22471">
        <ele>776.356667074</ele>
        <time>2011-03-11T15:02:14.621Z</time>
      </trkpt>
      <trkpt lat="45.34052" lon="4.22474">
        <ele>776.510003662</ele>
        <time>2011-03-11T15:02:17.326Z</time>
      </trkpt>
      <trkpt lat="45.34045" lon="4.22477">
        <ele>776.586671956</ele>
        <time>2011-03-11T15:02:20.333Z</time>
      </trkpt>
      <trkpt lat="45.34043" lon="4.22479">
        <ele>776.623337809</ele>
        <time>2011-03-11T15:02:21.362Z</time>
      </trkpt>
      <trkpt lat="45.3404" lon="4.2248">
        <ele>776.683337402</ele>
        <time>2011-03-11T15:02:22.330Z</time>
      </trkpt>
      <trkpt lat="45.34032" lon="4.22487">
        <ele>776.833337402</ele>
        <time>2011-03-11T15:02:25.350Z</time>
      </trkpt>
      <trkpt lat="45.34022" lon="4.22495">
        <ele>776.810003662</ele>
        <time>2011-03-11T15:02:29.340Z</time>
      </trkpt>
      <trkpt lat="45.3402" lon="4.22497">
        <ele>776.780002848</ele>
        <time>2011-03-11T15:02:30.365Z</time>
      </trkpt>
      <trkpt lat="45.34013" lon="4.225">
        <ele>776.751616447</ele>
        <time>2011-03-11T15:02:33.328Z</time>
      </trkpt>
      <trkpt lat="45.34008" lon="4.22505">
        <ele>776.729035408</ele>
        <time>2011-03-11T15:02:35.332Z</time>
      </trkpt>
      <trkpt lat="45.34003" lon="4.22511">
        <ele>776.793336995</ele>
        <time>2011-03-11T15:02:37.379Z</time>
      </trkpt>
      <trkpt lat="45.34001" lon="4.22509">
        <ele>776.803228563</ele>
        <time>2011-03-11T15:02:38.331Z</time>
      </trkpt>
      <trkpt lat="45.33998" lon="4.22511">
        <ele>776.825809602</ele>
        <time>2011-03-11T15:02:39.351Z</time>
      </trkpt>
      <trkpt lat="45.33994" lon="4.22512">
        <ele>776.819357595</ele>
        <time>2011-03-11T15:02:40.356Z</time>
      </trkpt>
      <trkpt lat="45.33993" lon="4.22515">
        <ele>776.810001628</ele>
        <time>2011-03-11T15:02:41.379Z</time>
      </trkpt>
      <trkpt lat="45.33982" lon="4.2252">
        <ele>776.58064713</ele>
        <time>2011-03-11T15:02:45.347Z</time>
      </trkpt>
      <trkpt lat="45.3398" lon="4.22521">
        <ele>776.463334147</ele>
        <time>2011-03-11T15:02:46.360Z</time>
      </trkpt>
      <trkpt lat="45.33979" lon="4.22523">
        <ele>776.563334147</ele>
        <time>2011-03-11T15:02:47.336Z</time>
      </trkpt>
      <trkpt lat="45.33977" lon="4.22526">
        <ele>776.703334554</ele>
        <time>2011-03-11T15:02:48.340Z</time>
      </trkpt>
      <trkpt lat="45.33974" lon="4.22527">
        <ele>776.843334961</ele>
        <time>2011-03-11T15:02:49.335Z</time>
      </trkpt>
      <trkpt lat="45.33973" lon="4.22528">
        <ele>777.010001628</ele>
        <time>2011-03-11T15:02:50.337Z</time>
      </trkpt>
      <trkpt lat="45.3397" lon="4.22529">
        <ele>777.138711253</ele>
        <time>2011-03-11T15:02:51.337Z</time>
      </trkpt>
      <trkpt lat="45.33968" lon="4.2253">
        <ele>777.290002441</ele>
        <time>2011-03-11T15:02:52.339Z</time>
      </trkpt>
      <trkpt lat="45.33966" lon="4.22532">
        <ele>777.45484186</ele>
        <time>2011-03-11T15:02:53.349Z</time>
      </trkpt>
      <trkpt lat="45.33963" lon="4.22535">
        <ele>777.641940209</ele>
        <time>2011-03-11T15:02:54.337Z</time>
      </trkpt>
      <trkpt lat="45.3396" lon="4.22537">
        <ele>777.866670736</ele>
        <time>2011-03-11T15:02:55.364Z</time>
      </trkpt>
      <trkpt lat="45.33955" lon="4.2254">
        <ele>778.470972861</ele>
        <time>2011-03-11T15:02:58.336Z</time>
      </trkpt>
      <trkpt lat="45.33953" lon="4.22541">
        <ele>778.732262396</ele>
        <time>2011-03-11T15:02:59.336Z</time>
      </trkpt>
      <trkpt lat="45.3395" lon="4.22543">
        <ele>778.970972861</ele>
        <time>2011-03-11T15:03:00.331Z</time>
      </trkpt>
      <trkpt lat="45.33948" lon="4.22545">
        <ele>779.350006104</ele>
        <time>2011-03-11T15:03:01.341Z</time>
      </trkpt>
      <trkpt lat="45.33946" lon="4.22546">
        <ele>779.603338623</ele>
        <time>2011-03-11T15:03:02.363Z</time>
      </trkpt>
      <trkpt lat="45.33944" lon="4.22548">
        <ele>779.856671143</ele>
        <time>2011-03-11T15:03:03.339Z</time>
      </trkpt>
      <trkpt lat="45.33942" lon="4.22548">
        <ele>780.09333903</ele>
        <time>2011-03-11T15:03:04.342Z</time>
      </trkpt>
      <trkpt lat="45.33941" lon="4.2255">
        <ele>780.39000651</ele>
        <time>2011-03-11T15:03:05.340Z</time>
      </trkpt>
      <trkpt lat="45.3394" lon="4.22552">
        <ele>780.577426049</ele>
        <time>2011-03-11T15:03:06.324Z</time>
      </trkpt>
      <trkpt lat="45.33937" lon="4.22554">
        <ele>780.8903277</ele>
        <time>2011-03-11T15:03:07.337Z</time>
      </trkpt>
      <trkpt lat="45.33933" lon="4.22556">
        <ele>781.326672363</ele>
        <time>2011-03-11T15:03:08.337Z</time>
      </trkpt>
      <trkpt lat="45.3393" lon="4.2256">
        <ele>781.896671549</ele>
        <time>2011-03-11T15:03:10.370Z</time>
      </trkpt>
      <trkpt lat="45.33928" lon="4.22563">
        <ele>782.032262002</ele>
        <time>2011-03-11T15:03:11.353Z</time>
      </trkpt>
      <trkpt lat="45.3392" lon="4.2257">
        <ele>782.893552719</ele>
        <time>2011-03-11T15:03:14.335Z</time>
      </trkpt>
      <trkpt lat="45.33917" lon="4.22572">
        <ele>783.209681357</ele>
        <time>2011-03-11T15:03:15.334Z</time>
      </trkpt>
      <trkpt lat="45.33916" lon="4.22575">
        <ele>783.567745086</ele>
        <time>2011-03-11T15:03:16.350Z</time>
      </trkpt>
      <trkpt lat="45.33914" lon="4.22577">
        <ele>784.103334554</ele>
        <time>2011-03-11T15:03:17.345Z</time>
      </trkpt>
      <trkpt lat="45.33912" lon="4.2258">
        <ele>784.336667887</ele>
        <time>2011-03-11T15:03:18.360Z</time>
      </trkpt>
      <trkpt lat="45.33909" lon="4.22583">
        <ele>784.610001628</ele>
        <time>2011-03-11T15:03:19.338Z</time>
      </trkpt>
      <trkpt lat="45.33906" lon="4.22586">
        <ele>784.758066485</ele>
        <time>2011-03-11T15:03:20.336Z</time>
      </trkpt>
      <trkpt lat="45.33903" lon="4.22587">
        <ele>785.17333374</ele>
        <time>2011-03-11T15:03:21.340Z</time>
      </trkpt>
      <trkpt lat="45.339" lon="4.22589">
        <ele>785.319355626</ele>
        <time>2011-03-11T15:03:22.338Z</time>
      </trkpt>
      <trkpt lat="45.33897" lon="4.22591">
        <ele>785.603228169</ele>
        <time>2011-03-11T15:03:23.338Z</time>
      </trkpt>
      <trkpt lat="45.33895" lon="4.22593">
        <ele>785.92333374</ele>
        <time>2011-03-11T15:03:24.340Z</time>
      </trkpt>
      <trkpt lat="45.33892" lon="4.22594">
        <ele>786.133333333</ele>
        <time>2011-03-11T15:03:25.372Z</time>
      </trkpt>
      <trkpt lat="45.33885" lon="4.22599">
        <ele>786.85</ele>
        <time>2011-03-11T15:03:28.353Z</time>
      </trkpt>
      <trkpt lat="45.3388" lon="4.22604">
        <ele>787.2</ele>
        <time>2011-03-11T15:03:30.340Z</time>
      </trkpt>
      <trkpt lat="45.33878" lon="4.22605">
        <ele>787.235483477</ele>
        <time>2011-03-11T15:03:31.337Z</time>
      </trkpt>
      <trkpt lat="45.33875" lon="4.22608">
        <ele>787.325805664</ele>
        <time>2011-03-11T15:03:32.337Z</time>
      </trkpt>
      <trkpt lat="45.33872" lon="4.22612">
        <ele>787.75333252</ele>
        <time>2011-03-11T15:03:34.361Z</time>
      </trkpt>
      <trkpt lat="45.3387" lon="4.22614">
        <ele>787.745160503</ele>
        <time>2011-03-11T15:03:35.337Z</time>
      </trkpt>
      <trkpt lat="45.33867" lon="4.22616">
        <ele>787.816664632</ele>
        <time>2011-03-11T15:03:36.340Z</time>
      </trkpt>
      <trkpt lat="45.33865" lon="4.22619">
        <ele>787.789998372</ele>
        <time>2011-03-11T15:03:37.341Z</time>
      </trkpt>
      <trkpt lat="45.33863" lon="4.22621">
        <ele>787.699998425</ele>
        <time>2011-03-11T15:03:38.335Z</time>
      </trkpt>
      <trkpt lat="45.33856" lon="4.22626">
        <ele>787.6</ele>
        <time>2011-03-11T15:03:41.371Z</time>
      </trkpt>
      <trkpt lat="45.33855" lon="4.22627">
        <ele>787.516129032</ele>
        <time>2011-03-11T15:03:42.348Z</time>
      </trkpt>
      <trkpt lat="45.33853" lon="4.2263">
        <ele>787.487095987</ele>
        <time>2011-03-11T15:03:43.362Z</time>
      </trkpt>
      <trkpt lat="45.33849" lon="4.22633">
        <ele>787.543332926</ele>
        <time>2011-03-11T15:03:45.388Z</time>
      </trkpt>
      <trkpt lat="45.33844" lon="4.22637">
        <ele>787.54193509</ele>
        <time>2011-03-11T15:03:47.341Z</time>
      </trkpt>
      <trkpt lat="45.33838" lon="4.22642">
        <ele>787.37666626</ele>
        <time>2011-03-11T15:03:50.409Z</time>
      </trkpt>
      <trkpt lat="45.33832" lon="4.22647">
        <ele>787.156665039</ele>
        <time>2011-03-11T15:03:53.340Z</time>
      </trkpt>
      <trkpt lat="45.3383" lon="4.22648">
        <ele>787.149997965</ele>
        <time>2011-03-11T15:03:54.382Z</time>
      </trkpt>
      <trkpt lat="45.33828" lon="4.2265">
        <ele>787.190321399</ele>
        <time>2011-03-11T15:03:55.356Z</time>
      </trkpt>
      <trkpt lat="45.33825" lon="4.22652">
        <ele>787.07666626</ele>
        <time>2011-03-11T15:03:56.349Z</time>
      </trkpt>
      <trkpt lat="45.33821" lon="4.22653">
        <ele>786.979998779</ele>
        <time>2011-03-11T15:03:57.357Z</time>
      </trkpt>
      <trkpt lat="45.33817" lon="4.22658">
        <ele>786.948385915</ele>
        <time>2011-03-11T15:03:59.363Z</time>
      </trkpt>
      <trkpt lat="45.33814" lon="4.22659">
        <ele>786.846665446</ele>
        <time>2011-03-11T15:04:00.362Z</time>
      </trkpt>
      <trkpt lat="45.33813" lon="4.22662">
        <ele>786.80333252</ele>
        <time>2011-03-11T15:04:01.354Z</time>
      </trkpt>
      <trkpt lat="45.33809" lon="4.22667">
        <ele>786.7935476</ele>
        <time>2011-03-11T15:04:03.338Z</time>
      </trkpt>
      <trkpt lat="45.33807" lon="4.22669">
        <ele>786.751612509</ele>
        <time>2011-03-11T15:04:04.339Z</time>
      </trkpt>
      <trkpt lat="45.33806" lon="4.2267">
        <ele>786.656667074</ele>
        <time>2011-03-11T15:04:05.347Z</time>
      </trkpt>
      <trkpt lat="45.33806" lon="4.22672">
        <ele>786.683333333</ele>
        <time>2011-03-11T15:04:06.367Z</time>
      </trkpt>
      <trkpt lat="45.33805" lon="4.22677">
        <ele>786.67666626</ele>
        <time>2011-03-11T15:04:07.348Z</time>
      </trkpt>
      <trkpt lat="45.33804" lon="4.2268">
        <ele>786.706667074</ele>
        <time>2011-03-11T15:04:08.351Z</time>
      </trkpt>
      <trkpt lat="45.33803" lon="4.22681">
        <ele>786.72333374</ele>
        <time>2011-03-11T15:04:09.348Z</time>
      </trkpt>
      <trkpt lat="45.338" lon="4.22684">
        <ele>786.743332926</ele>
        <time>2011-03-11T15:04:10.347Z</time>
      </trkpt>
      <trkpt lat="45.33797" lon="4.2269">
        <ele>786.754837528</ele>
        <time>2011-03-11T15:04:12.346Z</time>
      </trkpt>
      <trkpt lat="45.33795" lon="4.22691">
        <ele>786.843332926</ele>
        <time>2011-03-11T15:04:13.375Z</time>
      </trkpt>
      <trkpt lat="45.33793" lon="4.22692">
        <ele>786.85483871</ele>
        <time>2011-03-11T15:04:14.360Z</time>
      </trkpt>
      <trkpt lat="45.33791" lon="4.22694">
        <ele>786.93870889</ele>
        <time>2011-03-11T15:04:15.370Z</time>
      </trkpt>
      <trkpt lat="45.33787" lon="4.22695">
        <ele>787</ele>
        <time>2011-03-11T15:04:16.365Z</time>
      </trkpt>
      <trkpt lat="45.33785" lon="4.22698">
        <ele>786.970966954</ele>
        <time>2011-03-11T15:04:18.379Z</time>
      </trkpt>
      <trkpt lat="45.33784" lon="4.227">
        <ele>786.945160897</ele>
        <time>2011-03-11T15:04:19.369Z</time>
      </trkpt>
      <trkpt lat="45.33782" lon="4.22701">
        <ele>786.948385915</ele>
        <time>2011-03-11T15:04:20.348Z</time>
      </trkpt>
      <trkpt lat="45.33779" lon="4.22704">
        <ele>786.926664225</ele>
        <time>2011-03-11T15:04:22.374Z</time>
      </trkpt>
      <trkpt lat="45.33778" lon="4.22706">
        <ele>786.879996745</ele>
        <time>2011-03-11T15:04:23.384Z</time>
      </trkpt>
      <trkpt lat="45.33776" lon="4.22708">
        <ele>786.893544843</ele>
        <time>2011-03-11T15:04:24.345Z</time>
      </trkpt>
      <trkpt lat="45.33774" lon="4.22709">
        <ele>786.835480721</ele>
        <time>2011-03-11T15:04:25.349Z</time>
      </trkpt>
      <trkpt lat="45.33773" lon="4.22711">
        <ele>786.848382765</ele>
        <time>2011-03-11T15:04:26.343Z</time>
      </trkpt>
      <trkpt lat="45.33771" lon="4.22715">
        <ele>786.925800939</ele>
        <time>2011-03-11T15:04:28.356Z</time>
      </trkpt>
      <trkpt lat="45.33769" lon="4.22718">
        <ele>787.022575132</ele>
        <time>2011-03-11T15:04:29.330Z</time>
      </trkpt>
      <trkpt lat="45.33765" lon="4.22724">
        <ele>787.454832015</ele>
        <time>2011-03-11T15:04:32.368Z</time>
      </trkpt>
      <trkpt lat="45.33761" lon="4.22728">
        <ele>788.103324382</ele>
        <time>2011-03-11T15:04:35.348Z</time>
      </trkpt>
      <trkpt lat="45.33759" lon="4.22732">
        <ele>788.529023201</ele>
        <time>2011-03-11T15:04:37.343Z</time>
      </trkpt>
      <trkpt lat="45.33756" lon="4.22733">
        <ele>788.923323568</ele>
        <time>2011-03-11T15:04:38.371Z</time>
      </trkpt>
      <trkpt lat="45.33755" lon="4.22735">
        <ele>789.223323568</ele>
        <time>2011-03-11T15:04:39.373Z</time>
      </trkpt>
      <trkpt lat="45.33751" lon="4.22737">
        <ele>789.370957898</ele>
        <time>2011-03-11T15:04:40.345Z</time>
      </trkpt>
      <trkpt lat="45.3375" lon="4.22739">
        <ele>789.654828472</ele>
        <time>2011-03-11T15:04:41.345Z</time>
      </trkpt>
      <trkpt lat="45.33748" lon="4.2274">
        <ele>789.935472058</ele>
        <time>2011-03-11T15:04:42.346Z</time>
      </trkpt>
      <trkpt lat="45.33746" lon="4.22742">
        <ele>790.359987386</ele>
        <time>2011-03-11T15:04:43.379Z</time>
      </trkpt>
      <trkpt lat="45.33745" lon="4.22743">
        <ele>790.490311161</ele>
        <time>2011-03-11T15:04:44.337Z</time>
      </trkpt>
      <trkpt lat="45.33744" lon="4.22744">
        <ele>790.709665606</ele>
        <time>2011-03-11T15:04:45.337Z</time>
      </trkpt>
      <trkpt lat="45.33743" lon="4.22746">
        <ele>790.929020051</ele>
        <time>2011-03-11T15:04:46.342Z</time>
      </trkpt>
      <trkpt lat="45.33738" lon="4.22753">
        <ele>791.709667575</ele>
        <time>2011-03-11T15:04:49.348Z</time>
      </trkpt>
      <trkpt lat="45.33737" lon="4.22756">
        <ele>791.99031313</ele>
        <time>2011-03-11T15:04:50.346Z</time>
      </trkpt>
      <trkpt lat="45.33737" lon="4.22759">
        <ele>792.296764743</ele>
        <time>2011-03-11T15:04:51.346Z</time>
      </trkpt>
      <trkpt lat="45.33736" lon="4.22761">
        <ele>792.606443344</ele>
        <time>2011-03-11T15:04:52.370Z</time>
      </trkpt>
      <trkpt lat="45.33734" lon="4.22763">
        <ele>793.706658936</ele>
        <time>2011-03-11T15:04:55.350Z</time>
      </trkpt>
      <trkpt lat="45.33733" lon="4.22765">
        <ele>793.939992269</ele>
        <time>2011-03-11T15:04:56.381Z</time>
      </trkpt>
      <trkpt lat="45.33732" lon="4.22766">
        <ele>794.012896138</ele>
        <time>2011-03-11T15:04:57.342Z</time>
      </trkpt>
      <trkpt lat="45.3373" lon="4.22768">
        <ele>794.235477571</ele>
        <time>2011-03-11T15:04:58.346Z</time>
      </trkpt>
      <trkpt lat="45.3373" lon="4.22771">
        <ele>794.599993896</ele>
        <time>2011-03-11T15:04:59.350Z</time>
      </trkpt>
      <trkpt lat="45.33728" lon="4.22772">
        <ele>794.766660563</ele>
        <time>2011-03-11T15:05:00.378Z</time>
      </trkpt>
      <trkpt lat="45.33726" lon="4.22774">
        <ele>794.838703771</ele>
        <time>2011-03-11T15:05:01.355Z</time>
      </trkpt>
      <trkpt lat="45.33724" lon="4.22777">
        <ele>795.009671119</ele>
        <time>2011-03-11T15:05:02.349Z</time>
      </trkpt>
      <trkpt lat="45.33722" lon="4.22779">
        <ele>795.236661784</ele>
        <time>2011-03-11T15:05:03.372Z</time>
      </trkpt>
      <trkpt lat="45.3372" lon="4.22781">
        <ele>795.363330078</ele>
        <time>2011-03-11T15:05:04.362Z</time>
      </trkpt>
      <trkpt lat="45.33719" lon="4.22783">
        <ele>795.456663005</ele>
        <time>2011-03-11T15:05:05.382Z</time>
      </trkpt>
      <trkpt lat="45.33717" lon="4.22784">
        <ele>795.567739179</ele>
        <time>2011-03-11T15:05:07.337Z</time>
      </trkpt>
      <trkpt lat="45.33717" lon="4.22786">
        <ele>795.696663411</ele>
        <time>2011-03-11T15:05:08.386Z</time>
      </trkpt>
      <trkpt lat="45.33715" lon="4.2279">
        <ele>795.899997965</ele>
        <time>2011-03-11T15:05:10.806Z</time>
      </trkpt>
      <trkpt lat="45.33713" lon="4.22792">
        <ele>795.929029895</ele>
        <time>2011-03-11T15:05:11.293Z</time>
      </trkpt>
      <trkpt lat="45.33711" lon="4.22794">
        <ele>796.074193155</ele>
        <time>2011-03-11T15:05:13.329Z</time>
      </trkpt>
      <trkpt lat="45.33709" lon="4.22795">
        <ele>796.151613297</ele>
        <time>2011-03-11T15:05:14.332Z</time>
      </trkpt>
      <trkpt lat="45.33708" lon="4.22797">
        <ele>796.345159715</ele>
        <time>2011-03-11T15:05:16.333Z</time>
      </trkpt>
      <trkpt lat="45.33707" lon="4.22799">
        <ele>796.441933909</ele>
        <time>2011-03-11T15:05:17.341Z</time>
      </trkpt>
      <trkpt lat="45.33703" lon="4.22801">
        <ele>796.893330892</ele>
        <time>2011-03-11T15:05:20.363Z</time>
      </trkpt>
      <trkpt lat="45.33702" lon="4.22801">
        <ele>796.954835953</ele>
        <time>2011-03-11T15:05:21.344Z</time>
      </trkpt>
      <trkpt lat="45.337" lon="4.22802">
        <ele>797.099997965</ele>
        <time>2011-03-11T15:05:22.379Z</time>
      </trkpt>
      <trkpt lat="45.33694" lon="4.22804">
        <ele>797.632259246</ele>
        <time>2011-03-11T15:05:26.377Z</time>
      </trkpt>
      <trkpt lat="45.33693" lon="4.22805">
        <ele>797.82333374</ele>
        <time>2011-03-11T15:05:27.344Z</time>
      </trkpt>
      <trkpt lat="45.33692" lon="4.22806">
        <ele>797.95</ele>
        <time>2011-03-11T15:05:28.351Z</time>
      </trkpt>
      <trkpt lat="45.33692" lon="4.22806">
        <ele>798.119353264</ele>
        <time>2011-03-11T15:05:30.351Z</time>
      </trkpt>
      <trkpt lat="45.33691" lon="4.22806">
        <ele>798.232256489</ele>
        <time>2011-03-11T15:05:31.351Z</time>
      </trkpt>
      <trkpt lat="45.33685" lon="4.22809">
        <ele>798.559997559</ele>
        <time>2011-03-11T15:05:34.389Z</time>
      </trkpt>
      <trkpt lat="45.33682" lon="4.2281">
        <ele>798.645159321</ele>
        <time>2011-03-11T15:05:35.372Z</time>
      </trkpt>
      <trkpt lat="45.33681" lon="4.2281">
        <ele>798.809676632</ele>
        <time>2011-03-11T15:05:36.382Z</time>
      </trkpt>
      <trkpt lat="45.3368" lon="4.22809">
        <ele>799.046665446</ele>
        <time>2011-03-11T15:05:37.352Z</time>
      </trkpt>
      <trkpt lat="45.33678" lon="4.2281">
        <ele>799.119353264</ele>
        <time>2011-03-11T15:05:38.378Z</time>
      </trkpt>
      <trkpt lat="45.33677" lon="4.22812">
        <ele>799.264514554</ele>
        <time>2011-03-11T15:05:39.350Z</time>
      </trkpt>
      <trkpt lat="45.33671" lon="4.22814">
        <ele>799.843330892</ele>
        <time>2011-03-11T15:05:42.377Z</time>
      </trkpt>
      <trkpt lat="45.3367" lon="4.22815">
        <ele>800.043330892</ele>
        <time>2011-03-11T15:05:43.350Z</time>
      </trkpt>
      <trkpt lat="45.33666" lon="4.22817">
        <ele>800.443332926</ele>
        <time>2011-03-11T15:05:45.361Z</time>
      </trkpt>
      <trkpt lat="45.33664" lon="4.22817">
        <ele>800.6</ele>
        <time>2011-03-11T15:05:46.355Z</time>
      </trkpt>
      <trkpt lat="45.33661" lon="4.2282">
        <ele>801.096665446</ele>
        <time>2011-03-11T15:05:49.384Z</time>
      </trkpt>
      <trkpt lat="45.33659" lon="4.22821">
        <ele>801.249997965</ele>
        <time>2011-03-11T15:05:50.390Z</time>
      </trkpt>
      <trkpt lat="45.33653" lon="4.22825">
        <ele>801.666664632</ele>
        <time>2011-03-11T15:05:54.392Z</time>
      </trkpt>
      <trkpt lat="45.33652" lon="4.22826">
        <ele>801.753330485</ele>
        <time>2011-03-11T15:05:55.354Z</time>
      </trkpt>
      <trkpt lat="45.3365" lon="4.22826">
        <ele>801.809674663</ele>
        <time>2011-03-11T15:05:56.357Z</time>
      </trkpt>
      <trkpt lat="45.33645" lon="4.22828">
        <ele>802.219997152</ele>
        <time>2011-03-11T15:05:59.359Z</time>
      </trkpt>
      <trkpt lat="45.33643" lon="4.22829">
        <ele>802.293545631</ele>
        <time>2011-03-11T15:06:00.342Z</time>
      </trkpt>
      <trkpt lat="45.33642" lon="4.22831">
        <ele>802.48064398</ele>
        <time>2011-03-11T15:06:01.340Z</time>
      </trkpt>
      <trkpt lat="45.33638" lon="4.22833">
        <ele>803.039998372</ele>
        <time>2011-03-11T15:06:03.362Z</time>
      </trkpt>
      <trkpt lat="45.33634" lon="4.22838">
        <ele>803.670965379</ele>
        <time>2011-03-11T15:06:06.381Z</time>
      </trkpt>
      <trkpt lat="45.33633" lon="4.22839">
        <ele>804.013330078</ele>
        <time>2011-03-11T15:06:07.413Z</time>
      </trkpt>
      <trkpt lat="45.33632" lon="4.22839">
        <ele>804.170965379</ele>
        <time>2011-03-11T15:06:08.362Z</time>
      </trkpt>
      <trkpt lat="45.33629" lon="4.22841">
        <ele>804.786665853</ele>
        <time>2011-03-11T15:06:10.399Z</time>
      </trkpt>
      <trkpt lat="45.33628" lon="4.22843">
        <ele>805.026664225</ele>
        <time>2011-03-11T15:06:11.401Z</time>
      </trkpt>
      <trkpt lat="45.33625" lon="4.22843">
        <ele>805.549997965</ele>
        <time>2011-03-11T15:06:13.360Z</time>
      </trkpt>
      <trkpt lat="45.33624" lon="4.22843">
        <ele>805.803330485</ele>
        <time>2011-03-11T15:06:14.386Z</time>
      </trkpt>
      <trkpt lat="45.33623" lon="4.22845">
        <ele>805.94193194</ele>
        <time>2011-03-11T15:06:15.356Z</time>
      </trkpt>
      <trkpt lat="45.33621" lon="4.22848">
        <ele>806.569997152</ele>
        <time>2011-03-11T15:06:17.355Z</time>
      </trkpt>
      <trkpt lat="45.33619" lon="4.22849">
        <ele>806.796663411</ele>
        <time>2011-03-11T15:06:18.359Z</time>
      </trkpt>
      <trkpt lat="45.33617" lon="4.22849">
        <ele>806.909673875</ele>
        <time>2011-03-11T15:06:19.355Z</time>
      </trkpt>
      <trkpt lat="45.33615" lon="4.2285">
        <ele>807.10644925</ele>
        <time>2011-03-11T15:06:20.353Z</time>
      </trkpt>
      <trkpt lat="45.33612" lon="4.22852">
        <ele>807.577416205</ele>
        <time>2011-03-11T15:06:22.354Z</time>
      </trkpt>
      <trkpt lat="45.33611" lon="4.22854">
        <ele>807.993328857</ele>
        <time>2011-03-11T15:06:23.389Z</time>
      </trkpt>
      <trkpt lat="45.33609" lon="4.22855">
        <ele>808.119351295</ele>
        <time>2011-03-11T15:06:24.388Z</time>
      </trkpt>
      <trkpt lat="45.33607" lon="4.22855">
        <ele>808.583331299</ele>
        <time>2011-03-11T15:06:25.360Z</time>
      </trkpt>
      <trkpt lat="45.33605" lon="4.22856">
        <ele>808.859997559</ele>
        <time>2011-03-11T15:06:26.358Z</time>
      </trkpt>
      <trkpt lat="45.33603" lon="4.22857">
        <ele>809.139998372</ele>
        <time>2011-03-11T15:06:27.389Z</time>
      </trkpt>
      <trkpt lat="45.336" lon="4.22858">
        <ele>809.222579464</ele>
        <time>2011-03-11T15:06:28.358Z</time>
      </trkpt>
      <trkpt lat="45.33598" lon="4.22859">
        <ele>809.477418961</ele>
        <time>2011-03-11T15:06:29.358Z</time>
      </trkpt>
      <trkpt lat="45.33589" lon="4.22865">
        <ele>810.364515735</ele>
        <time>2011-03-11T15:06:33.361Z</time>
      </trkpt>
      <trkpt lat="45.33586" lon="4.22866">
        <ele>810.548387097</ele>
        <time>2011-03-11T15:06:34.351Z</time>
      </trkpt>
      <trkpt lat="45.33584" lon="4.22866">
        <ele>810.732258458</ele>
        <time>2011-03-11T15:06:35.360Z</time>
      </trkpt>
      <trkpt lat="45.33579" lon="4.22868">
        <ele>811.006452007</ele>
        <time>2011-03-11T15:06:37.361Z</time>
      </trkpt>
      <trkpt lat="45.33576" lon="4.2287">
        <ele>811.1032262</ele>
        <time>2011-03-11T15:06:38.358Z</time>
      </trkpt>
      <trkpt lat="45.33574" lon="4.22874">
        <ele>811.27666626</ele>
        <time>2011-03-11T15:06:39.431Z</time>
      </trkpt>
      <trkpt lat="45.3357" lon="4.22874">
        <ele>811.4</ele>
        <time>2011-03-11T15:06:40.409Z</time>
      </trkpt>
      <trkpt lat="45.33562" lon="4.2288">
        <ele>811.58064713</ele>
        <time>2011-03-11T15:06:42.356Z</time>
      </trkpt>
      <trkpt lat="45.33564" lon="4.22871">
        <ele>811.648390247</ele>
        <time>2011-03-11T15:06:43.360Z</time>
      </trkpt>
      <trkpt lat="45.33562" lon="4.22871">
        <ele>811.751616447</ele>
        <time>2011-03-11T15:06:44.360Z</time>
      </trkpt>
      <trkpt lat="45.33564" lon="4.22872">
        <ele>811.896777738</ele>
        <time>2011-03-11T15:06:45.356Z</time>
      </trkpt>
      <trkpt lat="45.33561" lon="4.22874">
        <ele>812.080002848</ele>
        <time>2011-03-11T15:06:46.388Z</time>
      </trkpt>
      <trkpt lat="45.33561" lon="4.22872">
        <ele>812.180002848</ele>
        <time>2011-03-11T15:06:47.361Z</time>
      </trkpt>
      <trkpt lat="45.33559" lon="4.22873">
        <ele>812.323337809</ele>
        <time>2011-03-11T15:06:48.376Z</time>
      </trkpt>
      <trkpt lat="45.33553" lon="4.22874">
        <ele>812.596671549</ele>
        <time>2011-03-11T15:06:50.376Z</time>
      </trkpt>
      <trkpt lat="45.33546" lon="4.22877">
        <ele>812.730004883</ele>
        <time>2011-03-11T15:06:52.364Z</time>
      </trkpt>
      <trkpt lat="45.33543" lon="4.22877">
        <ele>812.741939422</ele>
        <time>2011-03-11T15:06:53.371Z</time>
      </trkpt>
      <trkpt lat="45.33539" lon="4.22878">
        <ele>812.873335775</ele>
        <time>2011-03-11T15:06:55.840Z</time>
      </trkpt>
      <trkpt lat="45.33537" lon="4.22877">
        <ele>812.920003255</ele>
        <time>2011-03-11T15:06:56.388Z</time>
      </trkpt>
      <trkpt lat="45.33535" lon="4.22878">
        <ele>812.948389853</ele>
        <time>2011-03-11T15:06:57.359Z</time>
      </trkpt>
      <trkpt lat="45.33534" lon="4.22877">
        <ele>812.987099924</ele>
        <time>2011-03-11T15:06:58.352Z</time>
      </trkpt>
      <trkpt lat="45.3353" lon="4.22879">
        <ele>813.132261215</ele>
        <time>2011-03-11T15:07:00.371Z</time>
      </trkpt>
      <trkpt lat="45.33525" lon="4.22883">
        <ele>813.393334961</ele>
        <time>2011-03-11T15:07:02.354Z</time>
      </trkpt>
      <trkpt lat="45.3352" lon="4.22886">
        <ele>813.438710859</ele>
        <time>2011-03-11T15:07:05.336Z</time>
      </trkpt>
      <trkpt lat="45.33518" lon="4.22885">
        <ele>813.412904801</ele>
        <time>2011-03-11T15:07:06.351Z</time>
      </trkpt>
      <trkpt lat="45.33514" lon="4.22891">
        <ele>813.380000814</ele>
        <time>2011-03-11T15:07:08.359Z</time>
      </trkpt>
      <trkpt lat="45.33511" lon="4.22892">
        <ele>813.283872543</ele>
        <time>2011-03-11T15:07:09.329Z</time>
      </trkpt>
      <trkpt lat="45.33508" lon="4.22898">
        <ele>813.054839103</ele>
        <time>2011-03-11T15:07:11.344Z</time>
      </trkpt>
      <trkpt lat="45.33507" lon="4.22899">
        <ele>812.873331706</ele>
        <time>2011-03-11T15:07:12.379Z</time>
      </trkpt>
      <trkpt lat="45.33504" lon="4.22901">
        <ele>812.413332113</ele>
        <time>2011-03-11T15:07:14.365Z</time>
      </trkpt>
      <trkpt lat="45.33502" lon="4.22902">
        <ele>812.16774036</ele>
        <time>2011-03-11T15:07:15.352Z</time>
      </trkpt>
      <trkpt lat="45.33501" lon="4.22902">
        <ele>811.838707709</ele>
        <time>2011-03-11T15:07:16.379Z</time>
      </trkpt>
      <trkpt lat="45.33494" lon="4.22906">
        <ele>810.893546812</ele>
        <time>2011-03-11T15:07:19.360Z</time>
      </trkpt>
      <trkpt lat="45.33487" lon="4.22909">
        <ele>809.809674663</ele>
        <time>2011-03-11T15:07:22.319Z</time>
      </trkpt>
      <trkpt lat="45.33486" lon="4.2291">
        <ele>809.490319037</ele>
        <time>2011-03-11T15:07:23.329Z</time>
      </trkpt>
      <trkpt lat="45.33485" lon="4.22911">
        <ele>809.193546418</ele>
        <time>2011-03-11T15:07:24.358Z</time>
      </trkpt>
      <trkpt lat="45.33481" lon="4.22911">
        <ele>808.835480721</ele>
        <time>2011-03-11T15:07:25.331Z</time>
      </trkpt>
      <trkpt lat="45.33479" lon="4.22912">
        <ele>808.438706921</ele>
        <time>2011-03-11T15:07:26.317Z</time>
      </trkpt>
      <trkpt lat="45.33472" lon="4.22916">
        <ele>807.196771437</ele>
        <time>2011-03-11T15:07:29.327Z</time>
      </trkpt>
      <trkpt lat="45.33468" lon="4.22917">
        <ele>806.406446888</ele>
        <time>2011-03-11T15:07:31.360Z</time>
      </trkpt>
      <trkpt lat="45.33466" lon="4.22921">
        <ele>805.349995931</ele>
        <time>2011-03-11T15:07:33.348Z</time>
      </trkpt>
      <trkpt lat="45.33463" lon="4.22921">
        <ele>804.986661784</ele>
        <time>2011-03-11T15:07:34.356Z</time>
      </trkpt>
      <trkpt lat="45.33461" lon="4.22921">
        <ele>804.659995524</ele>
        <time>2011-03-11T15:07:35.355Z</time>
      </trkpt>
      <trkpt lat="45.3346" lon="4.22924">
        <ele>804.56773721</ele>
        <time>2011-03-11T15:07:36.351Z</time>
      </trkpt>
      <trkpt lat="45.33458" lon="4.22926">
        <ele>804.212898501</ele>
        <time>2011-03-11T15:07:37.351Z</time>
      </trkpt>
      <trkpt lat="45.33456" lon="4.22927">
        <ele>803.613328044</ele>
        <time>2011-03-11T15:07:38.371Z</time>
      </trkpt>
      <trkpt lat="45.33455" lon="4.22929">
        <ele>803.313328044</ele>
        <time>2011-03-11T15:07:39.356Z</time>
      </trkpt>
      <trkpt lat="45.33454" lon="4.22931">
        <ele>803.039994303</ele>
        <time>2011-03-11T15:07:40.356Z</time>
      </trkpt>
      <trkpt lat="45.33452" lon="4.22932">
        <ele>802.849993896</ele>
        <time>2011-03-11T15:07:41.366Z</time>
      </trkpt>
      <trkpt lat="45.33451" lon="4.22931">
        <ele>802.848380796</ele>
        <time>2011-03-11T15:07:42.354Z</time>
      </trkpt>
      <trkpt lat="45.33446" lon="4.22931">
        <ele>802.793543662</ele>
        <time>2011-03-11T15:07:43.353Z</time>
      </trkpt>
      <trkpt lat="45.33442" lon="4.2293">
        <ele>802.822574739</ele>
        <time>2011-03-11T15:07:44.353Z</time>
      </trkpt>
      <trkpt lat="45.3344" lon="4.22931">
        <ele>802.919348932</ele>
        <time>2011-03-11T15:07:45.328Z</time>
      </trkpt>
      <trkpt lat="45.33436" lon="4.22931">
        <ele>803.041929183</ele>
        <time>2011-03-11T15:07:46.369Z</time>
      </trkpt>
      <trkpt lat="45.33434" lon="4.22933">
        <ele>803.15160739</ele>
        <time>2011-03-11T15:07:47.358Z</time>
      </trkpt>
      <trkpt lat="45.33432" lon="4.22934">
        <ele>803.348382765</ele>
        <time>2011-03-11T15:07:49.360Z</time>
      </trkpt>
      <trkpt lat="45.3343" lon="4.22935">
        <ele>803.453328451</ele>
        <time>2011-03-11T15:07:50.365Z</time>
      </trkpt>
      <trkpt lat="45.33421" lon="4.22937">
        <ele>803.859995524</ele>
        <time>2011-03-11T15:07:53.362Z</time>
      </trkpt>
      <trkpt lat="45.33414" lon="4.22938">
        <ele>803.889994303</ele>
        <time>2011-03-11T15:07:54.383Z</time>
      </trkpt>
      <trkpt lat="45.33407" lon="4.22937">
        <ele>804.123327637</ele>
        <time>2011-03-11T15:07:56.342Z</time>
      </trkpt>
      <trkpt lat="45.33399" lon="4.22938">
        <ele>804.373327637</ele>
        <time>2011-03-11T15:07:58.353Z</time>
      </trkpt>
      <trkpt lat="45.33395" lon="4.2294">
        <ele>804.493328857</ele>
        <time>2011-03-11T15:07:59.363Z</time>
      </trkpt>
      <trkpt lat="45.33389" lon="4.22942">
        <ele>804.579996745</ele>
        <time>2011-03-11T15:08:00.362Z</time>
      </trkpt>
      <trkpt lat="45.33385" lon="4.22942">
        <ele>804.709997559</ele>
        <time>2011-03-11T15:08:01.363Z</time>
      </trkpt>
      <trkpt lat="45.33382" lon="4.22942">
        <ele>804.777416598</ele>
        <time>2011-03-11T15:08:02.351Z</time>
      </trkpt>
      <trkpt lat="45.33379" lon="4.22945">
        <ele>805.083331299</ele>
        <time>2011-03-11T15:08:03.364Z</time>
      </trkpt>
      <trkpt lat="45.33376" lon="4.22947">
        <ele>805.439998372</ele>
        <time>2011-03-11T15:08:04.376Z</time>
      </trkpt>
      <trkpt lat="45.33372" lon="4.22948">
        <ele>805.759997559</ele>
        <time>2011-03-11T15:08:05.361Z</time>
      </trkpt>
      <trkpt lat="45.33368" lon="4.22948">
        <ele>806.143330892</ele>
        <time>2011-03-11T15:08:06.660Z</time>
      </trkpt>
      <trkpt lat="45.33365" lon="4.22948">
        <ele>806.383867818</ele>
        <time>2011-03-11T15:08:07.340Z</time>
      </trkpt>
      <trkpt lat="45.33362" lon="4.22949">
        <ele>806.793545631</ele>
        <time>2011-03-11T15:08:08.354Z</time>
      </trkpt>
      <trkpt lat="45.33358" lon="4.22951">
        <ele>807.363330078</ele>
        <time>2011-03-11T15:08:09.384Z</time>
      </trkpt>
      <trkpt lat="45.33355" lon="4.22951">
        <ele>807.716664632</ele>
        <time>2011-03-11T15:08:10.610Z</time>
      </trkpt>
      <trkpt lat="45.33353" lon="4.22951">
        <ele>807.916127851</ele>
        <time>2011-03-11T15:08:11.301Z</time>
      </trkpt>
      <trkpt lat="45.33348" lon="4.22952">
        <ele>808.436665853</ele>
        <time>2011-03-11T15:08:12.477Z</time>
      </trkpt>
      <trkpt lat="45.33342" lon="4.2295">
        <ele>808.85806176</ele>
        <time>2011-03-11T15:08:14.345Z</time>
      </trkpt>
      <trkpt lat="45.33337" lon="4.2295">
        <ele>809.143330892</ele>
        <time>2011-03-11T15:08:15.355Z</time>
      </trkpt>
      <trkpt lat="45.33331" lon="4.22945">
        <ele>809.416125882</ele>
        <time>2011-03-11T15:08:16.352Z</time>
      </trkpt>
      <trkpt lat="45.33324" lon="4.22944">
        <ele>810.159997559</ele>
        <time>2011-03-11T15:08:18.368Z</time>
      </trkpt>
      <trkpt lat="45.33322" lon="4.22946">
        <ele>810.913330078</ele>
        <time>2011-03-11T15:08:20.408Z</time>
      </trkpt>
      <trkpt lat="45.33321" lon="4.22947">
        <ele>811.193544449</ele>
        <time>2011-03-11T15:08:21.368Z</time>
      </trkpt>
      <trkpt lat="45.33319" lon="4.22951">
        <ele>811.779996745</ele>
        <time>2011-03-11T15:08:22.374Z</time>
      </trkpt>
      <trkpt lat="45.33318" lon="4.22955">
        <ele>812.070964198</ele>
        <time>2011-03-11T15:08:23.347Z</time>
      </trkpt>
      <trkpt lat="45.33315" lon="4.22957">
        <ele>812.574189217</ele>
        <time>2011-03-11T15:08:24.369Z</time>
      </trkpt>
      <trkpt lat="45.33313" lon="4.22959">
        <ele>813.386663818</ele>
        <time>2011-03-11T15:08:25.383Z</time>
      </trkpt>
      <trkpt lat="45.33311" lon="4.22961">
        <ele>813.956665039</ele>
        <time>2011-03-11T15:08:26.366Z</time>
      </trkpt>
      <trkpt lat="45.33306" lon="4.22961">
        <ele>814.489998372</ele>
        <time>2011-03-11T15:08:27.368Z</time>
      </trkpt>
      <trkpt lat="45.333" lon="4.2296">
        <ele>814.956665039</ele>
        <time>2011-03-11T15:08:28.390Z</time>
      </trkpt>
      <trkpt lat="45.33292" lon="4.22961">
        <ele>815.816664632</ele>
        <time>2011-03-11T15:08:30.400Z</time>
      </trkpt>
      <trkpt lat="45.33289" lon="4.22963">
        <ele>816.156665039</ele>
        <time>2011-03-11T15:08:31.395Z</time>
      </trkpt>
      <trkpt lat="45.33285" lon="4.22962">
        <ele>816.466664632</ele>
        <time>2011-03-11T15:08:32.353Z</time>
      </trkpt>
      <trkpt lat="45.33284" lon="4.22963">
        <ele>816.623331706</ele>
        <time>2011-03-11T15:08:33.370Z</time>
      </trkpt>
      <trkpt lat="45.33278" lon="4.22966">
        <ele>816.622578283</ele>
        <time>2011-03-11T15:08:35.344Z</time>
      </trkpt>
      <trkpt lat="45.33272" lon="4.22966">
        <ele>816.761289535</ele>
        <time>2011-03-11T15:08:36.400Z</time>
      </trkpt>
      <trkpt lat="45.33267" lon="4.22966">
        <ele>816.97333374</ele>
        <time>2011-03-11T15:08:37.403Z</time>
      </trkpt>
      <trkpt lat="45.33264" lon="4.22966">
        <ele>817.119999186</ele>
        <time>2011-03-11T15:08:38.376Z</time>
      </trkpt>
      <trkpt lat="45.33258" lon="4.22967">
        <ele>817.058064122</ele>
        <time>2011-03-11T15:08:39.371Z</time>
      </trkpt>
      <trkpt lat="45.3325" lon="4.22968">
        <ele>817.359997559</ele>
        <time>2011-03-11T15:08:41.380Z</time>
      </trkpt>
      <trkpt lat="45.33245" lon="4.22969">
        <ele>817.290320612</ele>
        <time>2011-03-11T15:08:42.331Z</time>
      </trkpt>
      <trkpt lat="45.33242" lon="4.22972">
        <ele>817.519999186</ele>
        <time>2011-03-11T15:08:43.365Z</time>
      </trkpt>
      <trkpt lat="45.33237" lon="4.22974">
        <ele>817.509999593</ele>
        <time>2011-03-11T15:08:44.395Z</time>
      </trkpt>
      <trkpt lat="45.33227" lon="4.22976">
        <ele>817.37666626</ele>
        <time>2011-03-11T15:08:46.360Z</time>
      </trkpt>
      <trkpt lat="45.33227" lon="4.22973">
        <ele>817.213332113</ele>
        <time>2011-03-11T15:08:47.375Z</time>
      </trkpt>
      <trkpt lat="45.33221" lon="4.22973">
        <ele>817.023331706</ele>
        <time>2011-03-11T15:08:48.373Z</time>
      </trkpt>
      <trkpt lat="45.33215" lon="4.22974">
        <ele>816.87741778</ele>
        <time>2011-03-11T15:08:49.372Z</time>
      </trkpt>
      <trkpt lat="45.33207" lon="4.22978">
        <ele>816.443332926</ele>
        <time>2011-03-11T15:08:51.375Z</time>
      </trkpt>
      <trkpt lat="45.33202" lon="4.22982">
        <ele>815.953334554</ele>
        <time>2011-03-11T15:08:53.429Z</time>
      </trkpt>
      <trkpt lat="45.33198" lon="4.22983">
        <ele>815.680000814</ele>
        <time>2011-03-11T15:08:54.372Z</time>
      </trkpt>
      <trkpt lat="45.33195" lon="4.22982">
        <ele>815.619355232</ele>
        <time>2011-03-11T15:08:55.341Z</time>
      </trkpt>
      <trkpt lat="45.33192" lon="4.22981">
        <ele>815.358063729</ele>
        <time>2011-03-11T15:08:56.325Z</time>
      </trkpt>
      <trkpt lat="45.33185" lon="4.22982">
        <ele>815.067741148</ele>
        <time>2011-03-11T15:08:57.359Z</time>
      </trkpt>
      <trkpt lat="45.33177" lon="4.22985">
        <ele>814.677417386</ele>
        <time>2011-03-11T15:08:59.361Z</time>
      </trkpt>
      <trkpt lat="45.33174" lon="4.22987">
        <ele>814.548385128</ele>
        <time>2011-03-11T15:09:00.338Z</time>
      </trkpt>
      <trkpt lat="45.33174" lon="4.22988">
        <ele>814.409997559</ele>
        <time>2011-03-11T15:09:01.482Z</time>
      </trkpt>
      <trkpt lat="45.33171" lon="4.2299">
        <ele>814.396771831</ele>
        <time>2011-03-11T15:09:02.346Z</time>
      </trkpt>
      <trkpt lat="45.33166" lon="4.22992">
        <ele>814.332255702</ele>
        <time>2011-03-11T15:09:04.347Z</time>
      </trkpt>
      <trkpt lat="45.33163" lon="4.22995">
        <ele>814.299997637</ele>
        <time>2011-03-11T15:09:05.337Z</time>
      </trkpt>
      <trkpt lat="45.33156" lon="4.22995">
        <ele>814.325803695</ele>
        <time>2011-03-11T15:09:06.328Z</time>
      </trkpt>
      <trkpt lat="45.33152" lon="4.22996">
        <ele>814.293545631</ele>
        <time>2011-03-11T15:09:07.329Z</time>
      </trkpt>
      <trkpt lat="45.33148" lon="4.22999">
        <ele>814.283868605</ele>
        <time>2011-03-11T15:09:08.329Z</time>
      </trkpt>
      <trkpt lat="45.3314" lon="4.23">
        <ele>814.183869393</ele>
        <time>2011-03-11T15:09:09.349Z</time>
      </trkpt>
      <trkpt lat="45.33136" lon="4.23003">
        <ele>814.183869393</ele>
        <time>2011-03-11T15:09:10.354Z</time>
      </trkpt>
      <trkpt lat="45.3313" lon="4.23004">
        <ele>814.154838316</ele>
        <time>2011-03-11T15:09:11.329Z</time>
      </trkpt>
      <trkpt lat="45.33121" lon="4.23009">
        <ele>814.190321399</ele>
        <time>2011-03-11T15:09:13.333Z</time>
      </trkpt>
      <trkpt lat="45.33116" lon="4.23011">
        <ele>814.251612509</ele>
        <time>2011-03-11T15:09:14.334Z</time>
      </trkpt>
      <trkpt lat="45.33111" lon="4.23012">
        <ele>814.33548269</ele>
        <time>2011-03-11T15:09:15.334Z</time>
      </trkpt>
      <trkpt lat="45.33101" lon="4.23016">
        <ele>814.52257907</ele>
        <time>2011-03-11T15:09:17.330Z</time>
      </trkpt>
      <trkpt lat="45.33096" lon="4.23016">
        <ele>814.743332926</ele>
        <time>2011-03-11T15:09:18.423Z</time>
      </trkpt>
      <trkpt lat="45.33093" lon="4.23017">
        <ele>814.851611722</ele>
        <time>2011-03-11T15:09:19.336Z</time>
      </trkpt>
      <trkpt lat="45.33089" lon="4.23018">
        <ele>815.02257907</ele>
        <time>2011-03-11T15:09:20.334Z</time>
      </trkpt>
      <trkpt lat="45.33074" lon="4.23021">
        <ele>815.516127063</ele>
        <time>2011-03-11T15:09:24.338Z</time>
      </trkpt>
      <trkpt lat="45.33066" lon="4.23024">
        <ele>815.75</ele>
        <time>2011-03-11T15:09:26.366Z</time>
      </trkpt>
      <trkpt lat="45.33046" lon="4.2303">
        <ele>815.864515735</ele>
        <time>2011-03-11T15:09:30.336Z</time>
      </trkpt>
      <trkpt lat="45.33038" lon="4.23031">
        <ele>815.903223838</ele>
        <time>2011-03-11T15:09:32.335Z</time>
      </trkpt>
      <trkpt lat="45.33028" lon="4.23032">
        <ele>816.012902044</ele>
        <time>2011-03-11T15:09:34.341Z</time>
      </trkpt>
      <trkpt lat="45.33017" lon="4.23034">
        <ele>816.069999186</ele>
        <time>2011-03-11T15:09:36.337Z</time>
      </trkpt>
      <trkpt lat="45.33" lon="4.23035">
        <ele>816.006448069</ele>
        <time>2011-03-11T15:09:39.341Z</time>
      </trkpt>
      <trkpt lat="45.32993" lon="4.23036">
        <ele>816.096661377</ele>
        <time>2011-03-11T15:09:41.336Z</time>
      </trkpt>
      <trkpt lat="45.32988" lon="4.23033">
        <ele>816.159995524</ele>
        <time>2011-03-11T15:09:42.336Z</time>
      </trkpt>
      <trkpt lat="45.3298" lon="4.2303">
        <ele>816.316662598</ele>
        <time>2011-03-11T15:09:44.337Z</time>
      </trkpt>
      <trkpt lat="45.32975" lon="4.23029">
        <ele>816.383329264</ele>
        <time>2011-03-11T15:09:45.341Z</time>
      </trkpt>
      <trkpt lat="45.3297" lon="4.23028">
        <ele>816.519350113</ele>
        <time>2011-03-11T15:09:46.338Z</time>
      </trkpt>
      <trkpt lat="45.32965" lon="4.23025">
        <ele>816.606663005</ele>
        <time>2011-03-11T15:09:47.341Z</time>
      </trkpt>
      <trkpt lat="45.32963" lon="4.2302">
        <ele>816.751608572</ele>
        <time>2011-03-11T15:09:48.339Z</time>
      </trkpt>
      <trkpt lat="45.32959" lon="4.23019">
        <ele>816.809995524</ele>
        <time>2011-03-11T15:09:49.340Z</time>
      </trkpt>
      <trkpt lat="45.32955" lon="4.23018">
        <ele>816.963330078</ele>
        <time>2011-03-11T15:09:50.342Z</time>
      </trkpt>
      <trkpt lat="45.32952" lon="4.23014">
        <ele>817.133329264</ele>
        <time>2011-03-11T15:09:51.340Z</time>
      </trkpt>
      <trkpt lat="45.32941" lon="4.23012">
        <ele>817.599995931</ele>
        <time>2011-03-11T15:09:53.706Z</time>
      </trkpt>
      <trkpt lat="45.32938" lon="4.23008">
        <ele>817.856663005</ele>
        <time>2011-03-11T15:09:54.343Z</time>
      </trkpt>
      <trkpt lat="45.32935" lon="4.23005">
        <ele>818.093545237</ele>
        <time>2011-03-11T15:09:55.338Z</time>
      </trkpt>
      <trkpt lat="45.32931" lon="4.23001">
        <ele>818.351609753</ele>
        <time>2011-03-11T15:09:56.338Z</time>
      </trkpt>
      <trkpt lat="45.32927" lon="4.22997">
        <ele>818.769997152</ele>
        <time>2011-03-11T15:09:57.343Z</time>
      </trkpt>
      <trkpt lat="45.32916" lon="4.2299">
        <ele>819.766662598</ele>
        <time>2011-03-11T15:10:00.339Z</time>
      </trkpt>
      <trkpt lat="45.32914" lon="4.22987">
        <ele>819.929027927</ele>
        <time>2011-03-11T15:10:01.339Z</time>
      </trkpt>
      <trkpt lat="45.3291" lon="4.22986">
        <ele>820.476662191</ele>
        <time>2011-03-11T15:10:02.339Z</time>
      </trkpt>
      <trkpt lat="45.32907" lon="4.22984">
        <ele>820.625801333</ele>
        <time>2011-03-11T15:10:03.339Z</time>
      </trkpt>
      <trkpt lat="45.32896" lon="4.22979">
        <ele>821.826662191</ele>
        <time>2011-03-11T15:10:06.341Z</time>
      </trkpt>
      <trkpt lat="45.32885" lon="4.22976">
        <ele>822.729029502</ele>
        <time>2011-03-11T15:10:09.340Z</time>
      </trkpt>
      <trkpt lat="45.32875" lon="4.22974">
        <ele>824.069997152</ele>
        <time>2011-03-11T15:10:12.340Z</time>
      </trkpt>
      <trkpt lat="45.3287" lon="4.22973">
        <ele>824.429996745</ele>
        <time>2011-03-11T15:10:13.355Z</time>
      </trkpt>
      <trkpt lat="45.32867" lon="4.22972">
        <ele>824.746663411</ele>
        <time>2011-03-11T15:10:14.340Z</time>
      </trkpt>
      <trkpt lat="45.32859" lon="4.22971">
        <ele>825.356665039</ele>
        <time>2011-03-11T15:10:16.341Z</time>
      </trkpt>
      <trkpt lat="45.32848" lon="4.22968">
        <ele>826.156665039</ele>
        <time>2011-03-11T15:10:19.368Z</time>
      </trkpt>
      <trkpt lat="45.3284" lon="4.22967">
        <ele>826.539998372</ele>
        <time>2011-03-11T15:10:21.348Z</time>
      </trkpt>
      <trkpt lat="45.32828" lon="4.22966">
        <ele>826.632255308</ele>
        <time>2011-03-11T15:10:24.341Z</time>
      </trkpt>
      <trkpt lat="45.3282" lon="4.22965">
        <ele>826.719995117</ele>
        <time>2011-03-11T15:10:26.341Z</time>
      </trkpt>
      <trkpt lat="45.32809" lon="4.22964">
        <ele>826.654834378</ele>
        <time>2011-03-11T15:10:28.341Z</time>
      </trkpt>
      <trkpt lat="45.32804" lon="4.22963">
        <ele>826.756663005</ele>
        <time>2011-03-11T15:10:29.345Z</time>
      </trkpt>
      <trkpt lat="45.32799" lon="4.22961">
        <ele>826.739996338</ele>
        <time>2011-03-11T15:10:30.342Z</time>
      </trkpt>
      <trkpt lat="45.32793" lon="4.22958">
        <ele>826.759997559</ele>
        <time>2011-03-11T15:10:31.342Z</time>
      </trkpt>
      <trkpt lat="45.32785" lon="4.22955">
        <ele>826.740000407</ele>
        <time>2011-03-11T15:10:33.343Z</time>
      </trkpt>
      <trkpt lat="45.3278" lon="4.22954">
        <ele>826.736667887</ele>
        <time>2011-03-11T15:10:34.340Z</time>
      </trkpt>
      <trkpt lat="45.32774" lon="4.22953">
        <ele>826.680000814</ele>
        <time>2011-03-11T15:10:35.374Z</time>
      </trkpt>
      <trkpt lat="45.32769" lon="4.2295">
        <ele>826.59666748</ele>
        <time>2011-03-11T15:10:36.345Z</time>
      </trkpt>
      <trkpt lat="45.32764" lon="4.22947">
        <ele>826.493549962</ele>
        <time>2011-03-11T15:10:37.346Z</time>
      </trkpt>
      <trkpt lat="45.32759" lon="4.22946">
        <ele>826.346669515</ele>
        <time>2011-03-11T15:10:38.345Z</time>
      </trkpt>
      <trkpt lat="45.32754" lon="4.22943">
        <ele>826.206669108</ele>
        <time>2011-03-11T15:10:39.343Z</time>
      </trkpt>
      <trkpt lat="45.32749" lon="4.22936">
        <ele>826.006669108</ele>
        <time>2011-03-11T15:10:40.343Z</time>
      </trkpt>
      <trkpt lat="45.32745" lon="4.2293">
        <ele>825.783335368</ele>
        <time>2011-03-11T15:10:41.343Z</time>
      </trkpt>
      <trkpt lat="45.32742" lon="4.22923">
        <ele>825.556669108</ele>
        <time>2011-03-11T15:10:42.342Z</time>
      </trkpt>
      <trkpt lat="45.3274" lon="4.22917">
        <ele>825.412904801</ele>
        <time>2011-03-11T15:10:43.343Z</time>
      </trkpt>
      <trkpt lat="45.32732" lon="4.22899">
        <ele>824.480002848</ele>
        <time>2011-03-11T15:10:46.343Z</time>
      </trkpt>
      <trkpt lat="45.32729" lon="4.22888">
        <ele>824.106455157</ele>
        <time>2011-03-11T15:10:48.340Z</time>
      </trkpt>
      <trkpt lat="45.32726" lon="4.22881">
        <ele>823.845163653</ele>
        <time>2011-03-11T15:10:49.347Z</time>
      </trkpt>
      <trkpt lat="45.32726" lon="4.22874">
        <ele>823.423335775</ele>
        <time>2011-03-11T15:10:50.347Z</time>
      </trkpt>
      <trkpt lat="45.32725" lon="4.22867">
        <ele>823.173335775</ele>
        <time>2011-03-11T15:10:51.352Z</time>
      </trkpt>
      <trkpt lat="45.32717" lon="4.2285">
        <ele>822.723337809</ele>
        <time>2011-03-11T15:10:54.344Z</time>
      </trkpt>
      <trkpt lat="45.32716" lon="4.22845">
        <ele>822.576672363</ele>
        <time>2011-03-11T15:10:55.710Z</time>
      </trkpt>
      <trkpt lat="45.32712" lon="4.22831">
        <ele>822.330004883</ele>
        <time>2011-03-11T15:10:57.345Z</time>
      </trkpt>
      <trkpt lat="45.32706" lon="4.22807">
        <ele>821.800004069</ele>
        <time>2011-03-11T15:11:01.348Z</time>
      </trkpt>
      <trkpt lat="45.32703" lon="4.22802">
        <ele>821.650004069</ele>
        <time>2011-03-11T15:11:02.350Z</time>
      </trkpt>
      <trkpt lat="45.32699" lon="4.22789">
        <ele>821.343336995</ele>
        <time>2011-03-11T15:11:04.348Z</time>
      </trkpt>
      <trkpt lat="45.32696" lon="4.22773">
        <ele>821.122584189</ele>
        <time>2011-03-11T15:11:06.318Z</time>
      </trkpt>
      <trkpt lat="45.32693" lon="4.22766">
        <ele>820.95484186</ele>
        <time>2011-03-11T15:11:07.341Z</time>
      </trkpt>
      <trkpt lat="45.32688" lon="4.22759">
        <ele>820.726668294</ele>
        <time>2011-03-11T15:11:08.366Z</time>
      </trkpt>
      <trkpt lat="45.32685" lon="4.22751">
        <ele>820.560001628</ele>
        <time>2011-03-11T15:11:09.361Z</time>
      </trkpt>
      <trkpt lat="45.32677" lon="4.22736">
        <ele>820.320003255</ele>
        <time>2011-03-11T15:11:11.379Z</time>
      </trkpt>
      <trkpt lat="45.32667" lon="4.22722">
        <ele>820.10000315</ele>
        <time>2011-03-11T15:11:13.342Z</time>
      </trkpt>
      <trkpt lat="45.32661" lon="4.22715">
        <ele>819.930002848</ele>
        <time>2011-03-11T15:11:14.341Z</time>
      </trkpt>
      <trkpt lat="45.32649" lon="4.227">
        <ele>819.623335775</ele>
        <time>2011-03-11T15:11:16.347Z</time>
      </trkpt>
      <trkpt lat="45.32642" lon="4.22693">
        <ele>819.420001221</ele>
        <time>2011-03-11T15:11:17.365Z</time>
      </trkpt>
      <trkpt lat="45.32637" lon="4.22684">
        <ele>819.210001628</ele>
        <time>2011-03-11T15:11:18.384Z</time>
      </trkpt>
      <trkpt lat="45.32631" lon="4.22676">
        <ele>818.983335368</ele>
        <time>2011-03-11T15:11:19.349Z</time>
      </trkpt>
      <trkpt lat="45.32625" lon="4.22669">
        <ele>818.816130607</ele>
        <time>2011-03-11T15:11:20.347Z</time>
      </trkpt>
      <trkpt lat="45.32618" lon="4.2266">
        <ele>818.577420142</ele>
        <time>2011-03-11T15:11:21.349Z</time>
      </trkpt>
      <trkpt lat="45.32615" lon="4.22648">
        <ele>818.283335368</ele>
        <time>2011-03-11T15:11:22.364Z</time>
      </trkpt>
      <trkpt lat="45.32609" lon="4.22624">
        <ele>817.740002441</ele>
        <time>2011-03-11T15:11:24.348Z</time>
      </trkpt>
      <trkpt lat="45.32606" lon="4.226">
        <ele>817.196669515</ele>
        <time>2011-03-11T15:11:26.348Z</time>
      </trkpt>
      <trkpt lat="45.32604" lon="4.22578">
        <ele>816.660003662</ele>
        <time>2011-03-11T15:11:28.349Z</time>
      </trkpt>
      <trkpt lat="45.32601" lon="4.22556">
        <ele>816.093336995</ele>
        <time>2011-03-11T15:11:30.348Z</time>
      </trkpt>
      <trkpt lat="45.32596" lon="4.22535">
        <ele>815.510003662</ele>
        <time>2011-03-11T15:11:32.352Z</time>
      </trkpt>
      <trkpt lat="45.32589" lon="4.22504">
        <ele>814.596669515</ele>
        <time>2011-03-11T15:11:35.354Z</time>
      </trkpt>
      <trkpt lat="45.32585" lon="4.22482">
        <ele>814.046669515</ele>
        <time>2011-03-11T15:11:37.349Z</time>
      </trkpt>
      <trkpt lat="45.32583" lon="4.22462">
        <ele>813.654842254</ele>
        <time>2011-03-11T15:11:39.350Z</time>
      </trkpt>
      <trkpt lat="45.32582" lon="4.22442">
        <ele>813.167744298</ele>
        <time>2011-03-11T15:11:41.351Z</time>
      </trkpt>
      <trkpt lat="45.32581" lon="4.22432">
        <ele>812.938710859</ele>
        <time>2011-03-11T15:11:42.360Z</time>
      </trkpt>
      <trkpt lat="45.3258" lon="4.22404">
        <ele>812.133335368</ele>
        <time>2011-03-11T15:11:45.350Z</time>
      </trkpt>
      <trkpt lat="45.32581" lon="4.22385">
        <ele>811.877421717</ele>
        <time>2011-03-11T15:11:47.353Z</time>
      </trkpt>
      <trkpt lat="45.32581" lon="4.22376">
        <ele>811.709681357</ele>
        <time>2011-03-11T15:11:48.350Z</time>
      </trkpt>
      <trkpt lat="45.32582" lon="4.22356">
        <ele>811.300004069</ele>
        <time>2011-03-11T15:11:50.361Z</time>
      </trkpt>
      <trkpt lat="45.32584" lon="4.22336">
        <ele>811.11935917</ele>
        <time>2011-03-11T15:11:52.351Z</time>
      </trkpt>
      <trkpt lat="45.32585" lon="4.22297">
        <ele>810.473335775</ele>
        <time>2011-03-11T15:11:56.351Z</time>
      </trkpt>
      <trkpt lat="45.32584" lon="4.22288">
        <ele>810.323335775</ele>
        <time>2011-03-11T15:11:57.352Z</time>
      </trkpt>
      <trkpt lat="45.3258" lon="4.22254">
        <ele>809.960001628</ele>
        <time>2011-03-11T15:12:00.512Z</time>
      </trkpt>
      <trkpt lat="45.32576" lon="4.22244">
        <ele>809.896775769</ele>
        <time>2011-03-11T15:12:01.351Z</time>
      </trkpt>
      <trkpt lat="45.32573" lon="4.22233">
        <ele>809.706667074</ele>
        <time>2011-03-11T15:12:02.355Z</time>
      </trkpt>
      <trkpt lat="45.32566" lon="4.22207">
        <ele>809.503226988</ele>
        <time>2011-03-11T15:12:04.353Z</time>
      </trkpt>
      <trkpt lat="45.32561" lon="4.22195">
        <ele>809.35161566</ele>
        <time>2011-03-11T15:12:05.352Z</time>
      </trkpt>
      <trkpt lat="45.32555" lon="4.22181">
        <ele>809.116668701</ele>
        <time>2011-03-11T15:12:06.364Z</time>
      </trkpt>
      <trkpt lat="45.32551" lon="4.22169">
        <ele>808.926668294</ele>
        <time>2011-03-11T15:12:07.359Z</time>
      </trkpt>
      <trkpt lat="45.32547" lon="4.22154">
        <ele>808.736667887</ele>
        <time>2011-03-11T15:12:08.353Z</time>
      </trkpt>
      <trkpt lat="45.32543" lon="4.2214">
        <ele>808.52333374</ele>
        <time>2011-03-11T15:12:09.354Z</time>
      </trkpt>
      <trkpt lat="45.32536" lon="4.2211">
        <ele>808.09666748</ele>
        <time>2011-03-11T15:12:11.354Z</time>
      </trkpt>
      <trkpt lat="45.32534" lon="4.22095">
        <ele>807.945162865</ele>
        <time>2011-03-11T15:12:12.355Z</time>
      </trkpt>
      <trkpt lat="45.32535" lon="4.22079">
        <ele>807.716131395</ele>
        <time>2011-03-11T15:12:13.355Z</time>
      </trkpt>
      <trkpt lat="45.32536" lon="4.22065">
        <ele>807.383335368</ele>
        <time>2011-03-11T15:12:14.363Z</time>
      </trkpt>
      <trkpt lat="45.32538" lon="4.22052">
        <ele>807.143334961</ele>
        <time>2011-03-11T15:12:15.358Z</time>
      </trkpt>
      <trkpt lat="45.32542" lon="4.22038">
        <ele>807.022583008</ele>
        <time>2011-03-11T15:12:16.357Z</time>
      </trkpt>
      <trkpt lat="45.32547" lon="4.22025">
        <ele>806.730002848</ele>
        <time>2011-03-11T15:12:17.354Z</time>
      </trkpt>
      <trkpt lat="45.32552" lon="4.22014">
        <ele>806.566668701</ele>
        <time>2011-03-11T15:12:18.354Z</time>
      </trkpt>
      <trkpt lat="45.32567" lon="4.21983">
        <ele>806.256671143</ele>
        <time>2011-03-11T15:12:21.362Z</time>
      </trkpt>
      <trkpt lat="45.32575" lon="4.21965">
        <ele>806.156671143</ele>
        <time>2011-03-11T15:12:23.356Z</time>
      </trkpt>
      <trkpt lat="45.32579" lon="4.2195">
        <ele>806.193336995</ele>
        <time>2011-03-11T15:12:25.355Z</time>
      </trkpt>
      <trkpt lat="45.32581" lon="4.21938">
        <ele>806.330002848</ele>
        <time>2011-03-11T15:12:27.356Z</time>
      </trkpt>
      <trkpt lat="45.3258" lon="4.2193">
        <ele>806.413336182</ele>
        <time>2011-03-11T15:12:29.374Z</time>
      </trkpt>
      <trkpt lat="45.32579" lon="4.21925">
        <ele>806.551616053</ele>
        <time>2011-03-11T15:12:30.393Z</time>
      </trkpt>
      <trkpt lat="45.32579" lon="4.2192">
        <ele>806.563336182</ele>
        <time>2011-03-11T15:12:31.365Z</time>
      </trkpt>
      <trkpt lat="45.32578" lon="4.21914">
        <ele>806.667744298</ele>
        <time>2011-03-11T15:12:32.351Z</time>
      </trkpt>
      <trkpt lat="45.32575" lon="4.21909">
        <ele>806.680002848</ele>
        <time>2011-03-11T15:12:33.365Z</time>
      </trkpt>
      <trkpt lat="45.32574" lon="4.21905">
        <ele>806.766668701</ele>
        <time>2011-03-11T15:12:34.355Z</time>
      </trkpt>
      <trkpt lat="45.32572" lon="4.219">
        <ele>806.850002035</ele>
        <time>2011-03-11T15:12:35.355Z</time>
      </trkpt>
      <trkpt lat="45.32569" lon="4.21896">
        <ele>806.929033833</ele>
        <time>2011-03-11T15:12:36.358Z</time>
      </trkpt>
      <trkpt lat="45.32566" lon="4.21892">
        <ele>807.061293079</ele>
        <time>2011-03-11T15:12:37.356Z</time>
      </trkpt>
      <trkpt lat="45.32564" lon="4.21887">
        <ele>807.310001628</ele>
        <time>2011-03-11T15:12:38.355Z</time>
      </trkpt>
      <trkpt lat="45.32562" lon="4.21882">
        <ele>807.496669515</ele>
        <time>2011-03-11T15:12:39.355Z</time>
      </trkpt>
      <trkpt lat="45.32561" lon="4.21876">
        <ele>807.670003255</ele>
        <time>2011-03-11T15:12:40.356Z</time>
      </trkpt>
      <trkpt lat="45.3256" lon="4.2187">
        <ele>807.820003255</ele>
        <time>2011-03-11T15:12:41.374Z</time>
      </trkpt>
      <trkpt lat="45.32557" lon="4.21864">
        <ele>807.950002035</ele>
        <time>2011-03-11T15:12:42.357Z</time>
      </trkpt>
      <trkpt lat="45.32555" lon="4.21856">
        <ele>808.053334554</ele>
        <time>2011-03-11T15:12:43.358Z</time>
      </trkpt>
      <trkpt lat="45.32545" lon="4.21835">
        <ele>808.109678207</ele>
        <time>2011-03-11T15:12:46.355Z</time>
      </trkpt>
      <trkpt lat="45.32542" lon="4.21829">
        <ele>808.116128245</ele>
        <time>2011-03-11T15:12:47.353Z</time>
      </trkpt>
      <trkpt lat="45.32536" lon="4.2182">
        <ele>808.119997152</ele>
        <time>2011-03-11T15:12:49.356Z</time>
      </trkpt>
      <trkpt lat="45.32533" lon="4.21816">
        <ele>808.019997152</ele>
        <time>2011-03-11T15:12:50.356Z</time>
      </trkpt>
      <trkpt lat="45.32529" lon="4.21813">
        <ele>807.867738785</ele>
        <time>2011-03-11T15:12:51.356Z</time>
      </trkpt>
      <trkpt lat="45.3252" lon="4.21804">
        <ele>807.583331299</ele>
        <time>2011-03-11T15:12:53.370Z</time>
      </trkpt>
      <trkpt lat="45.32511" lon="4.21789">
        <ele>807.159999593</ele>
        <time>2011-03-11T15:12:55.357Z</time>
      </trkpt>
      <trkpt lat="45.32503" lon="4.21781">
        <ele>806.977418961</ele>
        <time>2011-03-11T15:12:56.357Z</time>
      </trkpt>
      <trkpt lat="45.32496" lon="4.21776">
        <ele>806.506665039</ele>
        <time>2011-03-11T15:12:57.397Z</time>
      </trkpt>
      <trkpt lat="45.3249" lon="4.21768">
        <ele>806.149997965</ele>
        <time>2011-03-11T15:12:58.360Z</time>
      </trkpt>
      <trkpt lat="45.32485" lon="4.21763">
        <ele>805.922577889</ele>
        <time>2011-03-11T15:12:59.357Z</time>
      </trkpt>
      <trkpt lat="45.32484" lon="4.21759">
        <ele>805.416664632</ele>
        <time>2011-03-11T15:13:00.452Z</time>
      </trkpt>
      <trkpt lat="45.32484" lon="4.21756">
        <ele>805.225804483</ele>
        <time>2011-03-11T15:13:01.359Z</time>
      </trkpt>
      <trkpt lat="45.32484" lon="4.21755">
        <ele>804.663332113</ele>
        <time>2011-03-11T15:13:02.397Z</time>
      </trkpt>
      <trkpt lat="45.32484" lon="4.21752">
        <ele>804.25333252</ele>
        <time>2011-03-11T15:13:03.422Z</time>
      </trkpt>
      <trkpt lat="45.32481" lon="4.2175">
        <ele>803.82666626</ele>
        <time>2011-03-11T15:13:04.402Z</time>
      </trkpt>
      <trkpt lat="45.32478" lon="4.21746">
        <ele>803.409999593</ele>
        <time>2011-03-11T15:13:05.377Z</time>
      </trkpt>
      <trkpt lat="45.32473" lon="4.21743">
        <ele>802.566666667</ele>
        <time>2011-03-11T15:13:07.402Z</time>
      </trkpt>
      <trkpt lat="45.32471" lon="4.21743">
        <ele>802.12333374</ele>
        <time>2011-03-11T15:13:08.421Z</time>
      </trkpt>
      <trkpt lat="45.32472" lon="4.21738">
        <ele>801.679998779</ele>
        <time>2011-03-11T15:13:09.373Z</time>
      </trkpt>
      <trkpt lat="45.32469" lon="4.21738">
        <ele>801.22666626</ele>
        <time>2011-03-11T15:13:10.360Z</time>
      </trkpt>
      <trkpt lat="45.32471" lon="4.21734">
        <ele>801.006452007</ele>
        <time>2011-03-11T15:13:11.363Z</time>
      </trkpt>
      <trkpt lat="45.32469" lon="4.21731">
        <ele>799.933335368</ele>
        <time>2011-03-11T15:13:13.361Z</time>
      </trkpt>
      <trkpt lat="45.3247" lon="4.21727">
        <ele>799.745162472</ele>
        <time>2011-03-11T15:13:14.363Z</time>
      </trkpt>
      <trkpt lat="45.32474" lon="4.21723">
        <ele>799.380646736</ele>
        <time>2011-03-11T15:13:15.358Z</time>
      </trkpt>
      <trkpt lat="45.32478" lon="4.21719">
        <ele>798.961291898</ele>
        <time>2011-03-11T15:13:16.355Z</time>
      </trkpt>
      <trkpt lat="45.32482" lon="4.21714">
        <ele>798.413334147</ele>
        <time>2011-03-11T15:13:17.373Z</time>
      </trkpt>
      <trkpt lat="45.32486" lon="4.21705">
        <ele>798.04666748</ele>
        <time>2011-03-11T15:13:18.370Z</time>
      </trkpt>
      <trkpt lat="45.32489" lon="4.21694">
        <ele>797.650002035</ele>
        <time>2011-03-11T15:13:19.359Z</time>
      </trkpt>
      <trkpt lat="45.32487" lon="4.21678">
        <ele>797.136667887</ele>
        <time>2011-03-11T15:13:20.374Z</time>
      </trkpt>
      <trkpt lat="45.32488" lon="4.21664">
        <ele>796.586667887</ele>
        <time>2011-03-11T15:13:21.390Z</time>
      </trkpt>
      <trkpt lat="45.32488" lon="4.2165">
        <ele>795.983335368</ele>
        <time>2011-03-11T15:13:22.371Z</time>
      </trkpt>
      <trkpt lat="45.32488" lon="4.21634">
        <ele>795.62258222</ele>
        <time>2011-03-11T15:13:23.357Z</time>
      </trkpt>
      <trkpt lat="45.32486" lon="4.21618">
        <ele>794.736667887</ele>
        <time>2011-03-11T15:13:24.377Z</time>
      </trkpt>
      <trkpt lat="45.32481" lon="4.21603">
        <ele>794.09666748</ele>
        <time>2011-03-11T15:13:25.383Z</time>
      </trkpt>
      <trkpt lat="45.32479" lon="4.21588">
        <ele>793.510001628</ele>
        <time>2011-03-11T15:13:26.374Z</time>
      </trkpt>
      <trkpt lat="45.32478" lon="4.21572">
        <ele>793.2064524</ele>
        <time>2011-03-11T15:13:27.393Z</time>
      </trkpt>
      <trkpt lat="45.32478" lon="4.21557">
        <ele>792.456667074</ele>
        <time>2011-03-11T15:13:28.374Z</time>
      </trkpt>
      <trkpt lat="45.32477" lon="4.21543">
        <ele>791.930000814</ele>
        <time>2011-03-11T15:13:29.358Z</time>
      </trkpt>
      <trkpt lat="45.3248" lon="4.21529">
        <ele>791.629032258</ele>
        <time>2011-03-11T15:13:30.365Z</time>
      </trkpt>
      <trkpt lat="45.32481" lon="4.21516">
        <ele>790.80333252</ele>
        <time>2011-03-11T15:13:31.364Z</time>
      </trkpt>
      <trkpt lat="45.32484" lon="4.21505">
        <ele>790.564516129</ele>
        <time>2011-03-11T15:13:32.387Z</time>
      </trkpt>
      <trkpt lat="45.32485" lon="4.21492">
        <ele>790.051614085</ele>
        <time>2011-03-11T15:13:33.374Z</time>
      </trkpt>
      <trkpt lat="45.32486" lon="4.2148">
        <ele>789.583872149</ele>
        <time>2011-03-11T15:13:34.369Z</time>
      </trkpt>
      <trkpt lat="45.32486" lon="4.21471">
        <ele>789.14516129</ele>
        <time>2011-03-11T15:13:35.361Z</time>
      </trkpt>
      <trkpt lat="45.32487" lon="4.21461">
        <ele>788.476664225</ele>
        <time>2011-03-11T15:13:36.414Z</time>
      </trkpt>
      <trkpt lat="45.3249" lon="4.2144">
        <ele>787.945158928</ele>
        <time>2011-03-11T15:13:38.361Z</time>
      </trkpt>
      <trkpt lat="45.32491" lon="4.21427">
        <ele>787.164515341</ele>
        <time>2011-03-11T15:13:40.359Z</time>
      </trkpt>
      <trkpt lat="45.32493" lon="4.21411">
        <ele>786.133329264</ele>
        <time>2011-03-11T15:13:42.430Z</time>
      </trkpt>
      <trkpt lat="45.32494" lon="4.21403">
        <ele>785.759995524</ele>
        <time>2011-03-11T15:13:43.376Z</time>
      </trkpt>
      <trkpt lat="45.32495" lon="4.21387">
        <ele>784.893330892</ele>
        <time>2011-03-11T15:13:45.366Z</time>
      </trkpt>
      <trkpt lat="45.32497" lon="4.21378">
        <ele>784.506665039</ele>
        <time>2011-03-11T15:13:46.365Z</time>
      </trkpt>
      <trkpt lat="45.32495" lon="4.21371">
        <ele>784.329030683</ele>
        <time>2011-03-11T15:13:47.365Z</time>
      </trkpt>
      <trkpt lat="45.32496" lon="4.21362">
        <ele>783.883869786</ele>
        <time>2011-03-11T15:13:48.369Z</time>
      </trkpt>
      <trkpt lat="45.32495" lon="4.21343">
        <ele>782.987095987</ele>
        <time>2011-03-11T15:13:50.372Z</time>
      </trkpt>
      <trkpt lat="45.32495" lon="4.21332">
        <ele>782.638709284</ele>
        <time>2011-03-11T15:13:51.365Z</time>
      </trkpt>
      <trkpt lat="45.32494" lon="4.21323">
        <ele>782.274193548</ele>
        <time>2011-03-11T15:13:52.361Z</time>
      </trkpt>
      <trkpt lat="45.32492" lon="4.21315">
        <ele>781.829998779</ele>
        <time>2011-03-11T15:13:53.374Z</time>
      </trkpt>
      <trkpt lat="45.3249" lon="4.21308">
        <ele>781.609676238</ele>
        <time>2011-03-11T15:13:54.365Z</time>
      </trkpt>
      <trkpt lat="45.32486" lon="4.213">
        <ele>781.325805664</ele>
        <time>2011-03-11T15:13:55.366Z</time>
      </trkpt>
      <trkpt lat="45.32483" lon="4.21292">
        <ele>781.02257907</ele>
        <time>2011-03-11T15:13:56.371Z</time>
      </trkpt>
      <trkpt lat="45.32481" lon="4.21283">
        <ele>780.725804483</ele>
        <time>2011-03-11T15:13:57.380Z</time>
      </trkpt>
      <trkpt lat="45.32478" lon="4.2128">
        <ele>780.454837922</ele>
        <time>2011-03-11T15:13:58.370Z</time>
      </trkpt>
      <trkpt lat="45.32476" lon="4.21276">
        <ele>780.07333374</ele>
        <time>2011-03-11T15:13:59.360Z</time>
      </trkpt>
      <trkpt lat="45.32475" lon="4.21271">
        <ele>779.833335368</ele>
        <time>2011-03-11T15:14:00.366Z</time>
      </trkpt>
      <trkpt lat="45.32475" lon="4.21264">
        <ele>779.600002035</ele>
        <time>2011-03-11T15:14:01.366Z</time>
      </trkpt>
      <trkpt lat="45.3248" lon="4.21254">
        <ele>779.243334961</ele>
        <time>2011-03-11T15:14:02.725Z</time>
      </trkpt>
      <trkpt lat="45.32482" lon="4.21247">
        <ele>778.860001628</ele>
        <time>2011-03-11T15:14:03.395Z</time>
      </trkpt>
      <trkpt lat="45.32485" lon="4.21237">
        <ele>778.430002848</ele>
        <time>2011-03-11T15:14:04.441Z</time>
      </trkpt>
      <trkpt lat="45.32491" lon="4.21228">
        <ele>777.960003662</ele>
        <time>2011-03-11T15:14:05.382Z</time>
      </trkpt>
      <trkpt lat="45.32497" lon="4.21219">
        <ele>777.443336995</ele>
        <time>2011-03-11T15:14:06.534Z</time>
      </trkpt>
      <trkpt lat="45.32511" lon="4.21202">
        <ele>776.390004476</ele>
        <time>2011-03-11T15:14:08.392Z</time>
      </trkpt>
      <trkpt lat="45.32516" lon="4.21194">
        <ele>775.850004069</ele>
        <time>2011-03-11T15:14:09.402Z</time>
      </trkpt>
      <trkpt lat="45.32522" lon="4.21183">
        <ele>775.350004069</ele>
        <time>2011-03-11T15:14:10.683Z</time>
      </trkpt>
      <trkpt lat="45.32527" lon="4.21173">
        <ele>774.830004883</ele>
        <time>2011-03-11T15:14:11.382Z</time>
      </trkpt>
      <trkpt lat="45.3253" lon="4.2116">
        <ele>774.600005119</ele>
        <time>2011-03-11T15:14:12.383Z</time>
      </trkpt>
      <trkpt lat="45.3253" lon="4.21146">
        <ele>773.74333903</ele>
        <time>2011-03-11T15:14:13.391Z</time>
      </trkpt>
      <trkpt lat="45.32533" lon="4.21132">
        <ele>773.196671549</ele>
        <time>2011-03-11T15:14:14.399Z</time>
      </trkpt>
      <trkpt lat="45.32534" lon="4.21116">
        <ele>772.583337402</ele>
        <time>2011-03-11T15:14:15.369Z</time>
      </trkpt>
      <trkpt lat="45.32537" lon="4.21102">
        <ele>772.232262396</ele>
        <time>2011-03-11T15:14:16.363Z</time>
      </trkpt>
      <trkpt lat="45.32538" lon="4.21085">
        <ele>771.280004883</ele>
        <time>2011-03-11T15:14:17.397Z</time>
      </trkpt>
      <trkpt lat="45.3254" lon="4.21069">
        <ele>770.623337809</ele>
        <time>2011-03-11T15:14:18.410Z</time>
      </trkpt>
      <trkpt lat="45.32543" lon="4.21051">
        <ele>769.953336589</ele>
        <time>2011-03-11T15:14:19.378Z</time>
      </trkpt>
      <trkpt lat="45.32545" lon="4.21033">
        <ele>769.564520067</ele>
        <time>2011-03-11T15:14:20.365Z</time>
      </trkpt>
      <trkpt lat="45.32548" lon="4.21018">
        <ele>768.640004476</ele>
        <time>2011-03-11T15:14:21.371Z</time>
      </trkpt>
      <trkpt lat="45.3255" lon="4.21004">
        <ele>768.02000529</ele>
        <time>2011-03-11T15:14:22.370Z</time>
      </trkpt>
      <trkpt lat="45.32554" lon="4.20986">
        <ele>767.353338623</ele>
        <time>2011-03-11T15:14:23.381Z</time>
      </trkpt>
      <trkpt lat="45.32559" lon="4.20952">
        <ele>765.863336182</ele>
        <time>2011-03-11T15:14:25.370Z</time>
      </trkpt>
      <trkpt lat="45.3256" lon="4.20939">
        <ele>765.380648705</ele>
        <time>2011-03-11T15:14:26.365Z</time>
      </trkpt>
      <trkpt lat="45.32563" lon="4.20922">
        <ele>764.570972073</ele>
        <time>2011-03-11T15:14:27.367Z</time>
      </trkpt>
      <trkpt lat="45.32567" lon="4.20891">
        <ele>762.403338623</ele>
        <time>2011-03-11T15:14:29.370Z</time>
      </trkpt>
      <trkpt lat="45.32574" lon="4.20847">
        <ele>759.961293867</ele>
        <time>2011-03-11T15:14:32.381Z</time>
      </trkpt>
      <trkpt lat="45.32575" lon="4.20832">
        <ele>759.022583008</ele>
        <time>2011-03-11T15:14:33.367Z</time>
      </trkpt>
      <trkpt lat="45.32579" lon="4.20802">
        <ele>757.216129426</ele>
        <time>2011-03-11T15:14:35.373Z</time>
      </trkpt>
      <trkpt lat="45.32586" lon="4.2076">
        <ele>754.136667887</ele>
        <time>2011-03-11T15:14:38.413Z</time>
      </trkpt>
      <trkpt lat="45.32587" lon="4.20752">
        <ele>753.240000407</ele>
        <time>2011-03-11T15:14:39.422Z</time>
      </trkpt>
      <trkpt lat="45.32588" lon="4.20744">
        <ele>752.870967742</ele>
        <time>2011-03-11T15:14:40.431Z</time>
      </trkpt>
      <trkpt lat="45.32588" lon="4.20737">
        <ele>751.486665853</ele>
        <time>2011-03-11T15:14:41.416Z</time>
      </trkpt>
      <trkpt lat="45.32588" lon="4.20731">
        <ele>750.596665446</ele>
        <time>2011-03-11T15:14:42.412Z</time>
      </trkpt>
      <trkpt lat="45.32588" lon="4.20725">
        <ele>749.746665446</ele>
        <time>2011-03-11T15:14:43.413Z</time>
      </trkpt>
      <trkpt lat="45.32587" lon="4.20722">
        <ele>748.919999186</ele>
        <time>2011-03-11T15:14:44.411Z</time>
      </trkpt>
      <trkpt lat="45.32587" lon="4.20719">
        <ele>748.15</ele>
        <time>2011-03-11T15:14:45.411Z</time>
      </trkpt>
      <trkpt lat="45.32588" lon="4.20719">
        <ele>747.37666626</ele>
        <time>2011-03-11T15:14:46.387Z</time>
      </trkpt>
      <trkpt lat="45.32587" lon="4.20719">
        <ele>747.067741148</ele>
        <time>2011-03-11T15:14:47.375Z</time>
      </trkpt>
      <trkpt lat="45.32588" lon="4.20719">
        <ele>746.345159715</ele>
        <time>2011-03-11T15:14:48.374Z</time>
      </trkpt>
      <trkpt lat="45.32587" lon="4.20718">
        <ele>745.62580527</ele>
        <time>2011-03-11T15:14:49.375Z</time>
      </trkpt>
      <trkpt lat="45.32587" lon="4.20718">
        <ele>744.483331299</ele>
        <time>2011-03-11T15:14:50.371Z</time>
      </trkpt>
      <trkpt lat="45.32587" lon="4.20718">
        <ele>744.222579464</ele>
        <time>2011-03-11T15:14:51.370Z</time>
      </trkpt>
      <trkpt lat="45.32587" lon="4.20718">
        <ele>743.093330892</ele>
        <time>2011-03-11T15:14:52.380Z</time>
      </trkpt>
      <trkpt lat="45.32587" lon="4.20718">
        <ele>742.883867818</ele>
        <time>2011-03-11T15:14:53.370Z</time>
      </trkpt>
      <trkpt lat="45.32587" lon="4.20718">
        <ele>742.306449644</ele>
        <time>2011-03-11T15:14:54.371Z</time>
      </trkpt>
      <trkpt lat="45.32587" lon="4.20719">
        <ele>741.419999186</ele>
        <time>2011-03-11T15:14:55.375Z</time>
      </trkpt>
      <trkpt lat="45.32588" lon="4.20718">
        <ele>740.946665446</ele>
        <time>2011-03-11T15:14:56.375Z</time>
      </trkpt>
      <trkpt lat="45.32588" lon="4.20718">
        <ele>740.506665039</ele>
        <time>2011-03-11T15:14:57.371Z</time>
      </trkpt>
      <trkpt lat="45.32588" lon="4.20718">
        <ele>740.106665039</ele>
        <time>2011-03-11T15:14:58.371Z</time>
      </trkpt>
      <trkpt lat="45.32588" lon="4.20718">
        <ele>739.723331706</ele>
        <time>2011-03-11T15:14:59.372Z</time>
      </trkpt>
      <trkpt lat="45.32588" lon="4.20718">
        <ele>739.37666626</ele>
        <time>2011-03-11T15:15:00.374Z</time>
      </trkpt>
      <trkpt lat="45.32588" lon="4.20718">
        <ele>739.280645555</ele>
        <time>2011-03-11T15:15:01.378Z</time>
      </trkpt>
      <trkpt lat="45.32588" lon="4.20718">
        <ele>738.970968923</ele>
        <time>2011-03-11T15:15:02.377Z</time>
      </trkpt>
      <trkpt lat="45.32589" lon="4.2072">
        <ele>738.536667887</ele>
        <time>2011-03-11T15:15:03.391Z</time>
      </trkpt>
      <trkpt lat="45.32589" lon="4.20721">
        <ele>738.326668294</ele>
        <time>2011-03-11T15:15:04.718Z</time>
      </trkpt>
      <trkpt lat="45.32588" lon="4.20725">
        <ele>738.106669108</ele>
        <time>2011-03-11T15:15:05.376Z</time>
      </trkpt>
      <trkpt lat="45.32587" lon="4.20731">
        <ele>737.822582614</ele>
        <time>2011-03-11T15:15:07.372Z</time>
      </trkpt>
      <trkpt lat="45.32587" lon="4.20737">
        <ele>737.651613297</ele>
        <time>2011-03-11T15:15:08.372Z</time>
      </trkpt>
      <trkpt lat="45.32587" lon="4.20742">
        <ele>737.445162865</ele>
        <time>2011-03-11T15:15:09.371Z</time>
      </trkpt>
      <trkpt lat="45.32586" lon="4.20756">
        <ele>737.103230138</ele>
        <time>2011-03-11T15:15:11.370Z</time>
      </trkpt>
      <trkpt lat="45.32584" lon="4.2077">
        <ele>736.84839261</ele>
        <time>2011-03-11T15:15:13.372Z</time>
      </trkpt>
      <trkpt lat="45.32582" lon="4.20783">
        <ele>736.758070423</ele>
        <time>2011-03-11T15:15:15.373Z</time>
      </trkpt>
      <trkpt lat="45.3258" lon="4.20794">
        <ele>736.764522429</ele>
        <time>2011-03-11T15:15:17.374Z</time>
      </trkpt>
      <trkpt lat="45.32581" lon="4.20796">
        <ele>736.810007731</ele>
        <time>2011-03-11T15:15:18.376Z</time>
      </trkpt>
      <trkpt lat="45.32582" lon="4.20799">
        <ele>736.883877662</ele>
        <time>2011-03-11T15:15:19.374Z</time>
      </trkpt>
      <trkpt lat="45.32583" lon="4.20802">
        <ele>736.983341471</ele>
        <time>2011-03-11T15:15:20.373Z</time>
      </trkpt>
      <trkpt lat="45.32584" lon="4.20804">
        <ele>737.056673177</ele>
        <time>2011-03-11T15:15:21.374Z</time>
      </trkpt>
      <trkpt lat="45.32588" lon="4.20799">
        <ele>737.119361139</ele>
        <time>2011-03-11T15:15:22.374Z</time>
      </trkpt>
      <trkpt lat="45.32591" lon="4.20796">
        <ele>737.233341471</ele>
        <time>2011-03-11T15:15:23.426Z</time>
      </trkpt>
      <trkpt lat="45.32594" lon="4.20794">
        <ele>737.320007324</ele>
        <time>2011-03-11T15:15:24.433Z</time>
      </trkpt>
      <trkpt lat="45.326" lon="4.20789">
        <ele>737.470007324</ele>
        <time>2011-03-11T15:15:26.415Z</time>
      </trkpt>
      <trkpt lat="45.32615" lon="4.20781">
        <ele>737.722587339</ele>
        <time>2011-03-11T15:15:30.374Z</time>
      </trkpt>
      <trkpt lat="45.32619" lon="4.2078">
        <ele>737.751618416</ele>
        <time>2011-03-11T15:15:31.374Z</time>
      </trkpt>
      <trkpt lat="45.32622" lon="4.20776">
        <ele>737.826672363</ele>
        <time>2011-03-11T15:15:32.449Z</time>
      </trkpt>
      <trkpt lat="45.32626" lon="4.20775">
        <ele>737.846673584</ele>
        <time>2011-03-11T15:15:33.416Z</time>
      </trkpt>
      <trkpt lat="45.3263" lon="4.20773">
        <ele>737.835490565</ele>
        <time>2011-03-11T15:15:34.418Z</time>
      </trkpt>
      <trkpt lat="45.32648" lon="4.20768">
        <ele>738.04000651</ele>
        <time>2011-03-11T15:15:38.406Z</time>
      </trkpt>
      <trkpt lat="45.32661" lon="4.20765">
        <ele>737.950004069</ele>
        <time>2011-03-11T15:15:41.422Z</time>
      </trkpt>
      <trkpt lat="45.3267" lon="4.20762">
        <ele>737.820003255</ele>
        <time>2011-03-11T15:15:43.430Z</time>
      </trkpt>
      <trkpt lat="45.32678" lon="4.2076">
        <ele>737.583337402</ele>
        <time>2011-03-11T15:15:45.424Z</time>
      </trkpt>
      <trkpt lat="45.32691" lon="4.20755">
        <ele>737.063336182</ele>
        <time>2011-03-11T15:15:48.425Z</time>
      </trkpt>
      <trkpt lat="45.32696" lon="4.20755">
        <ele>736.853336589</ele>
        <time>2011-03-11T15:15:49.382Z</time>
      </trkpt>
      <trkpt lat="45.32702" lon="4.20753">
        <ele>736.630002848</ele>
        <time>2011-03-11T15:15:50.390Z</time>
      </trkpt>
      <trkpt lat="45.32706" lon="4.20749">
        <ele>736.363336182</ele>
        <time>2011-03-11T15:15:51.412Z</time>
      </trkpt>
      <trkpt lat="45.32711" lon="4.20747">
        <ele>736.023335775</ele>
        <time>2011-03-11T15:15:52.421Z</time>
      </trkpt>
      <trkpt lat="45.32715" lon="4.20744">
        <ele>735.767743511</ele>
        <time>2011-03-11T15:15:53.422Z</time>
      </trkpt>
      <trkpt lat="45.32721" lon="4.20742">
        <ele>735.387096774</ele>
        <time>2011-03-11T15:15:54.410Z</time>
      </trkpt>
      <trkpt lat="45.32733" lon="4.20736">
        <ele>734.140002441</ele>
        <time>2011-03-11T15:15:57.420Z</time>
      </trkpt>
      <trkpt lat="45.32736" lon="4.20731">
        <ele>733.776668294</ele>
        <time>2011-03-11T15:15:58.418Z</time>
      </trkpt>
      <trkpt lat="45.32743" lon="4.20728">
        <ele>733.123335775</ele>
        <time>2011-03-11T15:16:00.390Z</time>
      </trkpt>
      <trkpt lat="45.32747" lon="4.20727">
        <ele>732.900002035</ele>
        <time>2011-03-11T15:16:01.378Z</time>
      </trkpt>
      <trkpt lat="45.32755" lon="4.20723">
        <ele>732.42333374</ele>
        <time>2011-03-11T15:16:03.436Z</time>
      </trkpt>
      <trkpt lat="45.3276" lon="4.20723">
        <ele>732.19666748</ele>
        <time>2011-03-11T15:16:04.436Z</time>
      </trkpt>
      <trkpt lat="45.32775" lon="4.20717">
        <ele>731.400002035</ele>
        <time>2011-03-11T15:16:08.420Z</time>
      </trkpt>
      <trkpt lat="45.32782" lon="4.20715">
        <ele>731.053336589</ele>
        <time>2011-03-11T15:16:10.443Z</time>
      </trkpt>
      <trkpt lat="45.32789" lon="4.20712">
        <ele>730.763336182</ele>
        <time>2011-03-11T15:16:12.424Z</time>
      </trkpt>
      <trkpt lat="45.32797" lon="4.20707">
        <ele>730.577420142</ele>
        <time>2011-03-11T15:16:15.375Z</time>
      </trkpt>
      <trkpt lat="45.32802" lon="4.20705">
        <ele>730.359999593</ele>
        <time>2011-03-11T15:16:16.439Z</time>
      </trkpt>
      <trkpt lat="45.32818" lon="4.20694">
        <ele>730.123331706</ele>
        <time>2011-03-11T15:16:20.428Z</time>
      </trkpt>
      <trkpt lat="45.32826" lon="4.20688">
        <ele>730.20967545</ele>
        <time>2011-03-11T15:16:22.420Z</time>
      </trkpt>
      <trkpt lat="45.32831" lon="4.20686">
        <ele>730.50333252</ele>
        <time>2011-03-11T15:16:24.434Z</time>
      </trkpt>
      <trkpt lat="45.32827" lon="4.2069">
        <ele>730.509677026</ele>
        <time>2011-03-11T15:16:25.416Z</time>
      </trkpt>
      <trkpt lat="45.32826" lon="4.20687">
        <ele>730.732256489</ele>
        <time>2011-03-11T15:16:28.378Z</time>
      </trkpt>
      <trkpt lat="45.32825" lon="4.20686">
        <ele>730.790320612</ele>
        <time>2011-03-11T15:16:29.379Z</time>
      </trkpt>
      <trkpt lat="45.32821" lon="4.20685">
        <ele>730.725804483</ele>
        <time>2011-03-11T15:16:30.378Z</time>
      </trkpt>
      <trkpt lat="45.32819" lon="4.20684">
        <ele>730.573331706</ele>
        <time>2011-03-11T15:16:31.379Z</time>
      </trkpt>
      <trkpt lat="45.32813" lon="4.20677">
        <ele>730.080643192</ele>
        <time>2011-03-11T15:16:33.381Z</time>
      </trkpt>
      <trkpt lat="45.32808" lon="4.20665">
        <ele>729.458062941</ele>
        <time>2011-03-11T15:16:35.384Z</time>
      </trkpt>
      <trkpt lat="45.32805" lon="4.20659">
        <ele>729.016129032</ele>
        <time>2011-03-11T15:16:36.388Z</time>
      </trkpt>
      <trkpt lat="45.32802" lon="4.20655">
        <ele>728.503225019</ele>
        <time>2011-03-11T15:16:37.415Z</time>
      </trkpt>
      <trkpt lat="45.328" lon="4.20652">
        <ele>727.951610934</ele>
        <time>2011-03-11T15:16:38.395Z</time>
      </trkpt>
      <trkpt lat="45.32798" lon="4.2065">
        <ele>727.361286779</ele>
        <time>2011-03-11T15:16:39.386Z</time>
      </trkpt>
      <trkpt lat="45.32796" lon="4.20646">
        <ele>726.735479539</ele>
        <time>2011-03-11T15:16:40.381Z</time>
      </trkpt>
      <trkpt lat="45.32797" lon="4.20643">
        <ele>726.04838119</ele>
        <time>2011-03-11T15:16:41.411Z</time>
      </trkpt>
      <trkpt lat="45.32797" lon="4.20641">
        <ele>725.089994303</ele>
        <time>2011-03-11T15:16:42.427Z</time>
      </trkpt>
      <trkpt lat="45.32798" lon="4.20638">
        <ele>724.23332723</ele>
        <time>2011-03-11T15:16:43.460Z</time>
      </trkpt>
      <trkpt lat="45.32799" lon="4.20636">
        <ele>723.343328857</ele>
        <time>2011-03-11T15:16:44.422Z</time>
      </trkpt>
      <trkpt lat="45.32801" lon="4.20633">
        <ele>722.429996745</ele>
        <time>2011-03-11T15:16:45.415Z</time>
      </trkpt>
      <trkpt lat="45.32804" lon="4.20632">
        <ele>721.848384734</ele>
        <time>2011-03-11T15:16:46.425Z</time>
      </trkpt>
      <trkpt lat="45.32806" lon="4.20631">
        <ele>720.623331706</ele>
        <time>2011-03-11T15:16:47.429Z</time>
      </trkpt>
      <trkpt lat="45.32809" lon="4.2063">
        <ele>719.746665446</ele>
        <time>2011-03-11T15:16:48.427Z</time>
      </trkpt>
      <trkpt lat="45.32823" lon="4.2062">
        <ele>716.616130214</ele>
        <time>2011-03-11T15:16:52.418Z</time>
      </trkpt>
      <trkpt lat="45.32826" lon="4.20618">
        <ele>715.722583402</ele>
        <time>2011-03-11T15:16:53.429Z</time>
      </trkpt>
      <trkpt lat="45.3283" lon="4.20616">
        <ele>714.819357595</ele>
        <time>2011-03-11T15:16:54.392Z</time>
      </trkpt>
      <trkpt lat="45.32841" lon="4.20611">
        <ele>711.62333374</ele>
        <time>2011-03-11T15:16:57.440Z</time>
      </trkpt>
      <trkpt lat="45.32845" lon="4.2061">
        <ele>710.766666667</ele>
        <time>2011-03-11T15:16:58.433Z</time>
      </trkpt>
      <trkpt lat="45.32854" lon="4.20608">
        <ele>709.186665853</ele>
        <time>2011-03-11T15:17:00.445Z</time>
      </trkpt>
      <trkpt lat="45.32864" lon="4.20607">
        <ele>707.796665446</ele>
        <time>2011-03-11T15:17:02.429Z</time>
      </trkpt>
      <trkpt lat="45.32868" lon="4.20607">
        <ele>707.140000407</ele>
        <time>2011-03-11T15:17:03.446Z</time>
      </trkpt>
      <trkpt lat="45.32871" lon="4.20603">
        <ele>706.50333252</ele>
        <time>2011-03-11T15:17:04.428Z</time>
      </trkpt>
      <trkpt lat="45.32875" lon="4.20602">
        <ele>705.95</ele>
        <time>2011-03-11T15:17:05.429Z</time>
      </trkpt>
      <trkpt lat="45.32879" lon="4.20599">
        <ele>705.436665853</ele>
        <time>2011-03-11T15:17:06.897Z</time>
      </trkpt>
      <trkpt lat="45.32884" lon="4.20597">
        <ele>704.640000407</ele>
        <time>2011-03-11T15:17:08.445Z</time>
      </trkpt>
      <trkpt lat="45.32888" lon="4.20594">
        <ele>704.326668294</ele>
        <time>2011-03-11T15:17:09.452Z</time>
      </trkpt>
      <trkpt lat="45.32891" lon="4.20589">
        <ele>704.060001628</ele>
        <time>2011-03-11T15:17:10.924Z</time>
      </trkpt>
      <trkpt lat="45.32898" lon="4.20585">
        <ele>703.793549568</ele>
        <time>2011-03-11T15:17:12.416Z</time>
      </trkpt>
      <trkpt lat="45.32908" lon="4.20581">
        <ele>703.487097956</ele>
        <time>2011-03-11T15:17:15.405Z</time>
      </trkpt>
      <trkpt lat="45.32911" lon="4.20582">
        <ele>703.47742093</ele>
        <time>2011-03-11T15:17:16.418Z</time>
      </trkpt>
      <trkpt lat="45.32913" lon="4.20582">
        <ele>703.496774981</ele>
        <time>2011-03-11T15:17:17.394Z</time>
      </trkpt>
      <trkpt lat="45.32916" lon="4.20582">
        <ele>703.506452007</ele>
        <time>2011-03-11T15:17:18.380Z</time>
      </trkpt>
      <trkpt lat="45.32917" lon="4.20581">
        <ele>703.448387884</ele>
        <time>2011-03-11T15:17:19.383Z</time>
      </trkpt>
      <trkpt lat="45.32922" lon="4.20582">
        <ele>703.416666667</ele>
        <time>2011-03-11T15:17:21.409Z</time>
      </trkpt>
      <trkpt lat="45.32924" lon="4.20582">
        <ele>703.425806845</ele>
        <time>2011-03-11T15:17:22.398Z</time>
      </trkpt>
      <trkpt lat="45.32926" lon="4.20582">
        <ele>703.412902832</ele>
        <time>2011-03-11T15:17:23.404Z</time>
      </trkpt>
      <trkpt lat="45.32929" lon="4.20581">
        <ele>703.435481902</ele>
        <time>2011-03-11T15:17:24.387Z</time>
      </trkpt>
      <trkpt lat="45.32932" lon="4.20584">
        <ele>703.466666667</ele>
        <time>2011-03-11T15:17:25.386Z</time>
      </trkpt>
      <trkpt lat="45.32936" lon="4.20584">
        <ele>703.496774981</ele>
        <time>2011-03-11T15:17:26.383Z</time>
      </trkpt>
      <trkpt lat="45.32939" lon="4.20585">
        <ele>703.503226988</ele>
        <time>2011-03-11T15:17:27.382Z</time>
      </trkpt>
      <trkpt lat="45.32949" lon="4.20587">
        <ele>703.47742093</ele>
        <time>2011-03-11T15:17:30.389Z</time>
      </trkpt>
      <trkpt lat="45.32952" lon="4.20586">
        <ele>703.47742093</ele>
        <time>2011-03-11T15:17:31.418Z</time>
      </trkpt>
      <trkpt lat="45.32959" lon="4.20586">
        <ele>703.541937059</ele>
        <time>2011-03-11T15:17:33.418Z</time>
      </trkpt>
      <trkpt lat="45.32963" lon="4.20587">
        <ele>703.596774194</ele>
        <time>2011-03-11T15:17:34.421Z</time>
      </trkpt>
      <trkpt lat="45.32965" lon="4.20586">
        <ele>703.667742329</ele>
        <time>2011-03-11T15:17:35.403Z</time>
      </trkpt>
      <trkpt lat="45.32968" lon="4.20586">
        <ele>703.758064516</ele>
        <time>2011-03-11T15:17:36.399Z</time>
      </trkpt>
      <trkpt lat="45.32976" lon="4.20587">
        <ele>703.938710859</ele>
        <time>2011-03-11T15:17:38.391Z</time>
      </trkpt>
      <trkpt lat="45.3298" lon="4.20586">
        <ele>704.035485052</ele>
        <time>2011-03-11T15:17:39.424Z</time>
      </trkpt>
      <trkpt lat="45.32984" lon="4.20586">
        <ele>704.135484265</ele>
        <time>2011-03-11T15:17:40.390Z</time>
      </trkpt>
      <trkpt lat="45.32995" lon="4.20588">
        <ele>704.438710859</ele>
        <time>2011-03-11T15:17:43.388Z</time>
      </trkpt>
      <trkpt lat="45.32999" lon="4.20589">
        <ele>704.522583008</ele>
        <time>2011-03-11T15:17:44.400Z</time>
      </trkpt>
      <trkpt lat="45.33002" lon="4.20588">
        <ele>704.616132182</ele>
        <time>2011-03-11T15:17:45.390Z</time>
      </trkpt>
      <trkpt lat="45.33005" lon="4.20588">
        <ele>704.658067273</ele>
        <time>2011-03-11T15:17:46.385Z</time>
      </trkpt>
      <trkpt lat="45.33011" lon="4.20586">
        <ele>704.783337402</ele>
        <time>2011-03-11T15:17:48.435Z</time>
      </trkpt>
      <trkpt lat="45.33014" lon="4.20585">
        <ele>704.900004069</ele>
        <time>2011-03-11T15:17:49.435Z</time>
      </trkpt>
      <trkpt lat="45.33018" lon="4.20587">
        <ele>705.026670329</ele>
        <time>2011-03-11T15:17:50.436Z</time>
      </trkpt>
      <trkpt lat="45.33028" lon="4.20589">
        <ele>705.366670736</ele>
        <time>2011-03-11T15:17:53.429Z</time>
      </trkpt>
      <trkpt lat="45.33034" lon="4.20592">
        <ele>705.530002848</ele>
        <time>2011-03-11T15:17:55.435Z</time>
      </trkpt>
      <trkpt lat="45.33038" lon="4.20597">
        <ele>705.576668294</ele>
        <time>2011-03-11T15:17:56.455Z</time>
      </trkpt>
      <trkpt lat="45.33041" lon="4.20597">
        <ele>705.64666748</ele>
        <time>2011-03-11T15:17:57.442Z</time>
      </trkpt>
      <trkpt lat="45.33045" lon="4.20598">
        <ele>705.736667887</ele>
        <time>2011-03-11T15:17:58.434Z</time>
      </trkpt>
      <trkpt lat="45.33048" lon="4.20599">
        <ele>705.84666748</ele>
        <time>2011-03-11T15:17:59.433Z</time>
      </trkpt>
      <trkpt lat="45.33051" lon="4.206">
        <ele>705.990000407</ele>
        <time>2011-03-11T15:18:00.433Z</time>
      </trkpt>
      <trkpt lat="45.33057" lon="4.20604">
        <ele>706.263334147</ele>
        <time>2011-03-11T15:18:02.440Z</time>
      </trkpt>
      <trkpt lat="45.3306" lon="4.20608">
        <ele>706.390000407</ele>
        <time>2011-03-11T15:18:03.470Z</time>
      </trkpt>
      <trkpt lat="45.33065" lon="4.20614">
        <ele>706.551614085</ele>
        <time>2011-03-11T15:18:05.401Z</time>
      </trkpt>
      <trkpt lat="45.33068" lon="4.20619">
        <ele>706.635484265</ele>
        <time>2011-03-11T15:18:06.387Z</time>
      </trkpt>
      <trkpt lat="45.33063" lon="4.20626">
        <ele>706.806665039</ele>
        <time>2011-03-11T15:18:07.459Z</time>
      </trkpt>
      <trkpt lat="45.33063" lon="4.20628">
        <ele>706.949997965</ele>
        <time>2011-03-11T15:18:08.424Z</time>
      </trkpt>
      <trkpt lat="45.33061" lon="4.20632">
        <ele>706.987094018</ele>
        <time>2011-03-11T15:18:09.423Z</time>
      </trkpt>
      <trkpt lat="45.33055" lon="4.20646">
        <ele>707.283333333</ele>
        <time>2011-03-11T15:18:12.822Z</time>
      </trkpt>
      <trkpt lat="45.33048" lon="4.20654">
        <ele>707.366666667</ele>
        <time>2011-03-11T15:18:14.424Z</time>
      </trkpt>
      <trkpt lat="45.33041" lon="4.20661">
        <ele>707.379998779</ele>
        <time>2011-03-11T15:18:16.443Z</time>
      </trkpt>
      <trkpt lat="45.33038" lon="4.20667">
        <ele>707.309997559</ele>
        <time>2011-03-11T15:18:17.440Z</time>
      </trkpt>
      <trkpt lat="45.33035" lon="4.20674">
        <ele>707.193544449</ele>
        <time>2011-03-11T15:18:19.433Z</time>
      </trkpt>
      <trkpt lat="45.33034" lon="4.20679">
        <ele>707.154834378</ele>
        <time>2011-03-11T15:18:20.436Z</time>
      </trkpt>
      <trkpt lat="45.33037" lon="4.20689">
        <ele>707.129996745</ele>
        <time>2011-03-11T15:18:22.496Z</time>
      </trkpt>
      <trkpt lat="45.33036" lon="4.20695">
        <ele>707.193328857</ele>
        <time>2011-03-11T15:18:23.450Z</time>
      </trkpt>
      <trkpt lat="45.33036" lon="4.20702">
        <ele>707.269997152</ele>
        <time>2011-03-11T15:18:24.436Z</time>
      </trkpt>
      <trkpt lat="45.33038" lon="4.20708">
        <ele>707.359997559</ele>
        <time>2011-03-11T15:18:25.436Z</time>
      </trkpt>
      <trkpt lat="45.3304" lon="4.20713">
        <ele>707.438706921</ele>
        <time>2011-03-11T15:18:26.405Z</time>
      </trkpt>
      <trkpt lat="45.33042" lon="4.20717">
        <ele>707.567739179</ele>
        <time>2011-03-11T15:18:27.390Z</time>
      </trkpt>
      <trkpt lat="45.33044" lon="4.2072">
        <ele>707.664513373</ele>
        <time>2011-03-11T15:18:28.393Z</time>
      </trkpt>
      <trkpt lat="45.33048" lon="4.20717">
        <ele>707.60644925</ele>
        <time>2011-03-11T15:18:29.391Z</time>
      </trkpt>
      <trkpt lat="45.33053" lon="4.20717">
        <ele>707.490321006</ele>
        <time>2011-03-11T15:18:30.396Z</time>
      </trkpt>
      <trkpt lat="45.33056" lon="4.20721">
        <ele>707.361288747</ele>
        <time>2011-03-11T15:18:31.424Z</time>
      </trkpt>
      <trkpt lat="45.3306" lon="4.20722">
        <ele>707.325805664</ele>
        <time>2011-03-11T15:18:32.433Z</time>
      </trkpt>
      <trkpt lat="45.33064" lon="4.20726">
        <ele>707.251612509</ele>
        <time>2011-03-11T15:18:33.436Z</time>
      </trkpt>
      <trkpt lat="45.33068" lon="4.2073">
        <ele>707.209677419</ele>
        <time>2011-03-11T15:18:34.402Z</time>
      </trkpt>
      <trkpt lat="45.33073" lon="4.20739">
        <ele>707.143334961</ele>
        <time>2011-03-11T15:18:36.400Z</time>
      </trkpt>
      <trkpt lat="45.33071" lon="4.20748">
        <ele>707.154840285</ele>
        <time>2011-03-11T15:18:37.391Z</time>
      </trkpt>
      <trkpt lat="45.33072" lon="4.20758">
        <ele>707.119357201</ele>
        <time>2011-03-11T15:18:39.414Z</time>
      </trkpt>
      <trkpt lat="45.33075" lon="4.20775">
        <ele>707.212904407</ele>
        <time>2011-03-11T15:18:42.440Z</time>
      </trkpt>
      <trkpt lat="45.33079" lon="4.20784">
        <ele>707.366666667</ele>
        <time>2011-03-11T15:18:44.436Z</time>
      </trkpt>
      <trkpt lat="45.33085" lon="4.20787">
        <ele>707.516666667</ele>
        <time>2011-03-11T15:18:45.443Z</time>
      </trkpt>
      <trkpt lat="45.33086" lon="4.2079">
        <ele>707.56129111</ele>
        <time>2011-03-11T15:18:46.406Z</time>
      </trkpt>
      <trkpt lat="45.33089" lon="4.20793">
        <ele>707.674194336</ele>
        <time>2011-03-11T15:18:47.392Z</time>
      </trkpt>
      <trkpt lat="45.33093" lon="4.20796">
        <ele>707.948387884</ele>
        <time>2011-03-11T15:18:49.400Z</time>
      </trkpt>
      <trkpt lat="45.33094" lon="4.20797">
        <ele>708.109678207</ele>
        <time>2011-03-11T15:18:50.397Z</time>
      </trkpt>
      <trkpt lat="45.33098" lon="4.20807">
        <ele>708.203225413</ele>
        <time>2011-03-11T15:18:51.396Z</time>
      </trkpt>
      <trkpt lat="45.33102" lon="4.20813">
        <ele>708.180644374</ele>
        <time>2011-03-11T15:18:53.397Z</time>
      </trkpt>
      <trkpt lat="45.33104" lon="4.2082">
        <ele>707.967741935</ele>
        <time>2011-03-11T15:18:55.425Z</time>
      </trkpt>
      <trkpt lat="45.33106" lon="4.20825">
        <ele>707.716666667</ele>
        <time>2011-03-11T15:18:56.452Z</time>
      </trkpt>
      <trkpt lat="45.33109" lon="4.20831">
        <ele>707.543332926</ele>
        <time>2011-03-11T15:18:57.445Z</time>
      </trkpt>
      <trkpt lat="45.33117" lon="4.20851">
        <ele>707.370001221</ele>
        <time>2011-03-11T15:19:00.444Z</time>
      </trkpt>
      <trkpt lat="45.3312" lon="4.20859">
        <ele>707.39666748</ele>
        <time>2011-03-11T15:19:01.442Z</time>
      </trkpt>
      <trkpt lat="45.33124" lon="4.20865">
        <ele>707.303334554</ele>
        <time>2011-03-11T15:19:02.441Z</time>
      </trkpt>
      <trkpt lat="45.33129" lon="4.20868">
        <ele>707.293332926</ele>
        <time>2011-03-11T15:19:03.499Z</time>
      </trkpt>
      <trkpt lat="45.33135" lon="4.20871">
        <ele>707.266666667</ele>
        <time>2011-03-11T15:19:04.437Z</time>
      </trkpt>
      <trkpt lat="45.3314" lon="4.20871">
        <ele>707.229998779</ele>
        <time>2011-03-11T15:19:05.438Z</time>
      </trkpt>
      <trkpt lat="45.33145" lon="4.20871">
        <ele>707.159997559</ele>
        <time>2011-03-11T15:19:06.437Z</time>
      </trkpt>
      <trkpt lat="45.33148" lon="4.20868">
        <ele>707.086663818</ele>
        <time>2011-03-11T15:19:07.454Z</time>
      </trkpt>
      <trkpt lat="45.33151" lon="4.20866">
        <ele>707.043330892</ele>
        <time>2011-03-11T15:19:08.447Z</time>
      </trkpt>
      <trkpt lat="45.33154" lon="4.20865">
        <ele>707.006663005</ele>
        <time>2011-03-11T15:19:09.449Z</time>
      </trkpt>
      <trkpt lat="45.33156" lon="4.20863">
        <ele>706.999995931</ele>
        <time>2011-03-11T15:19:10.442Z</time>
      </trkpt>
      <trkpt lat="45.3316" lon="4.20863">
        <ele>707.08709323</ele>
        <time>2011-03-11T15:19:11.440Z</time>
      </trkpt>
      <trkpt lat="45.33167" lon="4.20861">
        <ele>707.066664632</ele>
        <time>2011-03-11T15:19:14.442Z</time>
      </trkpt>
      <trkpt lat="45.33167" lon="4.20858">
        <ele>707.158063335</ele>
        <time>2011-03-11T15:19:15.442Z</time>
      </trkpt>
      <trkpt lat="45.33168" lon="4.20858">
        <ele>707.136663818</ele>
        <time>2011-03-11T15:19:16.464Z</time>
      </trkpt>
      <trkpt lat="45.3317" lon="4.20858">
        <ele>707.216664632</ele>
        <time>2011-03-11T15:19:17.442Z</time>
      </trkpt>
      <trkpt lat="45.33173" lon="4.20856">
        <ele>707.313332113</ele>
        <time>2011-03-11T15:19:18.442Z</time>
      </trkpt>
      <trkpt lat="45.33178" lon="4.20855">
        <ele>707.409999593</ele>
        <time>2011-03-11T15:19:19.479Z</time>
      </trkpt>
      <trkpt lat="45.33181" lon="4.20854">
        <ele>707.516666667</ele>
        <time>2011-03-11T15:19:21.436Z</time>
      </trkpt>
      <trkpt lat="45.33182" lon="4.20852">
        <ele>707.680000814</ele>
        <time>2011-03-11T15:19:22.443Z</time>
      </trkpt>
      <trkpt lat="45.33183" lon="4.20849">
        <ele>707.843332926</ele>
        <time>2011-03-11T15:19:23.441Z</time>
      </trkpt>
      <trkpt lat="45.33186" lon="4.20845">
        <ele>708.023331706</ele>
        <time>2011-03-11T15:19:24.446Z</time>
      </trkpt>
      <trkpt lat="45.33189" lon="4.20837">
        <ele>708.490319037</ele>
        <time>2011-03-11T15:19:26.435Z</time>
      </trkpt>
      <trkpt lat="45.33189" lon="4.20832">
        <ele>708.841932727</ele>
        <time>2011-03-11T15:19:27.445Z</time>
      </trkpt>
      <trkpt lat="45.33192" lon="4.20822">
        <ele>709.93870889</ele>
        <time>2011-03-11T15:19:30.444Z</time>
      </trkpt>
      <trkpt lat="45.33193" lon="4.20818">
        <ele>710.479998779</ele>
        <time>2011-03-11T15:19:31.443Z</time>
      </trkpt>
      <trkpt lat="45.33193" lon="4.20815">
        <ele>710.849997965</ele>
        <time>2011-03-11T15:19:32.443Z</time>
      </trkpt>
      <trkpt lat="45.33193" lon="4.2081">
        <ele>710.98064398</ele>
        <time>2011-03-11T15:19:33.445Z</time>
      </trkpt>
      <trkpt lat="45.33194" lon="4.20806">
        <ele>711.299999606</ele>
        <time>2011-03-11T15:19:34.432Z</time>
      </trkpt>
      <trkpt lat="45.33195" lon="4.20796">
        <ele>712.230000814</ele>
        <time>2011-03-11T15:19:36.455Z</time>
      </trkpt>
      <trkpt lat="45.33196" lon="4.20793">
        <ele>712.370967742</ele>
        <time>2011-03-11T15:19:37.445Z</time>
      </trkpt>
      <trkpt lat="45.33196" lon="4.20791">
        <ele>712.748387491</ele>
        <time>2011-03-11T15:19:38.446Z</time>
      </trkpt>
      <trkpt lat="45.33197" lon="4.20785">
        <ele>713.50333252</ele>
        <time>2011-03-11T15:19:40.447Z</time>
      </trkpt>
      <trkpt lat="45.33199" lon="4.20777">
        <ele>713.735483477</ele>
        <time>2011-03-11T15:19:42.444Z</time>
      </trkpt>
      <trkpt lat="45.33201" lon="4.20771">
        <ele>713.890323762</ele>
        <time>2011-03-11T15:19:43.444Z</time>
      </trkpt>
      <trkpt lat="45.33202" lon="4.20765">
        <ele>714.153334554</ele>
        <time>2011-03-11T15:19:44.443Z</time>
      </trkpt>
      <trkpt lat="45.33203" lon="4.20758">
        <ele>714.283333333</ele>
        <time>2011-03-11T15:19:45.445Z</time>
      </trkpt>
      <trkpt lat="45.33203" lon="4.2075">
        <ele>714.283870574</ele>
        <time>2011-03-11T15:19:46.435Z</time>
      </trkpt>
      <trkpt lat="45.33203" lon="4.20744">
        <ele>714.387096774</ele>
        <time>2011-03-11T15:19:47.435Z</time>
      </trkpt>
      <trkpt lat="45.33204" lon="4.20723">
        <ele>714.790000407</ele>
        <time>2011-03-11T15:19:50.454Z</time>
      </trkpt>
      <trkpt lat="45.33204" lon="4.20715">
        <ele>714.910001628</ele>
        <time>2011-03-11T15:19:51.481Z</time>
      </trkpt>
      <trkpt lat="45.33203" lon="4.20706">
        <ele>714.990000407</ele>
        <time>2011-03-11T15:19:52.468Z</time>
      </trkpt>
      <trkpt lat="45.33203" lon="4.20698">
        <ele>714.977418961</ele>
        <time>2011-03-11T15:19:53.437Z</time>
      </trkpt>
      <trkpt lat="45.33205" lon="4.2069">
        <ele>715.077420142</ele>
        <time>2011-03-11T15:19:54.436Z</time>
      </trkpt>
      <trkpt lat="45.33211" lon="4.20672">
        <ele>715.156669108</ele>
        <time>2011-03-11T15:19:56.463Z</time>
      </trkpt>
      <trkpt lat="45.33217" lon="4.20655">
        <ele>715.064520067</ele>
        <time>2011-03-11T15:19:58.442Z</time>
      </trkpt>
      <trkpt lat="45.3322" lon="4.20647">
        <ele>715.048391035</ele>
        <time>2011-03-11T15:19:59.439Z</time>
      </trkpt>
      <trkpt lat="45.33223" lon="4.20638">
        <ele>714.956669108</ele>
        <time>2011-03-11T15:20:00.449Z</time>
      </trkpt>
      <trkpt lat="45.33228" lon="4.20624">
        <ele>714.941937847</ele>
        <time>2011-03-11T15:20:02.434Z</time>
      </trkpt>
      <trkpt lat="45.33235" lon="4.20612">
        <ele>714.850002035</ele>
        <time>2011-03-11T15:20:04.446Z</time>
      </trkpt>
      <trkpt lat="45.33238" lon="4.20609">
        <ele>714.770970498</ele>
        <time>2011-03-11T15:20:05.447Z</time>
      </trkpt>
      <trkpt lat="45.33247" lon="4.20598">
        <ele>714.441937847</ele>
        <time>2011-03-11T15:20:07.434Z</time>
      </trkpt>
      <trkpt lat="45.33253" lon="4.20593">
        <ele>714.140002441</ele>
        <time>2011-03-11T15:20:08.496Z</time>
      </trkpt>
      <trkpt lat="45.3326" lon="4.20586">
        <ele>713.736671956</ele>
        <time>2011-03-11T15:20:10.730Z</time>
      </trkpt>
      <trkpt lat="45.3326" lon="4.20583">
        <ele>713.57000529</ele>
        <time>2011-03-11T15:20:11.470Z</time>
      </trkpt>
      <trkpt lat="45.33263" lon="4.2058">
        <ele>713.430004883</ele>
        <time>2011-03-11T15:20:12.494Z</time>
      </trkpt>
      <trkpt lat="45.33266" lon="4.20576">
        <ele>713.286669922</ele>
        <time>2011-03-11T15:20:13.827Z</time>
      </trkpt>
      <trkpt lat="45.33276" lon="4.20568">
        <ele>712.930002848</ele>
        <time>2011-03-11T15:20:16.463Z</time>
      </trkpt>
      <trkpt lat="45.33282" lon="4.20559">
        <ele>712.753334554</ele>
        <time>2011-03-11T15:20:18.450Z</time>
      </trkpt>
      <trkpt lat="45.33285" lon="4.20557">
        <ele>712.610001628</ele>
        <time>2011-03-11T15:20:19.450Z</time>
      </trkpt>
      <trkpt lat="45.33289" lon="4.20549">
        <ele>712.470968923</ele>
        <time>2011-03-11T15:20:21.450Z</time>
      </trkpt>
      <trkpt lat="45.33293" lon="4.20546">
        <ele>712.37419473</ele>
        <time>2011-03-11T15:20:22.465Z</time>
      </trkpt>
      <trkpt lat="45.33297" lon="4.20545">
        <ele>712.246669515</ele>
        <time>2011-03-11T15:20:23.450Z</time>
      </trkpt>
      <trkpt lat="45.33303" lon="4.20541">
        <ele>712.043334961</ele>
        <time>2011-03-11T15:20:25.446Z</time>
      </trkpt>
      <trkpt lat="45.33307" lon="4.20539">
        <ele>711.990324943</ele>
        <time>2011-03-11T15:20:26.443Z</time>
      </trkpt>
      <trkpt lat="45.33313" lon="4.20538">
        <ele>711.746669515</ele>
        <time>2011-03-11T15:20:28.454Z</time>
      </trkpt>
      <trkpt lat="45.3332" lon="4.20537">
        <ele>711.533337402</ele>
        <time>2011-03-11T15:20:30.468Z</time>
      </trkpt>
      <trkpt lat="45.3333" lon="4.20538">
        <ele>711.212908345</ele>
        <time>2011-03-11T15:20:33.403Z</time>
      </trkpt>
      <trkpt lat="45.33341" lon="4.20537">
        <ele>710.887100712</ele>
        <time>2011-03-11T15:20:36.434Z</time>
      </trkpt>
      <trkpt lat="45.33345" lon="4.20536">
        <ele>710.806455551</ele>
        <time>2011-03-11T15:20:37.409Z</time>
      </trkpt>
      <trkpt lat="45.3335" lon="4.20541">
        <ele>710.709681357</ele>
        <time>2011-03-11T15:20:38.432Z</time>
      </trkpt>
      <trkpt lat="45.33354" lon="4.20544">
        <ele>710.68065028</ele>
        <time>2011-03-11T15:20:39.419Z</time>
      </trkpt>
      <trkpt lat="45.33361" lon="4.20546">
        <ele>710.583876087</ele>
        <time>2011-03-11T15:20:41.407Z</time>
      </trkpt>
      <trkpt lat="45.33365" lon="4.20546">
        <ele>710.500003938</ele>
        <time>2011-03-11T15:20:42.406Z</time>
      </trkpt>
      <trkpt lat="45.33372" lon="4.20546">
        <ele>710.270972467</ele>
        <time>2011-03-11T15:20:44.404Z</time>
      </trkpt>
      <trkpt lat="45.33375" lon="4.20543">
        <ele>710.148392216</ele>
        <time>2011-03-11T15:20:45.436Z</time>
      </trkpt>
      <trkpt lat="45.33379" lon="4.20541">
        <ele>710.03548899</ele>
        <time>2011-03-11T15:20:46.455Z</time>
      </trkpt>
      <trkpt lat="45.33389" lon="4.20535">
        <ele>709.600006104</ele>
        <time>2011-03-11T15:20:49.465Z</time>
      </trkpt>
      <trkpt lat="45.33395" lon="4.20533">
        <ele>709.516136908</ele>
        <time>2011-03-11T15:20:51.429Z</time>
      </trkpt>
      <trkpt lat="45.33399" lon="4.20533">
        <ele>709.353340658</ele>
        <time>2011-03-11T15:20:52.477Z</time>
      </trkpt>
      <trkpt lat="45.33409" lon="4.20531">
        <ele>709.03226594</ele>
        <time>2011-03-11T15:20:55.417Z</time>
      </trkpt>
      <trkpt lat="45.33413" lon="4.20532">
        <ele>708.843341064</ele>
        <time>2011-03-11T15:20:56.452Z</time>
      </trkpt>
      <trkpt lat="45.33417" lon="4.20531">
        <ele>708.774201424</ele>
        <time>2011-03-11T15:20:57.441Z</time>
      </trkpt>
      <trkpt lat="45.3342" lon="4.20532">
        <ele>708.687104256</ele>
        <time>2011-03-11T15:20:58.454Z</time>
      </trkpt>
      <trkpt lat="45.33423" lon="4.20533">
        <ele>708.541942966</ele>
        <time>2011-03-11T15:20:59.452Z</time>
      </trkpt>
      <trkpt lat="45.3343" lon="4.20534">
        <ele>708.219360352</ele>
        <time>2011-03-11T15:21:01.449Z</time>
      </trkpt>
      <trkpt lat="45.33433" lon="4.20534">
        <ele>707.990004476</ele>
        <time>2011-03-11T15:21:02.455Z</time>
      </trkpt>
      <trkpt lat="45.33437" lon="4.20534">
        <ele>707.856671143</ele>
        <time>2011-03-11T15:21:03.455Z</time>
      </trkpt>
      <trkpt lat="45.3344" lon="4.20533">
        <ele>707.733337402</ele>
        <time>2011-03-11T15:21:04.457Z</time>
      </trkpt>
      <trkpt lat="45.33447" lon="4.20538">
        <ele>707.556671143</ele>
        <time>2011-03-11T15:21:06.439Z</time>
      </trkpt>
      <trkpt lat="45.33453" lon="4.20541">
        <ele>707.363338216</ele>
        <time>2011-03-11T15:21:08.440Z</time>
      </trkpt>
      <trkpt lat="45.33457" lon="4.20542">
        <ele>707.351617629</ele>
        <time>2011-03-11T15:21:09.411Z</time>
      </trkpt>
      <trkpt lat="45.3346" lon="4.20543">
        <ele>707.280649493</ele>
        <time>2011-03-11T15:21:10.410Z</time>
      </trkpt>
      <trkpt lat="45.33463" lon="4.20548">
        <ele>707.186669922</ele>
        <time>2011-03-11T15:21:11.440Z</time>
      </trkpt>
      <trkpt lat="45.33469" lon="4.2055">
        <ele>707.260003662</ele>
        <time>2011-03-11T15:21:13.455Z</time>
      </trkpt>
      <trkpt lat="45.33477" lon="4.20557">
        <ele>707.450004069</ele>
        <time>2011-03-11T15:21:16.474Z</time>
      </trkpt>
      <trkpt lat="45.3348" lon="4.20561">
        <ele>707.456669108</ele>
        <time>2011-03-11T15:21:17.890Z</time>
      </trkpt>
      <trkpt lat="45.33482" lon="4.20564">
        <ele>707.440002441</ele>
        <time>2011-03-11T15:21:18.458Z</time>
      </trkpt>
      <trkpt lat="45.33484" lon="4.20568">
        <ele>707.422583795</ele>
        <time>2011-03-11T15:21:19.457Z</time>
      </trkpt>
      <trkpt lat="45.33486" lon="4.20573">
        <ele>707.387098743</ele>
        <time>2011-03-11T15:21:20.454Z</time>
      </trkpt>
      <trkpt lat="45.33489" lon="4.20582">
        <ele>707.270968529</ele>
        <time>2011-03-11T15:21:22.474Z</time>
      </trkpt>
      <trkpt lat="45.3349" lon="4.20585">
        <ele>707.166668701</ele>
        <time>2011-03-11T15:21:23.465Z</time>
      </trkpt>
      <trkpt lat="45.33491" lon="4.20589">
        <ele>707.140002441</ele>
        <time>2011-03-11T15:21:24.427Z</time>
      </trkpt>
      <trkpt lat="45.33494" lon="4.20599">
        <ele>707.256667074</ele>
        <time>2011-03-11T15:21:27.444Z</time>
      </trkpt>
      <trkpt lat="45.33496" lon="4.20606">
        <ele>707.50333252</ele>
        <time>2011-03-11T15:21:29.468Z</time>
      </trkpt>
      <trkpt lat="45.33498" lon="4.20606">
        <ele>707.693548387</ele>
        <time>2011-03-11T15:21:30.447Z</time>
      </trkpt>
      <trkpt lat="45.33499" lon="4.20608">
        <ele>707.935483871</ele>
        <time>2011-03-11T15:21:31.447Z</time>
      </trkpt>
      <trkpt lat="45.33502" lon="4.20612">
        <ele>708.177419355</ele>
        <time>2011-03-11T15:21:32.455Z</time>
      </trkpt>
      <trkpt lat="45.33504" lon="4.20615">
        <ele>708.454839891</ele>
        <time>2011-03-11T15:21:33.438Z</time>
      </trkpt>
      <trkpt lat="45.33508" lon="4.2062">
        <ele>709.116668701</ele>
        <time>2011-03-11T15:21:35.464Z</time>
      </trkpt>
      <trkpt lat="45.33509" lon="4.20623">
        <ele>709.410001628</ele>
        <time>2011-03-11T15:21:36.500Z</time>
      </trkpt>
      <trkpt lat="45.33513" lon="4.20627">
        <ele>710.113334147</ele>
        <time>2011-03-11T15:21:38.457Z</time>
      </trkpt>
      <trkpt lat="45.33515" lon="4.20628">
        <ele>710.453334554</ele>
        <time>2011-03-11T15:21:39.450Z</time>
      </trkpt>
      <trkpt lat="45.33518" lon="4.20626">
        <ele>710.880000814</ele>
        <time>2011-03-11T15:21:40.418Z</time>
      </trkpt>
      <trkpt lat="45.33522" lon="4.20626">
        <ele>711.222581433</ele>
        <time>2011-03-11T15:21:41.415Z</time>
      </trkpt>
      <trkpt lat="45.33525" lon="4.20626">
        <ele>711.716129426</ele>
        <time>2011-03-11T15:21:42.417Z</time>
      </trkpt>
      <trkpt lat="45.33533" lon="4.20629">
        <ele>713.12580527</ele>
        <time>2011-03-11T15:21:45.443Z</time>
      </trkpt>
      <trkpt lat="45.33535" lon="4.2063">
        <ele>713.6032262</ele>
        <time>2011-03-11T15:21:46.472Z</time>
      </trkpt>
      <trkpt lat="45.33541" lon="4.2063">
        <ele>714.138709284</ele>
        <time>2011-03-11T15:21:47.475Z</time>
      </trkpt>
      <trkpt lat="45.33549" lon="4.20636">
        <ele>715.613334147</ele>
        <time>2011-03-11T15:21:49.473Z</time>
      </trkpt>
      <trkpt lat="45.33554" lon="4.20641">
        <ele>716.256669108</ele>
        <time>2011-03-11T15:21:50.456Z</time>
      </trkpt>
      <trkpt lat="45.33558" lon="4.20651">
        <ele>716.606453188</ele>
        <time>2011-03-11T15:21:51.455Z</time>
      </trkpt>
      <trkpt lat="45.33566" lon="4.20658">
        <ele>717.261291504</ele>
        <time>2011-03-11T15:21:52.455Z</time>
      </trkpt>
      <trkpt lat="45.33574" lon="4.20664">
        <ele>717.887098743</ele>
        <time>2011-03-11T15:21:53.459Z</time>
      </trkpt>
      <trkpt lat="45.33581" lon="4.20667">
        <ele>718.870001221</ele>
        <time>2011-03-11T15:21:54.460Z</time>
      </trkpt>
      <trkpt lat="45.33587" lon="4.20672">
        <ele>719.460001628</ele>
        <time>2011-03-11T15:21:55.439Z</time>
      </trkpt>
      <trkpt lat="45.33594" lon="4.20676">
        <ele>719.648388278</ele>
        <time>2011-03-11T15:21:56.411Z</time>
      </trkpt>
      <trkpt lat="45.33602" lon="4.20679">
        <ele>720.196775375</ele>
        <time>2011-03-11T15:21:57.418Z</time>
      </trkpt>
      <trkpt lat="45.33609" lon="4.20687">
        <ele>720.658065304</ele>
        <time>2011-03-11T15:21:58.419Z</time>
      </trkpt>
      <trkpt lat="45.33617" lon="4.20692">
        <ele>721.106451219</ele>
        <time>2011-03-11T15:21:59.416Z</time>
      </trkpt>
      <trkpt lat="45.33626" lon="4.20701">
        <ele>721.393548781</ele>
        <time>2011-03-11T15:22:00.432Z</time>
      </trkpt>
      <trkpt lat="45.33634" lon="4.20708">
        <ele>721.577418174</ele>
        <time>2011-03-11T15:22:01.412Z</time>
      </trkpt>
      <trkpt lat="45.33643" lon="4.20714">
        <ele>721.751612509</ele>
        <time>2011-03-11T15:22:02.422Z</time>
      </trkpt>
      <trkpt lat="45.33651" lon="4.20709">
        <ele>721.935483871</ele>
        <time>2011-03-11T15:22:03.417Z</time>
      </trkpt>
      <trkpt lat="45.3366" lon="4.20709">
        <ele>722.058064122</ele>
        <time>2011-03-11T15:22:04.450Z</time>
      </trkpt>
      <trkpt lat="45.33669" lon="4.20709">
        <ele>722.141936271</ele>
        <time>2011-03-11T15:22:05.458Z</time>
      </trkpt>
      <trkpt lat="45.33677" lon="4.20707">
        <ele>722.219354445</ele>
        <time>2011-03-11T15:22:06.461Z</time>
      </trkpt>
      <trkpt lat="45.33686" lon="4.20706">
        <ele>722.45</ele>
        <time>2011-03-11T15:22:07.458Z</time>
      </trkpt>
      <trkpt lat="45.33694" lon="4.20708">
        <ele>722.433333333</ele>
        <time>2011-03-11T15:22:08.505Z</time>
      </trkpt>
      <trkpt lat="45.33698" lon="4.20712">
        <ele>722.440000407</ele>
        <time>2011-03-11T15:22:09.469Z</time>
      </trkpt>
      <trkpt lat="45.33704" lon="4.20711">
        <ele>722.360001628</ele>
        <time>2011-03-11T15:22:10.460Z</time>
      </trkpt>
      <trkpt lat="45.3371" lon="4.20715">
        <ele>722.116666667</ele>
        <time>2011-03-11T15:22:12.476Z</time>
      </trkpt>
      <trkpt lat="45.33713" lon="4.20718">
        <ele>721.95333252</ele>
        <time>2011-03-11T15:22:13.463Z</time>
      </trkpt>
      <trkpt lat="45.33718" lon="4.20721">
        <ele>721.567743117</ele>
        <time>2011-03-11T15:22:15.439Z</time>
      </trkpt>
      <trkpt lat="45.33722" lon="4.20724">
        <ele>721.250002035</ele>
        <time>2011-03-11T15:22:16.836Z</time>
      </trkpt>
      <trkpt lat="45.33725" lon="4.20727">
        <ele>721.12258222</ele>
        <time>2011-03-11T15:22:17.466Z</time>
      </trkpt>
      <trkpt lat="45.33729" lon="4.20727">
        <ele>720.786667887</ele>
        <time>2011-03-11T15:22:18.466Z</time>
      </trkpt>
      <trkpt lat="45.33732" lon="4.20727">
        <ele>720.690323368</ele>
        <time>2011-03-11T15:22:19.468Z</time>
      </trkpt>
      <trkpt lat="45.33737" lon="4.2073">
        <ele>720.22333374</ele>
        <time>2011-03-11T15:22:20.463Z</time>
      </trkpt>
      <trkpt lat="45.33741" lon="4.20733">
        <ele>719.89666748</ele>
        <time>2011-03-11T15:22:21.460Z</time>
      </trkpt>
      <trkpt lat="45.33744" lon="4.20734">
        <ele>719.563334147</ele>
        <time>2011-03-11T15:22:22.458Z</time>
      </trkpt>
      <trkpt lat="45.33752" lon="4.20739">
        <ele>718.936667887</ele>
        <time>2011-03-11T15:22:24.501Z</time>
      </trkpt>
      <trkpt lat="45.33756" lon="4.20749">
        <ele>718.663334147</ele>
        <time>2011-03-11T15:22:25.475Z</time>
      </trkpt>
      <trkpt lat="45.3376" lon="4.20753">
        <ele>718.376668294</ele>
        <time>2011-03-11T15:22:26.454Z</time>
      </trkpt>
      <trkpt lat="45.33765" lon="4.20757">
        <ele>718.073335775</ele>
        <time>2011-03-11T15:22:27.501Z</time>
      </trkpt>
      <trkpt lat="45.33769" lon="4.20765">
        <ele>717.810003662</ele>
        <time>2011-03-11T15:22:28.447Z</time>
      </trkpt>
      <trkpt lat="45.33774" lon="4.20771">
        <ele>717.533337402</ele>
        <time>2011-03-11T15:22:29.423Z</time>
      </trkpt>
      <trkpt lat="45.33778" lon="4.20778">
        <ele>717.433337402</ele>
        <time>2011-03-11T15:22:30.455Z</time>
      </trkpt>
      <trkpt lat="45.33783" lon="4.20781">
        <ele>717.330004883</ele>
        <time>2011-03-11T15:22:31.419Z</time>
      </trkpt>
      <trkpt lat="45.3379" lon="4.20791">
        <ele>717.103338623</ele>
        <time>2011-03-11T15:22:33.420Z</time>
      </trkpt>
      <trkpt lat="45.33795" lon="4.20795">
        <ele>717.03548899</ele>
        <time>2011-03-11T15:22:34.421Z</time>
      </trkpt>
      <trkpt lat="45.33806" lon="4.20804">
        <ele>716.677425261</ele>
        <time>2011-03-11T15:22:37.424Z</time>
      </trkpt>
      <trkpt lat="45.33809" lon="4.20806">
        <ele>716.5967801</ele>
        <time>2011-03-11T15:22:38.424Z</time>
      </trkpt>
      <trkpt lat="45.33813" lon="4.20807">
        <ele>716.538715978</ele>
        <time>2011-03-11T15:22:39.424Z</time>
      </trkpt>
      <trkpt lat="45.3382" lon="4.20808">
        <ele>716.3903277</ele>
        <time>2011-03-11T15:22:41.424Z</time>
      </trkpt>
      <trkpt lat="45.33835" lon="4.20813">
        <ele>715.983339437</ele>
        <time>2011-03-11T15:22:44.530Z</time>
      </trkpt>
      <trkpt lat="45.33838" lon="4.20812">
        <ele>715.826672363</ele>
        <time>2011-03-11T15:22:45.459Z</time>
      </trkpt>
      <trkpt lat="45.33841" lon="4.20814">
        <ele>715.706456338</ele>
        <time>2011-03-11T15:22:46.447Z</time>
      </trkpt>
      <trkpt lat="45.33846" lon="4.20815">
        <ele>715.522584977</ele>
        <time>2011-03-11T15:22:47.448Z</time>
      </trkpt>
      <trkpt lat="45.33855" lon="4.2082">
        <ele>714.99333903</ele>
        <time>2011-03-11T15:22:49.490Z</time>
      </trkpt>
      <trkpt lat="45.3386" lon="4.20822">
        <ele>714.819359564</ele>
        <time>2011-03-11T15:22:50.461Z</time>
      </trkpt>
      <trkpt lat="45.33867" lon="4.20829">
        <ele>714.24000651</ele>
        <time>2011-03-11T15:22:52.489Z</time>
      </trkpt>
      <trkpt lat="45.33868" lon="4.20827">
        <ele>714.183877268</ele>
        <time>2011-03-11T15:22:53.432Z</time>
      </trkpt>
      <trkpt lat="45.33872" lon="4.20828">
        <ele>714.090328093</ele>
        <time>2011-03-11T15:22:54.423Z</time>
      </trkpt>
      <trkpt lat="45.33875" lon="4.20829">
        <ele>713.943336995</ele>
        <time>2011-03-11T15:22:55.640Z</time>
      </trkpt>
      <trkpt lat="45.33877" lon="4.20831">
        <ele>713.95484186</ele>
        <time>2011-03-11T15:22:56.433Z</time>
      </trkpt>
      <trkpt lat="45.33879" lon="4.2083">
        <ele>713.919356808</ele>
        <time>2011-03-11T15:22:57.456Z</time>
      </trkpt>
      <trkpt lat="45.33884" lon="4.20837">
        <ele>713.896775769</ele>
        <time>2011-03-11T15:22:58.437Z</time>
      </trkpt>
      <trkpt lat="45.3389" lon="4.2084">
        <ele>713.870967742</ele>
        <time>2011-03-11T15:22:59.418Z</time>
      </trkpt>
      <trkpt lat="45.33894" lon="4.20843">
        <ele>713.848386703</ele>
        <time>2011-03-11T15:23:00.422Z</time>
      </trkpt>
      <trkpt lat="45.339" lon="4.20848">
        <ele>713.733333333</ele>
        <time>2011-03-11T15:23:01.422Z</time>
      </trkpt>
      <trkpt lat="45.33904" lon="4.2085">
        <ele>713.683333333</ele>
        <time>2011-03-11T15:23:02.426Z</time>
      </trkpt>
      <trkpt lat="45.33909" lon="4.20852">
        <ele>713.65333252</ele>
        <time>2011-03-11T15:23:03.425Z</time>
      </trkpt>
      <trkpt lat="45.33914" lon="4.20854">
        <ele>713.65</ele>
        <time>2011-03-11T15:23:04.457Z</time>
      </trkpt>
      <trkpt lat="45.33918" lon="4.20856">
        <ele>713.720001221</ele>
        <time>2011-03-11T15:23:05.438Z</time>
      </trkpt>
      <trkpt lat="45.33924" lon="4.20857">
        <ele>713.780000814</ele>
        <time>2011-03-11T15:23:06.698Z</time>
      </trkpt>
      <trkpt lat="45.33928" lon="4.2086">
        <ele>713.816130607</ele>
        <time>2011-03-11T15:23:07.418Z</time>
      </trkpt>
      <trkpt lat="45.33933" lon="4.20862">
        <ele>713.753334554</ele>
        <time>2011-03-11T15:23:08.451Z</time>
      </trkpt>
      <trkpt lat="45.33943" lon="4.20864">
        <ele>713.593332926</ele>
        <time>2011-03-11T15:23:10.712Z</time>
      </trkpt>
      <trkpt lat="45.33954" lon="4.20866">
        <ele>713.422579858</ele>
        <time>2011-03-11T15:23:12.429Z</time>
      </trkpt>
      <trkpt lat="45.33971" lon="4.20871">
        <ele>713.029033046</ele>
        <time>2011-03-11T15:23:15.447Z</time>
      </trkpt>
      <trkpt lat="45.33984" lon="4.20875">
        <ele>712.8</ele>
        <time>2011-03-11T15:23:18.470Z</time>
      </trkpt>
      <trkpt lat="45.34002" lon="4.20878">
        <ele>712.554839103</ele>
        <time>2011-03-11T15:23:22.479Z</time>
      </trkpt>
      <trkpt lat="45.34006" lon="4.20877">
        <ele>712.446665446</ele>
        <time>2011-03-11T15:23:23.486Z</time>
      </trkpt>
      <trkpt lat="45.34012" lon="4.20877">
        <ele>712.183333333</ele>
        <time>2011-03-11T15:23:24.456Z</time>
      </trkpt>
      <trkpt lat="45.3402" lon="4.20875">
        <ele>711.993547993</ele>
        <time>2011-03-11T15:23:25.456Z</time>
      </trkpt>
      <trkpt lat="45.34026" lon="4.20872">
        <ele>711.616666667</ele>
        <time>2011-03-11T15:23:26.459Z</time>
      </trkpt>
      <trkpt lat="45.34034" lon="4.20873">
        <ele>711.25</ele>
        <time>2011-03-11T15:23:27.462Z</time>
      </trkpt>
      <trkpt lat="45.34041" lon="4.20873">
        <ele>710.84666748</ele>
        <time>2011-03-11T15:23:28.461Z</time>
      </trkpt>
      <trkpt lat="45.3405" lon="4.20871">
        <ele>710.436667887</ele>
        <time>2011-03-11T15:23:29.497Z</time>
      </trkpt>
      <trkpt lat="45.34058" lon="4.20871">
        <ele>710.013336182</ele>
        <time>2011-03-11T15:23:30.434Z</time>
      </trkpt>
      <trkpt lat="45.34066" lon="4.20866">
        <ele>709.556669108</ele>
        <time>2011-03-11T15:23:31.451Z</time>
      </trkpt>
      <trkpt lat="45.34073" lon="4.20863">
        <ele>709.143334961</ele>
        <time>2011-03-11T15:23:32.789Z</time>
      </trkpt>
      <trkpt lat="45.34081" lon="4.20863">
        <ele>708.770001221</ele>
        <time>2011-03-11T15:23:33.449Z</time>
      </trkpt>
      <trkpt lat="45.34089" lon="4.2086">
        <ele>708.386667887</ele>
        <time>2011-03-11T15:23:34.495Z</time>
      </trkpt>
      <trkpt lat="45.34097" lon="4.20859">
        <ele>707.970001221</ele>
        <time>2011-03-11T15:23:35.460Z</time>
      </trkpt>
      <trkpt lat="45.34113" lon="4.20852">
        <ele>707.083333333</ele>
        <time>2011-03-11T15:23:37.453Z</time>
      </trkpt>
      <trkpt lat="45.34127" lon="4.20845">
        <ele>706.32666626</ele>
        <time>2011-03-11T15:23:39.453Z</time>
      </trkpt>
      <trkpt lat="45.34133" lon="4.20843">
        <ele>706.290322581</ele>
        <time>2011-03-11T15:23:40.459Z</time>
      </trkpt>
      <trkpt lat="45.34148" lon="4.20837">
        <ele>705.690000407</ele>
        <time>2011-03-11T15:23:42.487Z</time>
      </trkpt>
      <trkpt lat="45.34159" lon="4.20831">
        <ele>705.393332926</ele>
        <time>2011-03-11T15:23:44.475Z</time>
      </trkpt>
      <trkpt lat="45.34164" lon="4.20826">
        <ele>705.3</ele>
        <time>2011-03-11T15:23:45.471Z</time>
      </trkpt>
      <trkpt lat="45.3417" lon="4.20829">
        <ele>705.180000814</ele>
        <time>2011-03-11T15:23:46.737Z</time>
      </trkpt>
      <trkpt lat="45.34176" lon="4.20825">
        <ele>705.183871362</ele>
        <time>2011-03-11T15:23:47.461Z</time>
      </trkpt>
      <trkpt lat="45.34181" lon="4.20823">
        <ele>705</ele>
        <time>2011-03-11T15:23:48.512Z</time>
      </trkpt>
      <trkpt lat="45.34188" lon="4.20819">
        <ele>705.116128245</ele>
        <time>2011-03-11T15:23:49.457Z</time>
      </trkpt>
      <trkpt lat="45.34192" lon="4.20816">
        <ele>705.067741148</ele>
        <time>2011-03-11T15:23:50.456Z</time>
      </trkpt>
      <trkpt lat="45.34202" lon="4.20809">
        <ele>705.087095199</ele>
        <time>2011-03-11T15:23:52.456Z</time>
      </trkpt>
      <trkpt lat="45.34204" lon="4.20807">
        <ele>705.216127457</ele>
        <time>2011-03-11T15:23:53.460Z</time>
      </trkpt>
      <trkpt lat="45.34208" lon="4.20805">
        <ele>705.333331299</ele>
        <time>2011-03-11T15:23:54.470Z</time>
      </trkpt>
      <trkpt lat="45.34212" lon="4.20802">
        <ele>705.509997559</ele>
        <time>2011-03-11T15:23:55.497Z</time>
      </trkpt>
      <trkpt lat="45.34219" lon="4.20798">
        <ele>705.95333252</ele>
        <time>2011-03-11T15:23:57.463Z</time>
      </trkpt>
      <trkpt lat="45.34225" lon="4.20793">
        <ele>706.416127851</ele>
        <time>2011-03-11T15:23:59.473Z</time>
      </trkpt>
      <trkpt lat="45.34228" lon="4.20792">
        <ele>706.829998779</ele>
        <time>2011-03-11T15:24:00.471Z</time>
      </trkpt>
      <trkpt lat="45.34234" lon="4.20793">
        <ele>707.093332926</ele>
        <time>2011-03-11T15:24:01.470Z</time>
      </trkpt>
      <trkpt lat="45.34242" lon="4.2079">
        <ele>707.546665446</ele>
        <time>2011-03-11T15:24:03.458Z</time>
      </trkpt>
      <trkpt lat="45.34249" lon="4.20787">
        <ele>707.803224625</ele>
        <time>2011-03-11T15:24:05.429Z</time>
      </trkpt>
      <trkpt lat="45.34251" lon="4.20787">
        <ele>708.353330485</ele>
        <time>2011-03-11T15:24:07.482Z</time>
      </trkpt>
      <trkpt lat="45.34256" lon="4.20786">
        <ele>708.503330485</ele>
        <time>2011-03-11T15:24:08.482Z</time>
      </trkpt>
      <trkpt lat="45.34261" lon="4.20789">
        <ele>708.763330078</ele>
        <time>2011-03-11T15:24:10.474Z</time>
      </trkpt>
      <trkpt lat="45.34268" lon="4.20794">
        <ele>708.706448463</ele>
        <time>2011-03-11T15:24:12.474Z</time>
      </trkpt>
      <trkpt lat="45.34271" lon="4.20798">
        <ele>708.761287566</ele>
        <time>2011-03-11T15:24:13.475Z</time>
      </trkpt>
      <trkpt lat="45.34279" lon="4.20805">
        <ele>708.903330485</ele>
        <time>2011-03-11T15:24:15.514Z</time>
      </trkpt>
      <trkpt lat="45.34285" lon="4.20812">
        <ele>708.799997637</ele>
        <time>2011-03-11T15:24:16.478Z</time>
      </trkpt>
      <trkpt lat="45.3429" lon="4.20815">
        <ele>708.889998372</ele>
        <time>2011-03-11T15:24:17.470Z</time>
      </trkpt>
      <trkpt lat="45.34294" lon="4.20821">
        <ele>708.767739573</ele>
        <time>2011-03-11T15:24:18.468Z</time>
      </trkpt>
      <trkpt lat="45.34298" lon="4.20825">
        <ele>708.723331706</ele>
        <time>2011-03-11T15:24:19.467Z</time>
      </trkpt>
      <trkpt lat="45.34303" lon="4.20831">
        <ele>708.646665446</ele>
        <time>2011-03-11T15:24:20.475Z</time>
      </trkpt>
      <trkpt lat="45.34311" lon="4.20837">
        <ele>708.413332113</ele>
        <time>2011-03-11T15:24:22.497Z</time>
      </trkpt>
      <trkpt lat="45.34317" lon="4.20842">
        <ele>707.90333252</ele>
        <time>2011-03-11T15:24:24.475Z</time>
      </trkpt>
      <trkpt lat="45.34324" lon="4.20851">
        <ele>707.532258065</ele>
        <time>2011-03-11T15:24:26.432Z</time>
      </trkpt>
      <trkpt lat="45.3433" lon="4.20854">
        <ele>707.296772618</ele>
        <time>2011-03-11T15:24:27.463Z</time>
      </trkpt>
      <trkpt lat="45.34332" lon="4.20862">
        <ele>706.693332926</ele>
        <time>2011-03-11T15:24:29.479Z</time>
      </trkpt>
      <trkpt lat="45.34332" lon="4.20865">
        <ele>706.429998779</ele>
        <time>2011-03-11T15:24:30.479Z</time>
      </trkpt>
      <trkpt lat="45.34333" lon="4.20869">
        <ele>706.193330892</ele>
        <time>2011-03-11T15:24:31.492Z</time>
      </trkpt>
      <trkpt lat="45.34333" lon="4.20872">
        <ele>705.926664225</ele>
        <time>2011-03-11T15:24:32.509Z</time>
      </trkpt>
      <trkpt lat="45.34334" lon="4.20883">
        <ele>705.066664632</ele>
        <time>2011-03-11T15:24:35.490Z</time>
      </trkpt>
      <trkpt lat="45.34336" lon="4.20889">
        <ele>704.736665853</ele>
        <time>2011-03-11T15:24:36.519Z</time>
      </trkpt>
      <trkpt lat="45.34339" lon="4.20894">
        <ele>704.348384734</ele>
        <time>2011-03-11T15:24:38.477Z</time>
      </trkpt>
      <trkpt lat="45.34338" lon="4.20895">
        <ele>704.077416205</ele>
        <time>2011-03-11T15:24:39.478Z</time>
      </trkpt>
      <trkpt lat="45.34338" lon="4.20903">
        <ele>703.361288747</ele>
        <time>2011-03-11T15:24:41.478Z</time>
      </trkpt>
      <trkpt lat="45.34338" lon="4.20907">
        <ele>702.9</ele>
        <time>2011-03-11T15:24:42.496Z</time>
      </trkpt>
      <trkpt lat="45.34338" lon="4.20911">
        <ele>702.648386309</ele>
        <time>2011-03-11T15:24:43.466Z</time>
      </trkpt>
      <trkpt lat="45.34338" lon="4.20916">
        <ele>702.245160503</ele>
        <time>2011-03-11T15:24:44.477Z</time>
      </trkpt>
      <trkpt lat="45.3434" lon="4.20932">
        <ele>700.943330892</ele>
        <time>2011-03-11T15:24:47.480Z</time>
      </trkpt>
      <trkpt lat="45.3434" lon="4.20941">
        <ele>700.273331706</ele>
        <time>2011-03-11T15:24:49.472Z</time>
      </trkpt>
      <trkpt lat="45.34341" lon="4.20945">
        <ele>700.06451416</ele>
        <time>2011-03-11T15:24:50.463Z</time>
      </trkpt>
      <trkpt lat="45.34343" lon="4.20941">
        <ele>699.745160503</ele>
        <time>2011-03-11T15:24:51.469Z</time>
      </trkpt>
      <trkpt lat="45.34343" lon="4.20942">
        <ele>699.179998779</ele>
        <time>2011-03-11T15:24:52.532Z</time>
      </trkpt>
      <trkpt lat="45.34343" lon="4.20947">
        <ele>698.363332113</ele>
        <time>2011-03-11T15:24:55.486Z</time>
      </trkpt>
      <trkpt lat="45.34345" lon="4.20948">
        <ele>697.976664225</ele>
        <time>2011-03-11T15:24:56.510Z</time>
      </trkpt>
      <trkpt lat="45.34346" lon="4.20949">
        <ele>697.543330892</ele>
        <time>2011-03-11T15:24:57.476Z</time>
      </trkpt>
      <trkpt lat="45.3435" lon="4.20947">
        <ele>697.076664225</ele>
        <time>2011-03-11T15:24:58.485Z</time>
      </trkpt>
      <trkpt lat="45.34353" lon="4.20948">
        <ele>696.686663818</ele>
        <time>2011-03-11T15:24:59.483Z</time>
      </trkpt>
      <trkpt lat="45.34357" lon="4.20948">
        <ele>695.993330892</ele>
        <time>2011-03-11T15:25:01.510Z</time>
      </trkpt>
      <trkpt lat="45.34359" lon="4.20948">
        <ele>695.916125882</ele>
        <time>2011-03-11T15:25:02.496Z</time>
      </trkpt>
      <trkpt lat="45.34364" lon="4.20954">
        <ele>695.619353264</ele>
        <time>2011-03-11T15:25:03.480Z</time>
      </trkpt>
      <trkpt lat="45.34368" lon="4.20957">
        <ele>695.149997965</ele>
        <time>2011-03-11T15:25:04.480Z</time>
      </trkpt>
      <trkpt lat="45.34372" lon="4.20958">
        <ele>694.823331706</ele>
        <time>2011-03-11T15:25:05.500Z</time>
      </trkpt>
      <trkpt lat="45.34379" lon="4.2096">
        <ele>694.616128245</ele>
        <time>2011-03-11T15:25:06.483Z</time>
      </trkpt>
      <trkpt lat="45.34393" lon="4.20964">
        <ele>693.861290716</ele>
        <time>2011-03-11T15:25:08.477Z</time>
      </trkpt>
      <trkpt lat="45.34399" lon="4.20962">
        <ele>693.266668701</ele>
        <time>2011-03-11T15:25:09.484Z</time>
      </trkpt>
      <trkpt lat="45.34405" lon="4.20967">
        <ele>693.032260033</ele>
        <time>2011-03-11T15:25:10.483Z</time>
      </trkpt>
      <trkpt lat="45.34411" lon="4.2097">
        <ele>692.556667074</ele>
        <time>2011-03-11T15:25:11.483Z</time>
      </trkpt>
      <trkpt lat="45.34417" lon="4.20971">
        <ele>692.296774587</ele>
        <time>2011-03-11T15:25:12.480Z</time>
      </trkpt>
      <trkpt lat="45.34421" lon="4.20973">
        <ele>691.809999593</ele>
        <time>2011-03-11T15:25:13.481Z</time>
      </trkpt>
      <trkpt lat="45.34427" lon="4.20975">
        <ele>691.406665039</ele>
        <time>2011-03-11T15:25:14.481Z</time>
      </trkpt>
      <trkpt lat="45.34432" lon="4.20975">
        <ele>690.969999186</ele>
        <time>2011-03-11T15:25:15.494Z</time>
      </trkpt>
      <trkpt lat="45.34437" lon="4.20979">
        <ele>690.569999186</ele>
        <time>2011-03-11T15:25:16.492Z</time>
      </trkpt>
      <trkpt lat="45.34445" lon="4.20984">
        <ele>689.819351689</ele>
        <time>2011-03-11T15:25:18.477Z</time>
      </trkpt>
      <trkpt lat="45.34444" lon="4.20981">
        <ele>689.206663005</ele>
        <time>2011-03-11T15:25:19.482Z</time>
      </trkpt>
      <trkpt lat="45.34446" lon="4.20982">
        <ele>688.846663411</ele>
        <time>2011-03-11T15:25:20.476Z</time>
      </trkpt>
      <trkpt lat="45.34449" lon="4.20982">
        <ele>688.399995931</ele>
        <time>2011-03-11T15:25:21.525Z</time>
      </trkpt>
      <trkpt lat="45.34452" lon="4.20984">
        <ele>688.216125488</ele>
        <time>2011-03-11T15:25:22.512Z</time>
      </trkpt>
      <trkpt lat="45.34456" lon="4.20986">
        <ele>687.149995931</ele>
        <time>2011-03-11T15:25:24.488Z</time>
      </trkpt>
      <trkpt lat="45.34462" lon="4.2099">
        <ele>686.580641224</ele>
        <time>2011-03-11T15:25:26.485Z</time>
      </trkpt>
      <trkpt lat="45.34465" lon="4.20987">
        <ele>686.189998372</ele>
        <time>2011-03-11T15:25:27.485Z</time>
      </trkpt>
      <trkpt lat="45.34467" lon="4.20986">
        <ele>686.196773406</ele>
        <time>2011-03-11T15:25:28.483Z</time>
      </trkpt>
      <trkpt lat="45.34469" lon="4.20987">
        <ele>685.829998779</ele>
        <time>2011-03-11T15:25:29.504Z</time>
      </trkpt>
      <trkpt lat="45.34471" lon="4.20988">
        <ele>685.825805664</ele>
        <time>2011-03-11T15:25:30.491Z</time>
      </trkpt>
      <trkpt lat="45.34474" lon="4.20989">
        <ele>685.593549175</ele>
        <time>2011-03-11T15:25:31.487Z</time>
      </trkpt>
      <trkpt lat="45.34479" lon="4.20989">
        <ele>684.840000407</ele>
        <time>2011-03-11T15:25:33.516Z</time>
      </trkpt>
      <trkpt lat="45.34488" lon="4.20993">
        <ele>684.12666626</ele>
        <time>2011-03-11T15:25:36.485Z</time>
      </trkpt>
      <trkpt lat="45.34494" lon="4.20993">
        <ele>683.769999186</ele>
        <time>2011-03-11T15:25:38.483Z</time>
      </trkpt>
      <trkpt lat="45.34499" lon="4.20995">
        <ele>683.606665039</ele>
        <time>2011-03-11T15:25:39.487Z</time>
      </trkpt>
      <trkpt lat="45.34502" lon="4.20997">
        <ele>683.436665853</ele>
        <time>2011-03-11T15:25:40.486Z</time>
      </trkpt>
      <trkpt lat="45.34505" lon="4.20997">
        <ele>683.236665853</ele>
        <time>2011-03-11T15:25:41.485Z</time>
      </trkpt>
      <trkpt lat="45.34506" lon="4.21006">
        <ele>682.87666626</ele>
        <time>2011-03-11T15:25:42.484Z</time>
      </trkpt>
      <trkpt lat="45.34507" lon="4.21013">
        <ele>682.013334147</ele>
        <time>2011-03-11T15:25:44.486Z</time>
      </trkpt>
      <trkpt lat="45.34509" lon="4.21017">
        <ele>681.174194336</ele>
        <time>2011-03-11T15:25:46.489Z</time>
      </trkpt>
      <trkpt lat="45.34509" lon="4.21022">
        <ele>680.741937453</ele>
        <time>2011-03-11T15:25:47.494Z</time>
      </trkpt>
      <trkpt lat="45.34512" lon="4.21026">
        <ele>680.280002848</ele>
        <time>2011-03-11T15:25:48.486Z</time>
      </trkpt>
      <trkpt lat="45.34511" lon="4.21019">
        <ele>679.716670736</ele>
        <time>2011-03-11T15:25:49.540Z</time>
      </trkpt>
      <trkpt lat="45.34514" lon="4.2102">
        <ele>679.063338216</ele>
        <time>2011-03-11T15:25:50.691Z</time>
      </trkpt>
      <trkpt lat="45.34515" lon="4.21019">
        <ele>678.42000529</ele>
        <time>2011-03-11T15:25:51.551Z</time>
      </trkpt>
      <trkpt lat="45.34518" lon="4.21018">
        <ele>677.710005697</ele>
        <time>2011-03-11T15:25:52.890Z</time>
      </trkpt>
      <trkpt lat="45.3452" lon="4.21018">
        <ele>677.183877268</ele>
        <time>2011-03-11T15:25:53.483Z</time>
      </trkpt>
      <trkpt lat="45.34522" lon="4.21015">
        <ele>676.480651855</ele>
        <time>2011-03-11T15:25:54.484Z</time>
      </trkpt>
      <trkpt lat="45.34526" lon="4.21014">
        <ele>675.729039346</ele>
        <time>2011-03-11T15:25:55.505Z</time>
      </trkpt>
      <trkpt lat="45.34529" lon="4.21014">
        <ele>674.693341064</ele>
        <time>2011-03-11T15:25:56.514Z</time>
      </trkpt>
      <trkpt lat="45.34532" lon="4.21016">
        <ele>673.820007324</ele>
        <time>2011-03-11T15:25:57.539Z</time>
      </trkpt>
      <trkpt lat="45.34538" lon="4.2102">
        <ele>672.522586946</ele>
        <time>2011-03-11T15:25:59.444Z</time>
      </trkpt>
      <trkpt lat="45.34539" lon="4.21016">
        <ele>671.674200243</ele>
        <time>2011-03-11T15:26:00.442Z</time>
      </trkpt>
      <trkpt lat="45.34542" lon="4.21021">
        <ele>670.877425655</ele>
        <time>2011-03-11T15:26:01.444Z</time>
      </trkpt>
      <trkpt lat="45.34546" lon="4.21017">
        <ele>670.093553112</ele>
        <time>2011-03-11T15:26:02.445Z</time>
      </trkpt>
      <trkpt lat="45.34546" lon="4.21015">
        <ele>669.32903659</ele>
        <time>2011-03-11T15:26:03.481Z</time>
      </trkpt>
      <trkpt lat="45.34548" lon="4.21013">
        <ele>668.040004476</ele>
        <time>2011-03-11T15:26:04.499Z</time>
      </trkpt>
      <trkpt lat="45.34552" lon="4.21014">
        <ele>667.256671143</ele>
        <time>2011-03-11T15:26:05.485Z</time>
      </trkpt>
      <trkpt lat="45.34555" lon="4.21012">
        <ele>666.280649493</ele>
        <time>2011-03-11T15:26:07.496Z</time>
      </trkpt>
      <trkpt lat="45.34554" lon="4.21015">
        <ele>665.570972073</ele>
        <time>2011-03-11T15:26:08.478Z</time>
      </trkpt>
      <trkpt lat="45.34557" lon="4.21018">
        <ele>664.841938634</ele>
        <time>2011-03-11T15:26:09.485Z</time>
      </trkpt>
      <trkpt lat="45.3456" lon="4.21016">
        <ele>663.006669108</ele>
        <time>2011-03-11T15:26:11.553Z</time>
      </trkpt>
      <trkpt lat="45.34561" lon="4.21014">
        <ele>662.636667887</ele>
        <time>2011-03-11T15:26:12.521Z</time>
      </trkpt>
      <trkpt lat="45.34563" lon="4.21016">
        <ele>662.606453188</ele>
        <time>2011-03-11T15:26:13.466Z</time>
      </trkpt>
      <trkpt lat="45.34564" lon="4.21015">
        <ele>662.319355626</ele>
        <time>2011-03-11T15:26:14.447Z</time>
      </trkpt>
      <trkpt lat="45.34564" lon="4.21012">
        <ele>662.000001969</ele>
        <time>2011-03-11T15:26:15.472Z</time>
      </trkpt>
      <trkpt lat="45.34567" lon="4.21011">
        <ele>661.606453188</ele>
        <time>2011-03-11T15:26:16.472Z</time>
      </trkpt>
      <trkpt lat="45.34566" lon="4.21008">
        <ele>661.138711253</ele>
        <time>2011-03-11T15:26:17.475Z</time>
      </trkpt>
      <trkpt lat="45.34568" lon="4.21006">
        <ele>660.619355232</ele>
        <time>2011-03-11T15:26:18.476Z</time>
      </trkpt>
      <trkpt lat="45.34571" lon="4.21006">
        <ele>659.596665446</ele>
        <time>2011-03-11T15:26:20.869Z</time>
      </trkpt>
      <trkpt lat="45.34573" lon="4.21006">
        <ele>659.341934696</ele>
        <time>2011-03-11T15:26:21.490Z</time>
      </trkpt>
      <trkpt lat="45.34571" lon="4.21009">
        <ele>658.529996745</ele>
        <time>2011-03-11T15:26:23.486Z</time>
      </trkpt>
      <trkpt lat="45.34571" lon="4.21012">
        <ele>658.199995931</ele>
        <time>2011-03-11T15:26:24.490Z</time>
      </trkpt>
      <trkpt lat="45.34572" lon="4.21013">
        <ele>657.94193194</ele>
        <time>2011-03-11T15:26:25.464Z</time>
      </trkpt>
      <trkpt lat="45.34572" lon="4.21016">
        <ele>657.561287172</ele>
        <time>2011-03-11T15:26:26.475Z</time>
      </trkpt>
      <trkpt lat="45.34573" lon="4.21018">
        <ele>657.19031943</ele>
        <time>2011-03-11T15:26:27.469Z</time>
      </trkpt>
      <trkpt lat="45.34576" lon="4.21016">
        <ele>656.783866636</ele>
        <time>2011-03-11T15:26:28.492Z</time>
      </trkpt>
      <trkpt lat="45.34577" lon="4.21015">
        <ele>656.219995117</ele>
        <time>2011-03-11T15:26:29.491Z</time>
      </trkpt>
      <trkpt lat="45.34578" lon="4.21015">
        <ele>655.796661377</ele>
        <time>2011-03-11T15:26:30.487Z</time>
      </trkpt>
      <trkpt lat="45.34581" lon="4.21017">
        <ele>654.986661784</ele>
        <time>2011-03-11T15:26:32.497Z</time>
      </trkpt>
      <trkpt lat="45.34583" lon="4.21018">
        <ele>654.435479933</ele>
        <time>2011-03-11T15:26:34.495Z</time>
      </trkpt>
      <trkpt lat="45.34582" lon="4.21018">
        <ele>653.873329671</ele>
        <time>2011-03-11T15:26:35.599Z</time>
      </trkpt>
      <trkpt lat="45.34581" lon="4.21018">
        <ele>652.883329264</ele>
        <time>2011-03-11T15:26:38.491Z</time>
      </trkpt>
      <trkpt lat="45.34582" lon="4.21017">
        <ele>651.806665039</ele>
        <time>2011-03-11T15:26:41.730Z</time>
      </trkpt>
      <trkpt lat="45.34584" lon="4.21018">
        <ele>650.729029502</ele>
        <time>2011-03-11T15:26:45.471Z</time>
      </trkpt>
      <trkpt lat="45.34583" lon="4.21019">
        <ele>650.379998779</ele>
        <time>2011-03-11T15:26:48.538Z</time>
      </trkpt>
      <trkpt lat="45.34582" lon="4.21022">
        <ele>650.666666667</ele>
        <time>2011-03-11T15:26:51.592Z</time>
      </trkpt>
      <trkpt lat="45.34582" lon="4.21024">
        <ele>650.990000407</ele>
        <time>2011-03-11T15:26:53.697Z</time>
      </trkpt>
      <trkpt lat="45.34582" lon="4.21026">
        <ele>651.177419355</ele>
        <time>2011-03-11T15:26:54.483Z</time>
      </trkpt>
      <trkpt lat="45.34583" lon="4.21026">
        <ele>652.029998779</ele>
        <time>2011-03-11T15:26:57.912Z</time>
      </trkpt>
      <trkpt lat="45.34588" lon="4.21031">
        <ele>652.716129426</ele>
        <time>2011-03-11T15:27:00.478Z</time>
      </trkpt>
      <trkpt lat="45.34591" lon="4.21039">
        <ele>653.135484265</ele>
        <time>2011-03-11T15:27:03.485Z</time>
      </trkpt>
      <trkpt lat="45.34592" lon="4.21042">
        <ele>653.154840285</ele>
        <time>2011-03-11T15:27:05.483Z</time>
      </trkpt>
      <trkpt lat="45.34592" lon="4.21046">
        <ele>653.1032262</ele>
        <time>2011-03-11T15:27:06.487Z</time>
      </trkpt>
      <trkpt lat="45.34592" lon="4.21051">
        <ele>652.980645949</ele>
        <time>2011-03-11T15:27:09.481Z</time>
      </trkpt>
      <trkpt lat="45.34593" lon="4.21055">
        <ele>652.954839891</ele>
        <time>2011-03-11T15:27:11.482Z</time>
      </trkpt>
      <trkpt lat="45.34593" lon="4.21057">
        <ele>652.97333374</ele>
        <time>2011-03-11T15:27:12.529Z</time>
      </trkpt>
      <trkpt lat="45.34594" lon="4.21059">
        <ele>652.938710859</ele>
        <time>2011-03-11T15:27:14.476Z</time>
      </trkpt>
      <trkpt lat="45.34596" lon="4.2106">
        <ele>653.033335368</ele>
        <time>2011-03-11T15:27:15.493Z</time>
      </trkpt>
      <trkpt lat="45.34597" lon="4.21062">
        <ele>652.876668294</ele>
        <time>2011-03-11T15:27:17.881Z</time>
      </trkpt>
      <trkpt lat="45.34596" lon="4.21063">
        <ele>652.654840285</ele>
        <time>2011-03-11T15:27:21.470Z</time>
      </trkpt>
      <trkpt lat="45.34596" lon="4.21063">
        <ele>652.503226988</ele>
        <time>2011-03-11T15:27:24.458Z</time>
      </trkpt>
      <trkpt lat="45.34597" lon="4.21064">
        <ele>652.270970498</ele>
        <time>2011-03-11T15:27:27.493Z</time>
      </trkpt>
      <trkpt lat="45.34597" lon="4.21065">
        <ele>651.973335775</ele>
        <time>2011-03-11T15:27:30.496Z</time>
      </trkpt>
      <trkpt lat="45.34597" lon="4.21065">
        <ele>652.122584189</ele>
        <time>2011-03-11T15:27:34.484Z</time>
      </trkpt>
      <trkpt lat="45.34597" lon="4.21064">
        <ele>652.333335368</ele>
        <time>2011-03-11T15:27:35.515Z</time>
      </trkpt>
      <trkpt lat="45.34597" lon="4.21064">
        <ele>652.977422899</ele>
        <time>2011-03-11T15:27:39.478Z</time>
      </trkpt>
      <trkpt lat="45.34597" lon="4.21064">
        <ele>653.860005697</ele>
        <time>2011-03-11T15:27:43.482Z</time>
      </trkpt>
      <trkpt lat="45.34597" lon="4.21064">
        <ele>654.154842254</ele>
        <time>2011-03-11T15:27:47.482Z</time>
      </trkpt>
      <trkpt lat="45.34597" lon="4.21064">
        <ele>654.65</ele>
        <time>2011-03-11T15:27:51.484Z</time>
      </trkpt>
      <trkpt lat="45.34599" lon="4.21066">
        <ele>654.809999593</ele>
        <time>2011-03-11T15:27:52.502Z</time>
      </trkpt>
      <trkpt lat="45.34604" lon="4.2107">
        <ele>655.086667887</ele>
        <time>2011-03-11T15:27:54.484Z</time>
      </trkpt>
      <trkpt lat="45.34608" lon="4.21073">
        <ele>655.17666626</ele>
        <time>2011-03-11T15:27:55.533Z</time>
      </trkpt>
      <trkpt lat="45.34609" lon="4.21073">
        <ele>655.264516523</ele>
        <time>2011-03-11T15:27:56.473Z</time>
      </trkpt>
      <trkpt lat="45.34615" lon="4.21079">
        <ele>655.330000814</ele>
        <time>2011-03-11T15:27:57.549Z</time>
      </trkpt>
      <trkpt lat="45.34618" lon="4.21076">
        <ele>655.39666748</ele>
        <time>2011-03-11T15:27:58.528Z</time>
      </trkpt>
      <trkpt lat="45.34617" lon="4.21078">
        <ele>655.686665853</ele>
        <time>2011-03-11T15:28:02.503Z</time>
      </trkpt>
      <trkpt lat="45.34619" lon="4.21079">
        <ele>656.036665853</ele>
        <time>2011-03-11T15:28:06.503Z</time>
      </trkpt>
      <trkpt lat="45.3462" lon="4.2108">
        <ele>656.306665039</ele>
        <time>2011-03-11T15:28:09.532Z</time>
      </trkpt>
      <trkpt lat="45.34621" lon="4.21082">
        <ele>656.659995524</ele>
        <time>2011-03-11T15:28:13.486Z</time>
      </trkpt>
      <trkpt lat="45.34621" lon="4.21083">
        <ele>656.813328044</ele>
        <time>2011-03-11T15:28:14.502Z</time>
      </trkpt>
      <trkpt lat="45.34624" lon="4.21087">
        <ele>657.133331299</ele>
        <time>2011-03-11T15:28:16.503Z</time>
      </trkpt>
      <trkpt lat="45.34625" lon="4.21089">
        <ele>657.243332926</ele>
        <time>2011-03-11T15:28:17.500Z</time>
      </trkpt>
      <trkpt lat="45.34626" lon="4.2109">
        <ele>657.412904801</ele>
        <time>2011-03-11T15:28:19.488Z</time>
      </trkpt>
      <trkpt lat="45.34626" lon="4.21092">
        <ele>657.763336182</ele>
        <time>2011-03-11T15:28:21.910Z</time>
      </trkpt>
      <trkpt lat="45.34628" lon="4.21092">
        <ele>657.813336182</ele>
        <time>2011-03-11T15:28:22.532Z</time>
      </trkpt>
      <trkpt lat="45.34628" lon="4.21092">
        <ele>657.964518885</ele>
        <time>2011-03-11T15:28:26.471Z</time>
      </trkpt>
      <trkpt lat="45.34628" lon="4.21092">
        <ele>658.287099531</ele>
        <time>2011-03-11T15:28:29.494Z</time>
      </trkpt>
      <trkpt lat="45.34629" lon="4.21092">
        <ele>658.57742408</ele>
        <time>2011-03-11T15:28:32.502Z</time>
      </trkpt>
      <trkpt lat="45.34629" lon="4.21092">
        <ele>658.867744692</ele>
        <time>2011-03-11T15:28:36.459Z</time>
      </trkpt>
      <trkpt lat="45.34629" lon="4.21092">
        <ele>659.08064713</ele>
        <time>2011-03-11T15:28:40.462Z</time>
      </trkpt>
      <trkpt lat="45.3463" lon="4.21093">
        <ele>659.238712434</ele>
        <time>2011-03-11T15:28:43.462Z</time>
      </trkpt>
      <trkpt lat="45.34636" lon="4.21095">
        <ele>659.441937847</ele>
        <time>2011-03-11T15:28:46.466Z</time>
      </trkpt>
      <trkpt lat="45.34637" lon="4.21094">
        <ele>659.596776162</ele>
        <time>2011-03-11T15:28:47.461Z</time>
      </trkpt>
      <trkpt lat="45.34639" lon="4.21096">
        <ele>659.841936665</ele>
        <time>2011-03-11T15:28:48.464Z</time>
      </trkpt>
      <trkpt lat="45.34641" lon="4.21099">
        <ele>660.393332926</ele>
        <time>2011-03-11T15:28:50.536Z</time>
      </trkpt>
      <trkpt lat="45.34643" lon="4.21103">
        <ele>660.622580251</ele>
        <time>2011-03-11T15:28:51.505Z</time>
      </trkpt>
      <trkpt lat="45.34645" lon="4.21104">
        <ele>660.854836741</ele>
        <time>2011-03-11T15:28:52.507Z</time>
      </trkpt>
      <trkpt lat="45.34646" lon="4.21104">
        <ele>661.419997152</ele>
        <time>2011-03-11T15:28:54.529Z</time>
      </trkpt>
      <trkpt lat="45.34647" lon="4.21104">
        <ele>661.596772225</ele>
        <time>2011-03-11T15:28:55.495Z</time>
      </trkpt>
      <trkpt lat="45.3465" lon="4.21106">
        <ele>661.83548269</ele>
        <time>2011-03-11T15:28:56.463Z</time>
      </trkpt>
      <trkpt lat="45.3465" lon="4.21107">
        <ele>662.067741148</ele>
        <time>2011-03-11T15:28:57.494Z</time>
      </trkpt>
      <trkpt lat="45.34653" lon="4.21108">
        <ele>662.970964986</ele>
        <time>2011-03-11T15:29:01.491Z</time>
      </trkpt>
      <trkpt lat="45.34654" lon="4.21112">
        <ele>664.216664632</ele>
        <time>2011-03-11T15:29:05.528Z</time>
      </trkpt>
      <trkpt lat="45.34655" lon="4.21112">
        <ele>665.009999593</ele>
        <time>2011-03-11T15:29:08.532Z</time>
      </trkpt>
      <trkpt lat="45.34656" lon="4.21111">
        <ele>666.090000407</ele>
        <time>2011-03-11T15:29:12.469Z</time>
      </trkpt>
      <trkpt lat="45.34656" lon="4.21111">
        <ele>666.839998372</ele>
        <time>2011-03-11T15:29:15.496Z</time>
      </trkpt>
      <trkpt lat="45.34656" lon="4.21111">
        <ele>667.145159321</ele>
        <time>2011-03-11T15:29:19.487Z</time>
      </trkpt>
      <trkpt lat="45.34656" lon="4.21111">
        <ele>667.225804483</ele>
        <time>2011-03-11T15:29:22.490Z</time>
      </trkpt>
      <trkpt lat="45.34656" lon="4.21111">
        <ele>667.309997559</ele>
        <time>2011-03-11T15:29:25.616Z</time>
      </trkpt>
      <trkpt lat="45.34656" lon="4.21111">
        <ele>667.445158928</ele>
        <time>2011-03-11T15:29:29.478Z</time>
      </trkpt>
      <trkpt lat="45.34656" lon="4.21111">
        <ele>667.509677026</ele>
        <time>2011-03-11T15:29:32.495Z</time>
      </trkpt>
      <trkpt lat="45.34656" lon="4.21111">
        <ele>667.577416205</ele>
        <time>2011-03-11T15:29:36.496Z</time>
      </trkpt>
      <trkpt lat="45.34656" lon="4.21111">
        <ele>667.629026351</ele>
        <time>2011-03-11T15:29:39.540Z</time>
      </trkpt>
      <trkpt lat="45.34656" lon="4.21111">
        <ele>667.673323568</ele>
        <time>2011-03-11T15:29:43.496Z</time>
      </trkpt>
      <trkpt lat="45.34656" lon="4.21111">
        <ele>667.683323161</ele>
        <time>2011-03-11T15:29:47.502Z</time>
      </trkpt>
      <trkpt lat="45.34656" lon="4.2111">
        <ele>667.676656087</ele>
        <time>2011-03-11T15:29:48.522Z</time>
      </trkpt>
      <trkpt lat="45.34659" lon="4.21109">
        <ele>667.756656901</ele>
        <time>2011-03-11T15:29:50.526Z</time>
      </trkpt>
      <trkpt lat="45.34661" lon="4.21104">
        <ele>667.919991048</ele>
        <time>2011-03-11T15:29:51.563Z</time>
      </trkpt>
      <trkpt lat="45.34661" lon="4.21103">
        <ele>668.036657715</ele>
        <time>2011-03-11T15:29:52.523Z</time>
      </trkpt>
      <trkpt lat="45.3466" lon="4.21108">
        <ele>668.233323161</ele>
        <time>2011-03-11T15:29:53.530Z</time>
      </trkpt>
      <trkpt lat="45.34661" lon="4.21104">
        <ele>669.054829259</ele>
        <time>2011-03-11T15:29:56.518Z</time>
      </trkpt>
      <trkpt lat="45.3466" lon="4.21104">
        <ele>669.86450786</ele>
        <time>2011-03-11T15:29:58.484Z</time>
      </trkpt>
      <trkpt lat="45.34659" lon="4.21105">
        <ele>670.433323161</ele>
        <time>2011-03-11T15:29:59.540Z</time>
      </trkpt>
      <trkpt lat="45.3466" lon="4.21107">
        <ele>670.767731697</ele>
        <time>2011-03-11T15:30:00.504Z</time>
      </trkpt>
      <trkpt lat="45.34662" lon="4.21104">
        <ele>672.067729335</ele>
        <time>2011-03-11T15:30:03.516Z</time>
      </trkpt>
      <trkpt lat="45.34662" lon="4.21102">
        <ele>673.945151052</ele>
        <time>2011-03-11T15:30:07.464Z</time>
      </trkpt>
      <trkpt lat="45.34663" lon="4.211">
        <ele>675.329024776</ele>
        <time>2011-03-11T15:30:10.511Z</time>
      </trkpt>
      <trkpt lat="45.34663" lon="4.211">
        <ele>677.119349326</ele>
        <time>2011-03-11T15:30:14.506Z</time>
      </trkpt>
      <trkpt lat="45.34663" lon="4.21099">
        <ele>678.359997559</ele>
        <time>2011-03-11T15:30:16.495Z</time>
      </trkpt>
      <trkpt lat="45.34664" lon="4.21096">
        <ele>678.874190792</ele>
        <time>2011-03-11T15:30:18.492Z</time>
      </trkpt>
      <trkpt lat="45.34665" lon="4.21092">
        <ele>679.745158534</ele>
        <time>2011-03-11T15:30:20.511Z</time>
      </trkpt>
      <trkpt lat="45.34663" lon="4.2109">
        <ele>680.064512191</ele>
        <time>2011-03-11T15:30:21.534Z</time>
      </trkpt>
      <trkpt lat="45.34663" lon="4.21088">
        <ele>680.613330078</ele>
        <time>2011-03-11T15:30:22.531Z</time>
      </trkpt>
      <trkpt lat="45.34662" lon="4.21085">
        <ele>680.603222262</ele>
        <time>2011-03-11T15:30:23.516Z</time>
      </trkpt>
      <trkpt lat="45.34663" lon="4.21079">
        <ele>681.249997965</ele>
        <time>2011-03-11T15:30:27.536Z</time>
      </trkpt>
      <trkpt lat="45.34663" lon="4.21077">
        <ele>681.226664225</ele>
        <time>2011-03-11T15:30:28.521Z</time>
      </trkpt>
      <trkpt lat="45.34665" lon="4.21074">
        <ele>681.141934303</ele>
        <time>2011-03-11T15:30:30.495Z</time>
      </trkpt>
      <trkpt lat="45.34666" lon="4.21072">
        <ele>681.148386309</ele>
        <time>2011-03-11T15:30:31.507Z</time>
      </trkpt>
      <trkpt lat="45.34667" lon="4.21069">
        <ele>681.180000814</ele>
        <time>2011-03-11T15:30:32.508Z</time>
      </trkpt>
      <trkpt lat="45.34668" lon="4.21064">
        <ele>681.283870574</ele>
        <time>2011-03-11T15:30:35.508Z</time>
      </trkpt>
      <trkpt lat="45.34669" lon="4.21062">
        <ele>681.32333374</ele>
        <time>2011-03-11T15:30:36.518Z</time>
      </trkpt>
      <trkpt lat="45.34671" lon="4.2106">
        <ele>681.39666748</ele>
        <time>2011-03-11T15:30:37.507Z</time>
      </trkpt>
      <trkpt lat="45.34671" lon="4.21059">
        <ele>681.448387884</ele>
        <time>2011-03-11T15:30:38.507Z</time>
      </trkpt>
      <trkpt lat="45.34672" lon="4.21059">
        <ele>681.45</ele>
        <time>2011-03-11T15:30:39.516Z</time>
      </trkpt>
      <trkpt lat="45.34671" lon="4.21057">
        <ele>681.436665853</ele>
        <time>2011-03-11T15:30:40.514Z</time>
      </trkpt>
      <trkpt lat="45.34672" lon="4.21055">
        <ele>681.433333333</ele>
        <time>2011-03-11T15:30:41.532Z</time>
      </trkpt>
      <trkpt lat="45.34673" lon="4.21053">
        <ele>681.422579858</ele>
        <time>2011-03-11T15:30:42.502Z</time>
      </trkpt>
      <trkpt lat="45.34672" lon="4.21054">
        <ele>681.451612903</ele>
        <time>2011-03-11T15:30:43.494Z</time>
      </trkpt>
      <trkpt lat="45.34672" lon="4.21051">
        <ele>681.493334961</ele>
        <time>2011-03-11T15:30:44.507Z</time>
      </trkpt>
      <trkpt lat="45.34673" lon="4.2105">
        <ele>681.54666748</ele>
        <time>2011-03-11T15:30:45.507Z</time>
      </trkpt>
      <trkpt lat="45.34673" lon="4.21048">
        <ele>681.606667074</ele>
        <time>2011-03-11T15:30:46.509Z</time>
      </trkpt>
      <trkpt lat="45.34673" lon="4.21048">
        <ele>681.736665853</ele>
        <time>2011-03-11T15:30:47.536Z</time>
      </trkpt>
      <trkpt lat="45.34672" lon="4.21048">
        <ele>681.94666748</ele>
        <time>2011-03-11T15:30:48.770Z</time>
      </trkpt>
      <trkpt lat="45.34672" lon="4.21047">
        <ele>682.183333333</ele>
        <time>2011-03-11T15:30:49.514Z</time>
      </trkpt>
      <trkpt lat="45.34672" lon="4.21043">
        <ele>682.616130214</ele>
        <time>2011-03-11T15:30:51.515Z</time>
      </trkpt>
      <trkpt lat="45.34676" lon="4.21038">
        <ele>683.974193942</ele>
        <time>2011-03-11T15:30:55.497Z</time>
      </trkpt>
      <trkpt lat="45.34678" lon="4.21036">
        <ele>684.486665853</ele>
        <time>2011-03-11T15:30:56.511Z</time>
      </trkpt>
      <trkpt lat="45.34679" lon="4.21037">
        <ele>684.738708496</ele>
        <time>2011-03-11T15:30:57.515Z</time>
      </trkpt>
      <trkpt lat="45.34681" lon="4.21036">
        <ele>685.135482296</ele>
        <time>2011-03-11T15:30:58.508Z</time>
      </trkpt>
      <trkpt lat="45.34683" lon="4.21036">
        <ele>686.073329671</ele>
        <time>2011-03-11T15:31:00.510Z</time>
      </trkpt>
      <trkpt lat="45.34684" lon="4.21034">
        <ele>686.446663411</ele>
        <time>2011-03-11T15:31:01.527Z</time>
      </trkpt>
      <trkpt lat="45.34684" lon="4.21032">
        <ele>687.036661784</ele>
        <time>2011-03-11T15:31:03.569Z</time>
      </trkpt>
      <trkpt lat="45.34688" lon="4.2103">
        <ele>687.923329671</ele>
        <time>2011-03-11T15:31:07.509Z</time>
      </trkpt>
      <trkpt lat="45.3469" lon="4.21031">
        <ele>688.309674663</ele>
        <time>2011-03-11T15:31:09.505Z</time>
      </trkpt>
      <trkpt lat="45.34692" lon="4.21032">
        <ele>688.577418174</ele>
        <time>2011-03-11T15:31:10.513Z</time>
      </trkpt>
      <trkpt lat="45.34691" lon="4.21034">
        <ele>688.909675844</ele>
        <time>2011-03-11T15:31:11.509Z</time>
      </trkpt>
      <trkpt lat="45.34692" lon="4.21032">
        <ele>689.909997559</ele>
        <time>2011-03-11T15:31:13.534Z</time>
      </trkpt>
      <trkpt lat="45.34692" lon="4.21033">
        <ele>690.333329264</ele>
        <time>2011-03-11T15:31:14.522Z</time>
      </trkpt>
      <trkpt lat="45.34693" lon="4.21032">
        <ele>690.945156959</ele>
        <time>2011-03-11T15:31:16.505Z</time>
      </trkpt>
      <trkpt lat="45.34695" lon="4.21033">
        <ele>692.089994303</ele>
        <time>2011-03-11T15:31:19.534Z</time>
      </trkpt>
      <trkpt lat="45.34699" lon="4.21036">
        <ele>692.793326823</ele>
        <time>2011-03-11T15:31:23.537Z</time>
      </trkpt>
      <trkpt lat="45.34703" lon="4.21037">
        <ele>692.85666097</ele>
        <time>2011-03-11T15:31:25.537Z</time>
      </trkpt>
      <trkpt lat="45.34705" lon="4.21038">
        <ele>692.909995524</ele>
        <time>2011-03-11T15:31:26.980Z</time>
      </trkpt>
      <trkpt lat="45.34706" lon="4.21038">
        <ele>692.976662191</ele>
        <time>2011-03-11T15:31:28.513Z</time>
      </trkpt>
      <trkpt lat="45.34707" lon="4.21037">
        <ele>693.046663411</ele>
        <time>2011-03-11T15:31:29.533Z</time>
      </trkpt>
      <trkpt lat="45.34707" lon="4.21037">
        <ele>693.233331299</ele>
        <time>2011-03-11T15:31:31.528Z</time>
      </trkpt>
      <trkpt lat="45.34707" lon="4.21038">
        <ele>693.545160109</ele>
        <time>2011-03-11T15:31:33.542Z</time>
      </trkpt>
      <trkpt lat="45.34708" lon="4.21036">
        <ele>694.251612509</ele>
        <time>2011-03-11T15:31:35.508Z</time>
      </trkpt>
      <trkpt lat="45.3471" lon="4.21036">
        <ele>695.490000407</ele>
        <time>2011-03-11T15:31:38.525Z</time>
      </trkpt>
      <trkpt lat="45.3471" lon="4.21039">
        <ele>695.783333333</ele>
        <time>2011-03-11T15:31:39.538Z</time>
      </trkpt>
      <trkpt lat="45.3471" lon="4.2104">
        <ele>696.079998779</ele>
        <time>2011-03-11T15:31:40.543Z</time>
      </trkpt>
      <trkpt lat="45.3471" lon="4.21041">
        <ele>696.886667887</ele>
        <time>2011-03-11T15:31:44.525Z</time>
      </trkpt>
      <trkpt lat="45.3471" lon="4.21039">
        <ele>697.325807633</ele>
        <time>2011-03-11T15:31:48.511Z</time>
      </trkpt>
      <trkpt lat="45.3471" lon="4.2104">
        <ele>697.816668701</ele>
        <time>2011-03-11T15:31:51.544Z</time>
      </trkpt>
      <trkpt lat="45.3471" lon="4.2104">
        <ele>698.210001628</ele>
        <time>2011-03-11T15:31:53.580Z</time>
      </trkpt>
      <trkpt lat="45.3471" lon="4.2104">
        <ele>698.896771831</ele>
        <time>2011-03-11T15:31:57.514Z</time>
      </trkpt>
      <trkpt lat="45.3471" lon="4.2104">
        <ele>699.474191973</ele>
        <time>2011-03-11T15:32:00.525Z</time>
      </trkpt>
      <trkpt lat="45.3471" lon="4.2104">
        <ele>699.929027927</ele>
        <time>2011-03-11T15:32:03.538Z</time>
      </trkpt>
      <trkpt lat="45.3471" lon="4.2104">
        <ele>699.846661377</ele>
        <time>2011-03-11T15:32:06.542Z</time>
      </trkpt>
      <trkpt lat="45.3471" lon="4.2104">
        <ele>699.749993896</ele>
        <time>2011-03-11T15:32:08.639Z</time>
      </trkpt>
      <trkpt lat="45.34715" lon="4.21041">
        <ele>699.967736029</ele>
        <time>2011-03-11T15:32:11.515Z</time>
      </trkpt>
      <trkpt lat="45.34716" lon="4.2104">
        <ele>700.173325602</ele>
        <time>2011-03-11T15:32:12.515Z</time>
      </trkpt>
      <trkpt lat="45.34719" lon="4.21039">
        <ele>700.399991862</ele>
        <time>2011-03-11T15:32:13.545Z</time>
      </trkpt>
      <trkpt lat="45.34723" lon="4.21039">
        <ele>701.236659749</ele>
        <time>2011-03-11T15:32:16.529Z</time>
      </trkpt>
      <trkpt lat="45.34725" lon="4.2104">
        <ele>701.812897713</ele>
        <time>2011-03-11T15:32:18.506Z</time>
      </trkpt>
      <trkpt lat="45.34726" lon="4.21042">
        <ele>702.093541299</ele>
        <time>2011-03-11T15:32:19.532Z</time>
      </trkpt>
      <trkpt lat="45.34727" lon="4.21044">
        <ele>702.466660563</ele>
        <time>2011-03-11T15:32:20.555Z</time>
      </trkpt>
      <trkpt lat="45.34729" lon="4.21044">
        <ele>702.813328044</ele>
        <time>2011-03-11T15:32:21.573Z</time>
      </trkpt>
      <trkpt lat="45.34732" lon="4.21047">
        <ele>703.523329671</ele>
        <time>2011-03-11T15:32:23.990Z</time>
      </trkpt>
      <trkpt lat="45.34733" lon="4.21048">
        <ele>703.748383553</ele>
        <time>2011-03-11T15:32:24.500Z</time>
      </trkpt>
      <trkpt lat="45.34734" lon="4.2105">
        <ele>704.187094412</ele>
        <time>2011-03-11T15:32:25.515Z</time>
      </trkpt>
      <trkpt lat="45.34736" lon="4.21051">
        <ele>705.654838316</ele>
        <time>2011-03-11T15:32:28.514Z</time>
      </trkpt>
      <trkpt lat="45.34739" lon="4.21049">
        <ele>706.349997965</ele>
        <time>2011-03-11T15:32:29.581Z</time>
      </trkpt>
      <trkpt lat="45.34743" lon="4.21047">
        <ele>706.929998779</ele>
        <time>2011-03-11T15:32:30.531Z</time>
      </trkpt>
      <trkpt lat="45.34745" lon="4.21055">
        <ele>707.7935476</ele>
        <time>2011-03-11T15:32:32.508Z</time>
      </trkpt>
      <trkpt lat="45.34746" lon="4.21054">
        <ele>708.2935476</ele>
        <time>2011-03-11T15:32:33.536Z</time>
      </trkpt>
      <trkpt lat="45.34746" lon="4.21052">
        <ele>709.05</ele>
        <time>2011-03-11T15:32:34.537Z</time>
      </trkpt>
      <trkpt lat="45.34746" lon="4.21051">
        <ele>709.193548387</ele>
        <time>2011-03-11T15:32:35.544Z</time>
      </trkpt>
      <trkpt lat="45.34748" lon="4.21052">
        <ele>709.700000394</ele>
        <time>2011-03-11T15:32:36.537Z</time>
      </trkpt>
      <trkpt lat="45.34749" lon="4.2105">
        <ele>711.438710859</ele>
        <time>2011-03-11T15:32:39.544Z</time>
      </trkpt>
      <trkpt lat="45.34749" lon="4.21049">
        <ele>712.326668294</ele>
        <time>2011-03-11T15:32:40.533Z</time>
      </trkpt>
      <trkpt lat="45.3475" lon="4.21052">
        <ele>713.633335368</ele>
        <time>2011-03-11T15:32:42.532Z</time>
      </trkpt>
      <trkpt lat="45.34752" lon="4.21054">
        <ele>714.419356808</ele>
        <time>2011-03-11T15:32:44.531Z</time>
      </trkpt>
      <trkpt lat="45.34755" lon="4.21052">
        <ele>716.093334961</ele>
        <time>2011-03-11T15:32:47.554Z</time>
      </trkpt>
      <trkpt lat="45.34757" lon="4.21053">
        <ele>716.741937453</ele>
        <time>2011-03-11T15:32:49.531Z</time>
      </trkpt>
      <trkpt lat="45.34759" lon="4.21054">
        <ele>717.235487415</ele>
        <time>2011-03-11T15:32:50.536Z</time>
      </trkpt>
      <trkpt lat="45.34761" lon="4.21055">
        <ele>718.493336995</ele>
        <time>2011-03-11T15:32:52.535Z</time>
      </trkpt>
      <trkpt lat="45.34761" lon="4.21056">
        <ele>718.667746267</ele>
        <time>2011-03-11T15:32:53.542Z</time>
      </trkpt>
      <trkpt lat="45.34761" lon="4.21054">
        <ele>719.406671143</ele>
        <time>2011-03-11T15:32:54.546Z</time>
      </trkpt>
      <trkpt lat="45.34761" lon="4.21053">
        <ele>719.816670736</ele>
        <time>2011-03-11T15:32:55.534Z</time>
      </trkpt>
      <trkpt lat="45.34762" lon="4.21052">
        <ele>720.003228957</ele>
        <time>2011-03-11T15:32:56.515Z</time>
      </trkpt>
      <trkpt lat="45.34764" lon="4.2105">
        <ele>721.093336995</ele>
        <time>2011-03-11T15:32:58.534Z</time>
      </trkpt>
      <trkpt lat="45.34765" lon="4.21049">
        <ele>722.230004883</ele>
        <time>2011-03-11T15:33:01.556Z</time>
      </trkpt>
      <trkpt lat="45.34767" lon="4.2105">
        <ele>722.700004069</ele>
        <time>2011-03-11T15:33:02.533Z</time>
      </trkpt>
      <trkpt lat="45.34769" lon="4.21051">
        <ele>723.186669922</ele>
        <time>2011-03-11T15:33:03.543Z</time>
      </trkpt>
      <trkpt lat="45.3477" lon="4.2105">
        <ele>723.422583795</ele>
        <time>2011-03-11T15:33:04.516Z</time>
      </trkpt>
      <trkpt lat="45.34771" lon="4.21047">
        <ele>724.009680963</ele>
        <time>2011-03-11T15:33:05.532Z</time>
      </trkpt>
      <trkpt lat="45.34772" lon="4.21046">
        <ele>724.658067273</ele>
        <time>2011-03-11T15:33:06.537Z</time>
      </trkpt>
      <trkpt lat="45.34773" lon="4.21045">
        <ele>725.526670329</ele>
        <time>2011-03-11T15:33:07.557Z</time>
      </trkpt>
      <trkpt lat="45.34775" lon="4.21043">
        <ele>726.364517704</ele>
        <time>2011-03-11T15:33:09.533Z</time>
      </trkpt>
      <trkpt lat="45.34778" lon="4.21043">
        <ele>727.050002035</ele>
        <time>2011-03-11T15:33:10.552Z</time>
      </trkpt>
      <trkpt lat="45.34781" lon="4.21038">
        <ele>728.653336589</ele>
        <time>2011-03-11T15:33:14.546Z</time>
      </trkpt>
      <trkpt lat="45.34783" lon="4.21037">
        <ele>728.880648705</ele>
        <time>2011-03-11T15:33:15.527Z</time>
      </trkpt>
      <trkpt lat="45.34783" lon="4.21039">
        <ele>729.261293473</ele>
        <time>2011-03-11T15:33:16.524Z</time>
      </trkpt>
      <trkpt lat="45.34785" lon="4.21038">
        <ele>730.346669515</ele>
        <time>2011-03-11T15:33:18.546Z</time>
      </trkpt>
      <trkpt lat="45.34785" lon="4.21038">
        <ele>731.400002035</ele>
        <time>2011-03-11T15:33:20.537Z</time>
      </trkpt>
      <trkpt lat="45.34788" lon="4.21038">
        <ele>731.893334961</ele>
        <time>2011-03-11T15:33:21.572Z</time>
      </trkpt>
      <trkpt lat="45.34789" lon="4.21038">
        <ele>732.350002035</ele>
        <time>2011-03-11T15:33:22.542Z</time>
      </trkpt>
      <trkpt lat="45.34791" lon="4.21037">
        <ele>732.836667887</ele>
        <time>2011-03-11T15:33:23.560Z</time>
      </trkpt>
      <trkpt lat="45.34792" lon="4.21035">
        <ele>732.970968923</ele>
        <time>2011-03-11T15:33:24.534Z</time>
      </trkpt>
      <trkpt lat="45.34793" lon="4.21035">
        <ele>733.640000407</ele>
        <time>2011-03-11T15:33:25.970Z</time>
      </trkpt>
      <trkpt lat="45.34795" lon="4.21035">
        <ele>733.993334961</ele>
        <time>2011-03-11T15:33:26.524Z</time>
      </trkpt>
      <trkpt lat="45.34796" lon="4.21036">
        <ele>734.370969711</ele>
        <time>2011-03-11T15:33:28.520Z</time>
      </trkpt>
      <trkpt lat="45.34798" lon="4.21036">
        <ele>734.590324156</ele>
        <time>2011-03-11T15:33:29.534Z</time>
      </trkpt>
      <trkpt lat="45.34802" lon="4.21037">
        <ele>735.030002848</ele>
        <time>2011-03-11T15:33:30.539Z</time>
      </trkpt>
      <trkpt lat="45.34803" lon="4.21039">
        <ele>735.032260033</ele>
        <time>2011-03-11T15:33:31.551Z</time>
      </trkpt>
      <trkpt lat="45.34807" lon="4.21038">
        <ele>735.410001628</ele>
        <time>2011-03-11T15:33:32.544Z</time>
      </trkpt>
      <trkpt lat="45.34809" lon="4.21037">
        <ele>735.496669515</ele>
        <time>2011-03-11T15:33:33.555Z</time>
      </trkpt>
      <trkpt lat="45.34811" lon="4.21037">
        <ele>735.560003662</ele>
        <time>2011-03-11T15:33:34.553Z</time>
      </trkpt>
      <trkpt lat="45.34814" lon="4.21037">
        <ele>735.403227775</ele>
        <time>2011-03-11T15:33:36.528Z</time>
      </trkpt>
      <trkpt lat="45.34816" lon="4.21038">
        <ele>735.332261608</ele>
        <time>2011-03-11T15:33:37.544Z</time>
      </trkpt>
      <trkpt lat="45.34818" lon="4.21039">
        <ele>735.273337809</ele>
        <time>2011-03-11T15:33:38.553Z</time>
      </trkpt>
      <trkpt lat="45.34821" lon="4.21042">
        <ele>734.93226279</ele>
        <time>2011-03-11T15:33:40.541Z</time>
      </trkpt>
      <trkpt lat="45.34824" lon="4.21047">
        <ele>734.723337809</ele>
        <time>2011-03-11T15:33:41.563Z</time>
      </trkpt>
      <trkpt lat="45.34824" lon="4.21048">
        <ele>734.466670736</ele>
        <time>2011-03-11T15:33:42.590Z</time>
      </trkpt>
      <trkpt lat="45.34825" lon="4.2105">
        <ele>734.180004883</ele>
        <time>2011-03-11T15:33:43.569Z</time>
      </trkpt>
      <trkpt lat="45.34827" lon="4.21051">
        <ele>733.916133758</ele>
        <time>2011-03-11T15:33:44.538Z</time>
      </trkpt>
      <trkpt lat="45.34829" lon="4.21053">
        <ele>733.553336589</ele>
        <time>2011-03-11T15:33:45.545Z</time>
      </trkpt>
      <trkpt lat="45.34832" lon="4.21053">
        <ele>732.933337402</ele>
        <time>2011-03-11T15:33:47.572Z</time>
      </trkpt>
      <trkpt lat="45.34833" lon="4.21054">
        <ele>732.687100318</ele>
        <time>2011-03-11T15:33:48.532Z</time>
      </trkpt>
      <trkpt lat="45.34835" lon="4.21054">
        <ele>732.277422505</ele>
        <time>2011-03-11T15:33:49.533Z</time>
      </trkpt>
      <trkpt lat="45.34836" lon="4.21054">
        <ele>731.841938634</ele>
        <time>2011-03-11T15:33:50.532Z</time>
      </trkpt>
      <trkpt lat="45.34838" lon="4.21054">
        <ele>731.425808814</ele>
        <time>2011-03-11T15:33:51.546Z</time>
      </trkpt>
      <trkpt lat="45.34839" lon="4.21054">
        <ele>730.983872937</ele>
        <time>2011-03-11T15:33:52.524Z</time>
      </trkpt>
      <trkpt lat="45.34841" lon="4.21055">
        <ele>730.548389066</ele>
        <time>2011-03-11T15:33:53.535Z</time>
      </trkpt>
      <trkpt lat="45.34844" lon="4.21057">
        <ele>729.709679388</ele>
        <time>2011-03-11T15:33:55.535Z</time>
      </trkpt>
      <trkpt lat="45.34848" lon="4.21057">
        <ele>729.003226988</ele>
        <time>2011-03-11T15:33:57.493Z</time>
      </trkpt>
      <trkpt lat="45.34849" lon="4.21058">
        <ele>728.356667074</ele>
        <time>2011-03-11T15:33:58.531Z</time>
      </trkpt>
      <trkpt lat="45.34851" lon="4.21058">
        <ele>728.036667887</ele>
        <time>2011-03-11T15:33:59.545Z</time>
      </trkpt>
      <trkpt lat="45.34853" lon="4.2106">
        <ele>727.961291898</ele>
        <time>2011-03-11T15:34:00.530Z</time>
      </trkpt>
      <trkpt lat="45.34859" lon="4.21062">
        <ele>726.910001628</ele>
        <time>2011-03-11T15:34:03.594Z</time>
      </trkpt>
      <trkpt lat="45.3486" lon="4.21065">
        <ele>726.877421717</ele>
        <time>2011-03-11T15:34:04.543Z</time>
      </trkpt>
      <trkpt lat="45.34866" lon="4.21068">
        <ele>725.963334147</ele>
        <time>2011-03-11T15:34:07.574Z</time>
      </trkpt>
      <trkpt lat="45.34867" lon="4.21067">
        <ele>725.893548781</ele>
        <time>2011-03-11T15:34:08.544Z</time>
      </trkpt>
      <trkpt lat="45.34869" lon="4.21069">
        <ele>725.483333333</ele>
        <time>2011-03-11T15:34:09.552Z</time>
      </trkpt>
      <trkpt lat="45.34874" lon="4.21071">
        <ele>725.216129426</ele>
        <time>2011-03-11T15:34:12.540Z</time>
      </trkpt>
      <trkpt lat="45.34878" lon="4.21073">
        <ele>725.09666748</ele>
        <time>2011-03-11T15:34:15.565Z</time>
      </trkpt>
      <trkpt lat="45.3488" lon="4.21077">
        <ele>725.093549175</ele>
        <time>2011-03-11T15:34:17.549Z</time>
      </trkpt>
      <trkpt lat="45.34882" lon="4.21077">
        <ele>725.090002441</ele>
        <time>2011-03-11T15:34:18.542Z</time>
      </trkpt>
      <trkpt lat="45.34884" lon="4.21078">
        <ele>725.026670329</ele>
        <time>2011-03-11T15:34:20.539Z</time>
      </trkpt>
      <trkpt lat="45.34886" lon="4.21079">
        <ele>724.956671143</ele>
        <time>2011-03-11T15:34:21.553Z</time>
      </trkpt>
      <trkpt lat="45.34892" lon="4.2108">
        <ele>725.03548899</ele>
        <time>2011-03-11T15:34:25.495Z</time>
      </trkpt>
      <trkpt lat="45.34896" lon="4.2108">
        <ele>725.11667277</ele>
        <time>2011-03-11T15:34:27.499Z</time>
      </trkpt>
      <trkpt lat="45.34901" lon="4.21083">
        <ele>725.16667277</ele>
        <time>2011-03-11T15:34:29.570Z</time>
      </trkpt>
      <trkpt lat="45.34903" lon="4.21086">
        <ele>725.174200243</ele>
        <time>2011-03-11T15:34:30.512Z</time>
      </trkpt>
      <trkpt lat="45.34906" lon="4.21088">
        <ele>725.132263184</ele>
        <time>2011-03-11T15:34:32.502Z</time>
      </trkpt>
      <trkpt lat="45.34907" lon="4.21087">
        <ele>725.203231319</ele>
        <time>2011-03-11T15:34:33.497Z</time>
      </trkpt>
      <trkpt lat="45.34908" lon="4.21088">
        <ele>725.245166409</ele>
        <time>2011-03-11T15:34:34.504Z</time>
      </trkpt>
      <trkpt lat="45.3491" lon="4.21088">
        <ele>725.283874512</ele>
        <time>2011-03-11T15:34:35.498Z</time>
      </trkpt>
      <trkpt lat="45.34911" lon="4.21088">
        <ele>725.383873724</ele>
        <time>2011-03-11T15:34:36.498Z</time>
      </trkpt>
      <trkpt lat="45.34913" lon="4.21089">
        <ele>725.512905982</ele>
        <time>2011-03-11T15:34:37.501Z</time>
      </trkpt>
      <trkpt lat="45.34918" lon="4.21091">
        <ele>725.712906376</ele>
        <time>2011-03-11T15:34:38.526Z</time>
      </trkpt>
      <trkpt lat="45.3492" lon="4.21092">
        <ele>725.896777738</ele>
        <time>2011-03-11T15:34:39.548Z</time>
      </trkpt>
      <trkpt lat="45.34922" lon="4.21093">
        <ele>726.136669922</ele>
        <time>2011-03-11T15:34:40.545Z</time>
      </trkpt>
      <trkpt lat="45.34927" lon="4.21095">
        <ele>726.456669108</ele>
        <time>2011-03-11T15:34:42.780Z</time>
      </trkpt>
      <trkpt lat="45.34932" lon="4.21098">
        <ele>726.764520461</ele>
        <time>2011-03-11T15:34:44.537Z</time>
      </trkpt>
      <trkpt lat="45.34936" lon="4.21097">
        <ele>726.916133758</ele>
        <time>2011-03-11T15:34:45.552Z</time>
      </trkpt>
      <trkpt lat="45.34938" lon="4.211">
        <ele>727.109682145</ele>
        <time>2011-03-11T15:34:46.537Z</time>
      </trkpt>
      <trkpt lat="45.34938" lon="4.21102">
        <ele>727.346671549</ele>
        <time>2011-03-11T15:34:47.555Z</time>
      </trkpt>
      <trkpt lat="45.34939" lon="4.21102">
        <ele>727.422585764</ele>
        <time>2011-03-11T15:34:48.542Z</time>
      </trkpt>
      <trkpt lat="45.34941" lon="4.21103">
        <ele>727.570972073</ele>
        <time>2011-03-11T15:34:49.522Z</time>
      </trkpt>
      <trkpt lat="45.34944" lon="4.21108">
        <ele>727.693552325</ele>
        <time>2011-03-11T15:34:50.525Z</time>
      </trkpt>
      <trkpt lat="45.34946" lon="4.21111">
        <ele>727.993336995</ele>
        <time>2011-03-11T15:34:51.637Z</time>
      </trkpt>
      <trkpt lat="45.3495" lon="4.21112">
        <ele>728.143336995</ele>
        <time>2011-03-11T15:34:52.530Z</time>
      </trkpt>
      <trkpt lat="45.34952" lon="4.21114">
        <ele>728.276670329</ele>
        <time>2011-03-11T15:34:53.595Z</time>
      </trkpt>
      <trkpt lat="45.34957" lon="4.21116">
        <ele>728.396669515</ele>
        <time>2011-03-11T15:34:54.528Z</time>
      </trkpt>
      <trkpt lat="45.34966" lon="4.2113">
        <ele>728.683335368</ele>
        <time>2011-03-11T15:34:57.570Z</time>
      </trkpt>
      <trkpt lat="45.34969" lon="4.21131">
        <ele>728.696775375</ele>
        <time>2011-03-11T15:34:58.555Z</time>
      </trkpt>
      <trkpt lat="45.34972" lon="4.21134">
        <ele>728.735485446</ele>
        <time>2011-03-11T15:34:59.557Z</time>
      </trkpt>
      <trkpt lat="45.34976" lon="4.21139">
        <ele>728.959999593</ele>
        <time>2011-03-11T15:35:00.543Z</time>
      </trkpt>
      <trkpt lat="45.34984" lon="4.21149">
        <ele>729.153334554</ele>
        <time>2011-03-11T15:35:02.542Z</time>
      </trkpt>
      <trkpt lat="45.34994" lon="4.2116">
        <ele>729.076668294</ele>
        <time>2011-03-11T15:35:04.535Z</time>
      </trkpt>
      <trkpt lat="45.34998" lon="4.21163">
        <ele>729.020003255</ele>
        <time>2011-03-11T15:35:05.663Z</time>
      </trkpt>
      <trkpt lat="45.35005" lon="4.2117">
        <ele>728.923337809</ele>
        <time>2011-03-11T15:35:06.595Z</time>
      </trkpt>
      <trkpt lat="45.35014" lon="4.21185">
        <ele>728.663338216</ele>
        <time>2011-03-11T15:35:08.713Z</time>
      </trkpt>
      <trkpt lat="45.35019" lon="4.21193">
        <ele>728.513338216</ele>
        <time>2011-03-11T15:35:09.607Z</time>
      </trkpt>
      <trkpt lat="45.35022" lon="4.21199">
        <ele>728.350004069</ele>
        <time>2011-03-11T15:35:10.566Z</time>
      </trkpt>
      <trkpt lat="45.35027" lon="4.21213">
        <ele>728.103338623</ele>
        <time>2011-03-11T15:35:11.699Z</time>
      </trkpt>
      <trkpt lat="45.35037" lon="4.21222">
        <ele>727.896779706</ele>
        <time>2011-03-11T15:35:12.576Z</time>
      </trkpt>
      <trkpt lat="45.35043" lon="4.21229">
        <ele>727.632263184</ele>
        <time>2011-03-11T15:35:13.539Z</time>
      </trkpt>
      <trkpt lat="45.35052" lon="4.21235">
        <ele>727.263338216</ele>
        <time>2011-03-11T15:35:14.540Z</time>
      </trkpt>
      <trkpt lat="45.35059" lon="4.21241">
        <ele>727.109682145</ele>
        <time>2011-03-11T15:35:15.547Z</time>
      </trkpt>
      <trkpt lat="45.35066" lon="4.21246">
        <ele>726.822584583</ele>
        <time>2011-03-11T15:35:16.532Z</time>
      </trkpt>
      <trkpt lat="45.35075" lon="4.21255">
        <ele>726.393336995</ele>
        <time>2011-03-11T15:35:17.558Z</time>
      </trkpt>
      <trkpt lat="45.35083" lon="4.21268">
        <ele>725.783337402</ele>
        <time>2011-03-11T15:35:19.553Z</time>
      </trkpt>
      <trkpt lat="45.35089" lon="4.21271">
        <ele>725.526670329</ele>
        <time>2011-03-11T15:35:20.570Z</time>
      </trkpt>
      <trkpt lat="45.35097" lon="4.2128">
        <ele>725.354842647</ele>
        <time>2011-03-11T15:35:21.586Z</time>
      </trkpt>
      <trkpt lat="45.35111" lon="4.21294">
        <ele>724.70322935</ele>
        <time>2011-03-11T15:35:23.564Z</time>
      </trkpt>
      <trkpt lat="45.35126" lon="4.21307">
        <ele>723.89355075</ele>
        <time>2011-03-11T15:35:25.526Z</time>
      </trkpt>
      <trkpt lat="45.3514" lon="4.21323">
        <ele>722.87419473</ele>
        <time>2011-03-11T15:35:27.567Z</time>
      </trkpt>
      <trkpt lat="45.35162" lon="4.21348">
        <ele>720.810003662</ele>
        <time>2011-03-11T15:35:30.595Z</time>
      </trkpt>
      <trkpt lat="45.35169" lon="4.21364">
        <ele>720.106669108</ele>
        <time>2011-03-11T15:35:31.604Z</time>
      </trkpt>
      <trkpt lat="45.35173" lon="4.21367">
        <ele>719.625809208</ele>
        <time>2011-03-11T15:35:32.539Z</time>
      </trkpt>
      <trkpt lat="45.35173" lon="4.21369">
        <ele>718.553336589</ele>
        <time>2011-03-11T15:35:33.576Z</time>
      </trkpt>
      <trkpt lat="45.35176" lon="4.21374">
        <ele>718.029035014</ele>
        <time>2011-03-11T15:35:34.531Z</time>
      </trkpt>
      <trkpt lat="45.35179" lon="4.21378">
        <ele>717.261293473</ele>
        <time>2011-03-11T15:35:35.557Z</time>
      </trkpt>
      <trkpt lat="45.35183" lon="4.21378">
        <ele>716.47742093</ele>
        <time>2011-03-11T15:35:36.536Z</time>
      </trkpt>
      <trkpt lat="45.35187" lon="4.21381">
        <ele>715.654840285</ele>
        <time>2011-03-11T15:35:37.539Z</time>
      </trkpt>
      <trkpt lat="45.35197" lon="4.21376">
        <ele>714.767743511</ele>
        <time>2011-03-11T15:35:38.537Z</time>
      </trkpt>
      <trkpt lat="45.35202" lon="4.21375">
        <ele>713.903227775</ele>
        <time>2011-03-11T15:35:39.521Z</time>
      </trkpt>
      <trkpt lat="45.35217" lon="4.2137">
        <ele>711.383871755</ele>
        <time>2011-03-11T15:35:42.533Z</time>
      </trkpt>
      <trkpt lat="45.35226" lon="4.21369">
        <ele>710.213334147</ele>
        <time>2011-03-11T15:35:43.574Z</time>
      </trkpt>
      <trkpt lat="45.35234" lon="4.2137">
        <ele>709.336665853</ele>
        <time>2011-03-11T15:35:44.576Z</time>
      </trkpt>
      <trkpt lat="45.35241" lon="4.21367">
        <ele>708.909675844</ele>
        <time>2011-03-11T15:35:45.547Z</time>
      </trkpt>
      <trkpt lat="45.35253" lon="4.21362">
        <ele>707.596665446</ele>
        <time>2011-03-11T15:35:46.535Z</time>
      </trkpt>
      <trkpt lat="45.35268" lon="4.21358">
        <ele>705.753330485</ele>
        <time>2011-03-11T15:35:48.537Z</time>
      </trkpt>
      <trkpt lat="45.35277" lon="4.21358">
        <ele>704.849997965</ele>
        <time>2011-03-11T15:35:49.565Z</time>
      </trkpt>
      <trkpt lat="45.35285" lon="4.21357">
        <ele>704.445158928</ele>
        <time>2011-03-11T15:35:50.513Z</time>
      </trkpt>
      <trkpt lat="45.35294" lon="4.21362">
        <ele>703.535481115</ele>
        <time>2011-03-11T15:35:51.542Z</time>
      </trkpt>
      <trkpt lat="45.35303" lon="4.21357">
        <ele>702.036663818</ele>
        <time>2011-03-11T15:35:52.549Z</time>
      </trkpt>
      <trkpt lat="45.35312" lon="4.21357">
        <ele>701.729029502</ele>
        <time>2011-03-11T15:35:53.555Z</time>
      </trkpt>
      <trkpt lat="45.35321" lon="4.21356">
        <ele>700.877415811</ele>
        <time>2011-03-11T15:35:54.524Z</time>
      </trkpt>
      <trkpt lat="45.35332" lon="4.21351">
        <ele>699.596663411</ele>
        <time>2011-03-11T15:35:55.546Z</time>
      </trkpt>
      <trkpt lat="45.35342" lon="4.21346">
        <ele>698.919997152</ele>
        <time>2011-03-11T15:35:56.571Z</time>
      </trkpt>
      <trkpt lat="45.35351" lon="4.21345">
        <ele>698.343330892</ele>
        <time>2011-03-11T15:35:57.580Z</time>
      </trkpt>
      <trkpt lat="45.35361" lon="4.21343">
        <ele>698.245158534</ele>
        <time>2011-03-11T15:35:58.542Z</time>
      </trkpt>
      <trkpt lat="45.35371" lon="4.21342">
        <ele>697.359997559</ele>
        <time>2011-03-11T15:35:59.565Z</time>
      </trkpt>
      <trkpt lat="45.35382" lon="4.21339">
        <ele>697.31612667</ele>
        <time>2011-03-11T15:36:00.545Z</time>
      </trkpt>
      <trkpt lat="45.35401" lon="4.21334">
        <ele>696.196665446</ele>
        <time>2011-03-11T15:36:02.543Z</time>
      </trkpt>
      <trkpt lat="45.35421" lon="4.21323">
        <ele>695.559997559</ele>
        <time>2011-03-11T15:36:04.546Z</time>
      </trkpt>
      <trkpt lat="45.3544" lon="4.2131">
        <ele>694.939996338</ele>
        <time>2011-03-11T15:36:06.548Z</time>
      </trkpt>
      <trkpt lat="45.35459" lon="4.21293">
        <ele>694.403330485</ele>
        <time>2011-03-11T15:36:08.569Z</time>
      </trkpt>
      <trkpt lat="45.35467" lon="4.21283">
        <ele>694.073331706</ele>
        <time>2011-03-11T15:36:09.546Z</time>
      </trkpt>
      <trkpt lat="45.35478" lon="4.21273">
        <ele>693.676664225</ele>
        <time>2011-03-11T15:36:10.544Z</time>
      </trkpt>
      <trkpt lat="45.35486" lon="4.21262">
        <ele>693.299997965</ele>
        <time>2011-03-11T15:36:11.545Z</time>
      </trkpt>
      <trkpt lat="45.35494" lon="4.21252">
        <ele>692.926664225</ele>
        <time>2011-03-11T15:36:12.599Z</time>
      </trkpt>
      <trkpt lat="45.35509" lon="4.21227">
        <ele>692.332255702</ele>
        <time>2011-03-11T15:36:14.559Z</time>
      </trkpt>
      <trkpt lat="45.35519" lon="4.21211">
        <ele>691.9</ele>
        <time>2011-03-11T15:36:15.559Z</time>
      </trkpt>
      <trkpt lat="45.35528" lon="4.21201">
        <ele>691.57666626</ele>
        <time>2011-03-11T15:36:16.546Z</time>
      </trkpt>
      <trkpt lat="45.35535" lon="4.21189">
        <ele>691.393548781</ele>
        <time>2011-03-11T15:36:17.566Z</time>
      </trkpt>
      <trkpt lat="45.35557" lon="4.21153">
        <ele>690.290000407</ele>
        <time>2011-03-11T15:36:20.551Z</time>
      </trkpt>
      <trkpt lat="45.35564" lon="4.21137">
        <ele>689.866666667</ele>
        <time>2011-03-11T15:36:21.580Z</time>
      </trkpt>
      <trkpt lat="45.3556" lon="4.21123">
        <ele>689.343332926</ele>
        <time>2011-03-11T15:36:22.550Z</time>
      </trkpt>
      <trkpt lat="45.35561" lon="4.21108">
        <ele>688.709999593</ele>
        <time>2011-03-11T15:36:23.556Z</time>
      </trkpt>
      <trkpt lat="45.3556" lon="4.21096">
        <ele>688.079998779</ele>
        <time>2011-03-11T15:36:24.547Z</time>
      </trkpt>
      <trkpt lat="45.3556" lon="4.21084">
        <ele>687.35</ele>
        <time>2011-03-11T15:36:25.554Z</time>
      </trkpt>
      <trkpt lat="45.35562" lon="4.21073">
        <ele>686.903225806</ele>
        <time>2011-03-11T15:36:26.555Z</time>
      </trkpt>
      <trkpt lat="45.35564" lon="4.21065">
        <ele>685.886665853</ele>
        <time>2011-03-11T15:36:27.994Z</time>
      </trkpt>
      <trkpt lat="45.35567" lon="4.21056">
        <ele>685.12333374</ele>
        <time>2011-03-11T15:36:28.554Z</time>
      </trkpt>
      <trkpt lat="45.3557" lon="4.21046">
        <ele>684.3</ele>
        <time>2011-03-11T15:36:29.585Z</time>
      </trkpt>
      <trkpt lat="45.35572" lon="4.21038">
        <ele>683.486665853</ele>
        <time>2011-03-11T15:36:30.553Z</time>
      </trkpt>
      <trkpt lat="45.35576" lon="4.21033">
        <ele>682.659997559</ele>
        <time>2011-03-11T15:36:31.558Z</time>
      </trkpt>
      <trkpt lat="45.35578" lon="4.21029">
        <ele>681.873331706</ele>
        <time>2011-03-11T15:36:32.555Z</time>
      </trkpt>
      <trkpt lat="45.3558" lon="4.21024">
        <ele>681.133331299</ele>
        <time>2011-03-11T15:36:33.564Z</time>
      </trkpt>
      <trkpt lat="45.35585" lon="4.2102">
        <ele>680.433331299</ele>
        <time>2011-03-11T15:36:34.548Z</time>
      </trkpt>
      <trkpt lat="45.35588" lon="4.21014">
        <ele>680.096772225</ele>
        <time>2011-03-11T15:36:35.547Z</time>
      </trkpt>
      <trkpt lat="45.35595" lon="4.21012">
        <ele>678.983333333</ele>
        <time>2011-03-11T15:36:36.552Z</time>
      </trkpt>
      <trkpt lat="45.35602" lon="4.21009">
        <ele>678.239998372</ele>
        <time>2011-03-11T15:36:37.575Z</time>
      </trkpt>
      <trkpt lat="45.35609" lon="4.21004">
        <ele>677.977416992</ele>
        <time>2011-03-11T15:36:38.553Z</time>
      </trkpt>
      <trkpt lat="45.35615" lon="4.20998">
        <ele>677.009995524</ele>
        <time>2011-03-11T15:36:39.555Z</time>
      </trkpt>
      <trkpt lat="45.35628" lon="4.20986">
        <ele>675.899997965</ele>
        <time>2011-03-11T15:36:41.554Z</time>
      </trkpt>
      <trkpt lat="45.35644" lon="4.20971">
        <ele>675.148386309</ele>
        <time>2011-03-11T15:36:43.565Z</time>
      </trkpt>
      <trkpt lat="45.35649" lon="4.20965">
        <ele>674.62580527</ele>
        <time>2011-03-11T15:36:44.556Z</time>
      </trkpt>
      <trkpt lat="45.35664" lon="4.20937">
        <ele>672.848382765</ele>
        <time>2011-03-11T15:36:47.558Z</time>
      </trkpt>
      <trkpt lat="45.35671" lon="4.20928">
        <ele>671.833329264</ele>
        <time>2011-03-11T15:36:48.565Z</time>
      </trkpt>
      <trkpt lat="45.35671" lon="4.20914">
        <ele>671.223329671</ele>
        <time>2011-03-11T15:36:49.571Z</time>
      </trkpt>
      <trkpt lat="45.35671" lon="4.20901">
        <ele>670.629996745</ele>
        <time>2011-03-11T15:36:50.553Z</time>
      </trkpt>
      <trkpt lat="45.3567" lon="4.20873">
        <ele>669.55333252</ele>
        <time>2011-03-11T15:36:52.558Z</time>
      </trkpt>
      <trkpt lat="45.35668" lon="4.20862">
        <ele>669.169999186</ele>
        <time>2011-03-11T15:36:53.576Z</time>
      </trkpt>
      <trkpt lat="45.35666" lon="4.20853">
        <ele>668.713334147</ele>
        <time>2011-03-11T15:36:54.582Z</time>
      </trkpt>
      <trkpt lat="45.35666" lon="4.20841">
        <ele>668.259999593</ele>
        <time>2011-03-11T15:36:55.566Z</time>
      </trkpt>
      <trkpt lat="45.35665" lon="4.2082">
        <ele>667.351613691</ele>
        <time>2011-03-11T15:36:57.599Z</time>
      </trkpt>
      <trkpt lat="45.35664" lon="4.208">
        <ele>666.2935476</ele>
        <time>2011-03-11T15:36:59.568Z</time>
      </trkpt>
      <trkpt lat="45.35664" lon="4.20788">
        <ele>665.822578676</ele>
        <time>2011-03-11T15:37:00.553Z</time>
      </trkpt>
      <trkpt lat="45.35666" lon="4.20779">
        <ele>665.12666626</ele>
        <time>2011-03-11T15:37:01.600Z</time>
      </trkpt>
      <trkpt lat="45.3567" lon="4.20768">
        <ele>664.616666667</ele>
        <time>2011-03-11T15:37:02.571Z</time>
      </trkpt>
      <trkpt lat="45.35672" lon="4.20758">
        <ele>664.1</ele>
        <time>2011-03-11T15:37:03.583Z</time>
      </trkpt>
      <trkpt lat="45.35677" lon="4.20752">
        <ele>663.559999593</ele>
        <time>2011-03-11T15:37:04.574Z</time>
      </trkpt>
      <trkpt lat="45.35678" lon="4.20744">
        <ele>663.056667074</ele>
        <time>2011-03-11T15:37:05.583Z</time>
      </trkpt>
      <trkpt lat="45.35681" lon="4.20736">
        <ele>662.793549568</ele>
        <time>2011-03-11T15:37:06.531Z</time>
      </trkpt>
      <trkpt lat="45.35685" lon="4.20725">
        <ele>662.296774587</ele>
        <time>2011-03-11T15:37:07.555Z</time>
      </trkpt>
      <trkpt lat="45.35685" lon="4.20719">
        <ele>661.563336182</ele>
        <time>2011-03-11T15:37:08.563Z</time>
      </trkpt>
      <trkpt lat="45.35689" lon="4.20713">
        <ele>661.126670329</ele>
        <time>2011-03-11T15:37:09.580Z</time>
      </trkpt>
      <trkpt lat="45.35691" lon="4.20706">
        <ele>661.012905982</ele>
        <time>2011-03-11T15:37:10.537Z</time>
      </trkpt>
      <trkpt lat="45.35695" lon="4.20693">
        <ele>659.883333333</ele>
        <time>2011-03-11T15:37:12.543Z</time>
      </trkpt>
      <trkpt lat="45.35701" lon="4.2069">
        <ele>659.52666626</ele>
        <time>2011-03-11T15:37:13.579Z</time>
      </trkpt>
      <trkpt lat="45.35707" lon="4.20679">
        <ele>659.143332926</ele>
        <time>2011-03-11T15:37:14.572Z</time>
      </trkpt>
      <trkpt lat="45.35711" lon="4.2067">
        <ele>659.04193509</ele>
        <time>2011-03-11T15:37:15.576Z</time>
      </trkpt>
      <trkpt lat="45.35712" lon="4.20659">
        <ele>658.290000407</ele>
        <time>2011-03-11T15:37:16.565Z</time>
      </trkpt>
      <trkpt lat="45.35716" lon="4.20644">
        <ele>657.860001628</ele>
        <time>2011-03-11T15:37:17.609Z</time>
      </trkpt>
      <trkpt lat="45.3572" lon="4.20632">
        <ele>657.426668294</ele>
        <time>2011-03-11T15:37:18.577Z</time>
      </trkpt>
      <trkpt lat="45.35724" lon="4.20625">
        <ele>656.976668294</ele>
        <time>2011-03-11T15:37:19.577Z</time>
      </trkpt>
      <trkpt lat="45.35729" lon="4.20616">
        <ele>656.49666748</ele>
        <time>2011-03-11T15:37:20.582Z</time>
      </trkpt>
      <trkpt lat="45.35736" lon="4.20606">
        <ele>656.04666748</ele>
        <time>2011-03-11T15:37:21.598Z</time>
      </trkpt>
      <trkpt lat="45.35742" lon="4.20598">
        <ele>655.570001221</ele>
        <time>2011-03-11T15:37:22.574Z</time>
      </trkpt>
      <trkpt lat="45.35757" lon="4.20581">
        <ele>654.493334961</ele>
        <time>2011-03-11T15:37:24.592Z</time>
      </trkpt>
      <trkpt lat="45.35778" lon="4.20557">
        <ele>653.216129426</ele>
        <time>2011-03-11T15:37:27.585Z</time>
      </trkpt>
      <trkpt lat="45.35785" lon="4.20548">
        <ele>652.909999593</ele>
        <time>2011-03-11T15:37:28.635Z</time>
      </trkpt>
      <trkpt lat="45.358" lon="4.20537">
        <ele>652.376668294</ele>
        <time>2011-03-11T15:37:30.870Z</time>
      </trkpt>
      <trkpt lat="45.35804" lon="4.20528">
        <ele>652.020001221</ele>
        <time>2011-03-11T15:37:32.369Z</time>
      </trkpt>
      <trkpt lat="45.35809" lon="4.2052">
        <ele>651.761291504</ele>
        <time>2011-03-11T15:37:32.512Z</time>
      </trkpt>
      <trkpt lat="45.35816" lon="4.20511">
        <ele>651.329032652</ele>
        <time>2011-03-11T15:37:33.582Z</time>
      </trkpt>
      <trkpt lat="45.35823" lon="4.20499">
        <ele>650.730002848</ele>
        <time>2011-03-11T15:37:34.603Z</time>
      </trkpt>
      <trkpt lat="45.35828" lon="4.20489">
        <ele>650.425808814</ele>
        <time>2011-03-11T15:37:35.530Z</time>
      </trkpt>
      <trkpt lat="45.3583" lon="4.2048">
        <ele>649.766666667</ele>
        <time>2011-03-11T15:37:36.559Z</time>
      </trkpt>
      <trkpt lat="45.35834" lon="4.2047">
        <ele>649.263334147</ele>
        <time>2011-03-11T15:37:37.662Z</time>
      </trkpt>
      <trkpt lat="45.35837" lon="4.20458">
        <ele>648.870967742</ele>
        <time>2011-03-11T15:37:38.549Z</time>
      </trkpt>
      <trkpt lat="45.35845" lon="4.20444">
        <ele>648.219354445</ele>
        <time>2011-03-11T15:37:39.566Z</time>
      </trkpt>
      <trkpt lat="45.35847" lon="4.20432">
        <ele>647.140000407</ele>
        <time>2011-03-11T15:37:40.566Z</time>
      </trkpt>
      <trkpt lat="45.35852" lon="4.20418">
        <ele>646.359999593</ele>
        <time>2011-03-11T15:37:41.608Z</time>
      </trkpt>
      <trkpt lat="45.35864" lon="4.20391">
        <ele>644.306453582</ele>
        <time>2011-03-11T15:37:44.545Z</time>
      </trkpt>
      <trkpt lat="45.35868" lon="4.20383">
        <ele>643.519357989</ele>
        <time>2011-03-11T15:37:45.563Z</time>
      </trkpt>
      <trkpt lat="45.35873" lon="4.20372">
        <ele>642.330004883</ele>
        <time>2011-03-11T15:37:46.568Z</time>
      </trkpt>
      <trkpt lat="45.35874" lon="4.20363">
        <ele>641.566670736</ele>
        <time>2011-03-11T15:37:47.625Z</time>
      </trkpt>
      <trkpt lat="45.35882" lon="4.20352">
        <ele>640.840002441</ele>
        <time>2011-03-11T15:37:48.613Z</time>
      </trkpt>
      <trkpt lat="45.35887" lon="4.20343">
        <ele>640.480647918</ele>
        <time>2011-03-11T15:37:49.563Z</time>
      </trkpt>
      <trkpt lat="45.35896" lon="4.20336">
        <ele>639.780647524</ele>
        <time>2011-03-11T15:37:50.573Z</time>
      </trkpt>
      <trkpt lat="45.35901" lon="4.20326">
        <ele>639.090324156</ele>
        <time>2011-03-11T15:37:51.548Z</time>
      </trkpt>
      <trkpt lat="45.35908" lon="4.20317">
        <ele>638.432258852</ele>
        <time>2011-03-11T15:37:52.524Z</time>
      </trkpt>
      <trkpt lat="45.35918" lon="4.20311">
        <ele>637.81290362</ele>
        <time>2011-03-11T15:37:53.556Z</time>
      </trkpt>
      <trkpt lat="45.35928" lon="4.20302">
        <ele>637.264516523</ele>
        <time>2011-03-11T15:37:54.557Z</time>
      </trkpt>
      <trkpt lat="45.35945" lon="4.20289">
        <ele>636.026668294</ele>
        <time>2011-03-11T15:37:56.547Z</time>
      </trkpt>
      <trkpt lat="45.35956" lon="4.20284">
        <ele>635.270001221</ele>
        <time>2011-03-11T15:37:57.621Z</time>
      </trkpt>
      <trkpt lat="45.35965" lon="4.20279">
        <ele>634.948387884</ele>
        <time>2011-03-11T15:37:58.557Z</time>
      </trkpt>
      <trkpt lat="45.35974" lon="4.20272">
        <ele>634.158065304</ele>
        <time>2011-03-11T15:37:59.599Z</time>
      </trkpt>
      <trkpt lat="45.35983" lon="4.20268">
        <ele>633.277418567</ele>
        <time>2011-03-11T15:38:00.593Z</time>
      </trkpt>
      <trkpt lat="45.35992" lon="4.20259">
        <ele>632.448385915</ele>
        <time>2011-03-11T15:38:01.594Z</time>
      </trkpt>
      <trkpt lat="45.36" lon="4.2025">
        <ele>631.306665039</ele>
        <time>2011-03-11T15:38:02.567Z</time>
      </trkpt>
      <trkpt lat="45.36006" lon="4.20244">
        <ele>630.958062941</ele>
        <time>2011-03-11T15:38:03.577Z</time>
      </trkpt>
      <trkpt lat="45.36019" lon="4.20232">
        <ele>629.049997965</ele>
        <time>2011-03-11T15:38:05.571Z</time>
      </trkpt>
      <trkpt lat="45.36025" lon="4.20226">
        <ele>628.27666626</ele>
        <time>2011-03-11T15:38:06.586Z</time>
      </trkpt>
      <trkpt lat="45.36028" lon="4.20219">
        <ele>627.864515735</ele>
        <time>2011-03-11T15:38:07.573Z</time>
      </trkpt>
      <trkpt lat="45.36029" lon="4.20211">
        <ele>626.67666626</ele>
        <time>2011-03-11T15:38:08.617Z</time>
      </trkpt>
      <trkpt lat="45.36033" lon="4.20204">
        <ele>625.913332113</ele>
        <time>2011-03-11T15:38:09.612Z</time>
      </trkpt>
      <trkpt lat="45.36031" lon="4.20204">
        <ele>625.10333252</ele>
        <time>2011-03-11T15:38:10.743Z</time>
      </trkpt>
      <trkpt lat="45.36028" lon="4.20201">
        <ele>624.190000407</ele>
        <time>2011-03-11T15:38:11.636Z</time>
      </trkpt>
      <trkpt lat="45.36027" lon="4.20197">
        <ele>623.24666748</ele>
        <time>2011-03-11T15:38:12.591Z</time>
      </trkpt>
      <trkpt lat="45.36026" lon="4.20189">
        <ele>622.27666626</ele>
        <time>2011-03-11T15:38:13.664Z</time>
      </trkpt>
      <trkpt lat="45.36021" lon="4.20172">
        <ele>620.226664225</ele>
        <time>2011-03-11T15:38:15.574Z</time>
      </trkpt>
      <trkpt lat="45.36016" lon="4.20153">
        <ele>618.590320218</ele>
        <time>2011-03-11T15:38:17.565Z</time>
      </trkpt>
      <trkpt lat="45.36008" lon="4.20152">
        <ele>617.554837135</ele>
        <time>2011-03-11T15:38:18.556Z</time>
      </trkpt>
      <trkpt lat="45.36007" lon="4.20149">
        <ele>616.063332113</ele>
        <time>2011-03-11T15:38:19.566Z</time>
      </trkpt>
      <trkpt lat="45.36003" lon="4.20143">
        <ele>615.451610934</ele>
        <time>2011-03-11T15:38:20.557Z</time>
      </trkpt>
      <trkpt lat="45.35997" lon="4.2014">
        <ele>613.913332113</ele>
        <time>2011-03-11T15:38:21.578Z</time>
      </trkpt>
      <trkpt lat="45.35994" lon="4.20136">
        <ele>612.783331299</ele>
        <time>2011-03-11T15:38:22.650Z</time>
      </trkpt>
      <trkpt lat="45.35991" lon="4.20132">
        <ele>611.613330078</ele>
        <time>2011-03-11T15:38:23.584Z</time>
      </trkpt>
      <trkpt lat="45.3599" lon="4.20128">
        <ele>610.416662598</ele>
        <time>2011-03-11T15:38:24.578Z</time>
      </trkpt>
      <trkpt lat="45.35987" lon="4.20126">
        <ele>609.209995524</ele>
        <time>2011-03-11T15:38:25.577Z</time>
      </trkpt>
      <trkpt lat="45.35984" lon="4.20123">
        <ele>608.039994303</ele>
        <time>2011-03-11T15:38:26.571Z</time>
      </trkpt>
      <trkpt lat="45.35982" lon="4.20117">
        <ele>606.939994303</ele>
        <time>2011-03-11T15:38:27.622Z</time>
      </trkpt>
      <trkpt lat="45.35976" lon="4.20111">
        <ele>605.25805861</ele>
        <time>2011-03-11T15:38:29.558Z</time>
      </trkpt>
      <trkpt lat="45.35974" lon="4.20107">
        <ele>604.074189217</ele>
        <time>2011-03-11T15:38:30.554Z</time>
      </trkpt>
      <trkpt lat="45.35972" lon="4.20103">
        <ele>602.887092836</ele>
        <time>2011-03-11T15:38:31.583Z</time>
      </trkpt>
      <trkpt lat="45.35966" lon="4.20096">
        <ele>599.656665039</ele>
        <time>2011-03-11T15:38:33.586Z</time>
      </trkpt>
      <trkpt lat="45.35967" lon="4.20092">
        <ele>598.313332113</ele>
        <time>2011-03-11T15:38:34.579Z</time>
      </trkpt>
      <trkpt lat="45.35966" lon="4.2009">
        <ele>597.026664225</ele>
        <time>2011-03-11T15:38:35.800Z</time>
      </trkpt>
      <trkpt lat="45.35964" lon="4.20089">
        <ele>596.416125882</ele>
        <time>2011-03-11T15:38:36.566Z</time>
      </trkpt>
      <trkpt lat="45.35961" lon="4.20087">
        <ele>594.493328857</ele>
        <time>2011-03-11T15:38:37.581Z</time>
      </trkpt>
      <trkpt lat="45.35958" lon="4.20085">
        <ele>593.929027927</ele>
        <time>2011-03-11T15:38:38.605Z</time>
      </trkpt>
      <trkpt lat="45.35955" lon="4.20085">
        <ele>592.735479539</ele>
        <time>2011-03-11T15:38:39.575Z</time>
      </trkpt>
      <trkpt lat="45.35952" lon="4.20082">
        <ele>591.593545237</ele>
        <time>2011-03-11T15:38:40.569Z</time>
      </trkpt>
      <trkpt lat="45.3595" lon="4.20079">
        <ele>590.509673088</ele>
        <time>2011-03-11T15:38:41.579Z</time>
      </trkpt>
      <trkpt lat="45.35947" lon="4.20077">
        <ele>589.499994093</ele>
        <time>2011-03-11T15:38:42.574Z</time>
      </trkpt>
      <trkpt lat="45.35944" lon="4.20073">
        <ele>588.525800151</ele>
        <time>2011-03-11T15:38:43.591Z</time>
      </trkpt>
      <trkpt lat="45.35939" lon="4.20069">
        <ele>587.56773721</ele>
        <time>2011-03-11T15:38:44.583Z</time>
      </trkpt>
      <trkpt lat="45.35932" lon="4.20069">
        <ele>586.099995931</ele>
        <time>2011-03-11T15:38:45.634Z</time>
      </trkpt>
      <trkpt lat="45.35927" lon="4.20065">
        <ele>585.641932334</ele>
        <time>2011-03-11T15:38:46.580Z</time>
      </trkpt>
      <trkpt lat="45.35919" lon="4.20064">
        <ele>584.143328857</ele>
        <time>2011-03-11T15:38:47.617Z</time>
      </trkpt>
      <trkpt lat="45.35913" lon="4.20062">
        <ele>583.186661784</ele>
        <time>2011-03-11T15:38:48.608Z</time>
      </trkpt>
      <trkpt lat="45.35914" lon="4.20048">
        <ele>582.283329264</ele>
        <time>2011-03-11T15:38:49.770Z</time>
      </trkpt>
      <trkpt lat="45.35909" lon="4.20043">
        <ele>581.929027927</ele>
        <time>2011-03-11T15:38:50.539Z</time>
      </trkpt>
      <trkpt lat="45.35905" lon="4.20039">
        <ele>581.090318249</ele>
        <time>2011-03-11T15:38:51.489Z</time>
      </trkpt>
      <trkpt lat="45.35902" lon="4.20034">
        <ele>580.280641617</ele>
        <time>2011-03-11T15:38:52.576Z</time>
      </trkpt>
      <trkpt lat="45.35906" lon="4.20029">
        <ele>579.126664225</ele>
        <time>2011-03-11T15:38:53.590Z</time>
      </trkpt>
      <trkpt lat="45.35908" lon="4.20022">
        <ele>578.439998372</ele>
        <time>2011-03-11T15:38:54.581Z</time>
      </trkpt>
      <trkpt lat="45.3591" lon="4.2002">
        <ele>578.12580527</ele>
        <time>2011-03-11T15:38:55.565Z</time>
      </trkpt>
      <trkpt lat="45.35912" lon="4.20019">
        <ele>577.33548269</ele>
        <time>2011-03-11T15:38:56.565Z</time>
      </trkpt>
      <trkpt lat="45.35914" lon="4.2002">
        <ele>576.493547993</ele>
        <time>2011-03-11T15:38:57.566Z</time>
      </trkpt>
      <trkpt lat="45.35918" lon="4.20021">
        <ele>575.20333252</ele>
        <time>2011-03-11T15:38:58.574Z</time>
      </trkpt>
      <trkpt lat="45.35922" lon="4.20021">
        <ele>574.483333333</ele>
        <time>2011-03-11T15:38:59.606Z</time>
      </trkpt>
      <trkpt lat="45.35927" lon="4.20018">
        <ele>573.819999186</ele>
        <time>2011-03-11T15:39:00.577Z</time>
      </trkpt>
      <trkpt lat="45.35934" lon="4.20021">
        <ele>573.209999593</ele>
        <time>2011-03-11T15:39:01.628Z</time>
      </trkpt>
      <trkpt lat="45.35948" lon="4.20026">
        <ele>572.216666667</ele>
        <time>2011-03-11T15:39:03.605Z</time>
      </trkpt>
      <trkpt lat="45.35954" lon="4.20026">
        <ele>571.803334554</ele>
        <time>2011-03-11T15:39:04.617Z</time>
      </trkpt>
      <trkpt lat="45.35962" lon="4.20027">
        <ele>571.645163259</ele>
        <time>2011-03-11T15:39:05.517Z</time>
      </trkpt>
      <trkpt lat="45.35977" lon="4.20029">
        <ele>570.663336182</ele>
        <time>2011-03-11T15:39:07.584Z</time>
      </trkpt>
      <trkpt lat="45.35988" lon="4.20031">
        <ele>570.532260033</ele>
        <time>2011-03-11T15:39:08.557Z</time>
      </trkpt>
      <trkpt lat="45.36004" lon="4.20034">
        <ele>569.576668294</ele>
        <time>2011-03-11T15:39:10.581Z</time>
      </trkpt>
      <trkpt lat="45.36011" lon="4.20038">
        <ele>569.451614872</ele>
        <time>2011-03-11T15:39:11.566Z</time>
      </trkpt>
      <trkpt lat="45.36021" lon="4.20036">
        <ele>568.860003662</ele>
        <time>2011-03-11T15:39:12.582Z</time>
      </trkpt>
      <trkpt lat="45.36029" lon="4.20036">
        <ele>568.729035408</ele>
        <time>2011-03-11T15:39:13.577Z</time>
      </trkpt>
      <trkpt lat="45.3604" lon="4.2004">
        <ele>568.37097168</ele>
        <time>2011-03-11T15:39:14.568Z</time>
      </trkpt>
      <trkpt lat="45.3606" lon="4.20049">
        <ele>567.540002441</ele>
        <time>2011-03-11T15:39:16.582Z</time>
      </trkpt>
      <trkpt lat="45.36071" lon="4.20053">
        <ele>567.338711646</ele>
        <time>2011-03-11T15:39:17.578Z</time>
      </trkpt>
      <trkpt lat="45.36082" lon="4.20059">
        <ele>566.970970892</ele>
        <time>2011-03-11T15:39:18.575Z</time>
      </trkpt>
      <trkpt lat="45.36093" lon="4.20066">
        <ele>566.587099137</ele>
        <time>2011-03-11T15:39:19.623Z</time>
      </trkpt>
      <trkpt lat="45.36103" lon="4.20073">
        <ele>565.970001221</ele>
        <time>2011-03-11T15:39:20.619Z</time>
      </trkpt>
      <trkpt lat="45.36111" lon="4.20079">
        <ele>565.466668701</ele>
        <time>2011-03-11T15:39:21.574Z</time>
      </trkpt>
      <trkpt lat="45.36121" lon="4.20085">
        <ele>564.943334961</ele>
        <time>2011-03-11T15:39:22.586Z</time>
      </trkpt>
      <trkpt lat="45.36129" lon="4.20094">
        <ele>564.596776162</ele>
        <time>2011-03-11T15:39:23.589Z</time>
      </trkpt>
      <trkpt lat="45.36135" lon="4.20101">
        <ele>563.733335368</ele>
        <time>2011-03-11T15:39:24.585Z</time>
      </trkpt>
      <trkpt lat="45.36141" lon="4.20108">
        <ele>563.206669108</ele>
        <time>2011-03-11T15:39:25.595Z</time>
      </trkpt>
      <trkpt lat="45.36146" lon="4.2012">
        <ele>562.580002848</ele>
        <time>2011-03-11T15:39:26.608Z</time>
      </trkpt>
      <trkpt lat="45.36149" lon="4.20127">
        <ele>561.983335368</ele>
        <time>2011-03-11T15:39:27.584Z</time>
      </trkpt>
      <trkpt lat="45.36152" lon="4.20128">
        <ele>561.290002441</ele>
        <time>2011-03-11T15:39:28.581Z</time>
      </trkpt>
      <trkpt lat="45.36156" lon="4.20131">
        <ele>560.777422505</ele>
        <time>2011-03-11T15:39:29.605Z</time>
      </trkpt>
      <trkpt lat="45.36157" lon="4.20126">
        <ele>560.032262002</ele>
        <time>2011-03-11T15:39:30.575Z</time>
      </trkpt>
      <trkpt lat="45.3616" lon="4.20119">
        <ele>559.380648705</ele>
        <time>2011-03-11T15:39:31.610Z</time>
      </trkpt>
      <trkpt lat="45.36163" lon="4.20116">
        <ele>558.370003255</ele>
        <time>2011-03-11T15:39:32.575Z</time>
      </trkpt>
      <trkpt lat="45.36168" lon="4.20119">
        <ele>557.845163653</ele>
        <time>2011-03-11T15:39:33.573Z</time>
      </trkpt>
      <trkpt lat="45.3617" lon="4.20115">
        <ele>556.630000814</ele>
        <time>2011-03-11T15:39:35.030Z</time>
      </trkpt>
      <trkpt lat="45.36173" lon="4.20111">
        <ele>555.716666667</ele>
        <time>2011-03-11T15:39:35.832Z</time>
      </trkpt>
      <trkpt lat="45.36173" lon="4.20106">
        <ele>554.75</ele>
        <time>2011-03-11T15:39:36.615Z</time>
      </trkpt>
      <trkpt lat="45.3617" lon="4.20098">
        <ele>553.7</ele>
        <time>2011-03-11T15:39:37.589Z</time>
      </trkpt>
      <trkpt lat="45.36169" lon="4.20089">
        <ele>552.590000407</ele>
        <time>2011-03-11T15:39:38.585Z</time>
      </trkpt>
      <trkpt lat="45.36169" lon="4.20076">
        <ele>551.509999593</ele>
        <time>2011-03-11T15:39:39.589Z</time>
      </trkpt>
      <trkpt lat="45.36175" lon="4.20063">
        <ele>550.40333252</ele>
        <time>2011-03-11T15:39:40.587Z</time>
      </trkpt>
      <trkpt lat="45.36187" lon="4.20042">
        <ele>548.123331706</ele>
        <time>2011-03-11T15:39:42.606Z</time>
      </trkpt>
      <trkpt lat="45.36199" lon="4.2002">
        <ele>545.763330078</ele>
        <time>2011-03-11T15:39:44.611Z</time>
      </trkpt>
      <trkpt lat="45.36219" lon="4.19971">
        <ele>541.745156565</ele>
        <time>2011-03-11T15:39:48.563Z</time>
      </trkpt>
      <trkpt lat="45.36224" lon="4.19958">
        <ele>540.664511404</ele>
        <time>2011-03-11T15:39:49.595Z</time>
      </trkpt>
      <trkpt lat="45.3623" lon="4.19929">
        <ele>537.989996338</ele>
        <time>2011-03-11T15:39:51.603Z</time>
      </trkpt>
      <trkpt lat="45.36234" lon="4.19916">
        <ele>537.548383159</ele>
        <time>2011-03-11T15:39:52.575Z</time>
      </trkpt>
      <trkpt lat="45.3624" lon="4.19895">
        <ele>535.883329264</ele>
        <time>2011-03-11T15:39:53.599Z</time>
      </trkpt>
      <trkpt lat="45.36242" lon="4.1988">
        <ele>534.739996338</ele>
        <time>2011-03-11T15:39:54.600Z</time>
      </trkpt>
      <trkpt lat="45.36247" lon="4.19865">
        <ele>534.206448463</ele>
        <time>2011-03-11T15:39:55.555Z</time>
      </trkpt>
      <trkpt lat="45.36251" lon="4.19852">
        <ele>533.08709323</ele>
        <time>2011-03-11T15:39:56.554Z</time>
      </trkpt>
      <trkpt lat="45.36253" lon="4.19847">
        <ele>532.064512191</ele>
        <time>2011-03-11T15:39:57.569Z</time>
      </trkpt>
      <trkpt lat="45.36257" lon="4.19838">
        <ele>530.493330892</ele>
        <time>2011-03-11T15:39:58.600Z</time>
      </trkpt>
      <trkpt lat="45.36265" lon="4.19825">
        <ele>528.369997152</ele>
        <time>2011-03-11T15:40:00.619Z</time>
      </trkpt>
      <trkpt lat="45.36265" lon="4.19825">
        <ele>527.835480721</ele>
        <time>2011-03-11T15:40:01.563Z</time>
      </trkpt>
      <trkpt lat="45.36264" lon="4.19822">
        <ele>526.635481311</ele>
        <time>2011-03-11T15:40:02.565Z</time>
      </trkpt>
      <trkpt lat="45.36269" lon="4.19817">
        <ele>524.896664429</ele>
        <time>2011-03-11T15:40:03.574Z</time>
      </trkpt>
      <trkpt lat="45.36274" lon="4.19816">
        <ele>524.390320809</ele>
        <time>2011-03-11T15:40:04.579Z</time>
      </trkpt>
      <trkpt lat="45.36278" lon="4.19815">
        <ele>523.338707709</ele>
        <time>2011-03-11T15:40:05.579Z</time>
      </trkpt>
      <trkpt lat="45.36282" lon="4.19817">
        <ele>522.335481705</ele>
        <time>2011-03-11T15:40:06.573Z</time>
      </trkpt>
      <trkpt lat="45.36286" lon="4.19817">
        <ele>520.896665446</ele>
        <time>2011-03-11T15:40:07.607Z</time>
      </trkpt>
      <trkpt lat="45.36292" lon="4.19816">
        <ele>520.069999186</ele>
        <time>2011-03-11T15:40:08.618Z</time>
      </trkpt>
      <trkpt lat="45.36297" lon="4.19816">
        <ele>519.664515341</ele>
        <time>2011-03-11T15:40:09.586Z</time>
      </trkpt>
      <trkpt lat="45.36303" lon="4.19817">
        <ele>518.806451613</ele>
        <time>2011-03-11T15:40:10.583Z</time>
      </trkpt>
      <trkpt lat="45.36308" lon="4.1982">
        <ele>518</ele>
        <time>2011-03-11T15:40:11.573Z</time>
      </trkpt>
      <trkpt lat="45.36314" lon="4.19824">
        <ele>517.222581433</ele>
        <time>2011-03-11T15:40:12.567Z</time>
      </trkpt>
      <trkpt lat="45.36326" lon="4.19824">
        <ele>515.703226397</ele>
        <time>2011-03-11T15:40:14.605Z</time>
      </trkpt>
      <trkpt lat="45.36332" lon="4.19827">
        <ele>515.01935602</ele>
        <time>2011-03-11T15:40:15.566Z</time>
      </trkpt>
      <trkpt lat="45.36338" lon="4.19825">
        <ele>513.963336182</ele>
        <time>2011-03-11T15:40:16.621Z</time>
      </trkpt>
      <trkpt lat="45.36343" lon="4.19824">
        <ele>513.323336792</ele>
        <time>2011-03-11T15:40:17.620Z</time>
      </trkpt>
      <trkpt lat="45.36355" lon="4.1982">
        <ele>512.406454763</ele>
        <time>2011-03-11T15:40:19.588Z</time>
      </trkpt>
      <trkpt lat="45.36361" lon="4.19819">
        <ele>511.316668701</ele>
        <time>2011-03-11T15:40:20.590Z</time>
      </trkpt>
      <trkpt lat="45.36373" lon="4.19817">
        <ele>510.558067076</ele>
        <time>2011-03-11T15:40:22.570Z</time>
      </trkpt>
      <trkpt lat="45.3638" lon="4.1982">
        <ele>509.636668905</ele>
        <time>2011-03-11T15:40:23.629Z</time>
      </trkpt>
      <trkpt lat="45.36394" lon="4.19823">
        <ele>508.866667684</ele>
        <time>2011-03-11T15:40:25.595Z</time>
      </trkpt>
      <trkpt lat="45.36403" lon="4.19828">
        <ele>508.42333374</ele>
        <time>2011-03-11T15:40:26.596Z</time>
      </trkpt>
      <trkpt lat="45.36409" lon="4.1983">
        <ele>507.986667887</ele>
        <time>2011-03-11T15:40:27.577Z</time>
      </trkpt>
      <trkpt lat="45.36417" lon="4.19831">
        <ele>507.851613691</ele>
        <time>2011-03-11T15:40:28.580Z</time>
      </trkpt>
      <trkpt lat="45.36432" lon="4.19836">
        <ele>507.13548328</ele>
        <time>2011-03-11T15:40:30.617Z</time>
      </trkpt>
      <trkpt lat="45.3644" lon="4.19839">
        <ele>506.593331909</ele>
        <time>2011-03-11T15:40:31.598Z</time>
      </trkpt>
      <trkpt lat="45.36446" lon="4.19843">
        <ele>506.329998779</ele>
        <time>2011-03-11T15:40:32.590Z</time>
      </trkpt>
      <trkpt lat="45.3646" lon="4.19848">
        <ele>505.806665039</ele>
        <time>2011-03-11T15:40:34.615Z</time>
      </trkpt>
      <trkpt lat="45.36477" lon="4.19857">
        <ele>505.076664225</ele>
        <time>2011-03-11T15:40:38.023Z</time>
      </trkpt>
      <trkpt lat="45.36489" lon="4.19865">
        <ele>504.429997762</ele>
        <time>2011-03-11T15:40:39.619Z</time>
      </trkpt>
      <trkpt lat="45.36501" lon="4.19874">
        <ele>503.786663818</ele>
        <time>2011-03-11T15:40:41.591Z</time>
      </trkpt>
      <trkpt lat="45.36518" lon="4.19887">
        <ele>502.841932727</ele>
        <time>2011-03-11T15:40:44.592Z</time>
      </trkpt>
      <trkpt lat="45.36524" lon="4.19891">
        <ele>502.329997762</ele>
        <time>2011-03-11T15:40:45.590Z</time>
      </trkpt>
      <trkpt lat="45.36529" lon="4.19895">
        <ele>502.112901257</ele>
        <time>2011-03-11T15:40:46.610Z</time>
      </trkpt>
      <trkpt lat="45.3654" lon="4.19903">
        <ele>501.36773977</ele>
        <time>2011-03-11T15:40:48.585Z</time>
      </trkpt>
      <trkpt lat="45.36564" lon="4.19917">
        <ele>499.813332113</ele>
        <time>2011-03-11T15:40:52.597Z</time>
      </trkpt>
      <trkpt lat="45.3657" lon="4.19921">
        <ele>499.635482296</ele>
        <time>2011-03-11T15:40:53.611Z</time>
      </trkpt>
      <trkpt lat="45.36574" lon="4.1992">
        <ele>499.293546615</ele>
        <time>2011-03-11T15:40:54.583Z</time>
      </trkpt>
      <trkpt lat="45.36579" lon="4.19923">
        <ele>498.769998169</ele>
        <time>2011-03-11T15:40:55.606Z</time>
      </trkpt>
      <trkpt lat="45.36591" lon="4.19929">
        <ele>498.443331909</ele>
        <time>2011-03-11T15:40:57.596Z</time>
      </trkpt>
      <trkpt lat="45.36596" lon="4.19934">
        <ele>498.306666056</ele>
        <time>2011-03-11T15:40:58.587Z</time>
      </trkpt>
      <trkpt lat="45.366" lon="4.19938">
        <ele>498.16333313</ele>
        <time>2011-03-11T15:40:59.590Z</time>
      </trkpt>
      <trkpt lat="45.36607" lon="4.19946">
        <ele>498.167741345</ele>
        <time>2011-03-11T15:41:01.595Z</time>
      </trkpt>
      <trkpt lat="45.36616" lon="4.1995">
        <ele>498.022580054</ele>
        <time>2011-03-11T15:41:03.565Z</time>
      </trkpt>
      <trkpt lat="45.36622" lon="4.19952">
        <ele>497.9483869</ele>
        <time>2011-03-11T15:41:04.565Z</time>
      </trkpt>
      <trkpt lat="45.36627" lon="4.19954">
        <ele>497.845161684</ele>
        <time>2011-03-11T15:41:05.548Z</time>
      </trkpt>
      <trkpt lat="45.36635" lon="4.19957">
        <ele>497.610001628</ele>
        <time>2011-03-11T15:41:06.725Z</time>
      </trkpt>
      <trkpt lat="45.36642" lon="4.19957">
        <ele>497.603227185</ele>
        <time>2011-03-11T15:41:07.547Z</time>
      </trkpt>
      <trkpt lat="45.36648" lon="4.19957">
        <ele>497.47742093</ele>
        <time>2011-03-11T15:41:08.565Z</time>
      </trkpt>
      <trkpt lat="45.36655" lon="4.19957">
        <ele>497.410001628</ele>
        <time>2011-03-11T15:41:09.640Z</time>
      </trkpt>
      <trkpt lat="45.36661" lon="4.19958">
        <ele>497.366668701</ele>
        <time>2011-03-11T15:41:10.836Z</time>
      </trkpt>
      <trkpt lat="45.36669" lon="4.19956">
        <ele>497.348388672</ele>
        <time>2011-03-11T15:41:11.515Z</time>
      </trkpt>
      <trkpt lat="45.36675" lon="4.19956">
        <ele>497.316130607</ele>
        <time>2011-03-11T15:41:12.556Z</time>
      </trkpt>
      <trkpt lat="45.36679" lon="4.19948">
        <ele>497.360001628</ele>
        <time>2011-03-11T15:41:13.612Z</time>
      </trkpt>
      <trkpt lat="45.36685" lon="4.19946">
        <ele>497.360001628</ele>
        <time>2011-03-11T15:41:14.750Z</time>
      </trkpt>
      <trkpt lat="45.36692" lon="4.19946">
        <ele>497.245162472</ele>
        <time>2011-03-11T15:41:15.547Z</time>
      </trkpt>
      <trkpt lat="45.36698" lon="4.19943">
        <ele>497.177420339</ele>
        <time>2011-03-11T15:41:16.604Z</time>
      </trkpt>
      <trkpt lat="45.36717" lon="4.1993">
        <ele>496.896774784</ele>
        <time>2011-03-11T15:41:19.546Z</time>
      </trkpt>
      <trkpt lat="45.36725" lon="4.19927">
        <ele>496.725806452</ele>
        <time>2011-03-11T15:41:20.586Z</time>
      </trkpt>
      <trkpt lat="45.36727" lon="4.19923">
        <ele>496.540000407</ele>
        <time>2011-03-11T15:41:21.612Z</time>
      </trkpt>
      <trkpt lat="45.36734" lon="4.19919">
        <ele>496.338709677</ele>
        <time>2011-03-11T15:41:22.585Z</time>
      </trkpt>
      <trkpt lat="45.36745" lon="4.19914">
        <ele>496.033333333</ele>
        <time>2011-03-11T15:41:24.609Z</time>
      </trkpt>
      <trkpt lat="45.36749" lon="4.19915">
        <ele>495.740000407</ele>
        <time>2011-03-11T15:41:25.649Z</time>
      </trkpt>
      <trkpt lat="45.36754" lon="4.19918">
        <ele>495.493333944</ele>
        <time>2011-03-11T15:41:26.666Z</time>
      </trkpt>
      <trkpt lat="45.36762" lon="4.19921">
        <ele>495.21000061</ele>
        <time>2011-03-11T15:41:27.628Z</time>
      </trkpt>
      <trkpt lat="45.36772" lon="4.19929">
        <ele>494.790322581</ele>
        <time>2011-03-11T15:41:29.578Z</time>
      </trkpt>
      <trkpt lat="45.36777" lon="4.1993">
        <ele>494.516129032</ele>
        <time>2011-03-11T15:41:30.569Z</time>
      </trkpt>
      <trkpt lat="45.36777" lon="4.19928">
        <ele>494.238709481</ele>
        <time>2011-03-11T15:41:31.579Z</time>
      </trkpt>
      <trkpt lat="45.36779" lon="4.19925">
        <ele>493.9483869</ele>
        <time>2011-03-11T15:41:32.581Z</time>
      </trkpt>
      <trkpt lat="45.36781" lon="4.19923">
        <ele>493.46333313</ele>
        <time>2011-03-11T15:41:33.599Z</time>
      </trkpt>
      <trkpt lat="45.36783" lon="4.19921">
        <ele>493.196666463</ele>
        <time>2011-03-11T15:41:34.635Z</time>
      </trkpt>
      <trkpt lat="45.36785" lon="4.19922">
        <ele>493.019999186</ele>
        <time>2011-03-11T15:41:35.594Z</time>
      </trkpt>
      <trkpt lat="45.36786" lon="4.19919">
        <ele>493.051612116</ele>
        <time>2011-03-11T15:41:36.594Z</time>
      </trkpt>
      <trkpt lat="45.36789" lon="4.19918">
        <ele>492.793331909</ele>
        <time>2011-03-11T15:41:37.593Z</time>
      </trkpt>
      <trkpt lat="45.3679" lon="4.19917">
        <ele>492.709998576</ele>
        <time>2011-03-11T15:41:38.598Z</time>
      </trkpt>
      <trkpt lat="45.36793" lon="4.19916">
        <ele>492.735482493</ele>
        <time>2011-03-11T15:41:39.587Z</time>
      </trkpt>
      <trkpt lat="45.36798" lon="4.19914">
        <ele>492.316665649</ele>
        <time>2011-03-11T15:41:41.592Z</time>
      </trkpt>
      <trkpt lat="45.36802" lon="4.19912">
        <ele>492.169999186</ele>
        <time>2011-03-11T15:41:43.009Z</time>
      </trkpt>
      <trkpt lat="45.36814" lon="4.1991">
        <ele>491.793331909</ele>
        <time>2011-03-11T15:41:45.554Z</time>
      </trkpt>
      <trkpt lat="45.36817" lon="4.19911">
        <ele>491.78386959</ele>
        <time>2011-03-11T15:41:46.598Z</time>
      </trkpt>
      <trkpt lat="45.36826" lon="4.1991">
        <ele>491.679998779</ele>
        <time>2011-03-11T15:41:48.591Z</time>
      </trkpt>
      <trkpt lat="45.36832" lon="4.19911">
        <ele>491.849998983</ele>
        <time>2011-03-11T15:41:50.626Z</time>
      </trkpt>
      <trkpt lat="45.36832" lon="4.19915">
        <ele>491.919353854</ele>
        <time>2011-03-11T15:41:51.602Z</time>
      </trkpt>
      <trkpt lat="45.36831" lon="4.19922">
        <ele>492.116665649</ele>
        <time>2011-03-11T15:41:52.618Z</time>
      </trkpt>
      <trkpt lat="45.36832" lon="4.19928">
        <ele>492.236665853</ele>
        <time>2011-03-11T15:41:53.612Z</time>
      </trkpt>
      <trkpt lat="45.36834" lon="4.19932">
        <ele>492.296773603</ele>
        <time>2011-03-11T15:41:54.602Z</time>
      </trkpt>
      <trkpt lat="45.36838" lon="4.19935">
        <ele>492.416128835</ele>
        <time>2011-03-11T15:41:55.591Z</time>
      </trkpt>
      <trkpt lat="45.36839" lon="4.19942">
        <ele>492.629031274</ele>
        <time>2011-03-11T15:41:57.585Z</time>
      </trkpt>
      <trkpt lat="45.36844" lon="4.1995">
        <ele>493.043331909</ele>
        <time>2011-03-11T15:41:59.619Z</time>
      </trkpt>
      <trkpt lat="45.36852" lon="4.19961">
        <ele>493.75333252</ele>
        <time>2011-03-11T15:42:03.608Z</time>
      </trkpt>
      <trkpt lat="45.36855" lon="4.1997">
        <ele>494.180643389</ele>
        <time>2011-03-11T15:42:06.594Z</time>
      </trkpt>
      <trkpt lat="45.36857" lon="4.19975">
        <ele>494.290320612</ele>
        <time>2011-03-11T15:42:07.562Z</time>
      </trkpt>
      <trkpt lat="45.3686" lon="4.19974">
        <ele>494.422578873</ele>
        <time>2011-03-11T15:42:08.559Z</time>
      </trkpt>
      <trkpt lat="45.36864" lon="4.1997">
        <ele>494.529030092</ele>
        <time>2011-03-11T15:42:09.560Z</time>
      </trkpt>
      <trkpt lat="45.36869" lon="4.19964">
        <ele>494.664514357</ele>
        <time>2011-03-11T15:42:10.559Z</time>
      </trkpt>
      <trkpt lat="45.36872" lon="4.19963">
        <ele>494.863331095</ele>
        <time>2011-03-11T15:42:11.604Z</time>
      </trkpt>
      <trkpt lat="45.36874" lon="4.19964">
        <ele>494.941932924</ele>
        <time>2011-03-11T15:42:12.587Z</time>
      </trkpt>
      <trkpt lat="45.36884" lon="4.19966">
        <ele>495.322578676</ele>
        <time>2011-03-11T15:42:14.552Z</time>
      </trkpt>
      <trkpt lat="45.36887" lon="4.19969">
        <ele>495.593331909</ele>
        <time>2011-03-11T15:42:15.572Z</time>
      </trkpt>
      <trkpt lat="45.36889" lon="4.19974">
        <ele>495.632256293</ele>
        <time>2011-03-11T15:42:16.565Z</time>
      </trkpt>
      <trkpt lat="45.36887" lon="4.19982">
        <ele>495.983331299</ele>
        <time>2011-03-11T15:42:17.601Z</time>
      </trkpt>
      <trkpt lat="45.36887" lon="4.19986">
        <ele>496.219997152</ele>
        <time>2011-03-11T15:42:18.615Z</time>
      </trkpt>
      <trkpt lat="45.36887" lon="4.1999">
        <ele>496.341932727</ele>
        <time>2011-03-11T15:42:19.589Z</time>
      </trkpt>
      <trkpt lat="45.36889" lon="4.19994">
        <ele>496.458061957</ele>
        <time>2011-03-11T15:42:20.590Z</time>
      </trkpt>
      <trkpt lat="45.36893" lon="4.20007">
        <ele>496.736664836</ele>
        <time>2011-03-11T15:42:22.637Z</time>
      </trkpt>
      <trkpt lat="45.36897" lon="4.20014">
        <ele>496.829997762</ele>
        <time>2011-03-11T15:42:24.603Z</time>
      </trkpt>
      <trkpt lat="45.36895" lon="4.20019">
        <ele>496.838707709</ele>
        <time>2011-03-11T15:42:26.581Z</time>
      </trkpt>
      <trkpt lat="45.36891" lon="4.2002">
        <ele>496.973331706</ele>
        <time>2011-03-11T15:42:27.983Z</time>
      </trkpt>
      <trkpt lat="45.36888" lon="4.20022">
        <ele>496.948385915</ele>
        <time>2011-03-11T15:42:28.538Z</time>
      </trkpt>
      <trkpt lat="45.36886" lon="4.20021">
        <ele>496.969999186</ele>
        <time>2011-03-11T15:42:29.662Z</time>
      </trkpt>
      <trkpt lat="45.36883" lon="4.2002">
        <ele>497.012902044</ele>
        <time>2011-03-11T15:42:30.591Z</time>
      </trkpt>
      <trkpt lat="45.36882" lon="4.20021">
        <ele>497.176665243</ele>
        <time>2011-03-11T15:42:31.603Z</time>
      </trkpt>
      <trkpt lat="45.3688" lon="4.20022">
        <ele>497.399997834</ele>
        <time>2011-03-11T15:42:33.554Z</time>
      </trkpt>
      <trkpt lat="45.36876" lon="4.20023">
        <ele>497.529030092</ele>
        <time>2011-03-11T15:42:34.585Z</time>
      </trkpt>
      <trkpt lat="45.36873" lon="4.20025">
        <ele>497.696665446</ele>
        <time>2011-03-11T15:42:35.613Z</time>
      </trkpt>
      <trkpt lat="45.36869" lon="4.20025">
        <ele>497.979998779</ele>
        <time>2011-03-11T15:42:37.569Z</time>
      </trkpt>
      <trkpt lat="45.36868" lon="4.20025">
        <ele>498.236665853</ele>
        <time>2011-03-11T15:42:39.564Z</time>
      </trkpt>
      <trkpt lat="45.36867" lon="4.20026">
        <ele>498.379998779</ele>
        <time>2011-03-11T15:42:40.563Z</time>
      </trkpt>
      <trkpt lat="45.36867" lon="4.20028">
        <ele>498.503225019</ele>
        <time>2011-03-11T15:42:41.573Z</time>
      </trkpt>
      <trkpt lat="45.3687" lon="4.20026">
        <ele>499.083332316</ele>
        <time>2011-03-11T15:42:44.930Z</time>
      </trkpt>
      <trkpt lat="45.3687" lon="4.20028">
        <ele>499.566665649</ele>
        <time>2011-03-11T15:42:46.640Z</time>
      </trkpt>
      <trkpt lat="45.36873" lon="4.20029">
        <ele>499.896772815</ele>
        <time>2011-03-11T15:42:48.561Z</time>
      </trkpt>
      <trkpt lat="45.36874" lon="4.20028">
        <ele>500.059998576</ele>
        <time>2011-03-11T15:42:49.603Z</time>
      </trkpt>
      <trkpt lat="45.36873" lon="4.20029">
        <ele>500.212901454</ele>
        <time>2011-03-11T15:42:50.527Z</time>
      </trkpt>
      <trkpt lat="45.36874" lon="4.20029">
        <ele>501.019997152</ele>
        <time>2011-03-11T15:42:54.243Z</time>
      </trkpt>
    </trkseg>
  </trk>
</gpx>